<?xml version="1.0" encoding="UTF-8" standalone="no" ?>
<gpx xmlns="http://www.topografix.com/GPX/1/1" xmlns:xsi="http://www.w3.org/2001/XMLSchema-instance" xsi:schemaLocation="http://www.topografix.com/GPX/1/1 http://www.topografix.com/GPX/1/1/gpx.xsd" version="1.1" creator="VisuGPX - https://www.visugpx.com">
  <metadata>
    <name>Cyclo - Week-end cyclo sur le Vercors Retour</name>
    <desc><![CDATA[Putain qui a inventé ce mistral de dingue !!!]]></desc>
  </metadata>
  <trk>
    <name><![CDATA[20-AOU-17 13:09:16]]></name>
    <trkseg>
      <trkpt lat="44.88072" lon="5.37622">
        <ele>1040.28</ele>
        <time>2017-08-20T06:46:39Z</time>
      </trkpt>
      <trkpt lat="44.88073" lon="5.37629">
        <ele>1040.28</ele>
        <time>2017-08-20T06:46:51Z</time>
      </trkpt>
      <trkpt lat="44.88075" lon="5.37634">
        <ele>1039.8</ele>
        <time>2017-08-20T06:46:54Z</time>
      </trkpt>
      <trkpt lat="44.8809" lon="5.37665">
        <ele>1037.4</ele>
        <time>2017-08-20T06:47:05Z</time>
      </trkpt>
      <trkpt lat="44.8809" lon="5.37666">
        <ele>1036.92</ele>
        <time>2017-08-20T06:47:11Z</time>
      </trkpt>
      <trkpt lat="44.88098" lon="5.37675">
        <ele>1036.92</ele>
        <time>2017-08-20T06:47:15Z</time>
      </trkpt>
      <trkpt lat="44.88103" lon="5.37677">
        <ele>1036.92</ele>
        <time>2017-08-20T06:47:16Z</time>
      </trkpt>
      <trkpt lat="44.88107" lon="5.37677">
        <ele>1035.96</ele>
        <time>2017-08-20T06:47:17Z</time>
      </trkpt>
      <trkpt lat="44.88112" lon="5.37676">
        <ele>1035.96</ele>
        <time>2017-08-20T06:47:18Z</time>
      </trkpt>
      <trkpt lat="44.88117" lon="5.37676">
        <ele>1035.48</ele>
        <time>2017-08-20T06:47:19Z</time>
      </trkpt>
      <trkpt lat="44.8821" lon="5.37648">
        <ele>1033.55</ele>
        <time>2017-08-20T06:47:36Z</time>
      </trkpt>
      <trkpt lat="44.88299" lon="5.37611">
        <ele>1032.11</ele>
        <time>2017-08-20T06:47:51Z</time>
      </trkpt>
      <trkpt lat="44.88386" lon="5.37532">
        <ele>1029.71</ele>
        <time>2017-08-20T06:48:07Z</time>
      </trkpt>
      <trkpt lat="44.88474" lon="5.37437">
        <ele>1027.79</ele>
        <time>2017-08-20T06:48:25Z</time>
      </trkpt>
      <trkpt lat="44.88487" lon="5.37416">
        <ele>1026.34</ele>
        <time>2017-08-20T06:48:28Z</time>
      </trkpt>
      <trkpt lat="44.88531" lon="5.37302">
        <ele>1025.86</ele>
        <time>2017-08-20T06:48:42Z</time>
      </trkpt>
      <trkpt lat="44.88576" lon="5.37183">
        <ele>1023.94</ele>
        <time>2017-08-20T06:48:57Z</time>
      </trkpt>
      <trkpt lat="44.88581" lon="5.37177">
        <ele>1023.94</ele>
        <time>2017-08-20T06:48:58Z</time>
      </trkpt>
      <trkpt lat="44.88586" lon="5.37172">
        <ele>1023.46</ele>
        <time>2017-08-20T06:48:59Z</time>
      </trkpt>
      <trkpt lat="44.88592" lon="5.37167">
        <ele>1023.94</ele>
        <time>2017-08-20T06:49:00Z</time>
      </trkpt>
      <trkpt lat="44.88598" lon="5.37164">
        <ele>1023.94</ele>
        <time>2017-08-20T06:49:01Z</time>
      </trkpt>
      <trkpt lat="44.88604" lon="5.3716">
        <ele>1023.94</ele>
        <time>2017-08-20T06:49:02Z</time>
      </trkpt>
      <trkpt lat="44.8861" lon="5.37158">
        <ele>1023.94</ele>
        <time>2017-08-20T06:49:03Z</time>
      </trkpt>
      <trkpt lat="44.88723" lon="5.37123">
        <ele>1022.98</ele>
        <time>2017-08-20T06:49:23Z</time>
      </trkpt>
      <trkpt lat="44.88807" lon="5.37065">
        <ele>1020.58</ele>
        <time>2017-08-20T06:49:38Z</time>
      </trkpt>
      <trkpt lat="44.88877" lon="5.37009">
        <ele>1018.65</ele>
        <time>2017-08-20T06:49:50Z</time>
      </trkpt>
      <trkpt lat="44.88884" lon="5.37008">
        <ele>1018.17</ele>
        <time>2017-08-20T06:49:51Z</time>
      </trkpt>
      <trkpt lat="44.8889" lon="5.37007">
        <ele>1018.17</ele>
        <time>2017-08-20T06:49:52Z</time>
      </trkpt>
      <trkpt lat="44.88896" lon="5.37008">
        <ele>1018.17</ele>
        <time>2017-08-20T06:49:53Z</time>
      </trkpt>
      <trkpt lat="44.88902" lon="5.37009">
        <ele>1018.17</ele>
        <time>2017-08-20T06:49:54Z</time>
      </trkpt>
      <trkpt lat="44.89019" lon="5.37022">
        <ele>1016.73</ele>
        <time>2017-08-20T06:50:13Z</time>
      </trkpt>
      <trkpt lat="44.8911" lon="5.37024">
        <ele>1015.77</ele>
        <time>2017-08-20T06:50:28Z</time>
      </trkpt>
      <trkpt lat="44.89199" lon="5.37032">
        <ele>1015.29</ele>
        <time>2017-08-20T06:50:42Z</time>
      </trkpt>
      <trkpt lat="44.89313" lon="5.37055">
        <ele>1013.85</ele>
        <time>2017-08-20T06:51:01Z</time>
      </trkpt>
      <trkpt lat="44.89382" lon="5.37068">
        <ele>1012.41</ele>
        <time>2017-08-20T06:51:12Z</time>
      </trkpt>
      <trkpt lat="44.89418" lon="5.37076">
        <ele>1011.93</ele>
        <time>2017-08-20T06:51:18Z</time>
      </trkpt>
      <trkpt lat="44.89429" lon="5.37078">
        <ele>1011.93</ele>
        <time>2017-08-20T06:51:20Z</time>
      </trkpt>
      <trkpt lat="44.89433" lon="5.37082">
        <ele>1011.93</ele>
        <time>2017-08-20T06:51:21Z</time>
      </trkpt>
      <trkpt lat="44.89435" lon="5.37088">
        <ele>1011.44</ele>
        <time>2017-08-20T06:51:22Z</time>
      </trkpt>
      <trkpt lat="44.89435" lon="5.37095">
        <ele>1011.93</ele>
        <time>2017-08-20T06:51:23Z</time>
      </trkpt>
      <trkpt lat="44.89434" lon="5.37102">
        <ele>1011.93</ele>
        <time>2017-08-20T06:51:24Z</time>
      </trkpt>
      <trkpt lat="44.89433" lon="5.37108">
        <ele>1011.93</ele>
        <time>2017-08-20T06:51:25Z</time>
      </trkpt>
      <trkpt lat="44.89432" lon="5.37115">
        <ele>1011.93</ele>
        <time>2017-08-20T06:51:26Z</time>
      </trkpt>
      <trkpt lat="44.8943" lon="5.37129">
        <ele>1012.41</ele>
        <time>2017-08-20T06:51:28Z</time>
      </trkpt>
      <trkpt lat="44.89428" lon="5.37135">
        <ele>1012.41</ele>
        <time>2017-08-20T06:51:29Z</time>
      </trkpt>
      <trkpt lat="44.89426" lon="5.37155">
        <ele>1012.41</ele>
        <time>2017-08-20T06:51:32Z</time>
      </trkpt>
      <trkpt lat="44.89425" lon="5.37163">
        <ele>1012.89</ele>
        <time>2017-08-20T06:51:33Z</time>
      </trkpt>
      <trkpt lat="44.89414" lon="5.37247">
        <ele>1014.81</ele>
        <time>2017-08-20T06:51:45Z</time>
      </trkpt>
      <trkpt lat="44.89409" lon="5.3728">
        <ele>1015.29</ele>
        <time>2017-08-20T06:51:50Z</time>
      </trkpt>
      <trkpt lat="44.89401" lon="5.37328">
        <ele>1016.25</ele>
        <time>2017-08-20T06:51:57Z</time>
      </trkpt>
      <trkpt lat="44.89399" lon="5.37334">
        <ele>1016.25</ele>
        <time>2017-08-20T06:51:58Z</time>
      </trkpt>
      <trkpt lat="44.89342" lon="5.37435">
        <ele>1016.73</ele>
        <time>2017-08-20T06:52:14Z</time>
      </trkpt>
      <trkpt lat="44.89284" lon="5.37541">
        <ele>1017.21</ele>
        <time>2017-08-20T06:52:30Z</time>
      </trkpt>
      <trkpt lat="44.89212" lon="5.37676">
        <ele>1018.17</ele>
        <time>2017-08-20T06:52:49Z</time>
      </trkpt>
      <trkpt lat="44.89209" lon="5.37683">
        <ele>1018.65</ele>
        <time>2017-08-20T06:52:50Z</time>
      </trkpt>
      <trkpt lat="44.89207" lon="5.37691">
        <ele>1018.65</ele>
        <time>2017-08-20T06:52:51Z</time>
      </trkpt>
      <trkpt lat="44.89201" lon="5.37721">
        <ele>1019.62</ele>
        <time>2017-08-20T06:52:55Z</time>
      </trkpt>
      <trkpt lat="44.89201" lon="5.37727">
        <ele>1019.62</ele>
        <time>2017-08-20T06:52:56Z</time>
      </trkpt>
      <trkpt lat="44.89195" lon="5.37782">
        <ele>1020.1</ele>
        <time>2017-08-20T06:53:05Z</time>
      </trkpt>
      <trkpt lat="44.89159" lon="5.37858">
        <ele>1023.46</ele>
        <time>2017-08-20T06:53:21Z</time>
      </trkpt>
      <trkpt lat="44.89145" lon="5.37887">
        <ele>1024.42</ele>
        <time>2017-08-20T06:53:27Z</time>
      </trkpt>
      <trkpt lat="44.89133" lon="5.3796">
        <ele>1027.79</ele>
        <time>2017-08-20T06:53:41Z</time>
      </trkpt>
      <trkpt lat="44.89132" lon="5.37975">
        <ele>1029.23</ele>
        <time>2017-08-20T06:53:44Z</time>
      </trkpt>
      <trkpt lat="44.8912" lon="5.38059">
        <ele>1030.67</ele>
        <time>2017-08-20T06:54:00Z</time>
      </trkpt>
      <trkpt lat="44.8909" lon="5.38129">
        <ele>1032.11</ele>
        <time>2017-08-20T06:54:14Z</time>
      </trkpt>
      <trkpt lat="44.89047" lon="5.38231">
        <ele>1033.55</ele>
        <time>2017-08-20T06:54:33Z</time>
      </trkpt>
      <trkpt lat="44.89017" lon="5.38303">
        <ele>1036.44</ele>
        <time>2017-08-20T06:54:47Z</time>
      </trkpt>
      <trkpt lat="44.88996" lon="5.38356">
        <ele>1036.92</ele>
        <time>2017-08-20T06:54:58Z</time>
      </trkpt>
      <trkpt lat="44.88973" lon="5.38403">
        <ele>1037.4</ele>
        <time>2017-08-20T06:55:07Z</time>
      </trkpt>
      <trkpt lat="44.88969" lon="5.38408">
        <ele>1037.4</ele>
        <time>2017-08-20T06:55:08Z</time>
      </trkpt>
      <trkpt lat="44.88891" lon="5.38481">
        <ele>1035.96</ele>
        <time>2017-08-20T06:55:23Z</time>
      </trkpt>
      <trkpt lat="44.88885" lon="5.38484">
        <ele>1035.96</ele>
        <time>2017-08-20T06:55:24Z</time>
      </trkpt>
      <trkpt lat="44.88778" lon="5.38543">
        <ele>1035</ele>
        <time>2017-08-20T06:55:40Z</time>
      </trkpt>
      <trkpt lat="44.88705" lon="5.38619">
        <ele>1035.48</ele>
        <time>2017-08-20T06:55:53Z</time>
      </trkpt>
      <trkpt lat="44.8864" lon="5.38701">
        <ele>1036.92</ele>
        <time>2017-08-20T06:56:08Z</time>
      </trkpt>
      <trkpt lat="44.88594" lon="5.3876">
        <ele>1040.28</ele>
        <time>2017-08-20T06:56:21Z</time>
      </trkpt>
      <trkpt lat="44.88535" lon="5.38838">
        <ele>1042.69</ele>
        <time>2017-08-20T06:56:38Z</time>
      </trkpt>
      <trkpt lat="44.88468" lon="5.38918">
        <ele>1042.69</ele>
        <time>2017-08-20T06:56:54Z</time>
      </trkpt>
      <trkpt lat="44.88386" lon="5.39006">
        <ele>1044.61</ele>
        <time>2017-08-20T06:57:12Z</time>
      </trkpt>
      <trkpt lat="44.88316" lon="5.39079">
        <ele>1047.49</ele>
        <time>2017-08-20T06:57:29Z</time>
      </trkpt>
      <trkpt lat="44.88289" lon="5.39117">
        <ele>1050.38</ele>
        <time>2017-08-20T06:57:42Z</time>
      </trkpt>
      <trkpt lat="44.88265" lon="5.39168">
        <ele>1053.26</ele>
        <time>2017-08-20T06:57:57Z</time>
      </trkpt>
      <trkpt lat="44.88245" lon="5.3921">
        <ele>1056.15</ele>
        <time>2017-08-20T06:58:10Z</time>
      </trkpt>
      <trkpt lat="44.88232" lon="5.39256">
        <ele>1058.55</ele>
        <time>2017-08-20T06:58:23Z</time>
      </trkpt>
      <trkpt lat="44.88228" lon="5.39296">
        <ele>1060.95</ele>
        <time>2017-08-20T06:58:34Z</time>
      </trkpt>
      <trkpt lat="44.88224" lon="5.39345">
        <ele>1063.36</ele>
        <time>2017-08-20T06:58:47Z</time>
      </trkpt>
      <trkpt lat="44.8822" lon="5.39393">
        <ele>1065.76</ele>
        <time>2017-08-20T06:58:59Z</time>
      </trkpt>
      <trkpt lat="44.88217" lon="5.39436">
        <ele>1067.68</ele>
        <time>2017-08-20T06:59:11Z</time>
      </trkpt>
      <trkpt lat="44.88202" lon="5.39482">
        <ele>1070.08</ele>
        <time>2017-08-20T06:59:24Z</time>
      </trkpt>
      <trkpt lat="44.88185" lon="5.39509">
        <ele>1071.53</ele>
        <time>2017-08-20T06:59:34Z</time>
      </trkpt>
      <trkpt lat="44.88159" lon="5.39535">
        <ele>1073.93</ele>
        <time>2017-08-20T06:59:46Z</time>
      </trkpt>
      <trkpt lat="44.88134" lon="5.39553">
        <ele>1075.85</ele>
        <time>2017-08-20T06:59:57Z</time>
      </trkpt>
      <trkpt lat="44.88113" lon="5.39567">
        <ele>1077.78</ele>
        <time>2017-08-20T07:00:08Z</time>
      </trkpt>
      <trkpt lat="44.88099" lon="5.3958">
        <ele>1079.7</ele>
        <time>2017-08-20T07:00:19Z</time>
      </trkpt>
      <trkpt lat="44.88098" lon="5.39581">
        <ele>1079.7</ele>
        <time>2017-08-20T07:00:20Z</time>
      </trkpt>
      <trkpt lat="44.88097" lon="5.39583">
        <ele>1080.18</ele>
        <time>2017-08-20T07:00:21Z</time>
      </trkpt>
      <trkpt lat="44.88065" lon="5.39619">
        <ele>1082.58</ele>
        <time>2017-08-20T07:00:33Z</time>
      </trkpt>
      <trkpt lat="44.88032" lon="5.39647">
        <ele>1084.5</ele>
        <time>2017-08-20T07:00:44Z</time>
      </trkpt>
      <trkpt lat="44.88004" lon="5.39677">
        <ele>1086.43</ele>
        <time>2017-08-20T07:00:57Z</time>
      </trkpt>
      <trkpt lat="44.88003" lon="5.3968">
        <ele>1086.91</ele>
        <time>2017-08-20T07:00:58Z</time>
      </trkpt>
      <trkpt lat="44.88002" lon="5.39683">
        <ele>1087.39</ele>
        <time>2017-08-20T07:00:59Z</time>
      </trkpt>
      <trkpt lat="44.88" lon="5.39685">
        <ele>1087.39</ele>
        <time>2017-08-20T07:01:00Z</time>
      </trkpt>
      <trkpt lat="44.87998" lon="5.39688">
        <ele>1087.39</ele>
        <time>2017-08-20T07:01:01Z</time>
      </trkpt>
      <trkpt lat="44.87997" lon="5.39691">
        <ele>1087.87</ele>
        <time>2017-08-20T07:01:02Z</time>
      </trkpt>
      <trkpt lat="44.87991" lon="5.39703">
        <ele>1088.35</ele>
        <time>2017-08-20T07:01:07Z</time>
      </trkpt>
      <trkpt lat="44.8799" lon="5.39706">
        <ele>1088.35</ele>
        <time>2017-08-20T07:01:08Z</time>
      </trkpt>
      <trkpt lat="44.87989" lon="5.39708">
        <ele>1088.83</ele>
        <time>2017-08-20T07:01:09Z</time>
      </trkpt>
      <trkpt lat="44.87987" lon="5.39711">
        <ele>1088.83</ele>
        <time>2017-08-20T07:01:10Z</time>
      </trkpt>
      <trkpt lat="44.87986" lon="5.39712">
        <ele>1089.31</ele>
        <time>2017-08-20T07:01:11Z</time>
      </trkpt>
      <trkpt lat="44.87985" lon="5.39713">
        <ele>1089.31</ele>
        <time>2017-08-20T07:01:12Z</time>
      </trkpt>
      <trkpt lat="44.87985" lon="5.39715">
        <ele>1089.31</ele>
        <time>2017-08-20T07:01:13Z</time>
      </trkpt>
      <trkpt lat="44.87981" lon="5.39726">
        <ele>1090.27</ele>
        <time>2017-08-20T07:01:18Z</time>
      </trkpt>
      <trkpt lat="44.87979" lon="5.39729">
        <ele>1090.75</ele>
        <time>2017-08-20T07:01:19Z</time>
      </trkpt>
      <trkpt lat="44.87977" lon="5.39731">
        <ele>1090.75</ele>
        <time>2017-08-20T07:01:20Z</time>
      </trkpt>
      <trkpt lat="44.87959" lon="5.39752">
        <ele>1093.16</ele>
        <time>2017-08-20T07:01:33Z</time>
      </trkpt>
      <trkpt lat="44.87932" lon="5.39778">
        <ele>1095.08</ele>
        <time>2017-08-20T07:01:42Z</time>
      </trkpt>
      <trkpt lat="44.87899" lon="5.39808">
        <ele>1097</ele>
        <time>2017-08-20T07:01:54Z</time>
      </trkpt>
      <trkpt lat="44.87879" lon="5.39826">
        <ele>1098.92</ele>
        <time>2017-08-20T07:02:04Z</time>
      </trkpt>
      <trkpt lat="44.87882" lon="5.39832">
        <ele>1100.85</ele>
        <time>2017-08-20T07:02:14Z</time>
      </trkpt>
      <trkpt lat="44.87883" lon="5.39834">
        <ele>1102.77</ele>
        <time>2017-08-20T07:02:27Z</time>
      </trkpt>
      <trkpt lat="44.87869" lon="5.39848">
        <ele>1103.25</ele>
        <time>2017-08-20T07:02:28Z</time>
      </trkpt>
      <trkpt lat="44.87851" lon="5.39864">
        <ele>1103.73</ele>
        <time>2017-08-20T07:02:31Z</time>
      </trkpt>
      <trkpt lat="44.87845" lon="5.39869">
        <ele>1103.73</ele>
        <time>2017-08-20T07:02:32Z</time>
      </trkpt>
      <trkpt lat="44.8784" lon="5.39874">
        <ele>1104.21</ele>
        <time>2017-08-20T07:02:33Z</time>
      </trkpt>
      <trkpt lat="44.87836" lon="5.39878">
        <ele>1104.21</ele>
        <time>2017-08-20T07:02:34Z</time>
      </trkpt>
      <trkpt lat="44.87832" lon="5.3988">
        <ele>1104.69</ele>
        <time>2017-08-20T07:02:35Z</time>
      </trkpt>
      <trkpt lat="44.87828" lon="5.39883">
        <ele>1104.69</ele>
        <time>2017-08-20T07:02:36Z</time>
      </trkpt>
      <trkpt lat="44.8779" lon="5.399">
        <ele>1107.1</ele>
        <time>2017-08-20T07:02:49Z</time>
      </trkpt>
      <trkpt lat="44.87754" lon="5.3991">
        <ele>1109.02</ele>
        <time>2017-08-20T07:03:01Z</time>
      </trkpt>
      <trkpt lat="44.87708" lon="5.39918">
        <ele>1111.42</ele>
        <time>2017-08-20T07:03:13Z</time>
      </trkpt>
      <trkpt lat="44.87681" lon="5.39918">
        <ele>1113.34</ele>
        <time>2017-08-20T07:03:24Z</time>
      </trkpt>
      <trkpt lat="44.87678" lon="5.39918">
        <ele>1113.34</ele>
        <time>2017-08-20T07:03:25Z</time>
      </trkpt>
      <trkpt lat="44.8765" lon="5.39928">
        <ele>1115.75</ele>
        <time>2017-08-20T07:03:38Z</time>
      </trkpt>
      <trkpt lat="44.87614" lon="5.39945">
        <ele>1118.63</ele>
        <time>2017-08-20T07:03:51Z</time>
      </trkpt>
      <trkpt lat="44.87594" lon="5.39956">
        <ele>1121.03</ele>
        <time>2017-08-20T07:04:03Z</time>
      </trkpt>
      <trkpt lat="44.87592" lon="5.39958">
        <ele>1121.03</ele>
        <time>2017-08-20T07:04:04Z</time>
      </trkpt>
      <trkpt lat="44.87589" lon="5.39959">
        <ele>1121.03</ele>
        <time>2017-08-20T07:04:05Z</time>
      </trkpt>
      <trkpt lat="44.87581" lon="5.39966">
        <ele>1122</ele>
        <time>2017-08-20T07:04:10Z</time>
      </trkpt>
      <trkpt lat="44.87578" lon="5.39968">
        <ele>1122</ele>
        <time>2017-08-20T07:04:11Z</time>
      </trkpt>
      <trkpt lat="44.87547" lon="5.39984">
        <ele>1123.92</ele>
        <time>2017-08-20T07:04:21Z</time>
      </trkpt>
      <trkpt lat="44.87517" lon="5.39975">
        <ele>1126.32</ele>
        <time>2017-08-20T07:04:31Z</time>
      </trkpt>
      <trkpt lat="44.87498" lon="5.39942">
        <ele>1128.24</ele>
        <time>2017-08-20T07:04:42Z</time>
      </trkpt>
      <trkpt lat="44.87486" lon="5.39909">
        <ele>1130.17</ele>
        <time>2017-08-20T07:04:52Z</time>
      </trkpt>
      <trkpt lat="44.87477" lon="5.39894">
        <ele>1131.61</ele>
        <time>2017-08-20T07:04:58Z</time>
      </trkpt>
      <trkpt lat="44.87475" lon="5.39893">
        <ele>1131.61</ele>
        <time>2017-08-20T07:04:59Z</time>
      </trkpt>
      <trkpt lat="44.87473" lon="5.39892">
        <ele>1131.61</ele>
        <time>2017-08-20T07:05:00Z</time>
      </trkpt>
      <trkpt lat="44.8747" lon="5.39893">
        <ele>1131.61</ele>
        <time>2017-08-20T07:05:01Z</time>
      </trkpt>
      <trkpt lat="44.87467" lon="5.39895">
        <ele>1132.09</ele>
        <time>2017-08-20T07:05:02Z</time>
      </trkpt>
      <trkpt lat="44.87466" lon="5.39897">
        <ele>1132.09</ele>
        <time>2017-08-20T07:05:03Z</time>
      </trkpt>
      <trkpt lat="44.87464" lon="5.399">
        <ele>1132.57</ele>
        <time>2017-08-20T07:05:04Z</time>
      </trkpt>
      <trkpt lat="44.87464" lon="5.39904">
        <ele>1132.57</ele>
        <time>2017-08-20T07:05:05Z</time>
      </trkpt>
      <trkpt lat="44.87463" lon="5.39907">
        <ele>1133.05</ele>
        <time>2017-08-20T07:05:06Z</time>
      </trkpt>
      <trkpt lat="44.87462" lon="5.39911">
        <ele>1133.05</ele>
        <time>2017-08-20T07:05:07Z</time>
      </trkpt>
      <trkpt lat="44.87461" lon="5.39914">
        <ele>1133.05</ele>
        <time>2017-08-20T07:05:08Z</time>
      </trkpt>
      <trkpt lat="44.87461" lon="5.39918">
        <ele>1133.05</ele>
        <time>2017-08-20T07:05:09Z</time>
      </trkpt>
      <trkpt lat="44.87461" lon="5.39922">
        <ele>1133.53</ele>
        <time>2017-08-20T07:05:10Z</time>
      </trkpt>
      <trkpt lat="44.8746" lon="5.39933">
        <ele>1134.01</ele>
        <time>2017-08-20T07:05:13Z</time>
      </trkpt>
      <trkpt lat="44.87459" lon="5.39936">
        <ele>1134.01</ele>
        <time>2017-08-20T07:05:14Z</time>
      </trkpt>
      <trkpt lat="44.87447" lon="5.39981">
        <ele>1135.94</ele>
        <time>2017-08-20T07:05:28Z</time>
      </trkpt>
      <trkpt lat="44.87439" lon="5.39993">
        <ele>1136.42</ele>
        <time>2017-08-20T07:05:33Z</time>
      </trkpt>
      <trkpt lat="44.87438" lon="5.39994">
        <ele>1136.9</ele>
        <time>2017-08-20T07:05:45Z</time>
      </trkpt>
      <trkpt lat="44.87437" lon="5.39997">
        <ele>1136.9</ele>
        <time>2017-08-20T07:06:00Z</time>
      </trkpt>
      <trkpt lat="44.87437" lon="5.39999">
        <ele>1137.38</ele>
        <time>2017-08-20T07:06:01Z</time>
      </trkpt>
      <trkpt lat="44.87424" lon="5.40042">
        <ele>1139.3</ele>
        <time>2017-08-20T07:06:14Z</time>
      </trkpt>
      <trkpt lat="44.87431" lon="5.40107">
        <ele>1142.18</ele>
        <time>2017-08-20T07:06:32Z</time>
      </trkpt>
      <trkpt lat="44.87462" lon="5.40153">
        <ele>1144.59</ele>
        <time>2017-08-20T07:06:48Z</time>
      </trkpt>
      <trkpt lat="44.87467" lon="5.40208">
        <ele>1146.99</ele>
        <time>2017-08-20T07:07:03Z</time>
      </trkpt>
      <trkpt lat="44.87463" lon="5.4025">
        <ele>1149.87</ele>
        <time>2017-08-20T07:07:15Z</time>
      </trkpt>
      <trkpt lat="44.87457" lon="5.40278">
        <ele>1150.84</ele>
        <time>2017-08-20T07:07:23Z</time>
      </trkpt>
      <trkpt lat="44.87447" lon="5.40325">
        <ele>1153.24</ele>
        <time>2017-08-20T07:07:36Z</time>
      </trkpt>
      <trkpt lat="44.87447" lon="5.40329">
        <ele>1153.72</ele>
        <time>2017-08-20T07:07:37Z</time>
      </trkpt>
      <trkpt lat="44.87453" lon="5.40352">
        <ele>1154.2</ele>
        <time>2017-08-20T07:07:43Z</time>
      </trkpt>
      <trkpt lat="44.8747" lon="5.40402">
        <ele>1157.08</ele>
        <time>2017-08-20T07:07:57Z</time>
      </trkpt>
      <trkpt lat="44.87474" lon="5.40413">
        <ele>1157.56</ele>
        <time>2017-08-20T07:08:00Z</time>
      </trkpt>
      <trkpt lat="44.87489" lon="5.40445">
        <ele>1159.49</ele>
        <time>2017-08-20T07:08:10Z</time>
      </trkpt>
      <trkpt lat="44.87506" lon="5.40496">
        <ele>1162.37</ele>
        <time>2017-08-20T07:08:25Z</time>
      </trkpt>
      <trkpt lat="44.87524" lon="5.4051">
        <ele>1163.81</ele>
        <time>2017-08-20T07:08:35Z</time>
      </trkpt>
      <trkpt lat="44.87526" lon="5.40511">
        <ele>1164.29</ele>
        <time>2017-08-20T07:08:36Z</time>
      </trkpt>
      <trkpt lat="44.87544" lon="5.40533">
        <ele>1165.74</ele>
        <time>2017-08-20T07:08:46Z</time>
      </trkpt>
      <trkpt lat="44.87555" lon="5.40546">
        <ele>1167.66</ele>
        <time>2017-08-20T07:08:55Z</time>
      </trkpt>
      <trkpt lat="44.87585" lon="5.40561">
        <ele>1169.58</ele>
        <time>2017-08-20T07:09:06Z</time>
      </trkpt>
      <trkpt lat="44.87614" lon="5.40577">
        <ele>1171.5</ele>
        <time>2017-08-20T07:09:17Z</time>
      </trkpt>
      <trkpt lat="44.87643" lon="5.40604">
        <ele>1172.95</ele>
        <time>2017-08-20T07:09:27Z</time>
      </trkpt>
      <trkpt lat="44.87661" lon="5.40619">
        <ele>1174.39</ele>
        <time>2017-08-20T07:09:34Z</time>
      </trkpt>
      <trkpt lat="44.87656" lon="5.40634">
        <ele>1175.83</ele>
        <time>2017-08-20T07:09:41Z</time>
      </trkpt>
      <trkpt lat="44.87623" lon="5.40611">
        <ele>1177.75</ele>
        <time>2017-08-20T07:09:54Z</time>
      </trkpt>
      <trkpt lat="44.87613" lon="5.40606">
        <ele>1178.71</ele>
        <time>2017-08-20T07:09:58Z</time>
      </trkpt>
      <trkpt lat="44.87588" lon="5.40599">
        <ele>1180.64</ele>
        <time>2017-08-20T07:10:08Z</time>
      </trkpt>
      <trkpt lat="44.87562" lon="5.40594">
        <ele>1182.08</ele>
        <time>2017-08-20T07:10:18Z</time>
      </trkpt>
      <trkpt lat="44.87533" lon="5.40582">
        <ele>1184</ele>
        <time>2017-08-20T07:10:29Z</time>
      </trkpt>
      <trkpt lat="44.87512" lon="5.40573">
        <ele>1185.92</ele>
        <time>2017-08-20T07:10:41Z</time>
      </trkpt>
      <trkpt lat="44.87498" lon="5.40572">
        <ele>1186.88</ele>
        <time>2017-08-20T07:10:50Z</time>
      </trkpt>
      <trkpt lat="44.87455" lon="5.40578">
        <ele>1189.77</ele>
        <time>2017-08-20T07:11:04Z</time>
      </trkpt>
      <trkpt lat="44.87425" lon="5.40579">
        <ele>1191.69</ele>
        <time>2017-08-20T07:11:16Z</time>
      </trkpt>
      <trkpt lat="44.87401" lon="5.40588">
        <ele>1192.65</ele>
        <time>2017-08-20T07:11:23Z</time>
      </trkpt>
      <trkpt lat="44.87372" lon="5.40603">
        <ele>1194.58</ele>
        <time>2017-08-20T07:11:33Z</time>
      </trkpt>
      <trkpt lat="44.87345" lon="5.40625">
        <ele>1196.98</ele>
        <time>2017-08-20T07:11:46Z</time>
      </trkpt>
      <trkpt lat="44.8731" lon="5.40653">
        <ele>1198.9</ele>
        <time>2017-08-20T07:11:56Z</time>
      </trkpt>
      <trkpt lat="44.87262" lon="5.40698">
        <ele>1200.34</ele>
        <time>2017-08-20T07:12:07Z</time>
      </trkpt>
      <trkpt lat="44.87246" lon="5.40714">
        <ele>1200.34</ele>
        <time>2017-08-20T07:12:11Z</time>
      </trkpt>
      <trkpt lat="44.87232" lon="5.40722">
        <ele>1200.34</ele>
        <time>2017-08-20T07:12:14Z</time>
      </trkpt>
      <trkpt lat="44.87227" lon="5.40724">
        <ele>1200.34</ele>
        <time>2017-08-20T07:12:15Z</time>
      </trkpt>
      <trkpt lat="44.87171" lon="5.40741">
        <ele>1200.82</ele>
        <time>2017-08-20T07:12:26Z</time>
      </trkpt>
      <trkpt lat="44.87152" lon="5.40744">
        <ele>1200.82</ele>
        <time>2017-08-20T07:12:30Z</time>
      </trkpt>
      <trkpt lat="44.87131" lon="5.40748">
        <ele>1200.82</ele>
        <time>2017-08-20T07:12:34Z</time>
      </trkpt>
      <trkpt lat="44.87113" lon="5.40747">
        <ele>1200.82</ele>
        <time>2017-08-20T07:12:37Z</time>
      </trkpt>
      <trkpt lat="44.87049" lon="5.40738">
        <ele>1200.82</ele>
        <time>2017-08-20T07:12:47Z</time>
      </trkpt>
      <trkpt lat="44.87043" lon="5.40737">
        <ele>1200.82</ele>
        <time>2017-08-20T07:12:48Z</time>
      </trkpt>
      <trkpt lat="44.87036" lon="5.40737">
        <ele>1200.82</ele>
        <time>2017-08-20T07:12:49Z</time>
      </trkpt>
      <trkpt lat="44.8703" lon="5.40737">
        <ele>1200.82</ele>
        <time>2017-08-20T07:12:50Z</time>
      </trkpt>
      <trkpt lat="44.87023" lon="5.40736">
        <ele>1200.82</ele>
        <time>2017-08-20T07:12:51Z</time>
      </trkpt>
      <trkpt lat="44.86935" lon="5.40725">
        <ele>1200.82</ele>
        <time>2017-08-20T07:13:05Z</time>
      </trkpt>
      <trkpt lat="44.86854" lon="5.40698">
        <ele>1201.3</ele>
        <time>2017-08-20T07:13:18Z</time>
      </trkpt>
      <trkpt lat="44.86838" lon="5.40688">
        <ele>1201.3</ele>
        <time>2017-08-20T07:13:21Z</time>
      </trkpt>
      <trkpt lat="44.86812" lon="5.40667">
        <ele>1201.3</ele>
        <time>2017-08-20T07:13:26Z</time>
      </trkpt>
      <trkpt lat="44.86783" lon="5.40655">
        <ele>1201.3</ele>
        <time>2017-08-20T07:13:31Z</time>
      </trkpt>
      <trkpt lat="44.86776" lon="5.40654">
        <ele>1201.3</ele>
        <time>2017-08-20T07:13:32Z</time>
      </trkpt>
      <trkpt lat="44.86771" lon="5.40653">
        <ele>1201.3</ele>
        <time>2017-08-20T07:13:33Z</time>
      </trkpt>
      <trkpt lat="44.86766" lon="5.40652">
        <ele>1201.3</ele>
        <time>2017-08-20T07:13:34Z</time>
      </trkpt>
      <trkpt lat="44.8676" lon="5.40651">
        <ele>1201.3</ele>
        <time>2017-08-20T07:13:35Z</time>
      </trkpt>
      <trkpt lat="44.86755" lon="5.40652">
        <ele>1201.79</ele>
        <time>2017-08-20T07:13:36Z</time>
      </trkpt>
      <trkpt lat="44.86749" lon="5.40654">
        <ele>1201.79</ele>
        <time>2017-08-20T07:13:37Z</time>
      </trkpt>
      <trkpt lat="44.86698" lon="5.40671">
        <ele>1201.79</ele>
        <time>2017-08-20T07:13:45Z</time>
      </trkpt>
      <trkpt lat="44.8668" lon="5.40669">
        <ele>1202.27</ele>
        <time>2017-08-20T07:13:48Z</time>
      </trkpt>
      <trkpt lat="44.86595" lon="5.40656">
        <ele>1202.27</ele>
        <time>2017-08-20T07:14:01Z</time>
      </trkpt>
      <trkpt lat="44.86582" lon="5.40651">
        <ele>1202.27</ele>
        <time>2017-08-20T07:14:03Z</time>
      </trkpt>
      <trkpt lat="44.86576" lon="5.40647">
        <ele>1202.27</ele>
        <time>2017-08-20T07:14:04Z</time>
      </trkpt>
      <trkpt lat="44.8657" lon="5.40641">
        <ele>1202.27</ele>
        <time>2017-08-20T07:14:05Z</time>
      </trkpt>
      <trkpt lat="44.86564" lon="5.40636">
        <ele>1202.75</ele>
        <time>2017-08-20T07:14:06Z</time>
      </trkpt>
      <trkpt lat="44.86558" lon="5.40631">
        <ele>1202.75</ele>
        <time>2017-08-20T07:14:07Z</time>
      </trkpt>
      <trkpt lat="44.86477" lon="5.40595">
        <ele>1202.75</ele>
        <time>2017-08-20T07:14:21Z</time>
      </trkpt>
      <trkpt lat="44.86465" lon="5.40595">
        <ele>1202.27</ele>
        <time>2017-08-20T07:14:23Z</time>
      </trkpt>
      <trkpt lat="44.86386" lon="5.40593">
        <ele>1202.27</ele>
        <time>2017-08-20T07:14:36Z</time>
      </trkpt>
      <trkpt lat="44.8638" lon="5.40592">
        <ele>1202.27</ele>
        <time>2017-08-20T07:14:37Z</time>
      </trkpt>
      <trkpt lat="44.86293" lon="5.40566">
        <ele>1202.75</ele>
        <time>2017-08-20T07:14:51Z</time>
      </trkpt>
      <trkpt lat="44.86233" lon="5.40555">
        <ele>1202.75</ele>
        <time>2017-08-20T07:15:00Z</time>
      </trkpt>
      <trkpt lat="44.86155" lon="5.40531">
        <ele>1202.75</ele>
        <time>2017-08-20T07:15:12Z</time>
      </trkpt>
      <trkpt lat="44.86125" lon="5.40517">
        <ele>1202.75</ele>
        <time>2017-08-20T07:15:17Z</time>
      </trkpt>
      <trkpt lat="44.86088" lon="5.40497">
        <ele>1203.23</ele>
        <time>2017-08-20T07:15:23Z</time>
      </trkpt>
      <trkpt lat="44.86082" lon="5.40496">
        <ele>1203.23</ele>
        <time>2017-08-20T07:15:24Z</time>
      </trkpt>
      <trkpt lat="44.86031" lon="5.40491">
        <ele>1203.23</ele>
        <time>2017-08-20T07:15:32Z</time>
      </trkpt>
      <trkpt lat="44.86019" lon="5.40486">
        <ele>1203.23</ele>
        <time>2017-08-20T07:15:34Z</time>
      </trkpt>
      <trkpt lat="44.86014" lon="5.40481">
        <ele>1203.23</ele>
        <time>2017-08-20T07:15:35Z</time>
      </trkpt>
      <trkpt lat="44.85982" lon="5.40455">
        <ele>1203.23</ele>
        <time>2017-08-20T07:15:41Z</time>
      </trkpt>
      <trkpt lat="44.85976" lon="5.40453">
        <ele>1203.71</ele>
        <time>2017-08-20T07:15:42Z</time>
      </trkpt>
      <trkpt lat="44.85964" lon="5.40451">
        <ele>1203.71</ele>
        <time>2017-08-20T07:15:44Z</time>
      </trkpt>
      <trkpt lat="44.85959" lon="5.4045">
        <ele>1203.71</ele>
        <time>2017-08-20T07:15:45Z</time>
      </trkpt>
      <trkpt lat="44.85935" lon="5.4045">
        <ele>1203.23</ele>
        <time>2017-08-20T07:15:49Z</time>
      </trkpt>
      <trkpt lat="44.85859" lon="5.40454">
        <ele>1203.23</ele>
        <time>2017-08-20T07:16:01Z</time>
      </trkpt>
      <trkpt lat="44.85846" lon="5.40452">
        <ele>1203.71</ele>
        <time>2017-08-20T07:16:03Z</time>
      </trkpt>
      <trkpt lat="44.8584" lon="5.4045">
        <ele>1203.71</ele>
        <time>2017-08-20T07:16:04Z</time>
      </trkpt>
      <trkpt lat="44.85835" lon="5.40447">
        <ele>1203.71</ele>
        <time>2017-08-20T07:16:05Z</time>
      </trkpt>
      <trkpt lat="44.8583" lon="5.40443">
        <ele>1203.71</ele>
        <time>2017-08-20T07:16:06Z</time>
      </trkpt>
      <trkpt lat="44.85825" lon="5.40439">
        <ele>1203.71</ele>
        <time>2017-08-20T07:16:07Z</time>
      </trkpt>
      <trkpt lat="44.85819" lon="5.40435">
        <ele>1203.71</ele>
        <time>2017-08-20T07:16:08Z</time>
      </trkpt>
      <trkpt lat="44.85814" lon="5.40432">
        <ele>1203.71</ele>
        <time>2017-08-20T07:16:09Z</time>
      </trkpt>
      <trkpt lat="44.85807" lon="5.4043">
        <ele>1203.71</ele>
        <time>2017-08-20T07:16:10Z</time>
      </trkpt>
      <trkpt lat="44.85801" lon="5.40429">
        <ele>1203.71</ele>
        <time>2017-08-20T07:16:11Z</time>
      </trkpt>
      <trkpt lat="44.85795" lon="5.40429">
        <ele>1204.19</ele>
        <time>2017-08-20T07:16:12Z</time>
      </trkpt>
      <trkpt lat="44.85789" lon="5.40429">
        <ele>1203.71</ele>
        <time>2017-08-20T07:16:13Z</time>
      </trkpt>
      <trkpt lat="44.85779" lon="5.40431">
        <ele>1203.71</ele>
        <time>2017-08-20T07:16:15Z</time>
      </trkpt>
      <trkpt lat="44.85742" lon="5.40442">
        <ele>1203.23</ele>
        <time>2017-08-20T07:16:21Z</time>
      </trkpt>
      <trkpt lat="44.85716" lon="5.40443">
        <ele>1203.23</ele>
        <time>2017-08-20T07:16:25Z</time>
      </trkpt>
      <trkpt lat="44.85709" lon="5.40441">
        <ele>1203.23</ele>
        <time>2017-08-20T07:16:26Z</time>
      </trkpt>
      <trkpt lat="44.85703" lon="5.40438">
        <ele>1203.23</ele>
        <time>2017-08-20T07:16:27Z</time>
      </trkpt>
      <trkpt lat="44.85697" lon="5.40433">
        <ele>1203.23</ele>
        <time>2017-08-20T07:16:28Z</time>
      </trkpt>
      <trkpt lat="44.85692" lon="5.40427">
        <ele>1203.23</ele>
        <time>2017-08-20T07:16:29Z</time>
      </trkpt>
      <trkpt lat="44.85664" lon="5.40401">
        <ele>1203.23</ele>
        <time>2017-08-20T07:16:34Z</time>
      </trkpt>
      <trkpt lat="44.85658" lon="5.40398">
        <ele>1203.23</ele>
        <time>2017-08-20T07:16:35Z</time>
      </trkpt>
      <trkpt lat="44.85652" lon="5.40396">
        <ele>1203.23</ele>
        <time>2017-08-20T07:16:36Z</time>
      </trkpt>
      <trkpt lat="44.85646" lon="5.40394">
        <ele>1203.71</ele>
        <time>2017-08-20T07:16:37Z</time>
      </trkpt>
      <trkpt lat="44.85639" lon="5.40394">
        <ele>1203.71</ele>
        <time>2017-08-20T07:16:38Z</time>
      </trkpt>
      <trkpt lat="44.85632" lon="5.40395">
        <ele>1203.23</ele>
        <time>2017-08-20T07:16:39Z</time>
      </trkpt>
      <trkpt lat="44.85626" lon="5.40397">
        <ele>1203.71</ele>
        <time>2017-08-20T07:16:40Z</time>
      </trkpt>
      <trkpt lat="44.8562" lon="5.40399">
        <ele>1203.23</ele>
        <time>2017-08-20T07:16:41Z</time>
      </trkpt>
      <trkpt lat="44.85613" lon="5.40402">
        <ele>1203.71</ele>
        <time>2017-08-20T07:16:42Z</time>
      </trkpt>
      <trkpt lat="44.85533" lon="5.40439">
        <ele>1203.71</ele>
        <time>2017-08-20T07:16:55Z</time>
      </trkpt>
      <trkpt lat="44.85449" lon="5.40446">
        <ele>1203.71</ele>
        <time>2017-08-20T07:17:07Z</time>
      </trkpt>
      <trkpt lat="44.85351" lon="5.40426">
        <ele>1203.71</ele>
        <time>2017-08-20T07:17:22Z</time>
      </trkpt>
      <trkpt lat="44.85272" lon="5.40411">
        <ele>1202.75</ele>
        <time>2017-08-20T07:17:34Z</time>
      </trkpt>
      <trkpt lat="44.85254" lon="5.40399">
        <ele>1202.27</ele>
        <time>2017-08-20T07:17:37Z</time>
      </trkpt>
      <trkpt lat="44.85247" lon="5.40397">
        <ele>1202.27</ele>
        <time>2017-08-20T07:17:38Z</time>
      </trkpt>
      <trkpt lat="44.8524" lon="5.40397">
        <ele>1202.27</ele>
        <time>2017-08-20T07:17:39Z</time>
      </trkpt>
      <trkpt lat="44.85225" lon="5.40401">
        <ele>1202.27</ele>
        <time>2017-08-20T07:17:41Z</time>
      </trkpt>
      <trkpt lat="44.85219" lon="5.40405">
        <ele>1202.27</ele>
        <time>2017-08-20T07:17:42Z</time>
      </trkpt>
      <trkpt lat="44.85213" lon="5.4041">
        <ele>1202.27</ele>
        <time>2017-08-20T07:17:43Z</time>
      </trkpt>
      <trkpt lat="44.85189" lon="5.40428">
        <ele>1201.3</ele>
        <time>2017-08-20T07:17:47Z</time>
      </trkpt>
      <trkpt lat="44.85183" lon="5.40432">
        <ele>1201.3</ele>
        <time>2017-08-20T07:17:48Z</time>
      </trkpt>
      <trkpt lat="44.85177" lon="5.40435">
        <ele>1201.3</ele>
        <time>2017-08-20T07:17:49Z</time>
      </trkpt>
      <trkpt lat="44.85111" lon="5.40447">
        <ele>1200.82</ele>
        <time>2017-08-20T07:17:58Z</time>
      </trkpt>
      <trkpt lat="44.8503" lon="5.40451">
        <ele>1199.86</ele>
        <time>2017-08-20T07:18:08Z</time>
      </trkpt>
      <trkpt lat="44.84974" lon="5.40453">
        <ele>1199.38</ele>
        <time>2017-08-20T07:18:15Z</time>
      </trkpt>
      <trkpt lat="44.84866" lon="5.40441">
        <ele>1197.94</ele>
        <time>2017-08-20T07:18:30Z</time>
      </trkpt>
      <trkpt lat="44.84806" lon="5.40452">
        <ele>1196.5</ele>
        <time>2017-08-20T07:18:38Z</time>
      </trkpt>
      <trkpt lat="44.84784" lon="5.40448">
        <ele>1196.5</ele>
        <time>2017-08-20T07:18:41Z</time>
      </trkpt>
      <trkpt lat="44.84768" lon="5.40442">
        <ele>1196.5</ele>
        <time>2017-08-20T07:18:43Z</time>
      </trkpt>
      <trkpt lat="44.8476" lon="5.40441">
        <ele>1196.5</ele>
        <time>2017-08-20T07:18:44Z</time>
      </trkpt>
      <trkpt lat="44.84753" lon="5.40441">
        <ele>1196.5</ele>
        <time>2017-08-20T07:18:45Z</time>
      </trkpt>
      <trkpt lat="44.84745" lon="5.40443">
        <ele>1196.5</ele>
        <time>2017-08-20T07:18:46Z</time>
      </trkpt>
      <trkpt lat="44.84738" lon="5.40446">
        <ele>1196.5</ele>
        <time>2017-08-20T07:18:47Z</time>
      </trkpt>
      <trkpt lat="44.84731" lon="5.4045">
        <ele>1196.02</ele>
        <time>2017-08-20T07:18:48Z</time>
      </trkpt>
      <trkpt lat="44.84724" lon="5.40453">
        <ele>1196.02</ele>
        <time>2017-08-20T07:18:49Z</time>
      </trkpt>
      <trkpt lat="44.84717" lon="5.40455">
        <ele>1196.02</ele>
        <time>2017-08-20T07:18:50Z</time>
      </trkpt>
      <trkpt lat="44.84709" lon="5.40456">
        <ele>1196.02</ele>
        <time>2017-08-20T07:18:51Z</time>
      </trkpt>
      <trkpt lat="44.84701" lon="5.40456">
        <ele>1196.02</ele>
        <time>2017-08-20T07:18:52Z</time>
      </trkpt>
      <trkpt lat="44.84694" lon="5.40455">
        <ele>1195.54</ele>
        <time>2017-08-20T07:18:53Z</time>
      </trkpt>
      <trkpt lat="44.84687" lon="5.40455">
        <ele>1195.54</ele>
        <time>2017-08-20T07:18:54Z</time>
      </trkpt>
      <trkpt lat="44.84679" lon="5.40456">
        <ele>1196.02</ele>
        <time>2017-08-20T07:18:55Z</time>
      </trkpt>
      <trkpt lat="44.84664" lon="5.40461">
        <ele>1195.54</ele>
        <time>2017-08-20T07:18:57Z</time>
      </trkpt>
      <trkpt lat="44.84615" lon="5.40476">
        <ele>1197.94</ele>
        <time>2017-08-20T07:19:06Z</time>
      </trkpt>
      <trkpt lat="44.84573" lon="5.40482">
        <ele>1201.3</ele>
        <time>2017-08-20T07:19:17Z</time>
      </trkpt>
      <trkpt lat="44.84538" lon="5.40487">
        <ele>1203.23</ele>
        <time>2017-08-20T07:19:27Z</time>
      </trkpt>
      <trkpt lat="44.84501" lon="5.40489">
        <ele>1205.63</ele>
        <time>2017-08-20T07:19:38Z</time>
      </trkpt>
      <trkpt lat="44.84455" lon="5.4049">
        <ele>1209</ele>
        <time>2017-08-20T07:19:53Z</time>
      </trkpt>
      <trkpt lat="44.84426" lon="5.40496">
        <ele>1210.92</ele>
        <time>2017-08-20T07:20:04Z</time>
      </trkpt>
      <trkpt lat="44.84402" lon="5.40502">
        <ele>1212.36</ele>
        <time>2017-08-20T07:20:13Z</time>
      </trkpt>
      <trkpt lat="44.84359" lon="5.40506">
        <ele>1214.76</ele>
        <time>2017-08-20T07:20:27Z</time>
      </trkpt>
      <trkpt lat="44.84317" lon="5.40506">
        <ele>1217.17</ele>
        <time>2017-08-20T07:20:42Z</time>
      </trkpt>
      <trkpt lat="44.8429" lon="5.40509">
        <ele>1219.09</ele>
        <time>2017-08-20T07:20:52Z</time>
      </trkpt>
      <trkpt lat="44.84256" lon="5.40519">
        <ele>1221.01</ele>
        <time>2017-08-20T07:21:04Z</time>
      </trkpt>
      <trkpt lat="44.84207" lon="5.40531">
        <ele>1223.42</ele>
        <time>2017-08-20T07:21:20Z</time>
      </trkpt>
      <trkpt lat="44.84179" lon="5.40542">
        <ele>1225.82</ele>
        <time>2017-08-20T07:21:31Z</time>
      </trkpt>
      <trkpt lat="44.84135" lon="5.40561">
        <ele>1228.7</ele>
        <time>2017-08-20T07:21:47Z</time>
      </trkpt>
      <trkpt lat="44.84092" lon="5.40582">
        <ele>1231.59</ele>
        <time>2017-08-20T07:22:03Z</time>
      </trkpt>
      <trkpt lat="44.84061" lon="5.40586">
        <ele>1233.99</ele>
        <time>2017-08-20T07:22:14Z</time>
      </trkpt>
      <trkpt lat="44.84042" lon="5.40553">
        <ele>1234.47</ele>
        <time>2017-08-20T07:22:24Z</time>
      </trkpt>
      <trkpt lat="44.84041" lon="5.4055">
        <ele>1234.47</ele>
        <time>2017-08-20T07:22:35Z</time>
      </trkpt>
      <trkpt lat="44.84041" lon="5.4055">
        <ele>1234.95</ele>
        <time>2017-08-20T07:23:04Z</time>
      </trkpt>
      <trkpt lat="44.84042" lon="5.4055">
        <ele>1235.43</ele>
        <time>2017-08-20T07:23:27Z</time>
      </trkpt>
      <trkpt lat="44.84042" lon="5.4055">
        <ele>1234.95</ele>
        <time>2017-08-20T07:23:33Z</time>
      </trkpt>
      <trkpt lat="44.84041" lon="5.40547">
        <ele>1235.43</ele>
        <time>2017-08-20T07:23:34Z</time>
      </trkpt>
      <trkpt lat="44.8404" lon="5.40545">
        <ele>1235.91</ele>
        <time>2017-08-20T07:23:35Z</time>
      </trkpt>
      <trkpt lat="44.84039" lon="5.40542">
        <ele>1236.39</ele>
        <time>2017-08-20T07:23:36Z</time>
      </trkpt>
      <trkpt lat="44.84037" lon="5.40539">
        <ele>1237.35</ele>
        <time>2017-08-20T07:23:37Z</time>
      </trkpt>
      <trkpt lat="44.84036" lon="5.40536">
        <ele>1238.32</ele>
        <time>2017-08-20T07:23:38Z</time>
      </trkpt>
      <trkpt lat="44.83806" lon="5.39698">
        <ele>1236.39</ele>
        <time>2017-08-20T07:25:09Z</time>
      </trkpt>
      <trkpt lat="44.83718" lon="5.39572">
        <ele>1236.87</ele>
        <time>2017-08-20T07:25:10Z</time>
      </trkpt>
      <trkpt lat="44.835" lon="5.39331">
        <ele>1138.82</ele>
        <time>2017-08-20T07:25:15Z</time>
      </trkpt>
      <trkpt lat="44.83517" lon="5.39351">
        <ele>1138.82</ele>
        <time>2017-08-20T07:25:16Z</time>
      </trkpt>
      <trkpt lat="44.8359" lon="5.39387">
        <ele>1138.34</ele>
        <time>2017-08-20T07:25:35Z</time>
      </trkpt>
      <trkpt lat="44.83609" lon="5.394">
        <ele>1137.86</ele>
        <time>2017-08-20T07:26:05Z</time>
      </trkpt>
      <trkpt lat="44.83647" lon="5.39464">
        <ele>1138.34</ele>
        <time>2017-08-20T07:26:33Z</time>
      </trkpt>
      <trkpt lat="44.8368" lon="5.39521">
        <ele>1138.34</ele>
        <time>2017-08-20T07:27:01Z</time>
      </trkpt>
      <trkpt lat="44.8368" lon="5.39521">
        <ele>1138.34</ele>
        <time>2017-08-20T07:27:30Z</time>
      </trkpt>
      <trkpt lat="44.8368" lon="5.39521">
        <ele>1136.9</ele>
        <time>2017-08-20T07:27:39Z</time>
      </trkpt>
      <trkpt lat="44.83679" lon="5.39529">
        <ele>1139.3</ele>
        <time>2017-08-20T07:28:08Z</time>
      </trkpt>
      <trkpt lat="44.83679" lon="5.39529">
        <ele>1137.86</ele>
        <time>2017-08-20T07:28:35Z</time>
      </trkpt>
      <trkpt lat="44.83679" lon="5.39529">
        <ele>1138.34</ele>
        <time>2017-08-20T07:28:40Z</time>
      </trkpt>
      <trkpt lat="44.83681" lon="5.39524">
        <ele>1137.38</ele>
        <time>2017-08-20T07:28:43Z</time>
      </trkpt>
      <trkpt lat="44.83685" lon="5.39492">
        <ele>1136.9</ele>
        <time>2017-08-20T07:28:50Z</time>
      </trkpt>
      <trkpt lat="44.83687" lon="5.39488">
        <ele>1136.9</ele>
        <time>2017-08-20T07:28:51Z</time>
      </trkpt>
      <trkpt lat="44.83689" lon="5.39483">
        <ele>1136.42</ele>
        <time>2017-08-20T07:28:52Z</time>
      </trkpt>
      <trkpt lat="44.83693" lon="5.39478">
        <ele>1135.45</ele>
        <time>2017-08-20T07:28:53Z</time>
      </trkpt>
      <trkpt lat="44.83696" lon="5.39473">
        <ele>1135.94</ele>
        <time>2017-08-20T07:28:54Z</time>
      </trkpt>
      <trkpt lat="44.83719" lon="5.39441">
        <ele>1135.94</ele>
        <time>2017-08-20T07:29:00Z</time>
      </trkpt>
      <trkpt lat="44.83722" lon="5.39435">
        <ele>1134.49</ele>
        <time>2017-08-20T07:29:01Z</time>
      </trkpt>
      <trkpt lat="44.8373" lon="5.3942">
        <ele>1133.53</ele>
        <time>2017-08-20T07:29:03Z</time>
      </trkpt>
      <trkpt lat="44.83758" lon="5.39372">
        <ele>1130.65</ele>
        <time>2017-08-20T07:29:09Z</time>
      </trkpt>
      <trkpt lat="44.83769" lon="5.39358">
        <ele>1127.28</ele>
        <time>2017-08-20T07:29:11Z</time>
      </trkpt>
      <trkpt lat="44.83781" lon="5.39344">
        <ele>1126.8</ele>
        <time>2017-08-20T07:29:13Z</time>
      </trkpt>
      <trkpt lat="44.83809" lon="5.39287">
        <ele>1124.88</ele>
        <time>2017-08-20T07:29:19Z</time>
      </trkpt>
      <trkpt lat="44.83809" lon="5.39274">
        <ele>1124.4</ele>
        <time>2017-08-20T07:29:20Z</time>
      </trkpt>
      <trkpt lat="44.8381" lon="5.39264">
        <ele>1123.92</ele>
        <time>2017-08-20T07:29:21Z</time>
      </trkpt>
      <trkpt lat="44.83809" lon="5.39255">
        <ele>1123.44</ele>
        <time>2017-08-20T07:29:22Z</time>
      </trkpt>
      <trkpt lat="44.83806" lon="5.39247">
        <ele>1123.44</ele>
        <time>2017-08-20T07:29:23Z</time>
      </trkpt>
      <trkpt lat="44.83802" lon="5.39238">
        <ele>1123.44</ele>
        <time>2017-08-20T07:29:24Z</time>
      </trkpt>
      <trkpt lat="44.83798" lon="5.3923">
        <ele>1122.96</ele>
        <time>2017-08-20T07:29:25Z</time>
      </trkpt>
      <trkpt lat="44.8376" lon="5.39172">
        <ele>1121.03</ele>
        <time>2017-08-20T07:29:32Z</time>
      </trkpt>
      <trkpt lat="44.8371" lon="5.39125">
        <ele>1118.15</ele>
        <time>2017-08-20T07:29:39Z</time>
      </trkpt>
      <trkpt lat="44.83672" lon="5.39104">
        <ele>1114.79</ele>
        <time>2017-08-20T07:29:46Z</time>
      </trkpt>
      <trkpt lat="44.83656" lon="5.39094">
        <ele>1113.34</ele>
        <time>2017-08-20T07:29:48Z</time>
      </trkpt>
      <trkpt lat="44.83655" lon="5.39093">
        <ele>1113.34</ele>
        <time>2017-08-20T07:29:49Z</time>
      </trkpt>
      <trkpt lat="44.83651" lon="5.39087">
        <ele>1112.86</ele>
        <time>2017-08-20T07:29:50Z</time>
      </trkpt>
      <trkpt lat="44.83638" lon="5.39064">
        <ele>1111.9</ele>
        <time>2017-08-20T07:29:53Z</time>
      </trkpt>
      <trkpt lat="44.83623" lon="5.39055">
        <ele>1111.9</ele>
        <time>2017-08-20T07:29:56Z</time>
      </trkpt>
      <trkpt lat="44.83618" lon="5.39063">
        <ele>1111.9</ele>
        <time>2017-08-20T07:29:57Z</time>
      </trkpt>
      <trkpt lat="44.83622" lon="5.39081">
        <ele>1110.94</ele>
        <time>2017-08-20T07:29:58Z</time>
      </trkpt>
      <trkpt lat="44.83622" lon="5.39095">
        <ele>1109.02</ele>
        <time>2017-08-20T07:30:00Z</time>
      </trkpt>
      <trkpt lat="44.83632" lon="5.39156">
        <ele>1108.06</ele>
        <time>2017-08-20T07:30:03Z</time>
      </trkpt>
      <trkpt lat="44.83646" lon="5.39179">
        <ele>1107.58</ele>
        <time>2017-08-20T07:30:05Z</time>
      </trkpt>
      <trkpt lat="44.83778" lon="5.39262">
        <ele>1104.21</ele>
        <time>2017-08-20T07:30:15Z</time>
      </trkpt>
      <trkpt lat="44.83836" lon="5.39343">
        <ele>1100.85</ele>
        <time>2017-08-20T07:30:23Z</time>
      </trkpt>
      <trkpt lat="44.83841" lon="5.39356">
        <ele>1100.85</ele>
        <time>2017-08-20T07:30:24Z</time>
      </trkpt>
      <trkpt lat="44.83845" lon="5.3937">
        <ele>1100.37</ele>
        <time>2017-08-20T07:30:25Z</time>
      </trkpt>
      <trkpt lat="44.83845" lon="5.39384">
        <ele>1099.89</ele>
        <time>2017-08-20T07:30:26Z</time>
      </trkpt>
      <trkpt lat="44.83845" lon="5.39396">
        <ele>1099.4</ele>
        <time>2017-08-20T07:30:27Z</time>
      </trkpt>
      <trkpt lat="44.83844" lon="5.39408">
        <ele>1098.44</ele>
        <time>2017-08-20T07:30:28Z</time>
      </trkpt>
      <trkpt lat="44.83838" lon="5.39419">
        <ele>1097.96</ele>
        <time>2017-08-20T07:30:29Z</time>
      </trkpt>
      <trkpt lat="44.83831" lon="5.3943">
        <ele>1097.48</ele>
        <time>2017-08-20T07:30:30Z</time>
      </trkpt>
      <trkpt lat="44.83823" lon="5.3944">
        <ele>1097</ele>
        <time>2017-08-20T07:30:31Z</time>
      </trkpt>
      <trkpt lat="44.83814" lon="5.39449">
        <ele>1096.04</ele>
        <time>2017-08-20T07:30:32Z</time>
      </trkpt>
      <trkpt lat="44.83805" lon="5.39459">
        <ele>1096.04</ele>
        <time>2017-08-20T07:30:33Z</time>
      </trkpt>
      <trkpt lat="44.83797" lon="5.3947">
        <ele>1095.56</ele>
        <time>2017-08-20T07:30:34Z</time>
      </trkpt>
      <trkpt lat="44.83788" lon="5.39481">
        <ele>1094.6</ele>
        <time>2017-08-20T07:30:35Z</time>
      </trkpt>
      <trkpt lat="44.83765" lon="5.39518">
        <ele>1093.16</ele>
        <time>2017-08-20T07:30:38Z</time>
      </trkpt>
      <trkpt lat="44.83754" lon="5.39529">
        <ele>1092.68</ele>
        <time>2017-08-20T07:30:39Z</time>
      </trkpt>
      <trkpt lat="44.83735" lon="5.39551">
        <ele>1092.68</ele>
        <time>2017-08-20T07:30:41Z</time>
      </trkpt>
      <trkpt lat="44.83719" lon="5.39576">
        <ele>1092.68</ele>
        <time>2017-08-20T07:30:43Z</time>
      </trkpt>
      <trkpt lat="44.83712" lon="5.3959">
        <ele>1092.68</ele>
        <time>2017-08-20T07:30:44Z</time>
      </trkpt>
      <trkpt lat="44.837" lon="5.3962">
        <ele>1091.23</ele>
        <time>2017-08-20T07:30:46Z</time>
      </trkpt>
      <trkpt lat="44.83697" lon="5.39635">
        <ele>1090.75</ele>
        <time>2017-08-20T07:30:47Z</time>
      </trkpt>
      <trkpt lat="44.83694" lon="5.3965">
        <ele>1089.79</ele>
        <time>2017-08-20T07:30:48Z</time>
      </trkpt>
      <trkpt lat="44.83689" lon="5.39679">
        <ele>1089.31</ele>
        <time>2017-08-20T07:30:50Z</time>
      </trkpt>
      <trkpt lat="44.83687" lon="5.39692">
        <ele>1088.35</ele>
        <time>2017-08-20T07:30:51Z</time>
      </trkpt>
      <trkpt lat="44.83684" lon="5.39704">
        <ele>1087.87</ele>
        <time>2017-08-20T07:30:52Z</time>
      </trkpt>
      <trkpt lat="44.83681" lon="5.39714">
        <ele>1086.91</ele>
        <time>2017-08-20T07:30:53Z</time>
      </trkpt>
      <trkpt lat="44.83675" lon="5.39723">
        <ele>1086.91</ele>
        <time>2017-08-20T07:30:54Z</time>
      </trkpt>
      <trkpt lat="44.83669" lon="5.39732">
        <ele>1085.95</ele>
        <time>2017-08-20T07:30:55Z</time>
      </trkpt>
      <trkpt lat="44.83664" lon="5.39744">
        <ele>1085.47</ele>
        <time>2017-08-20T07:30:56Z</time>
      </trkpt>
      <trkpt lat="44.8366" lon="5.39755">
        <ele>1085.47</ele>
        <time>2017-08-20T07:30:57Z</time>
      </trkpt>
      <trkpt lat="44.83656" lon="5.39764">
        <ele>1084.99</ele>
        <time>2017-08-20T07:30:58Z</time>
      </trkpt>
      <trkpt lat="44.83651" lon="5.39769">
        <ele>1084.5</ele>
        <time>2017-08-20T07:30:59Z</time>
      </trkpt>
      <trkpt lat="44.83643" lon="5.39761">
        <ele>1084.02</ele>
        <time>2017-08-20T07:31:01Z</time>
      </trkpt>
      <trkpt lat="44.83645" lon="5.39752">
        <ele>1083.54</ele>
        <time>2017-08-20T07:31:02Z</time>
      </trkpt>
      <trkpt lat="44.83649" lon="5.39742">
        <ele>1083.54</ele>
        <time>2017-08-20T07:31:03Z</time>
      </trkpt>
      <trkpt lat="44.83653" lon="5.39734">
        <ele>1083.06</ele>
        <time>2017-08-20T07:31:04Z</time>
      </trkpt>
      <trkpt lat="44.83678" lon="5.39687">
        <ele>1080.66</ele>
        <time>2017-08-20T07:31:09Z</time>
      </trkpt>
      <trkpt lat="44.83681" lon="5.39676">
        <ele>1080.18</ele>
        <time>2017-08-20T07:31:10Z</time>
      </trkpt>
      <trkpt lat="44.83682" lon="5.39664">
        <ele>1079.7</ele>
        <time>2017-08-20T07:31:11Z</time>
      </trkpt>
      <trkpt lat="44.83682" lon="5.39651">
        <ele>1079.7</ele>
        <time>2017-08-20T07:31:12Z</time>
      </trkpt>
      <trkpt lat="44.83684" lon="5.39588">
        <ele>1076.33</ele>
        <time>2017-08-20T07:31:17Z</time>
      </trkpt>
      <trkpt lat="44.83686" lon="5.39576">
        <ele>1076.33</ele>
        <time>2017-08-20T07:31:18Z</time>
      </trkpt>
      <trkpt lat="44.83699" lon="5.39528">
        <ele>1074.41</ele>
        <time>2017-08-20T07:31:22Z</time>
      </trkpt>
      <trkpt lat="44.83704" lon="5.39517">
        <ele>1073.45</ele>
        <time>2017-08-20T07:31:23Z</time>
      </trkpt>
      <trkpt lat="44.83738" lon="5.39438">
        <ele>1069.6</ele>
        <time>2017-08-20T07:31:30Z</time>
      </trkpt>
      <trkpt lat="44.83759" lon="5.39384">
        <ele>1068.64</ele>
        <time>2017-08-20T07:31:35Z</time>
      </trkpt>
      <trkpt lat="44.83762" lon="5.39372">
        <ele>1068.64</ele>
        <time>2017-08-20T07:31:36Z</time>
      </trkpt>
      <trkpt lat="44.83764" lon="5.3936">
        <ele>1068.64</ele>
        <time>2017-08-20T07:31:37Z</time>
      </trkpt>
      <trkpt lat="44.83764" lon="5.39348">
        <ele>1069.12</ele>
        <time>2017-08-20T07:31:38Z</time>
      </trkpt>
      <trkpt lat="44.83762" lon="5.39336">
        <ele>1068.64</ele>
        <time>2017-08-20T07:31:39Z</time>
      </trkpt>
      <trkpt lat="44.83759" lon="5.39327">
        <ele>1067.68</ele>
        <time>2017-08-20T07:31:40Z</time>
      </trkpt>
      <trkpt lat="44.83756" lon="5.39319">
        <ele>1067.2</ele>
        <time>2017-08-20T07:31:41Z</time>
      </trkpt>
      <trkpt lat="44.83735" lon="5.39293">
        <ele>1065.76</ele>
        <time>2017-08-20T07:31:45Z</time>
      </trkpt>
      <trkpt lat="44.83704" lon="5.39264">
        <ele>1062.39</ele>
        <time>2017-08-20T07:31:50Z</time>
      </trkpt>
      <trkpt lat="44.83684" lon="5.39242">
        <ele>1060.47</ele>
        <time>2017-08-20T07:31:54Z</time>
      </trkpt>
      <trkpt lat="44.83654" lon="5.39202">
        <ele>1057.11</ele>
        <time>2017-08-20T07:31:59Z</time>
      </trkpt>
      <trkpt lat="44.83642" lon="5.39186">
        <ele>1056.63</ele>
        <time>2017-08-20T07:32:01Z</time>
      </trkpt>
      <trkpt lat="44.83595" lon="5.39148">
        <ele>1053.74</ele>
        <time>2017-08-20T07:32:05Z</time>
      </trkpt>
      <trkpt lat="44.83519" lon="5.39091">
        <ele>1050.38</ele>
        <time>2017-08-20T07:32:11Z</time>
      </trkpt>
      <trkpt lat="44.83454" lon="5.39032">
        <ele>1047.01</ele>
        <time>2017-08-20T07:32:18Z</time>
      </trkpt>
      <trkpt lat="44.83437" lon="5.39016">
        <ele>1046.53</ele>
        <time>2017-08-20T07:32:20Z</time>
      </trkpt>
      <trkpt lat="44.83428" lon="5.3901">
        <ele>1045.57</ele>
        <time>2017-08-20T07:32:21Z</time>
      </trkpt>
      <trkpt lat="44.83419" lon="5.39006">
        <ele>1045.57</ele>
        <time>2017-08-20T07:32:22Z</time>
      </trkpt>
      <trkpt lat="44.83411" lon="5.39004">
        <ele>1045.09</ele>
        <time>2017-08-20T07:32:23Z</time>
      </trkpt>
      <trkpt lat="44.83402" lon="5.39004">
        <ele>1043.65</ele>
        <time>2017-08-20T07:32:24Z</time>
      </trkpt>
      <trkpt lat="44.83393" lon="5.39008">
        <ele>1043.17</ele>
        <time>2017-08-20T07:32:25Z</time>
      </trkpt>
      <trkpt lat="44.83384" lon="5.39013">
        <ele>1043.17</ele>
        <time>2017-08-20T07:32:26Z</time>
      </trkpt>
      <trkpt lat="44.83375" lon="5.39021">
        <ele>1042.69</ele>
        <time>2017-08-20T07:32:27Z</time>
      </trkpt>
      <trkpt lat="44.8335" lon="5.39049">
        <ele>1041.25</ele>
        <time>2017-08-20T07:32:30Z</time>
      </trkpt>
      <trkpt lat="44.83343" lon="5.39056">
        <ele>1040.28</ele>
        <time>2017-08-20T07:32:31Z</time>
      </trkpt>
      <trkpt lat="44.83334" lon="5.3906">
        <ele>1039.32</ele>
        <time>2017-08-20T07:32:32Z</time>
      </trkpt>
      <trkpt lat="44.83326" lon="5.3906">
        <ele>1039.32</ele>
        <time>2017-08-20T07:32:33Z</time>
      </trkpt>
      <trkpt lat="44.83317" lon="5.39055">
        <ele>1038.84</ele>
        <time>2017-08-20T07:32:34Z</time>
      </trkpt>
      <trkpt lat="44.8331" lon="5.39047">
        <ele>1038.84</ele>
        <time>2017-08-20T07:32:35Z</time>
      </trkpt>
      <trkpt lat="44.83302" lon="5.39038">
        <ele>1038.36</ele>
        <time>2017-08-20T07:32:36Z</time>
      </trkpt>
      <trkpt lat="44.83293" lon="5.39031">
        <ele>1037.88</ele>
        <time>2017-08-20T07:32:37Z</time>
      </trkpt>
      <trkpt lat="44.83283" lon="5.39027">
        <ele>1037.4</ele>
        <time>2017-08-20T07:32:38Z</time>
      </trkpt>
      <trkpt lat="44.83272" lon="5.39026">
        <ele>1036.92</ele>
        <time>2017-08-20T07:32:39Z</time>
      </trkpt>
      <trkpt lat="44.83262" lon="5.39028">
        <ele>1036.44</ele>
        <time>2017-08-20T07:32:40Z</time>
      </trkpt>
      <trkpt lat="44.83213" lon="5.39055">
        <ele>1033.55</ele>
        <time>2017-08-20T07:32:46Z</time>
      </trkpt>
      <trkpt lat="44.83196" lon="5.39063">
        <ele>1032.11</ele>
        <time>2017-08-20T07:32:48Z</time>
      </trkpt>
      <trkpt lat="44.83127" lon="5.39077">
        <ele>1029.71</ele>
        <time>2017-08-20T07:32:54Z</time>
      </trkpt>
      <trkpt lat="44.83116" lon="5.39077">
        <ele>1029.23</ele>
        <time>2017-08-20T07:32:55Z</time>
      </trkpt>
      <trkpt lat="44.83105" lon="5.39074">
        <ele>1027.79</ele>
        <time>2017-08-20T07:32:56Z</time>
      </trkpt>
      <trkpt lat="44.83095" lon="5.3907">
        <ele>1027.31</ele>
        <time>2017-08-20T07:32:57Z</time>
      </trkpt>
      <trkpt lat="44.83084" lon="5.39067">
        <ele>1027.31</ele>
        <time>2017-08-20T07:32:58Z</time>
      </trkpt>
      <trkpt lat="44.83072" lon="5.39066">
        <ele>1026.34</ele>
        <time>2017-08-20T07:32:59Z</time>
      </trkpt>
      <trkpt lat="44.83037" lon="5.39064">
        <ele>1024.9</ele>
        <time>2017-08-20T07:33:02Z</time>
      </trkpt>
      <trkpt lat="44.83026" lon="5.39061">
        <ele>1024.42</ele>
        <time>2017-08-20T07:33:03Z</time>
      </trkpt>
      <trkpt lat="44.82958" lon="5.39037">
        <ele>1021.06</ele>
        <time>2017-08-20T07:33:09Z</time>
      </trkpt>
      <trkpt lat="44.82891" lon="5.39018">
        <ele>1017.69</ele>
        <time>2017-08-20T07:33:15Z</time>
      </trkpt>
      <trkpt lat="44.8288" lon="5.39018">
        <ele>1017.21</ele>
        <time>2017-08-20T07:33:16Z</time>
      </trkpt>
      <trkpt lat="44.82836" lon="5.39019">
        <ele>1015.29</ele>
        <time>2017-08-20T07:33:20Z</time>
      </trkpt>
      <trkpt lat="44.82733" lon="5.3899">
        <ele>1011.93</ele>
        <time>2017-08-20T07:33:29Z</time>
      </trkpt>
      <trkpt lat="44.827" lon="5.3897">
        <ele>1010.48</ele>
        <time>2017-08-20T07:33:32Z</time>
      </trkpt>
      <trkpt lat="44.82691" lon="5.3896">
        <ele>1010</ele>
        <time>2017-08-20T07:33:33Z</time>
      </trkpt>
      <trkpt lat="44.82682" lon="5.38948">
        <ele>1009.52</ele>
        <time>2017-08-20T07:33:34Z</time>
      </trkpt>
      <trkpt lat="44.82674" lon="5.38935">
        <ele>1008.56</ele>
        <time>2017-08-20T07:33:35Z</time>
      </trkpt>
      <trkpt lat="44.82667" lon="5.38921">
        <ele>1008.56</ele>
        <time>2017-08-20T07:33:36Z</time>
      </trkpt>
      <trkpt lat="44.82632" lon="5.38853">
        <ele>1005.2</ele>
        <time>2017-08-20T07:33:41Z</time>
      </trkpt>
      <trkpt lat="44.82606" lon="5.38805">
        <ele>1001.83</ele>
        <time>2017-08-20T07:33:45Z</time>
      </trkpt>
      <trkpt lat="44.82601" lon="5.38793">
        <ele>1001.35</ele>
        <time>2017-08-20T07:33:46Z</time>
      </trkpt>
      <trkpt lat="44.82599" lon="5.3878">
        <ele>1000.87</ele>
        <time>2017-08-20T07:33:47Z</time>
      </trkpt>
      <trkpt lat="44.82598" lon="5.38767">
        <ele>1000.39</ele>
        <time>2017-08-20T07:33:48Z</time>
      </trkpt>
      <trkpt lat="44.82598" lon="5.38753">
        <ele>999.91</ele>
        <time>2017-08-20T07:33:49Z</time>
      </trkpt>
      <trkpt lat="44.82599" lon="5.38739">
        <ele>999.43</ele>
        <time>2017-08-20T07:33:50Z</time>
      </trkpt>
      <trkpt lat="44.82596" lon="5.38685">
        <ele>998.47</ele>
        <time>2017-08-20T07:33:54Z</time>
      </trkpt>
      <trkpt lat="44.82585" lon="5.38633">
        <ele>996.54</ele>
        <time>2017-08-20T07:33:58Z</time>
      </trkpt>
      <trkpt lat="44.82573" lon="5.38565">
        <ele>993.18</ele>
        <time>2017-08-20T07:34:03Z</time>
      </trkpt>
      <trkpt lat="44.82566" lon="5.38537">
        <ele>992.7</ele>
        <time>2017-08-20T07:34:05Z</time>
      </trkpt>
      <trkpt lat="44.82561" lon="5.38524">
        <ele>992.7</ele>
        <time>2017-08-20T07:34:06Z</time>
      </trkpt>
      <trkpt lat="44.82556" lon="5.38512">
        <ele>991.74</ele>
        <time>2017-08-20T07:34:07Z</time>
      </trkpt>
      <trkpt lat="44.8255" lon="5.385">
        <ele>990.78</ele>
        <time>2017-08-20T07:34:08Z</time>
      </trkpt>
      <trkpt lat="44.82543" lon="5.38489">
        <ele>990.3</ele>
        <time>2017-08-20T07:34:09Z</time>
      </trkpt>
      <trkpt lat="44.82536" lon="5.38479">
        <ele>989.33</ele>
        <time>2017-08-20T07:34:10Z</time>
      </trkpt>
      <trkpt lat="44.82529" lon="5.38471">
        <ele>988.37</ele>
        <time>2017-08-20T07:34:11Z</time>
      </trkpt>
      <trkpt lat="44.82521" lon="5.38465">
        <ele>987.89</ele>
        <time>2017-08-20T07:34:12Z</time>
      </trkpt>
      <trkpt lat="44.82513" lon="5.38461">
        <ele>987.41</ele>
        <time>2017-08-20T07:34:13Z</time>
      </trkpt>
      <trkpt lat="44.82504" lon="5.38459">
        <ele>987.41</ele>
        <time>2017-08-20T07:34:14Z</time>
      </trkpt>
      <trkpt lat="44.82496" lon="5.38455">
        <ele>987.41</ele>
        <time>2017-08-20T07:34:15Z</time>
      </trkpt>
      <trkpt lat="44.82489" lon="5.3845">
        <ele>986.45</ele>
        <time>2017-08-20T07:34:16Z</time>
      </trkpt>
      <trkpt lat="44.82484" lon="5.38442">
        <ele>985.97</ele>
        <time>2017-08-20T07:34:17Z</time>
      </trkpt>
      <trkpt lat="44.82479" lon="5.38434">
        <ele>985.97</ele>
        <time>2017-08-20T07:34:18Z</time>
      </trkpt>
      <trkpt lat="44.82474" lon="5.38427">
        <ele>985.97</ele>
        <time>2017-08-20T07:34:19Z</time>
      </trkpt>
      <trkpt lat="44.82468" lon="5.38423">
        <ele>985.97</ele>
        <time>2017-08-20T07:34:20Z</time>
      </trkpt>
      <trkpt lat="44.82462" lon="5.38424">
        <ele>985.97</ele>
        <time>2017-08-20T07:34:21Z</time>
      </trkpt>
      <trkpt lat="44.82457" lon="5.38427">
        <ele>985.97</ele>
        <time>2017-08-20T07:34:22Z</time>
      </trkpt>
      <trkpt lat="44.82454" lon="5.38431">
        <ele>985.97</ele>
        <time>2017-08-20T07:34:23Z</time>
      </trkpt>
      <trkpt lat="44.82453" lon="5.38434">
        <ele>985.97</ele>
        <time>2017-08-20T07:34:24Z</time>
      </trkpt>
      <trkpt lat="44.82453" lon="5.38436">
        <ele>985.97</ele>
        <time>2017-08-20T07:34:25Z</time>
      </trkpt>
      <trkpt lat="44.82453" lon="5.38436">
        <ele>985.97</ele>
        <time>2017-08-20T07:34:36Z</time>
      </trkpt>
      <trkpt lat="44.82454" lon="5.38438">
        <ele>986.45</ele>
        <time>2017-08-20T07:34:51Z</time>
      </trkpt>
      <trkpt lat="44.82455" lon="5.3844">
        <ele>986.45</ele>
        <time>2017-08-20T07:34:52Z</time>
      </trkpt>
      <trkpt lat="44.82461" lon="5.38452">
        <ele>987.41</ele>
        <time>2017-08-20T07:34:55Z</time>
      </trkpt>
      <trkpt lat="44.82464" lon="5.38456">
        <ele>986.93</ele>
        <time>2017-08-20T07:34:56Z</time>
      </trkpt>
      <trkpt lat="44.82469" lon="5.38461">
        <ele>986.45</ele>
        <time>2017-08-20T07:34:57Z</time>
      </trkpt>
      <trkpt lat="44.82479" lon="5.38469">
        <ele>986.45</ele>
        <time>2017-08-20T07:34:59Z</time>
      </trkpt>
      <trkpt lat="44.82513" lon="5.3849">
        <ele>983.57</ele>
        <time>2017-08-20T07:35:04Z</time>
      </trkpt>
      <trkpt lat="44.8252" lon="5.38497">
        <ele>983.57</ele>
        <time>2017-08-20T07:35:05Z</time>
      </trkpt>
      <trkpt lat="44.82527" lon="5.38505">
        <ele>982.6</ele>
        <time>2017-08-20T07:35:06Z</time>
      </trkpt>
      <trkpt lat="44.82532" lon="5.38515">
        <ele>982.6</ele>
        <time>2017-08-20T07:35:07Z</time>
      </trkpt>
      <trkpt lat="44.82537" lon="5.38525">
        <ele>982.6</ele>
        <time>2017-08-20T07:35:08Z</time>
      </trkpt>
      <trkpt lat="44.82541" lon="5.38536">
        <ele>982.6</ele>
        <time>2017-08-20T07:35:09Z</time>
      </trkpt>
      <trkpt lat="44.82545" lon="5.38548">
        <ele>982.12</ele>
        <time>2017-08-20T07:35:10Z</time>
      </trkpt>
      <trkpt lat="44.82548" lon="5.3856">
        <ele>981.64</ele>
        <time>2017-08-20T07:35:11Z</time>
      </trkpt>
      <trkpt lat="44.8255" lon="5.38573">
        <ele>981.16</ele>
        <time>2017-08-20T07:35:12Z</time>
      </trkpt>
      <trkpt lat="44.82558" lon="5.38624">
        <ele>979.24</ele>
        <time>2017-08-20T07:35:16Z</time>
      </trkpt>
      <trkpt lat="44.82567" lon="5.38719">
        <ele>975.88</ele>
        <time>2017-08-20T07:35:23Z</time>
      </trkpt>
      <trkpt lat="44.82567" lon="5.38734">
        <ele>975.39</ele>
        <time>2017-08-20T07:35:24Z</time>
      </trkpt>
      <trkpt lat="44.82565" lon="5.38748">
        <ele>974.43</ele>
        <time>2017-08-20T07:35:25Z</time>
      </trkpt>
      <trkpt lat="44.82563" lon="5.38761">
        <ele>974.43</ele>
        <time>2017-08-20T07:35:26Z</time>
      </trkpt>
      <trkpt lat="44.82555" lon="5.38815">
        <ele>972.03</ele>
        <time>2017-08-20T07:35:30Z</time>
      </trkpt>
      <trkpt lat="44.82557" lon="5.38829">
        <ele>971.07</ele>
        <time>2017-08-20T07:35:31Z</time>
      </trkpt>
      <trkpt lat="44.82561" lon="5.38842">
        <ele>971.07</ele>
        <time>2017-08-20T07:35:32Z</time>
      </trkpt>
      <trkpt lat="44.82566" lon="5.38853">
        <ele>970.59</ele>
        <time>2017-08-20T07:35:33Z</time>
      </trkpt>
      <trkpt lat="44.82571" lon="5.38865">
        <ele>970.59</ele>
        <time>2017-08-20T07:35:34Z</time>
      </trkpt>
      <trkpt lat="44.826" lon="5.38924">
        <ele>968.18</ele>
        <time>2017-08-20T07:35:39Z</time>
      </trkpt>
      <trkpt lat="44.82605" lon="5.38937">
        <ele>967.7</ele>
        <time>2017-08-20T07:35:40Z</time>
      </trkpt>
      <trkpt lat="44.82638" lon="5.39015">
        <ele>964.82</ele>
        <time>2017-08-20T07:35:46Z</time>
      </trkpt>
      <trkpt lat="44.82658" lon="5.39045">
        <ele>962.42</ele>
        <time>2017-08-20T07:35:49Z</time>
      </trkpt>
      <trkpt lat="44.82666" lon="5.39053">
        <ele>962.42</ele>
        <time>2017-08-20T07:35:50Z</time>
      </trkpt>
      <trkpt lat="44.82674" lon="5.39058">
        <ele>961.94</ele>
        <time>2017-08-20T07:35:51Z</time>
      </trkpt>
      <trkpt lat="44.82683" lon="5.39063">
        <ele>960.98</ele>
        <time>2017-08-20T07:35:52Z</time>
      </trkpt>
      <trkpt lat="44.82692" lon="5.39068">
        <ele>960.01</ele>
        <time>2017-08-20T07:35:53Z</time>
      </trkpt>
      <trkpt lat="44.82709" lon="5.39076">
        <ele>959.05</ele>
        <time>2017-08-20T07:35:55Z</time>
      </trkpt>
      <trkpt lat="44.82743" lon="5.39096">
        <ele>956.17</ele>
        <time>2017-08-20T07:35:59Z</time>
      </trkpt>
      <trkpt lat="44.82751" lon="5.39101">
        <ele>955.69</ele>
        <time>2017-08-20T07:36:00Z</time>
      </trkpt>
      <trkpt lat="44.82768" lon="5.39111">
        <ele>954.73</ele>
        <time>2017-08-20T07:36:02Z</time>
      </trkpt>
      <trkpt lat="44.82801" lon="5.39134">
        <ele>951.36</ele>
        <time>2017-08-20T07:36:06Z</time>
      </trkpt>
      <trkpt lat="44.82808" lon="5.39141">
        <ele>951.84</ele>
        <time>2017-08-20T07:36:07Z</time>
      </trkpt>
      <trkpt lat="44.82832" lon="5.39158">
        <ele>951.36</ele>
        <time>2017-08-20T07:36:10Z</time>
      </trkpt>
      <trkpt lat="44.82841" lon="5.39161">
        <ele>950.88</ele>
        <time>2017-08-20T07:36:11Z</time>
      </trkpt>
      <trkpt lat="44.82849" lon="5.39162">
        <ele>948.96</ele>
        <time>2017-08-20T07:36:12Z</time>
      </trkpt>
      <trkpt lat="44.82894" lon="5.39166">
        <ele>946.07</ele>
        <time>2017-08-20T07:36:17Z</time>
      </trkpt>
      <trkpt lat="44.82903" lon="5.3917">
        <ele>946.07</ele>
        <time>2017-08-20T07:36:18Z</time>
      </trkpt>
      <trkpt lat="44.82977" lon="5.39214">
        <ele>942.71</ele>
        <time>2017-08-20T07:36:27Z</time>
      </trkpt>
      <trkpt lat="44.83031" lon="5.3925">
        <ele>939.83</ele>
        <time>2017-08-20T07:36:34Z</time>
      </trkpt>
      <trkpt lat="44.83039" lon="5.39252">
        <ele>939.35</ele>
        <time>2017-08-20T07:36:35Z</time>
      </trkpt>
      <trkpt lat="44.83048" lon="5.39253">
        <ele>938.38</ele>
        <time>2017-08-20T07:36:36Z</time>
      </trkpt>
      <trkpt lat="44.83064" lon="5.39255">
        <ele>938.38</ele>
        <time>2017-08-20T07:36:38Z</time>
      </trkpt>
      <trkpt lat="44.83072" lon="5.39257">
        <ele>937.9</ele>
        <time>2017-08-20T07:36:39Z</time>
      </trkpt>
      <trkpt lat="44.83079" lon="5.39261">
        <ele>937.42</ele>
        <time>2017-08-20T07:36:40Z</time>
      </trkpt>
      <trkpt lat="44.83087" lon="5.39266">
        <ele>937.9</ele>
        <time>2017-08-20T07:36:41Z</time>
      </trkpt>
      <trkpt lat="44.83094" lon="5.39271">
        <ele>937.42</ele>
        <time>2017-08-20T07:36:42Z</time>
      </trkpt>
      <trkpt lat="44.8316" lon="5.39291">
        <ele>933.58</ele>
        <time>2017-08-20T07:36:50Z</time>
      </trkpt>
      <trkpt lat="44.83169" lon="5.39292">
        <ele>933.58</ele>
        <time>2017-08-20T07:36:51Z</time>
      </trkpt>
      <trkpt lat="44.83176" lon="5.39295">
        <ele>933.58</ele>
        <time>2017-08-20T07:36:52Z</time>
      </trkpt>
      <trkpt lat="44.83184" lon="5.39298">
        <ele>932.62</ele>
        <time>2017-08-20T07:36:53Z</time>
      </trkpt>
      <trkpt lat="44.83191" lon="5.39302">
        <ele>932.14</ele>
        <time>2017-08-20T07:36:54Z</time>
      </trkpt>
      <trkpt lat="44.83198" lon="5.39306">
        <ele>932.62</ele>
        <time>2017-08-20T07:36:55Z</time>
      </trkpt>
      <trkpt lat="44.83205" lon="5.39308">
        <ele>932.62</ele>
        <time>2017-08-20T07:36:56Z</time>
      </trkpt>
      <trkpt lat="44.83212" lon="5.3931">
        <ele>931.65</ele>
        <time>2017-08-20T07:36:57Z</time>
      </trkpt>
      <trkpt lat="44.83218" lon="5.3931">
        <ele>932.14</ele>
        <time>2017-08-20T07:36:58Z</time>
      </trkpt>
      <trkpt lat="44.83223" lon="5.39309">
        <ele>932.62</ele>
        <time>2017-08-20T07:36:59Z</time>
      </trkpt>
      <trkpt lat="44.83229" lon="5.39307">
        <ele>931.65</ele>
        <time>2017-08-20T07:37:00Z</time>
      </trkpt>
      <trkpt lat="44.83234" lon="5.39303">
        <ele>930.69</ele>
        <time>2017-08-20T07:37:01Z</time>
      </trkpt>
      <trkpt lat="44.83241" lon="5.39298">
        <ele>929.73</ele>
        <time>2017-08-20T07:37:02Z</time>
      </trkpt>
      <trkpt lat="44.83261" lon="5.39286">
        <ele>927.33</ele>
        <time>2017-08-20T07:37:05Z</time>
      </trkpt>
      <trkpt lat="44.83268" lon="5.39287">
        <ele>926.85</ele>
        <time>2017-08-20T07:37:06Z</time>
      </trkpt>
      <trkpt lat="44.83275" lon="5.3929">
        <ele>926.85</ele>
        <time>2017-08-20T07:37:07Z</time>
      </trkpt>
      <trkpt lat="44.83292" lon="5.393">
        <ele>925.89</ele>
        <time>2017-08-20T07:37:09Z</time>
      </trkpt>
      <trkpt lat="44.83301" lon="5.39304">
        <ele>925.41</ele>
        <time>2017-08-20T07:37:10Z</time>
      </trkpt>
      <trkpt lat="44.83309" lon="5.39307">
        <ele>925.41</ele>
        <time>2017-08-20T07:37:11Z</time>
      </trkpt>
      <trkpt lat="44.83317" lon="5.39309">
        <ele>924.93</ele>
        <time>2017-08-20T07:37:12Z</time>
      </trkpt>
      <trkpt lat="44.83321" lon="5.39309">
        <ele>924.45</ele>
        <time>2017-08-20T07:37:13Z</time>
      </trkpt>
      <trkpt lat="44.8336" lon="5.39312">
        <ele>923</ele>
        <time>2017-08-20T07:37:17Z</time>
      </trkpt>
      <trkpt lat="44.83369" lon="5.39317">
        <ele>922.52</ele>
        <time>2017-08-20T07:37:18Z</time>
      </trkpt>
      <trkpt lat="44.83377" lon="5.39324">
        <ele>921.56</ele>
        <time>2017-08-20T07:37:19Z</time>
      </trkpt>
      <trkpt lat="44.83384" lon="5.39336">
        <ele>921.56</ele>
        <time>2017-08-20T07:37:20Z</time>
      </trkpt>
      <trkpt lat="44.83388" lon="5.39349">
        <ele>920.6</ele>
        <time>2017-08-20T07:37:21Z</time>
      </trkpt>
      <trkpt lat="44.8339" lon="5.39362">
        <ele>920.6</ele>
        <time>2017-08-20T07:37:22Z</time>
      </trkpt>
      <trkpt lat="44.8339" lon="5.39376">
        <ele>919.64</ele>
        <time>2017-08-20T07:37:23Z</time>
      </trkpt>
      <trkpt lat="44.83389" lon="5.3939">
        <ele>919.64</ele>
        <time>2017-08-20T07:37:24Z</time>
      </trkpt>
      <trkpt lat="44.83388" lon="5.39404">
        <ele>919.16</ele>
        <time>2017-08-20T07:37:25Z</time>
      </trkpt>
      <trkpt lat="44.83386" lon="5.39418">
        <ele>918.68</ele>
        <time>2017-08-20T07:37:26Z</time>
      </trkpt>
      <trkpt lat="44.8338" lon="5.39446">
        <ele>917.24</ele>
        <time>2017-08-20T07:37:28Z</time>
      </trkpt>
      <trkpt lat="44.83375" lon="5.3946">
        <ele>916.75</ele>
        <time>2017-08-20T07:37:29Z</time>
      </trkpt>
      <trkpt lat="44.83369" lon="5.39473">
        <ele>916.27</ele>
        <time>2017-08-20T07:37:30Z</time>
      </trkpt>
      <trkpt lat="44.83363" lon="5.39485">
        <ele>916.27</ele>
        <time>2017-08-20T07:37:31Z</time>
      </trkpt>
      <trkpt lat="44.83356" lon="5.39497">
        <ele>915.79</ele>
        <time>2017-08-20T07:37:32Z</time>
      </trkpt>
      <trkpt lat="44.83307" lon="5.39563">
        <ele>912.43</ele>
        <time>2017-08-20T07:37:38Z</time>
      </trkpt>
      <trkpt lat="44.83298" lon="5.39575">
        <ele>912.43</ele>
        <time>2017-08-20T07:37:39Z</time>
      </trkpt>
      <trkpt lat="44.83291" lon="5.39587">
        <ele>910.99</ele>
        <time>2017-08-20T07:37:40Z</time>
      </trkpt>
      <trkpt lat="44.83284" lon="5.396">
        <ele>910.51</ele>
        <time>2017-08-20T07:37:41Z</time>
      </trkpt>
      <trkpt lat="44.83262" lon="5.39639">
        <ele>909.54</ele>
        <time>2017-08-20T07:37:44Z</time>
      </trkpt>
      <trkpt lat="44.83252" lon="5.39647">
        <ele>909.06</ele>
        <time>2017-08-20T07:37:45Z</time>
      </trkpt>
      <trkpt lat="44.83241" lon="5.39653">
        <ele>908.1</ele>
        <time>2017-08-20T07:37:46Z</time>
      </trkpt>
      <trkpt lat="44.83221" lon="5.39665">
        <ele>907.14</ele>
        <time>2017-08-20T07:37:48Z</time>
      </trkpt>
      <trkpt lat="44.83213" lon="5.39675">
        <ele>906.66</ele>
        <time>2017-08-20T07:37:49Z</time>
      </trkpt>
      <trkpt lat="44.83205" lon="5.39686">
        <ele>906.18</ele>
        <time>2017-08-20T07:37:50Z</time>
      </trkpt>
      <trkpt lat="44.83197" lon="5.39696">
        <ele>905.22</ele>
        <time>2017-08-20T07:37:51Z</time>
      </trkpt>
      <trkpt lat="44.83188" lon="5.39704">
        <ele>903.78</ele>
        <time>2017-08-20T07:37:52Z</time>
      </trkpt>
      <trkpt lat="44.83177" lon="5.39707">
        <ele>903.3</ele>
        <time>2017-08-20T07:37:53Z</time>
      </trkpt>
      <trkpt lat="44.83166" lon="5.39708">
        <ele>903.3</ele>
        <time>2017-08-20T07:37:54Z</time>
      </trkpt>
      <trkpt lat="44.83155" lon="5.39708">
        <ele>902.82</ele>
        <time>2017-08-20T07:37:55Z</time>
      </trkpt>
      <trkpt lat="44.83143" lon="5.3971">
        <ele>902.33</ele>
        <time>2017-08-20T07:37:56Z</time>
      </trkpt>
      <trkpt lat="44.83132" lon="5.39713">
        <ele>901.85</ele>
        <time>2017-08-20T07:37:57Z</time>
      </trkpt>
      <trkpt lat="44.83122" lon="5.39718">
        <ele>901.37</ele>
        <time>2017-08-20T07:37:58Z</time>
      </trkpt>
      <trkpt lat="44.831" lon="5.39732">
        <ele>900.41</ele>
        <time>2017-08-20T07:38:00Z</time>
      </trkpt>
      <trkpt lat="44.8304" lon="5.3978">
        <ele>897.53</ele>
        <time>2017-08-20T07:38:06Z</time>
      </trkpt>
      <trkpt lat="44.83029" lon="5.39785">
        <ele>897.05</ele>
        <time>2017-08-20T07:38:07Z</time>
      </trkpt>
      <trkpt lat="44.83008" lon="5.39794">
        <ele>896.09</ele>
        <time>2017-08-20T07:38:09Z</time>
      </trkpt>
      <trkpt lat="44.82949" lon="5.39822">
        <ele>892.72</ele>
        <time>2017-08-20T07:38:15Z</time>
      </trkpt>
      <trkpt lat="44.82942" lon="5.39828">
        <ele>892.24</ele>
        <time>2017-08-20T07:38:16Z</time>
      </trkpt>
      <trkpt lat="44.82935" lon="5.39833">
        <ele>891.28</ele>
        <time>2017-08-20T07:38:17Z</time>
      </trkpt>
      <trkpt lat="44.82929" lon="5.39835">
        <ele>891.28</ele>
        <time>2017-08-20T07:38:18Z</time>
      </trkpt>
      <trkpt lat="44.82924" lon="5.39832">
        <ele>891.28</ele>
        <time>2017-08-20T07:38:19Z</time>
      </trkpt>
      <trkpt lat="44.82923" lon="5.39825">
        <ele>891.28</ele>
        <time>2017-08-20T07:38:20Z</time>
      </trkpt>
      <trkpt lat="44.82925" lon="5.39818">
        <ele>890.32</ele>
        <time>2017-08-20T07:38:21Z</time>
      </trkpt>
      <trkpt lat="44.8293" lon="5.39813">
        <ele>890.32</ele>
        <time>2017-08-20T07:38:22Z</time>
      </trkpt>
      <trkpt lat="44.82936" lon="5.3981">
        <ele>890.32</ele>
        <time>2017-08-20T07:38:23Z</time>
      </trkpt>
      <trkpt lat="44.82942" lon="5.39809">
        <ele>890.32</ele>
        <time>2017-08-20T07:38:24Z</time>
      </trkpt>
      <trkpt lat="44.83012" lon="5.39772">
        <ele>886.95</ele>
        <time>2017-08-20T07:38:35Z</time>
      </trkpt>
      <trkpt lat="44.83058" lon="5.39731">
        <ele>885.03</ele>
        <time>2017-08-20T07:38:42Z</time>
      </trkpt>
      <trkpt lat="44.8311" lon="5.39679">
        <ele>881.67</ele>
        <time>2017-08-20T07:38:50Z</time>
      </trkpt>
      <trkpt lat="44.83137" lon="5.39659">
        <ele>878.3</ele>
        <time>2017-08-20T07:38:54Z</time>
      </trkpt>
      <trkpt lat="44.83172" lon="5.39635">
        <ele>877.34</ele>
        <time>2017-08-20T07:38:59Z</time>
      </trkpt>
      <trkpt lat="44.83178" lon="5.39627">
        <ele>877.34</ele>
        <time>2017-08-20T07:39:00Z</time>
      </trkpt>
      <trkpt lat="44.8322" lon="5.39568">
        <ele>873.98</ele>
        <time>2017-08-20T07:39:07Z</time>
      </trkpt>
      <trkpt lat="44.83232" lon="5.3955">
        <ele>873.01</ele>
        <time>2017-08-20T07:39:09Z</time>
      </trkpt>
      <trkpt lat="44.83236" lon="5.39538">
        <ele>873.01</ele>
        <time>2017-08-20T07:39:10Z</time>
      </trkpt>
      <trkpt lat="44.83239" lon="5.39526">
        <ele>873.01</ele>
        <time>2017-08-20T07:39:11Z</time>
      </trkpt>
      <trkpt lat="44.8324" lon="5.39513">
        <ele>872.53</ele>
        <time>2017-08-20T07:39:12Z</time>
      </trkpt>
      <trkpt lat="44.83239" lon="5.395">
        <ele>872.05</ele>
        <time>2017-08-20T07:39:13Z</time>
      </trkpt>
      <trkpt lat="44.83237" lon="5.3949">
        <ele>872.05</ele>
        <time>2017-08-20T07:39:14Z</time>
      </trkpt>
      <trkpt lat="44.83233" lon="5.39481">
        <ele>871.57</ele>
        <time>2017-08-20T07:39:15Z</time>
      </trkpt>
      <trkpt lat="44.83228" lon="5.39475">
        <ele>871.09</ele>
        <time>2017-08-20T07:39:16Z</time>
      </trkpt>
      <trkpt lat="44.83219" lon="5.3947">
        <ele>870.13</ele>
        <time>2017-08-20T07:39:17Z</time>
      </trkpt>
      <trkpt lat="44.83208" lon="5.39467">
        <ele>870.13</ele>
        <time>2017-08-20T07:39:18Z</time>
      </trkpt>
      <trkpt lat="44.83197" lon="5.39465">
        <ele>869.65</ele>
        <time>2017-08-20T07:39:19Z</time>
      </trkpt>
      <trkpt lat="44.83131" lon="5.39449">
        <ele>866.29</ele>
        <time>2017-08-20T07:39:25Z</time>
      </trkpt>
      <trkpt lat="44.8311" lon="5.39442">
        <ele>865.32</ele>
        <time>2017-08-20T07:39:27Z</time>
      </trkpt>
      <trkpt lat="44.831" lon="5.39437">
        <ele>864.84</ele>
        <time>2017-08-20T07:39:28Z</time>
      </trkpt>
      <trkpt lat="44.8309" lon="5.39432">
        <ele>864.36</ele>
        <time>2017-08-20T07:39:29Z</time>
      </trkpt>
      <trkpt lat="44.8304" lon="5.39406">
        <ele>861.48</ele>
        <time>2017-08-20T07:39:34Z</time>
      </trkpt>
      <trkpt lat="44.82998" lon="5.39395">
        <ele>859.56</ele>
        <time>2017-08-20T07:39:38Z</time>
      </trkpt>
      <trkpt lat="44.82955" lon="5.39386">
        <ele>857.15</ele>
        <time>2017-08-20T07:39:42Z</time>
      </trkpt>
      <trkpt lat="44.82944" lon="5.39386">
        <ele>856.67</ele>
        <time>2017-08-20T07:39:43Z</time>
      </trkpt>
      <trkpt lat="44.82933" lon="5.39386">
        <ele>855.71</ele>
        <time>2017-08-20T07:39:44Z</time>
      </trkpt>
      <trkpt lat="44.82923" lon="5.39385">
        <ele>855.23</ele>
        <time>2017-08-20T07:39:45Z</time>
      </trkpt>
      <trkpt lat="44.82913" lon="5.39382">
        <ele>855.23</ele>
        <time>2017-08-20T07:39:46Z</time>
      </trkpt>
      <trkpt lat="44.82903" lon="5.39379">
        <ele>855.23</ele>
        <time>2017-08-20T07:39:47Z</time>
      </trkpt>
      <trkpt lat="44.82893" lon="5.39374">
        <ele>855.23</ele>
        <time>2017-08-20T07:39:48Z</time>
      </trkpt>
      <trkpt lat="44.82874" lon="5.39367">
        <ele>854.75</ele>
        <time>2017-08-20T07:39:50Z</time>
      </trkpt>
      <trkpt lat="44.82866" lon="5.39367">
        <ele>854.75</ele>
        <time>2017-08-20T07:39:51Z</time>
      </trkpt>
      <trkpt lat="44.82856" lon="5.39368">
        <ele>854.75</ele>
        <time>2017-08-20T07:39:52Z</time>
      </trkpt>
      <trkpt lat="44.82836" lon="5.39369">
        <ele>853.79</ele>
        <time>2017-08-20T07:39:54Z</time>
      </trkpt>
      <trkpt lat="44.82827" lon="5.39368">
        <ele>853.79</ele>
        <time>2017-08-20T07:39:55Z</time>
      </trkpt>
      <trkpt lat="44.82817" lon="5.39365">
        <ele>852.83</ele>
        <time>2017-08-20T07:39:56Z</time>
      </trkpt>
      <trkpt lat="44.82768" lon="5.39345">
        <ele>850.42</ele>
        <time>2017-08-20T07:40:01Z</time>
      </trkpt>
      <trkpt lat="44.82758" lon="5.39339">
        <ele>849.46</ele>
        <time>2017-08-20T07:40:02Z</time>
      </trkpt>
      <trkpt lat="44.82749" lon="5.39331">
        <ele>849.46</ele>
        <time>2017-08-20T07:40:03Z</time>
      </trkpt>
      <trkpt lat="44.8273" lon="5.39316">
        <ele>848.5</ele>
        <time>2017-08-20T07:40:05Z</time>
      </trkpt>
      <trkpt lat="44.8272" lon="5.3931">
        <ele>847.54</ele>
        <time>2017-08-20T07:40:06Z</time>
      </trkpt>
      <trkpt lat="44.82709" lon="5.39307">
        <ele>847.06</ele>
        <time>2017-08-20T07:40:07Z</time>
      </trkpt>
      <trkpt lat="44.82698" lon="5.39306">
        <ele>846.58</ele>
        <time>2017-08-20T07:40:08Z</time>
      </trkpt>
      <trkpt lat="44.82688" lon="5.39308">
        <ele>846.1</ele>
        <time>2017-08-20T07:40:09Z</time>
      </trkpt>
      <trkpt lat="44.82678" lon="5.39314">
        <ele>845.14</ele>
        <time>2017-08-20T07:40:10Z</time>
      </trkpt>
      <trkpt lat="44.82669" lon="5.39321">
        <ele>844.66</ele>
        <time>2017-08-20T07:40:11Z</time>
      </trkpt>
      <trkpt lat="44.8266" lon="5.39328">
        <ele>844.18</ele>
        <time>2017-08-20T07:40:12Z</time>
      </trkpt>
      <trkpt lat="44.8265" lon="5.39331">
        <ele>843.21</ele>
        <time>2017-08-20T07:40:13Z</time>
      </trkpt>
      <trkpt lat="44.82639" lon="5.39329">
        <ele>843.21</ele>
        <time>2017-08-20T07:40:14Z</time>
      </trkpt>
      <trkpt lat="44.8263" lon="5.39325">
        <ele>843.21</ele>
        <time>2017-08-20T07:40:15Z</time>
      </trkpt>
      <trkpt lat="44.82621" lon="5.39319">
        <ele>842.73</ele>
        <time>2017-08-20T07:40:16Z</time>
      </trkpt>
      <trkpt lat="44.8261" lon="5.39313">
        <ele>841.77</ele>
        <time>2017-08-20T07:40:17Z</time>
      </trkpt>
      <trkpt lat="44.82548" lon="5.39267">
        <ele>838.41</ele>
        <time>2017-08-20T07:40:23Z</time>
      </trkpt>
      <trkpt lat="44.82522" lon="5.39234">
        <ele>836.48</ele>
        <time>2017-08-20T07:40:26Z</time>
      </trkpt>
      <trkpt lat="44.82512" lon="5.39225">
        <ele>835.52</ele>
        <time>2017-08-20T07:40:27Z</time>
      </trkpt>
      <trkpt lat="44.82502" lon="5.39218">
        <ele>835.04</ele>
        <time>2017-08-20T07:40:28Z</time>
      </trkpt>
      <trkpt lat="44.82491" lon="5.39213">
        <ele>835.04</ele>
        <time>2017-08-20T07:40:29Z</time>
      </trkpt>
      <trkpt lat="44.8248" lon="5.39208">
        <ele>834.08</ele>
        <time>2017-08-20T07:40:30Z</time>
      </trkpt>
      <trkpt lat="44.82469" lon="5.39202">
        <ele>833.12</ele>
        <time>2017-08-20T07:40:31Z</time>
      </trkpt>
      <trkpt lat="44.82458" lon="5.39194">
        <ele>832.64</ele>
        <time>2017-08-20T07:40:32Z</time>
      </trkpt>
      <trkpt lat="44.82449" lon="5.39185">
        <ele>832.16</ele>
        <time>2017-08-20T07:40:33Z</time>
      </trkpt>
      <trkpt lat="44.8244" lon="5.39173">
        <ele>831.68</ele>
        <time>2017-08-20T07:40:34Z</time>
      </trkpt>
      <trkpt lat="44.82432" lon="5.39161">
        <ele>830.72</ele>
        <time>2017-08-20T07:40:35Z</time>
      </trkpt>
      <trkpt lat="44.82424" lon="5.39149">
        <ele>830.72</ele>
        <time>2017-08-20T07:40:36Z</time>
      </trkpt>
      <trkpt lat="44.82399" lon="5.39114">
        <ele>827.83</ele>
        <time>2017-08-20T07:40:39Z</time>
      </trkpt>
      <trkpt lat="44.82361" lon="5.39073">
        <ele>825.43</ele>
        <time>2017-08-20T07:40:43Z</time>
      </trkpt>
      <trkpt lat="44.82345" lon="5.39048">
        <ele>823.99</ele>
        <time>2017-08-20T07:40:45Z</time>
      </trkpt>
      <trkpt lat="44.82339" lon="5.39035">
        <ele>823.03</ele>
        <time>2017-08-20T07:40:46Z</time>
      </trkpt>
      <trkpt lat="44.82334" lon="5.39021">
        <ele>821.58</ele>
        <time>2017-08-20T07:40:47Z</time>
      </trkpt>
      <trkpt lat="44.82331" lon="5.39005">
        <ele>821.1</ele>
        <time>2017-08-20T07:40:48Z</time>
      </trkpt>
      <trkpt lat="44.8233" lon="5.38989">
        <ele>820.62</ele>
        <time>2017-08-20T07:40:49Z</time>
      </trkpt>
      <trkpt lat="44.82331" lon="5.38974">
        <ele>819.66</ele>
        <time>2017-08-20T07:40:50Z</time>
      </trkpt>
      <trkpt lat="44.82333" lon="5.38958">
        <ele>819.66</ele>
        <time>2017-08-20T07:40:51Z</time>
      </trkpt>
      <trkpt lat="44.82337" lon="5.38943">
        <ele>818.7</ele>
        <time>2017-08-20T07:40:52Z</time>
      </trkpt>
      <trkpt lat="44.8234" lon="5.38928">
        <ele>818.7</ele>
        <time>2017-08-20T07:40:53Z</time>
      </trkpt>
      <trkpt lat="44.82345" lon="5.38898">
        <ele>817.74</ele>
        <time>2017-08-20T07:40:55Z</time>
      </trkpt>
      <trkpt lat="44.82345" lon="5.38883">
        <ele>817.74</ele>
        <time>2017-08-20T07:40:56Z</time>
      </trkpt>
      <trkpt lat="44.82341" lon="5.38869">
        <ele>817.74</ele>
        <time>2017-08-20T07:40:57Z</time>
      </trkpt>
      <trkpt lat="44.82329" lon="5.38819">
        <ele>817.74</ele>
        <time>2017-08-20T07:41:01Z</time>
      </trkpt>
      <trkpt lat="44.82329" lon="5.38808">
        <ele>817.74</ele>
        <time>2017-08-20T07:41:02Z</time>
      </trkpt>
      <trkpt lat="44.82326" lon="5.38798">
        <ele>817.74</ele>
        <time>2017-08-20T07:41:03Z</time>
      </trkpt>
      <trkpt lat="44.8232" lon="5.38793">
        <ele>817.74</ele>
        <time>2017-08-20T07:41:04Z</time>
      </trkpt>
      <trkpt lat="44.82314" lon="5.38794">
        <ele>817.74</ele>
        <time>2017-08-20T07:41:05Z</time>
      </trkpt>
      <trkpt lat="44.82308" lon="5.388">
        <ele>817.74</ele>
        <time>2017-08-20T07:41:06Z</time>
      </trkpt>
      <trkpt lat="44.82303" lon="5.38807">
        <ele>817.74</ele>
        <time>2017-08-20T07:41:07Z</time>
      </trkpt>
      <trkpt lat="44.82301" lon="5.38815">
        <ele>817.26</ele>
        <time>2017-08-20T07:41:08Z</time>
      </trkpt>
      <trkpt lat="44.82302" lon="5.38823">
        <ele>816.78</ele>
        <time>2017-08-20T07:41:09Z</time>
      </trkpt>
      <trkpt lat="44.82311" lon="5.38888">
        <ele>813.89</ele>
        <time>2017-08-20T07:41:15Z</time>
      </trkpt>
      <trkpt lat="44.8231" lon="5.38914">
        <ele>813.41</ele>
        <time>2017-08-20T07:41:17Z</time>
      </trkpt>
      <trkpt lat="44.82309" lon="5.38926">
        <ele>812.45</ele>
        <time>2017-08-20T07:41:18Z</time>
      </trkpt>
      <trkpt lat="44.82306" lon="5.38938">
        <ele>812.45</ele>
        <time>2017-08-20T07:41:19Z</time>
      </trkpt>
      <trkpt lat="44.82308" lon="5.38952">
        <ele>811.49</ele>
        <time>2017-08-20T07:41:20Z</time>
      </trkpt>
      <trkpt lat="44.82292" lon="5.39">
        <ele>809.09</ele>
        <time>2017-08-20T07:41:24Z</time>
      </trkpt>
      <trkpt lat="44.82285" lon="5.39037">
        <ele>806.68</ele>
        <time>2017-08-20T07:41:27Z</time>
      </trkpt>
      <trkpt lat="44.82285" lon="5.39048">
        <ele>806.2</ele>
        <time>2017-08-20T07:41:28Z</time>
      </trkpt>
      <trkpt lat="44.82285" lon="5.39059">
        <ele>805.72</ele>
        <time>2017-08-20T07:41:29Z</time>
      </trkpt>
      <trkpt lat="44.82294" lon="5.39072">
        <ele>804.76</ele>
        <time>2017-08-20T07:41:30Z</time>
      </trkpt>
      <trkpt lat="44.82302" lon="5.39084">
        <ele>804.76</ele>
        <time>2017-08-20T07:41:31Z</time>
      </trkpt>
      <trkpt lat="44.82309" lon="5.39096">
        <ele>804.76</ele>
        <time>2017-08-20T07:41:32Z</time>
      </trkpt>
      <trkpt lat="44.8234" lon="5.39147">
        <ele>801.4</ele>
        <time>2017-08-20T07:41:37Z</time>
      </trkpt>
      <trkpt lat="44.8237" lon="5.39197">
        <ele>800.44</ele>
        <time>2017-08-20T07:41:42Z</time>
      </trkpt>
      <trkpt lat="44.82374" lon="5.39209">
        <ele>799.95</ele>
        <time>2017-08-20T07:41:43Z</time>
      </trkpt>
      <trkpt lat="44.82393" lon="5.39253">
        <ele>799.47</ele>
        <time>2017-08-20T07:41:47Z</time>
      </trkpt>
      <trkpt lat="44.82399" lon="5.39261">
        <ele>798.51</ele>
        <time>2017-08-20T07:41:48Z</time>
      </trkpt>
      <trkpt lat="44.82406" lon="5.39269">
        <ele>798.03</ele>
        <time>2017-08-20T07:41:49Z</time>
      </trkpt>
      <trkpt lat="44.82413" lon="5.39276">
        <ele>797.55</ele>
        <time>2017-08-20T07:41:50Z</time>
      </trkpt>
      <trkpt lat="44.8242" lon="5.39283">
        <ele>797.55</ele>
        <time>2017-08-20T07:41:51Z</time>
      </trkpt>
      <trkpt lat="44.82428" lon="5.39289">
        <ele>796.59</ele>
        <time>2017-08-20T07:41:52Z</time>
      </trkpt>
      <trkpt lat="44.82437" lon="5.39294">
        <ele>795.63</ele>
        <time>2017-08-20T07:41:53Z</time>
      </trkpt>
      <trkpt lat="44.82461" lon="5.39313">
        <ele>794.19</ele>
        <time>2017-08-20T07:41:56Z</time>
      </trkpt>
      <trkpt lat="44.82468" lon="5.39321">
        <ele>793.71</ele>
        <time>2017-08-20T07:41:57Z</time>
      </trkpt>
      <trkpt lat="44.82481" lon="5.39339">
        <ele>793.22</ele>
        <time>2017-08-20T07:41:59Z</time>
      </trkpt>
      <trkpt lat="44.82502" lon="5.39366">
        <ele>791.3</ele>
        <time>2017-08-20T07:42:02Z</time>
      </trkpt>
      <trkpt lat="44.82524" lon="5.39389">
        <ele>790.34</ele>
        <time>2017-08-20T07:42:05Z</time>
      </trkpt>
      <trkpt lat="44.82598" lon="5.39445">
        <ele>786.5</ele>
        <time>2017-08-20T07:42:15Z</time>
      </trkpt>
      <trkpt lat="44.82605" lon="5.39448">
        <ele>786.02</ele>
        <time>2017-08-20T07:42:16Z</time>
      </trkpt>
      <trkpt lat="44.82613" lon="5.3945">
        <ele>786.5</ele>
        <time>2017-08-20T07:42:17Z</time>
      </trkpt>
      <trkpt lat="44.82621" lon="5.3945">
        <ele>785.53</ele>
        <time>2017-08-20T07:42:18Z</time>
      </trkpt>
      <trkpt lat="44.82629" lon="5.39451">
        <ele>785.05</ele>
        <time>2017-08-20T07:42:19Z</time>
      </trkpt>
      <trkpt lat="44.82664" lon="5.39454">
        <ele>783.61</ele>
        <time>2017-08-20T07:42:23Z</time>
      </trkpt>
      <trkpt lat="44.82673" lon="5.39458">
        <ele>782.65</ele>
        <time>2017-08-20T07:42:24Z</time>
      </trkpt>
      <trkpt lat="44.82681" lon="5.39464">
        <ele>782.65</ele>
        <time>2017-08-20T07:42:25Z</time>
      </trkpt>
      <trkpt lat="44.8269" lon="5.3947">
        <ele>782.17</ele>
        <time>2017-08-20T07:42:26Z</time>
      </trkpt>
      <trkpt lat="44.82699" lon="5.39474">
        <ele>781.69</ele>
        <time>2017-08-20T07:42:27Z</time>
      </trkpt>
      <trkpt lat="44.82708" lon="5.39477">
        <ele>781.21</ele>
        <time>2017-08-20T07:42:28Z</time>
      </trkpt>
      <trkpt lat="44.82718" lon="5.39479">
        <ele>780.25</ele>
        <time>2017-08-20T07:42:29Z</time>
      </trkpt>
      <trkpt lat="44.82747" lon="5.39486">
        <ele>777.84</ele>
        <time>2017-08-20T07:42:32Z</time>
      </trkpt>
      <trkpt lat="44.82756" lon="5.3949">
        <ele>777.84</ele>
        <time>2017-08-20T07:42:33Z</time>
      </trkpt>
      <trkpt lat="44.82765" lon="5.39495">
        <ele>777.84</ele>
        <time>2017-08-20T07:42:34Z</time>
      </trkpt>
      <trkpt lat="44.82773" lon="5.39501">
        <ele>777.36</ele>
        <time>2017-08-20T07:42:35Z</time>
      </trkpt>
      <trkpt lat="44.82781" lon="5.39507">
        <ele>776.88</ele>
        <time>2017-08-20T07:42:36Z</time>
      </trkpt>
      <trkpt lat="44.82797" lon="5.39521">
        <ele>775.92</ele>
        <time>2017-08-20T07:42:38Z</time>
      </trkpt>
      <trkpt lat="44.82803" lon="5.39529">
        <ele>774.96</ele>
        <time>2017-08-20T07:42:39Z</time>
      </trkpt>
      <trkpt lat="44.82807" lon="5.3954">
        <ele>774</ele>
        <time>2017-08-20T07:42:40Z</time>
      </trkpt>
      <trkpt lat="44.82807" lon="5.39553">
        <ele>773.52</ele>
        <time>2017-08-20T07:42:41Z</time>
      </trkpt>
      <trkpt lat="44.82804" lon="5.39564">
        <ele>772.56</ele>
        <time>2017-08-20T07:42:42Z</time>
      </trkpt>
      <trkpt lat="44.82798" lon="5.39573">
        <ele>771.6</ele>
        <time>2017-08-20T07:42:43Z</time>
      </trkpt>
      <trkpt lat="44.8279" lon="5.3958">
        <ele>771.11</ele>
        <time>2017-08-20T07:42:44Z</time>
      </trkpt>
      <trkpt lat="44.82781" lon="5.39586">
        <ele>770.63</ele>
        <time>2017-08-20T07:42:45Z</time>
      </trkpt>
      <trkpt lat="44.82773" lon="5.39594">
        <ele>770.15</ele>
        <time>2017-08-20T07:42:46Z</time>
      </trkpt>
      <trkpt lat="44.82764" lon="5.39603">
        <ele>769.67</ele>
        <time>2017-08-20T07:42:47Z</time>
      </trkpt>
      <trkpt lat="44.82709" lon="5.3965">
        <ele>765.83</ele>
        <time>2017-08-20T07:42:53Z</time>
      </trkpt>
      <trkpt lat="44.82689" lon="5.39664">
        <ele>765.35</ele>
        <time>2017-08-20T07:42:55Z</time>
      </trkpt>
      <trkpt lat="44.82651" lon="5.39694">
        <ele>763.42</ele>
        <time>2017-08-20T07:42:59Z</time>
      </trkpt>
      <trkpt lat="44.82642" lon="5.39705">
        <ele>762.46</ele>
        <time>2017-08-20T07:43:00Z</time>
      </trkpt>
      <trkpt lat="44.82634" lon="5.39717">
        <ele>761.98</ele>
        <time>2017-08-20T07:43:01Z</time>
      </trkpt>
      <trkpt lat="44.82627" lon="5.39728">
        <ele>761.02</ele>
        <time>2017-08-20T07:43:02Z</time>
      </trkpt>
      <trkpt lat="44.82618" lon="5.39739">
        <ele>761.02</ele>
        <time>2017-08-20T07:43:03Z</time>
      </trkpt>
      <trkpt lat="44.82609" lon="5.39748">
        <ele>760.06</ele>
        <time>2017-08-20T07:43:04Z</time>
      </trkpt>
      <trkpt lat="44.82599" lon="5.39756">
        <ele>760.06</ele>
        <time>2017-08-20T07:43:05Z</time>
      </trkpt>
      <trkpt lat="44.8259" lon="5.39764">
        <ele>759.1</ele>
        <time>2017-08-20T07:43:06Z</time>
      </trkpt>
      <trkpt lat="44.82575" lon="5.39781">
        <ele>758.62</ele>
        <time>2017-08-20T07:43:08Z</time>
      </trkpt>
      <trkpt lat="44.82568" lon="5.39784">
        <ele>758.14</ele>
        <time>2017-08-20T07:43:09Z</time>
      </trkpt>
      <trkpt lat="44.82562" lon="5.39782">
        <ele>758.14</ele>
        <time>2017-08-20T07:43:10Z</time>
      </trkpt>
      <trkpt lat="44.82559" lon="5.39775">
        <ele>758.14</ele>
        <time>2017-08-20T07:43:11Z</time>
      </trkpt>
      <trkpt lat="44.82559" lon="5.39766">
        <ele>757.18</ele>
        <time>2017-08-20T07:43:12Z</time>
      </trkpt>
      <trkpt lat="44.82563" lon="5.3976">
        <ele>756.69</ele>
        <time>2017-08-20T07:43:13Z</time>
      </trkpt>
      <trkpt lat="44.82568" lon="5.39756">
        <ele>757.18</ele>
        <time>2017-08-20T07:43:14Z</time>
      </trkpt>
      <trkpt lat="44.82575" lon="5.39753">
        <ele>756.69</ele>
        <time>2017-08-20T07:43:15Z</time>
      </trkpt>
      <trkpt lat="44.82581" lon="5.39751">
        <ele>756.21</ele>
        <time>2017-08-20T07:43:16Z</time>
      </trkpt>
      <trkpt lat="44.82587" lon="5.39747">
        <ele>755.73</ele>
        <time>2017-08-20T07:43:17Z</time>
      </trkpt>
      <trkpt lat="44.82593" lon="5.39743">
        <ele>755.25</ele>
        <time>2017-08-20T07:43:18Z</time>
      </trkpt>
      <trkpt lat="44.82599" lon="5.39738">
        <ele>755.73</ele>
        <time>2017-08-20T07:43:19Z</time>
      </trkpt>
      <trkpt lat="44.82605" lon="5.39732">
        <ele>755.73</ele>
        <time>2017-08-20T07:43:20Z</time>
      </trkpt>
      <trkpt lat="44.82611" lon="5.39724">
        <ele>754.77</ele>
        <time>2017-08-20T07:43:21Z</time>
      </trkpt>
      <trkpt lat="44.82617" lon="5.39716">
        <ele>754.29</ele>
        <time>2017-08-20T07:43:22Z</time>
      </trkpt>
      <trkpt lat="44.82622" lon="5.39706">
        <ele>754.29</ele>
        <time>2017-08-20T07:43:23Z</time>
      </trkpt>
      <trkpt lat="44.82643" lon="5.39669">
        <ele>752.37</ele>
        <time>2017-08-20T07:43:27Z</time>
      </trkpt>
      <trkpt lat="44.82661" lon="5.39645">
        <ele>750.93</ele>
        <time>2017-08-20T07:43:30Z</time>
      </trkpt>
      <trkpt lat="44.82676" lon="5.39631">
        <ele>749.49</ele>
        <time>2017-08-20T07:43:32Z</time>
      </trkpt>
      <trkpt lat="44.82683" lon="5.39625">
        <ele>749.49</ele>
        <time>2017-08-20T07:43:33Z</time>
      </trkpt>
      <trkpt lat="44.82713" lon="5.39596">
        <ele>747.56</ele>
        <time>2017-08-20T07:43:37Z</time>
      </trkpt>
      <trkpt lat="44.82718" lon="5.39586">
        <ele>747.08</ele>
        <time>2017-08-20T07:43:38Z</time>
      </trkpt>
      <trkpt lat="44.82723" lon="5.39574">
        <ele>747.08</ele>
        <time>2017-08-20T07:43:39Z</time>
      </trkpt>
      <trkpt lat="44.82724" lon="5.39561">
        <ele>746.12</ele>
        <time>2017-08-20T07:43:40Z</time>
      </trkpt>
      <trkpt lat="44.82722" lon="5.39548">
        <ele>745.64</ele>
        <time>2017-08-20T07:43:41Z</time>
      </trkpt>
      <trkpt lat="44.82716" lon="5.39539">
        <ele>745.16</ele>
        <time>2017-08-20T07:43:42Z</time>
      </trkpt>
      <trkpt lat="44.82708" lon="5.39531">
        <ele>744.68</ele>
        <time>2017-08-20T07:43:43Z</time>
      </trkpt>
      <trkpt lat="44.82699" lon="5.39525">
        <ele>744.2</ele>
        <time>2017-08-20T07:43:44Z</time>
      </trkpt>
      <trkpt lat="44.8269" lon="5.39521">
        <ele>744.2</ele>
        <time>2017-08-20T07:43:45Z</time>
      </trkpt>
      <trkpt lat="44.82681" lon="5.39516">
        <ele>743.24</ele>
        <time>2017-08-20T07:43:46Z</time>
      </trkpt>
      <trkpt lat="44.82671" lon="5.39513">
        <ele>742.76</ele>
        <time>2017-08-20T07:43:47Z</time>
      </trkpt>
      <trkpt lat="44.8266" lon="5.39511">
        <ele>742.28</ele>
        <time>2017-08-20T07:43:48Z</time>
      </trkpt>
      <trkpt lat="44.8265" lon="5.3951">
        <ele>741.79</ele>
        <time>2017-08-20T07:43:49Z</time>
      </trkpt>
      <trkpt lat="44.82609" lon="5.39506">
        <ele>739.87</ele>
        <time>2017-08-20T07:43:53Z</time>
      </trkpt>
      <trkpt lat="44.82558" lon="5.39496">
        <ele>737.47</ele>
        <time>2017-08-20T07:43:58Z</time>
      </trkpt>
      <trkpt lat="44.82547" lon="5.39496">
        <ele>736.51</ele>
        <time>2017-08-20T07:43:59Z</time>
      </trkpt>
      <trkpt lat="44.82514" lon="5.39498">
        <ele>734.58</ele>
        <time>2017-08-20T07:44:02Z</time>
      </trkpt>
      <trkpt lat="44.82503" lon="5.39497">
        <ele>734.1</ele>
        <time>2017-08-20T07:44:03Z</time>
      </trkpt>
      <trkpt lat="44.82492" lon="5.39494">
        <ele>733.14</ele>
        <time>2017-08-20T07:44:04Z</time>
      </trkpt>
      <trkpt lat="44.82449" lon="5.39474">
        <ele>729.78</ele>
        <time>2017-08-20T07:44:08Z</time>
      </trkpt>
      <trkpt lat="44.82419" lon="5.39452">
        <ele>727.86</ele>
        <time>2017-08-20T07:44:11Z</time>
      </trkpt>
      <trkpt lat="44.82408" lon="5.39446">
        <ele>727.37</ele>
        <time>2017-08-20T07:44:12Z</time>
      </trkpt>
      <trkpt lat="44.82397" lon="5.39442">
        <ele>726.89</ele>
        <time>2017-08-20T07:44:13Z</time>
      </trkpt>
      <trkpt lat="44.82329" lon="5.39428">
        <ele>723.53</ele>
        <time>2017-08-20T07:44:19Z</time>
      </trkpt>
      <trkpt lat="44.82318" lon="5.39423">
        <ele>723.05</ele>
        <time>2017-08-20T07:44:20Z</time>
      </trkpt>
      <trkpt lat="44.82308" lon="5.39418">
        <ele>722.57</ele>
        <time>2017-08-20T07:44:21Z</time>
      </trkpt>
      <trkpt lat="44.82297" lon="5.39411">
        <ele>721.61</ele>
        <time>2017-08-20T07:44:22Z</time>
      </trkpt>
      <trkpt lat="44.82288" lon="5.39402">
        <ele>720.16</ele>
        <time>2017-08-20T07:44:23Z</time>
      </trkpt>
      <trkpt lat="44.82279" lon="5.39393">
        <ele>720.16</ele>
        <time>2017-08-20T07:44:24Z</time>
      </trkpt>
      <trkpt lat="44.8227" lon="5.39382">
        <ele>719.68</ele>
        <time>2017-08-20T07:44:25Z</time>
      </trkpt>
      <trkpt lat="44.82261" lon="5.39372">
        <ele>719.2</ele>
        <time>2017-08-20T07:44:26Z</time>
      </trkpt>
      <trkpt lat="44.82251" lon="5.39363">
        <ele>718.72</ele>
        <time>2017-08-20T07:44:27Z</time>
      </trkpt>
      <trkpt lat="44.8223" lon="5.39347">
        <ele>716.8</ele>
        <time>2017-08-20T07:44:29Z</time>
      </trkpt>
      <trkpt lat="44.82221" lon="5.39337">
        <ele>716.32</ele>
        <time>2017-08-20T07:44:30Z</time>
      </trkpt>
      <trkpt lat="44.82213" lon="5.39325">
        <ele>715.84</ele>
        <time>2017-08-20T07:44:31Z</time>
      </trkpt>
      <trkpt lat="44.82199" lon="5.39299">
        <ele>713.92</ele>
        <time>2017-08-20T07:44:33Z</time>
      </trkpt>
      <trkpt lat="44.82168" lon="5.39219">
        <ele>710.55</ele>
        <time>2017-08-20T07:44:39Z</time>
      </trkpt>
      <trkpt lat="44.82165" lon="5.39206">
        <ele>710.07</ele>
        <time>2017-08-20T07:44:40Z</time>
      </trkpt>
      <trkpt lat="44.82158" lon="5.39184">
        <ele>710.07</ele>
        <time>2017-08-20T07:44:42Z</time>
      </trkpt>
      <trkpt lat="44.82152" lon="5.39179">
        <ele>710.07</ele>
        <time>2017-08-20T07:44:43Z</time>
      </trkpt>
      <trkpt lat="44.82146" lon="5.3918">
        <ele>710.07</ele>
        <time>2017-08-20T07:44:44Z</time>
      </trkpt>
      <trkpt lat="44.82141" lon="5.39186">
        <ele>709.59</ele>
        <time>2017-08-20T07:44:45Z</time>
      </trkpt>
      <trkpt lat="44.82136" lon="5.39193">
        <ele>709.11</ele>
        <time>2017-08-20T07:44:46Z</time>
      </trkpt>
      <trkpt lat="44.82135" lon="5.39199">
        <ele>708.63</ele>
        <time>2017-08-20T07:44:47Z</time>
      </trkpt>
      <trkpt lat="44.82138" lon="5.39207">
        <ele>707.67</ele>
        <time>2017-08-20T07:44:48Z</time>
      </trkpt>
      <trkpt lat="44.82142" lon="5.39216">
        <ele>707.19</ele>
        <time>2017-08-20T07:44:49Z</time>
      </trkpt>
      <trkpt lat="44.8215" lon="5.39238">
        <ele>706.23</ele>
        <time>2017-08-20T07:44:51Z</time>
      </trkpt>
      <trkpt lat="44.82164" lon="5.39287">
        <ele>704.78</ele>
        <time>2017-08-20T07:44:55Z</time>
      </trkpt>
      <trkpt lat="44.82169" lon="5.39314">
        <ele>703.82</ele>
        <time>2017-08-20T07:44:57Z</time>
      </trkpt>
      <trkpt lat="44.82177" lon="5.39354">
        <ele>701.9</ele>
        <time>2017-08-20T07:45:00Z</time>
      </trkpt>
      <trkpt lat="44.82181" lon="5.39367">
        <ele>701.9</ele>
        <time>2017-08-20T07:45:01Z</time>
      </trkpt>
      <trkpt lat="44.82185" lon="5.39378">
        <ele>701.42</ele>
        <time>2017-08-20T07:45:02Z</time>
      </trkpt>
      <trkpt lat="44.82197" lon="5.39399">
        <ele>700.94</ele>
        <time>2017-08-20T07:45:04Z</time>
      </trkpt>
      <trkpt lat="44.82243" lon="5.3945">
        <ele>697.57</ele>
        <time>2017-08-20T07:45:10Z</time>
      </trkpt>
      <trkpt lat="44.8226" lon="5.39463">
        <ele>696.61</ele>
        <time>2017-08-20T07:45:12Z</time>
      </trkpt>
      <trkpt lat="44.82312" lon="5.39497">
        <ele>694.69</ele>
        <time>2017-08-20T07:45:18Z</time>
      </trkpt>
      <trkpt lat="44.82358" lon="5.39518">
        <ele>692.77</ele>
        <time>2017-08-20T07:45:23Z</time>
      </trkpt>
      <trkpt lat="44.82367" lon="5.3952">
        <ele>692.29</ele>
        <time>2017-08-20T07:45:24Z</time>
      </trkpt>
      <trkpt lat="44.82391" lon="5.39523">
        <ele>691.33</ele>
        <time>2017-08-20T07:45:27Z</time>
      </trkpt>
      <trkpt lat="44.82396" lon="5.39529">
        <ele>691.33</ele>
        <time>2017-08-20T07:45:28Z</time>
      </trkpt>
      <trkpt lat="44.82392" lon="5.3954">
        <ele>689.88</ele>
        <time>2017-08-20T07:45:30Z</time>
      </trkpt>
      <trkpt lat="44.82386" lon="5.3954">
        <ele>688.92</ele>
        <time>2017-08-20T07:45:31Z</time>
      </trkpt>
      <trkpt lat="44.8238" lon="5.39538">
        <ele>688.92</ele>
        <time>2017-08-20T07:45:32Z</time>
      </trkpt>
      <trkpt lat="44.82374" lon="5.39536">
        <ele>688.92</ele>
        <time>2017-08-20T07:45:33Z</time>
      </trkpt>
      <trkpt lat="44.82367" lon="5.39534">
        <ele>688.92</ele>
        <time>2017-08-20T07:45:34Z</time>
      </trkpt>
      <trkpt lat="44.82297" lon="5.39512">
        <ele>685.56</ele>
        <time>2017-08-20T07:45:42Z</time>
      </trkpt>
      <trkpt lat="44.82232" lon="5.39498">
        <ele>681.71</ele>
        <time>2017-08-20T07:45:49Z</time>
      </trkpt>
      <trkpt lat="44.8221" lon="5.39497">
        <ele>680.27</ele>
        <time>2017-08-20T07:45:51Z</time>
      </trkpt>
      <trkpt lat="44.822" lon="5.39498">
        <ele>679.79</ele>
        <time>2017-08-20T07:45:52Z</time>
      </trkpt>
      <trkpt lat="44.8219" lon="5.39501">
        <ele>678.83</ele>
        <time>2017-08-20T07:45:53Z</time>
      </trkpt>
      <trkpt lat="44.82148" lon="5.39521">
        <ele>675.94</ele>
        <time>2017-08-20T07:45:57Z</time>
      </trkpt>
      <trkpt lat="44.8209" lon="5.39558">
        <ele>673.06</ele>
        <time>2017-08-20T07:46:03Z</time>
      </trkpt>
      <trkpt lat="44.82078" lon="5.39562">
        <ele>672.1</ele>
        <time>2017-08-20T07:46:04Z</time>
      </trkpt>
      <trkpt lat="44.82065" lon="5.39562">
        <ele>671.62</ele>
        <time>2017-08-20T07:46:05Z</time>
      </trkpt>
      <trkpt lat="44.82053" lon="5.39559">
        <ele>670.66</ele>
        <time>2017-08-20T07:46:06Z</time>
      </trkpt>
      <trkpt lat="44.8204" lon="5.39554">
        <ele>670.18</ele>
        <time>2017-08-20T07:46:07Z</time>
      </trkpt>
      <trkpt lat="44.82029" lon="5.39548">
        <ele>668.73</ele>
        <time>2017-08-20T07:46:08Z</time>
      </trkpt>
      <trkpt lat="44.8202" lon="5.3954">
        <ele>667.77</ele>
        <time>2017-08-20T07:46:09Z</time>
      </trkpt>
      <trkpt lat="44.82012" lon="5.3953">
        <ele>666.81</ele>
        <time>2017-08-20T07:46:10Z</time>
      </trkpt>
      <trkpt lat="44.82007" lon="5.39518">
        <ele>665.85</ele>
        <time>2017-08-20T07:46:11Z</time>
      </trkpt>
      <trkpt lat="44.82005" lon="5.39504">
        <ele>663.93</ele>
        <time>2017-08-20T07:46:12Z</time>
      </trkpt>
      <trkpt lat="44.82004" lon="5.39493">
        <ele>663.93</ele>
        <time>2017-08-20T07:46:13Z</time>
      </trkpt>
      <trkpt lat="44.82009" lon="5.39479">
        <ele>663.93</ele>
        <time>2017-08-20T07:46:14Z</time>
      </trkpt>
      <trkpt lat="44.82014" lon="5.39468">
        <ele>662.97</ele>
        <time>2017-08-20T07:46:15Z</time>
      </trkpt>
      <trkpt lat="44.82019" lon="5.39459">
        <ele>662.01</ele>
        <time>2017-08-20T07:46:16Z</time>
      </trkpt>
      <trkpt lat="44.82023" lon="5.39454">
        <ele>661.04</ele>
        <time>2017-08-20T07:46:17Z</time>
      </trkpt>
      <trkpt lat="44.8205" lon="5.39423">
        <ele>659.6</ele>
        <time>2017-08-20T07:46:20Z</time>
      </trkpt>
      <trkpt lat="44.82058" lon="5.39412">
        <ele>658.64</ele>
        <time>2017-08-20T07:46:21Z</time>
      </trkpt>
      <trkpt lat="44.82062" lon="5.39399">
        <ele>658.16</ele>
        <time>2017-08-20T07:46:22Z</time>
      </trkpt>
      <trkpt lat="44.82066" lon="5.39385">
        <ele>657.68</ele>
        <time>2017-08-20T07:46:23Z</time>
      </trkpt>
      <trkpt lat="44.82067" lon="5.39371">
        <ele>657.2</ele>
        <time>2017-08-20T07:46:24Z</time>
      </trkpt>
      <trkpt lat="44.82067" lon="5.39357">
        <ele>656.72</ele>
        <time>2017-08-20T07:46:25Z</time>
      </trkpt>
      <trkpt lat="44.82064" lon="5.39344">
        <ele>656.24</ele>
        <time>2017-08-20T07:46:26Z</time>
      </trkpt>
      <trkpt lat="44.82051" lon="5.39304">
        <ele>654.31</ele>
        <time>2017-08-20T07:46:29Z</time>
      </trkpt>
      <trkpt lat="44.82044" lon="5.39292">
        <ele>653.35</ele>
        <time>2017-08-20T07:46:30Z</time>
      </trkpt>
      <trkpt lat="44.82036" lon="5.39282">
        <ele>652.87</ele>
        <time>2017-08-20T07:46:31Z</time>
      </trkpt>
      <trkpt lat="44.82027" lon="5.39274">
        <ele>651.91</ele>
        <time>2017-08-20T07:46:32Z</time>
      </trkpt>
      <trkpt lat="44.82018" lon="5.39267">
        <ele>650.47</ele>
        <time>2017-08-20T07:46:33Z</time>
      </trkpt>
      <trkpt lat="44.81998" lon="5.39253">
        <ele>649.03</ele>
        <time>2017-08-20T07:46:35Z</time>
      </trkpt>
      <trkpt lat="44.8199" lon="5.39244">
        <ele>648.55</ele>
        <time>2017-08-20T07:46:36Z</time>
      </trkpt>
      <trkpt lat="44.81983" lon="5.39233">
        <ele>647.59</ele>
        <time>2017-08-20T07:46:37Z</time>
      </trkpt>
      <trkpt lat="44.81965" lon="5.39201">
        <ele>645.66</ele>
        <time>2017-08-20T07:46:40Z</time>
      </trkpt>
      <trkpt lat="44.81957" lon="5.39196">
        <ele>645.18</ele>
        <time>2017-08-20T07:46:41Z</time>
      </trkpt>
      <trkpt lat="44.81947" lon="5.39197">
        <ele>644.7</ele>
        <time>2017-08-20T07:46:42Z</time>
      </trkpt>
      <trkpt lat="44.81938" lon="5.39203">
        <ele>643.74</ele>
        <time>2017-08-20T07:46:43Z</time>
      </trkpt>
      <trkpt lat="44.8193" lon="5.39212">
        <ele>642.78</ele>
        <time>2017-08-20T07:46:44Z</time>
      </trkpt>
      <trkpt lat="44.81921" lon="5.39221">
        <ele>642.78</ele>
        <time>2017-08-20T07:46:45Z</time>
      </trkpt>
      <trkpt lat="44.81876" lon="5.39265">
        <ele>639.41</ele>
        <time>2017-08-20T07:46:50Z</time>
      </trkpt>
      <trkpt lat="44.81867" lon="5.39272">
        <ele>638.93</ele>
        <time>2017-08-20T07:46:51Z</time>
      </trkpt>
      <trkpt lat="44.81857" lon="5.39277">
        <ele>638.45</ele>
        <time>2017-08-20T07:46:52Z</time>
      </trkpt>
      <trkpt lat="44.81846" lon="5.39279">
        <ele>637.97</ele>
        <time>2017-08-20T07:46:53Z</time>
      </trkpt>
      <trkpt lat="44.81834" lon="5.39281">
        <ele>637.01</ele>
        <time>2017-08-20T07:46:54Z</time>
      </trkpt>
      <trkpt lat="44.81788" lon="5.39275">
        <ele>634.61</ele>
        <time>2017-08-20T07:46:58Z</time>
      </trkpt>
      <trkpt lat="44.81754" lon="5.39267">
        <ele>632.2</ele>
        <time>2017-08-20T07:47:01Z</time>
      </trkpt>
      <trkpt lat="44.81731" lon="5.39263">
        <ele>630.76</ele>
        <time>2017-08-20T07:47:03Z</time>
      </trkpt>
      <trkpt lat="44.8166" lon="5.39247">
        <ele>627.4</ele>
        <time>2017-08-20T07:47:09Z</time>
      </trkpt>
      <trkpt lat="44.81636" lon="5.39242">
        <ele>625.96</ele>
        <time>2017-08-20T07:47:11Z</time>
      </trkpt>
      <trkpt lat="44.81565" lon="5.39239">
        <ele>622.11</ele>
        <time>2017-08-20T07:47:17Z</time>
      </trkpt>
      <trkpt lat="44.81489" lon="5.39256">
        <ele>617.78</ele>
        <time>2017-08-20T07:47:24Z</time>
      </trkpt>
      <trkpt lat="44.81423" lon="5.39268">
        <ele>614.42</ele>
        <time>2017-08-20T07:47:30Z</time>
      </trkpt>
      <trkpt lat="44.81392" lon="5.39274">
        <ele>612.98</ele>
        <time>2017-08-20T07:47:33Z</time>
      </trkpt>
      <trkpt lat="44.81382" lon="5.39273">
        <ele>612.02</ele>
        <time>2017-08-20T07:47:34Z</time>
      </trkpt>
      <trkpt lat="44.81373" lon="5.39267">
        <ele>612.02</ele>
        <time>2017-08-20T07:47:35Z</time>
      </trkpt>
      <trkpt lat="44.81366" lon="5.39257">
        <ele>611.06</ele>
        <time>2017-08-20T07:47:36Z</time>
      </trkpt>
      <trkpt lat="44.8136" lon="5.39246">
        <ele>610.57</ele>
        <time>2017-08-20T07:47:37Z</time>
      </trkpt>
      <trkpt lat="44.81353" lon="5.39235">
        <ele>610.09</ele>
        <time>2017-08-20T07:47:38Z</time>
      </trkpt>
      <trkpt lat="44.81345" lon="5.39227">
        <ele>610.09</ele>
        <time>2017-08-20T07:47:39Z</time>
      </trkpt>
      <trkpt lat="44.81335" lon="5.39225">
        <ele>608.65</ele>
        <time>2017-08-20T07:47:40Z</time>
      </trkpt>
      <trkpt lat="44.81325" lon="5.39228">
        <ele>607.69</ele>
        <time>2017-08-20T07:47:41Z</time>
      </trkpt>
      <trkpt lat="44.81316" lon="5.39235">
        <ele>607.69</ele>
        <time>2017-08-20T07:47:42Z</time>
      </trkpt>
      <trkpt lat="44.81308" lon="5.39244">
        <ele>606.73</ele>
        <time>2017-08-20T07:47:43Z</time>
      </trkpt>
      <trkpt lat="44.81301" lon="5.39253">
        <ele>605.29</ele>
        <time>2017-08-20T07:47:44Z</time>
      </trkpt>
      <trkpt lat="44.81256" lon="5.39314">
        <ele>602.4</ele>
        <time>2017-08-20T07:47:50Z</time>
      </trkpt>
      <trkpt lat="44.81243" lon="5.39337">
        <ele>600.96</ele>
        <time>2017-08-20T07:47:52Z</time>
      </trkpt>
      <trkpt lat="44.81238" lon="5.3935">
        <ele>600.48</ele>
        <time>2017-08-20T07:47:53Z</time>
      </trkpt>
      <trkpt lat="44.81235" lon="5.39364">
        <ele>600</ele>
        <time>2017-08-20T07:47:54Z</time>
      </trkpt>
      <trkpt lat="44.81232" lon="5.39378">
        <ele>599.52</ele>
        <time>2017-08-20T07:47:55Z</time>
      </trkpt>
      <trkpt lat="44.81228" lon="5.39391">
        <ele>599.04</ele>
        <time>2017-08-20T07:47:56Z</time>
      </trkpt>
      <trkpt lat="44.81223" lon="5.39405">
        <ele>598.56</ele>
        <time>2017-08-20T07:47:57Z</time>
      </trkpt>
      <trkpt lat="44.81217" lon="5.39419">
        <ele>597.6</ele>
        <time>2017-08-20T07:47:58Z</time>
      </trkpt>
      <trkpt lat="44.8121" lon="5.3943">
        <ele>596.64</ele>
        <time>2017-08-20T07:47:59Z</time>
      </trkpt>
      <trkpt lat="44.812" lon="5.39438">
        <ele>596.15</ele>
        <time>2017-08-20T07:48:00Z</time>
      </trkpt>
      <trkpt lat="44.8119" lon="5.39442">
        <ele>595.67</ele>
        <time>2017-08-20T07:48:01Z</time>
      </trkpt>
      <trkpt lat="44.81179" lon="5.39442">
        <ele>594.71</ele>
        <time>2017-08-20T07:48:02Z</time>
      </trkpt>
      <trkpt lat="44.81168" lon="5.3944">
        <ele>594.71</ele>
        <time>2017-08-20T07:48:03Z</time>
      </trkpt>
      <trkpt lat="44.81158" lon="5.39435">
        <ele>594.23</ele>
        <time>2017-08-20T07:48:04Z</time>
      </trkpt>
      <trkpt lat="44.81147" lon="5.3943">
        <ele>593.27</ele>
        <time>2017-08-20T07:48:05Z</time>
      </trkpt>
      <trkpt lat="44.81075" lon="5.3939">
        <ele>590.39</ele>
        <time>2017-08-20T07:48:12Z</time>
      </trkpt>
      <trkpt lat="44.81054" lon="5.39382">
        <ele>588.46</ele>
        <time>2017-08-20T07:48:14Z</time>
      </trkpt>
      <trkpt lat="44.81042" lon="5.39381">
        <ele>587.98</ele>
        <time>2017-08-20T07:48:15Z</time>
      </trkpt>
      <trkpt lat="44.81031" lon="5.39381">
        <ele>586.54</ele>
        <time>2017-08-20T07:48:16Z</time>
      </trkpt>
      <trkpt lat="44.80972" lon="5.39381">
        <ele>584.62</ele>
        <time>2017-08-20T07:48:21Z</time>
      </trkpt>
      <trkpt lat="44.80904" lon="5.39364">
        <ele>581.25</ele>
        <time>2017-08-20T07:48:27Z</time>
      </trkpt>
      <trkpt lat="44.80869" lon="5.39356">
        <ele>579.81</ele>
        <time>2017-08-20T07:48:30Z</time>
      </trkpt>
      <trkpt lat="44.80857" lon="5.39356">
        <ele>578.85</ele>
        <time>2017-08-20T07:48:31Z</time>
      </trkpt>
      <trkpt lat="44.80821" lon="5.39355">
        <ele>577.89</ele>
        <time>2017-08-20T07:48:34Z</time>
      </trkpt>
      <trkpt lat="44.8081" lon="5.3935">
        <ele>576.45</ele>
        <time>2017-08-20T07:48:35Z</time>
      </trkpt>
      <trkpt lat="44.808" lon="5.39342">
        <ele>575.97</ele>
        <time>2017-08-20T07:48:36Z</time>
      </trkpt>
      <trkpt lat="44.80769" lon="5.39319">
        <ele>574.53</ele>
        <time>2017-08-20T07:48:39Z</time>
      </trkpt>
      <trkpt lat="44.80748" lon="5.3931">
        <ele>573.08</ele>
        <time>2017-08-20T07:48:41Z</time>
      </trkpt>
      <trkpt lat="44.80737" lon="5.39308">
        <ele>572.6</ele>
        <time>2017-08-20T07:48:42Z</time>
      </trkpt>
      <trkpt lat="44.80703" lon="5.39306">
        <ele>570.68</ele>
        <time>2017-08-20T07:48:45Z</time>
      </trkpt>
      <trkpt lat="44.80693" lon="5.393">
        <ele>569.72</ele>
        <time>2017-08-20T07:48:46Z</time>
      </trkpt>
      <trkpt lat="44.80684" lon="5.39291">
        <ele>569.24</ele>
        <time>2017-08-20T07:48:47Z</time>
      </trkpt>
      <trkpt lat="44.80677" lon="5.39278">
        <ele>568.28</ele>
        <time>2017-08-20T07:48:48Z</time>
      </trkpt>
      <trkpt lat="44.80671" lon="5.39265">
        <ele>567.8</ele>
        <time>2017-08-20T07:48:49Z</time>
      </trkpt>
      <trkpt lat="44.80666" lon="5.39251">
        <ele>567.32</ele>
        <time>2017-08-20T07:48:50Z</time>
      </trkpt>
      <trkpt lat="44.80651" lon="5.3921">
        <ele>565.87</ele>
        <time>2017-08-20T07:48:53Z</time>
      </trkpt>
      <trkpt lat="44.80648" lon="5.39195">
        <ele>565.39</ele>
        <time>2017-08-20T07:48:54Z</time>
      </trkpt>
      <trkpt lat="44.80644" lon="5.39166">
        <ele>564.43</ele>
        <time>2017-08-20T07:48:56Z</time>
      </trkpt>
      <trkpt lat="44.80641" lon="5.39137">
        <ele>563.47</ele>
        <time>2017-08-20T07:48:58Z</time>
      </trkpt>
      <trkpt lat="44.80642" lon="5.39122">
        <ele>562.51</ele>
        <time>2017-08-20T07:48:59Z</time>
      </trkpt>
      <trkpt lat="44.80646" lon="5.39108">
        <ele>562.03</ele>
        <time>2017-08-20T07:49:00Z</time>
      </trkpt>
      <trkpt lat="44.80654" lon="5.39082">
        <ele>561.07</ele>
        <time>2017-08-20T07:49:02Z</time>
      </trkpt>
      <trkpt lat="44.80656" lon="5.39068">
        <ele>560.59</ele>
        <time>2017-08-20T07:49:03Z</time>
      </trkpt>
      <trkpt lat="44.80654" lon="5.39055">
        <ele>559.14</ele>
        <time>2017-08-20T07:49:04Z</time>
      </trkpt>
      <trkpt lat="44.80651" lon="5.39045">
        <ele>558.18</ele>
        <time>2017-08-20T07:49:05Z</time>
      </trkpt>
      <trkpt lat="44.80646" lon="5.39041">
        <ele>558.18</ele>
        <time>2017-08-20T07:49:06Z</time>
      </trkpt>
      <trkpt lat="44.80639" lon="5.39042">
        <ele>557.7</ele>
        <time>2017-08-20T07:49:07Z</time>
      </trkpt>
      <trkpt lat="44.80632" lon="5.39045">
        <ele>557.22</ele>
        <time>2017-08-20T07:49:08Z</time>
      </trkpt>
      <trkpt lat="44.80623" lon="5.39051">
        <ele>556.74</ele>
        <time>2017-08-20T07:49:09Z</time>
      </trkpt>
      <trkpt lat="44.80563" lon="5.39085">
        <ele>553.38</ele>
        <time>2017-08-20T07:49:15Z</time>
      </trkpt>
      <trkpt lat="44.8051" lon="5.39109">
        <ele>550.49</ele>
        <time>2017-08-20T07:49:20Z</time>
      </trkpt>
      <trkpt lat="44.80498" lon="5.3911">
        <ele>550.01</ele>
        <time>2017-08-20T07:49:21Z</time>
      </trkpt>
      <trkpt lat="44.80428" lon="5.3911">
        <ele>546.17</ele>
        <time>2017-08-20T07:49:27Z</time>
      </trkpt>
      <trkpt lat="44.80405" lon="5.39106">
        <ele>544.24</ele>
        <time>2017-08-20T07:49:29Z</time>
      </trkpt>
      <trkpt lat="44.80394" lon="5.391">
        <ele>543.76</ele>
        <time>2017-08-20T07:49:30Z</time>
      </trkpt>
      <trkpt lat="44.80384" lon="5.39092">
        <ele>543.28</ele>
        <time>2017-08-20T07:49:31Z</time>
      </trkpt>
      <trkpt lat="44.80376" lon="5.39081">
        <ele>542.8</ele>
        <time>2017-08-20T07:49:32Z</time>
      </trkpt>
      <trkpt lat="44.80368" lon="5.39069">
        <ele>541.84</ele>
        <time>2017-08-20T07:49:33Z</time>
      </trkpt>
      <trkpt lat="44.80336" lon="5.39021">
        <ele>538.96</ele>
        <time>2017-08-20T07:49:37Z</time>
      </trkpt>
      <trkpt lat="44.8033" lon="5.39007">
        <ele>537.99</ele>
        <time>2017-08-20T07:49:38Z</time>
      </trkpt>
      <trkpt lat="44.80325" lon="5.38992">
        <ele>537.51</ele>
        <time>2017-08-20T07:49:39Z</time>
      </trkpt>
      <trkpt lat="44.80318" lon="5.38979">
        <ele>536.55</ele>
        <time>2017-08-20T07:49:40Z</time>
      </trkpt>
      <trkpt lat="44.8031" lon="5.38968">
        <ele>535.59</ele>
        <time>2017-08-20T07:49:41Z</time>
      </trkpt>
      <trkpt lat="44.80301" lon="5.38958">
        <ele>535.11</ele>
        <time>2017-08-20T07:49:42Z</time>
      </trkpt>
      <trkpt lat="44.80284" lon="5.38936">
        <ele>533.67</ele>
        <time>2017-08-20T07:49:44Z</time>
      </trkpt>
      <trkpt lat="44.80277" lon="5.38923">
        <ele>533.19</ele>
        <time>2017-08-20T07:49:45Z</time>
      </trkpt>
      <trkpt lat="44.80238" lon="5.3884">
        <ele>529.34</ele>
        <time>2017-08-20T07:49:51Z</time>
      </trkpt>
      <trkpt lat="44.80231" lon="5.38827">
        <ele>528.86</ele>
        <time>2017-08-20T07:49:52Z</time>
      </trkpt>
      <trkpt lat="44.80226" lon="5.38813">
        <ele>527.42</ele>
        <time>2017-08-20T07:49:53Z</time>
      </trkpt>
      <trkpt lat="44.80222" lon="5.38797">
        <ele>526.94</ele>
        <time>2017-08-20T07:49:54Z</time>
      </trkpt>
      <trkpt lat="44.80221" lon="5.38781">
        <ele>526.46</ele>
        <time>2017-08-20T07:49:55Z</time>
      </trkpt>
      <trkpt lat="44.80222" lon="5.38766">
        <ele>525.5</ele>
        <time>2017-08-20T07:49:56Z</time>
      </trkpt>
      <trkpt lat="44.80226" lon="5.38751">
        <ele>525.5</ele>
        <time>2017-08-20T07:49:57Z</time>
      </trkpt>
      <trkpt lat="44.8023" lon="5.38737">
        <ele>524.54</ele>
        <time>2017-08-20T07:49:58Z</time>
      </trkpt>
      <trkpt lat="44.80235" lon="5.38724">
        <ele>523.58</ele>
        <time>2017-08-20T07:49:59Z</time>
      </trkpt>
      <trkpt lat="44.80237" lon="5.3871">
        <ele>523.58</ele>
        <time>2017-08-20T07:50:00Z</time>
      </trkpt>
      <trkpt lat="44.80238" lon="5.38696">
        <ele>523.09</ele>
        <time>2017-08-20T07:50:01Z</time>
      </trkpt>
      <trkpt lat="44.80238" lon="5.38685">
        <ele>522.13</ele>
        <time>2017-08-20T07:50:02Z</time>
      </trkpt>
      <trkpt lat="44.80236" lon="5.38679">
        <ele>521.65</ele>
        <time>2017-08-20T07:50:03Z</time>
      </trkpt>
      <trkpt lat="44.80224" lon="5.38678">
        <ele>521.17</ele>
        <time>2017-08-20T07:50:04Z</time>
      </trkpt>
      <trkpt lat="44.80212" lon="5.38681">
        <ele>521.17</ele>
        <time>2017-08-20T07:50:05Z</time>
      </trkpt>
      <trkpt lat="44.802" lon="5.38684">
        <ele>520.21</ele>
        <time>2017-08-20T07:50:06Z</time>
      </trkpt>
      <trkpt lat="44.80187" lon="5.38687">
        <ele>519.73</ele>
        <time>2017-08-20T07:50:07Z</time>
      </trkpt>
      <trkpt lat="44.80175" lon="5.38687">
        <ele>518.77</ele>
        <time>2017-08-20T07:50:08Z</time>
      </trkpt>
      <trkpt lat="44.80164" lon="5.38686">
        <ele>518.77</ele>
        <time>2017-08-20T07:50:09Z</time>
      </trkpt>
      <trkpt lat="44.80153" lon="5.38682">
        <ele>518.29</ele>
        <time>2017-08-20T07:50:10Z</time>
      </trkpt>
      <trkpt lat="44.80142" lon="5.38677">
        <ele>517.81</ele>
        <time>2017-08-20T07:50:11Z</time>
      </trkpt>
      <trkpt lat="44.80131" lon="5.38671">
        <ele>516.85</ele>
        <time>2017-08-20T07:50:12Z</time>
      </trkpt>
      <trkpt lat="44.8012" lon="5.38664">
        <ele>516.85</ele>
        <time>2017-08-20T07:50:13Z</time>
      </trkpt>
      <trkpt lat="44.8007" lon="5.38623">
        <ele>513</ele>
        <time>2017-08-20T07:50:18Z</time>
      </trkpt>
      <trkpt lat="44.80024" lon="5.38573">
        <ele>510.12</ele>
        <time>2017-08-20T07:50:23Z</time>
      </trkpt>
      <trkpt lat="44.79971" lon="5.38514">
        <ele>506.75</ele>
        <time>2017-08-20T07:50:29Z</time>
      </trkpt>
      <trkpt lat="44.79963" lon="5.38504">
        <ele>506.27</ele>
        <time>2017-08-20T07:50:30Z</time>
      </trkpt>
      <trkpt lat="44.79931" lon="5.38467">
        <ele>503.39</ele>
        <time>2017-08-20T07:50:34Z</time>
      </trkpt>
      <trkpt lat="44.79926" lon="5.38456">
        <ele>502.91</ele>
        <time>2017-08-20T07:50:35Z</time>
      </trkpt>
      <trkpt lat="44.79922" lon="5.38444">
        <ele>502.91</ele>
        <time>2017-08-20T07:50:36Z</time>
      </trkpt>
      <trkpt lat="44.79913" lon="5.38424">
        <ele>502.43</ele>
        <time>2017-08-20T07:50:38Z</time>
      </trkpt>
      <trkpt lat="44.79907" lon="5.38415">
        <ele>502.43</ele>
        <time>2017-08-20T07:50:39Z</time>
      </trkpt>
      <trkpt lat="44.7987" lon="5.38378">
        <ele>500.02</ele>
        <time>2017-08-20T07:50:44Z</time>
      </trkpt>
      <trkpt lat="44.79846" lon="5.38353">
        <ele>499.06</ele>
        <time>2017-08-20T07:50:47Z</time>
      </trkpt>
      <trkpt lat="44.79838" lon="5.38347">
        <ele>498.58</ele>
        <time>2017-08-20T07:50:48Z</time>
      </trkpt>
      <trkpt lat="44.79828" lon="5.38343">
        <ele>497.62</ele>
        <time>2017-08-20T07:50:49Z</time>
      </trkpt>
      <trkpt lat="44.79789" lon="5.38327">
        <ele>494.26</ele>
        <time>2017-08-20T07:50:53Z</time>
      </trkpt>
      <trkpt lat="44.79735" lon="5.38315">
        <ele>490.89</ele>
        <time>2017-08-20T07:50:58Z</time>
      </trkpt>
      <trkpt lat="44.79678" lon="5.383">
        <ele>487.53</ele>
        <time>2017-08-20T07:51:03Z</time>
      </trkpt>
      <trkpt lat="44.79631" lon="5.38291">
        <ele>484.16</ele>
        <time>2017-08-20T07:51:07Z</time>
      </trkpt>
      <trkpt lat="44.79597" lon="5.38291">
        <ele>482.72</ele>
        <time>2017-08-20T07:51:10Z</time>
      </trkpt>
      <trkpt lat="44.79575" lon="5.38293">
        <ele>481.76</ele>
        <time>2017-08-20T07:51:12Z</time>
      </trkpt>
      <trkpt lat="44.79533" lon="5.38294">
        <ele>480.32</ele>
        <time>2017-08-20T07:51:16Z</time>
      </trkpt>
      <trkpt lat="44.79524" lon="5.38289">
        <ele>480.32</ele>
        <time>2017-08-20T07:51:17Z</time>
      </trkpt>
      <trkpt lat="44.79517" lon="5.38281">
        <ele>480.32</ele>
        <time>2017-08-20T07:51:18Z</time>
      </trkpt>
      <trkpt lat="44.79511" lon="5.3827">
        <ele>480.32</ele>
        <time>2017-08-20T07:51:19Z</time>
      </trkpt>
      <trkpt lat="44.79507" lon="5.38259">
        <ele>480.32</ele>
        <time>2017-08-20T07:51:20Z</time>
      </trkpt>
      <trkpt lat="44.79504" lon="5.38248">
        <ele>480.8</ele>
        <time>2017-08-20T07:51:21Z</time>
      </trkpt>
      <trkpt lat="44.79501" lon="5.38237">
        <ele>481.28</ele>
        <time>2017-08-20T07:51:22Z</time>
      </trkpt>
      <trkpt lat="44.79465" lon="5.38147">
        <ele>483.68</ele>
        <time>2017-08-20T07:51:33Z</time>
      </trkpt>
      <trkpt lat="44.79455" lon="5.38119">
        <ele>484.64</ele>
        <time>2017-08-20T07:51:37Z</time>
      </trkpt>
      <trkpt lat="44.79422" lon="5.37997">
        <ele>487.05</ele>
        <time>2017-08-20T07:51:54Z</time>
      </trkpt>
      <trkpt lat="44.79414" lon="5.37914">
        <ele>488.97</ele>
        <time>2017-08-20T07:52:05Z</time>
      </trkpt>
      <trkpt lat="44.79416" lon="5.37802">
        <ele>491.37</ele>
        <time>2017-08-20T07:52:22Z</time>
      </trkpt>
      <trkpt lat="44.79416" lon="5.37784">
        <ele>492.33</ele>
        <time>2017-08-20T07:52:25Z</time>
      </trkpt>
      <trkpt lat="44.79415" lon="5.37778">
        <ele>492.33</ele>
        <time>2017-08-20T07:52:26Z</time>
      </trkpt>
      <trkpt lat="44.79411" lon="5.37755">
        <ele>492.33</ele>
        <time>2017-08-20T07:52:30Z</time>
      </trkpt>
      <trkpt lat="44.79407" lon="5.37737">
        <ele>492.33</ele>
        <time>2017-08-20T07:52:33Z</time>
      </trkpt>
      <trkpt lat="44.79406" lon="5.37731">
        <ele>492.33</ele>
        <time>2017-08-20T07:52:34Z</time>
      </trkpt>
      <trkpt lat="44.79405" lon="5.37725">
        <ele>492.81</ele>
        <time>2017-08-20T07:52:35Z</time>
      </trkpt>
      <trkpt lat="44.79404" lon="5.37719">
        <ele>493.29</ele>
        <time>2017-08-20T07:52:36Z</time>
      </trkpt>
      <trkpt lat="44.79403" lon="5.37713">
        <ele>493.29</ele>
        <time>2017-08-20T07:52:37Z</time>
      </trkpt>
      <trkpt lat="44.79375" lon="5.37614">
        <ele>495.22</ele>
        <time>2017-08-20T07:52:53Z</time>
      </trkpt>
      <trkpt lat="44.79356" lon="5.37499">
        <ele>497.62</ele>
        <time>2017-08-20T07:53:10Z</time>
      </trkpt>
      <trkpt lat="44.79347" lon="5.37394">
        <ele>499.06</ele>
        <time>2017-08-20T07:53:23Z</time>
      </trkpt>
      <trkpt lat="44.79341" lon="5.37346">
        <ele>499.06</ele>
        <time>2017-08-20T07:53:28Z</time>
      </trkpt>
      <trkpt lat="44.79313" lon="5.37204">
        <ele>498.58</ele>
        <time>2017-08-20T07:53:42Z</time>
      </trkpt>
      <trkpt lat="44.79294" lon="5.37133">
        <ele>497.62</ele>
        <time>2017-08-20T07:53:49Z</time>
      </trkpt>
      <trkpt lat="44.7929" lon="5.37124">
        <ele>497.62</ele>
        <time>2017-08-20T07:53:50Z</time>
      </trkpt>
      <trkpt lat="44.79213" lon="5.36993">
        <ele>496.18</ele>
        <time>2017-08-20T07:54:06Z</time>
      </trkpt>
      <trkpt lat="44.79139" lon="5.36901">
        <ele>495.7</ele>
        <time>2017-08-20T07:54:19Z</time>
      </trkpt>
      <trkpt lat="44.79066" lon="5.36802">
        <ele>495.22</ele>
        <time>2017-08-20T07:54:32Z</time>
      </trkpt>
      <trkpt lat="44.79013" lon="5.36705">
        <ele>494.26</ele>
        <time>2017-08-20T07:54:43Z</time>
      </trkpt>
      <trkpt lat="44.79008" lon="5.36698">
        <ele>494.26</ele>
        <time>2017-08-20T07:54:44Z</time>
      </trkpt>
      <trkpt lat="44.79002" lon="5.36691">
        <ele>493.77</ele>
        <time>2017-08-20T07:54:45Z</time>
      </trkpt>
      <trkpt lat="44.78995" lon="5.36686">
        <ele>493.77</ele>
        <time>2017-08-20T07:54:46Z</time>
      </trkpt>
      <trkpt lat="44.78988" lon="5.36681">
        <ele>493.77</ele>
        <time>2017-08-20T07:54:47Z</time>
      </trkpt>
      <trkpt lat="44.78981" lon="5.36676">
        <ele>493.77</ele>
        <time>2017-08-20T07:54:48Z</time>
      </trkpt>
      <trkpt lat="44.78951" lon="5.3666">
        <ele>491.37</ele>
        <time>2017-08-20T07:54:52Z</time>
      </trkpt>
      <trkpt lat="44.78935" lon="5.36653">
        <ele>490.89</ele>
        <time>2017-08-20T07:54:54Z</time>
      </trkpt>
      <trkpt lat="44.78884" lon="5.3663">
        <ele>488.97</ele>
        <time>2017-08-20T07:55:00Z</time>
      </trkpt>
      <trkpt lat="44.78875" lon="5.36629">
        <ele>488.97</ele>
        <time>2017-08-20T07:55:01Z</time>
      </trkpt>
      <trkpt lat="44.78866" lon="5.3663">
        <ele>489.45</ele>
        <time>2017-08-20T07:55:02Z</time>
      </trkpt>
      <trkpt lat="44.78857" lon="5.36633">
        <ele>488.97</ele>
        <time>2017-08-20T07:55:03Z</time>
      </trkpt>
      <trkpt lat="44.78847" lon="5.36637">
        <ele>488.49</ele>
        <time>2017-08-20T07:55:04Z</time>
      </trkpt>
      <trkpt lat="44.78838" lon="5.36642">
        <ele>488.01</ele>
        <time>2017-08-20T07:55:05Z</time>
      </trkpt>
      <trkpt lat="44.78819" lon="5.36649">
        <ele>487.05</ele>
        <time>2017-08-20T07:55:07Z</time>
      </trkpt>
      <trkpt lat="44.78809" lon="5.36651">
        <ele>486.56</ele>
        <time>2017-08-20T07:55:08Z</time>
      </trkpt>
      <trkpt lat="44.78788" lon="5.36652">
        <ele>485.6</ele>
        <time>2017-08-20T07:55:10Z</time>
      </trkpt>
      <trkpt lat="44.78756" lon="5.36656">
        <ele>484.64</ele>
        <time>2017-08-20T07:55:13Z</time>
      </trkpt>
      <trkpt lat="44.78746" lon="5.36655">
        <ele>484.64</ele>
        <time>2017-08-20T07:55:14Z</time>
      </trkpt>
      <trkpt lat="44.78715" lon="5.36652">
        <ele>483.68</ele>
        <time>2017-08-20T07:55:17Z</time>
      </trkpt>
      <trkpt lat="44.78705" lon="5.36654">
        <ele>482.72</ele>
        <time>2017-08-20T07:55:18Z</time>
      </trkpt>
      <trkpt lat="44.78695" lon="5.36659">
        <ele>482.24</ele>
        <time>2017-08-20T07:55:19Z</time>
      </trkpt>
      <trkpt lat="44.78686" lon="5.36667">
        <ele>482.24</ele>
        <time>2017-08-20T07:55:20Z</time>
      </trkpt>
      <trkpt lat="44.78678" lon="5.36677">
        <ele>481.28</ele>
        <time>2017-08-20T07:55:21Z</time>
      </trkpt>
      <trkpt lat="44.78671" lon="5.36688">
        <ele>479.84</ele>
        <time>2017-08-20T07:55:22Z</time>
      </trkpt>
      <trkpt lat="44.78636" lon="5.36748">
        <ele>476.47</ele>
        <time>2017-08-20T07:55:27Z</time>
      </trkpt>
      <trkpt lat="44.78628" lon="5.36758">
        <ele>475.99</ele>
        <time>2017-08-20T07:55:28Z</time>
      </trkpt>
      <trkpt lat="44.78618" lon="5.36767">
        <ele>475.03</ele>
        <time>2017-08-20T07:55:29Z</time>
      </trkpt>
      <trkpt lat="44.78608" lon="5.36774">
        <ele>474.55</ele>
        <time>2017-08-20T07:55:30Z</time>
      </trkpt>
      <trkpt lat="44.78598" lon="5.36781">
        <ele>474.07</ele>
        <time>2017-08-20T07:55:31Z</time>
      </trkpt>
      <trkpt lat="44.78555" lon="5.36806">
        <ele>470.7</ele>
        <time>2017-08-20T07:55:35Z</time>
      </trkpt>
      <trkpt lat="44.78535" lon="5.36819">
        <ele>469.26</ele>
        <time>2017-08-20T07:55:37Z</time>
      </trkpt>
      <trkpt lat="44.78526" lon="5.3683">
        <ele>468.3</ele>
        <time>2017-08-20T07:55:38Z</time>
      </trkpt>
      <trkpt lat="44.78518" lon="5.36842">
        <ele>467.82</ele>
        <time>2017-08-20T07:55:39Z</time>
      </trkpt>
      <trkpt lat="44.78504" lon="5.36865">
        <ele>466.38</ele>
        <time>2017-08-20T07:55:41Z</time>
      </trkpt>
      <trkpt lat="44.78495" lon="5.36873">
        <ele>465.9</ele>
        <time>2017-08-20T07:55:42Z</time>
      </trkpt>
      <trkpt lat="44.78484" lon="5.36876">
        <ele>464.93</ele>
        <time>2017-08-20T07:55:43Z</time>
      </trkpt>
      <trkpt lat="44.78474" lon="5.36874">
        <ele>463.97</ele>
        <time>2017-08-20T07:55:44Z</time>
      </trkpt>
      <trkpt lat="44.78465" lon="5.36867">
        <ele>463.01</ele>
        <time>2017-08-20T07:55:45Z</time>
      </trkpt>
      <trkpt lat="44.78457" lon="5.36858">
        <ele>462.05</ele>
        <time>2017-08-20T07:55:46Z</time>
      </trkpt>
      <trkpt lat="44.78452" lon="5.36846">
        <ele>462.05</ele>
        <time>2017-08-20T07:55:47Z</time>
      </trkpt>
      <trkpt lat="44.78408" lon="5.36764">
        <ele>461.57</ele>
        <time>2017-08-20T07:55:55Z</time>
      </trkpt>
      <trkpt lat="44.78401" lon="5.36757">
        <ele>462.05</ele>
        <time>2017-08-20T07:55:56Z</time>
      </trkpt>
      <trkpt lat="44.78395" lon="5.36751">
        <ele>462.05</ele>
        <time>2017-08-20T07:55:57Z</time>
      </trkpt>
      <trkpt lat="44.78388" lon="5.3675">
        <ele>462.53</ele>
        <time>2017-08-20T07:55:58Z</time>
      </trkpt>
      <trkpt lat="44.78385" lon="5.36752">
        <ele>462.53</ele>
        <time>2017-08-20T07:55:59Z</time>
      </trkpt>
      <trkpt lat="44.78381" lon="5.36756">
        <ele>462.05</ele>
        <time>2017-08-20T07:56:00Z</time>
      </trkpt>
      <trkpt lat="44.78376" lon="5.36761">
        <ele>461.57</ele>
        <time>2017-08-20T07:56:01Z</time>
      </trkpt>
      <trkpt lat="44.78368" lon="5.36766">
        <ele>461.57</ele>
        <time>2017-08-20T07:56:02Z</time>
      </trkpt>
      <trkpt lat="44.78358" lon="5.36767">
        <ele>460.61</ele>
        <time>2017-08-20T07:56:03Z</time>
      </trkpt>
      <trkpt lat="44.78346" lon="5.36766">
        <ele>460.13</ele>
        <time>2017-08-20T07:56:04Z</time>
      </trkpt>
      <trkpt lat="44.78333" lon="5.36764">
        <ele>460.61</ele>
        <time>2017-08-20T07:56:05Z</time>
      </trkpt>
      <trkpt lat="44.78321" lon="5.3676">
        <ele>459.17</ele>
        <time>2017-08-20T07:56:06Z</time>
      </trkpt>
      <trkpt lat="44.78312" lon="5.36755">
        <ele>458.69</ele>
        <time>2017-08-20T07:56:07Z</time>
      </trkpt>
      <trkpt lat="44.78303" lon="5.36749">
        <ele>458.21</ele>
        <time>2017-08-20T07:56:08Z</time>
      </trkpt>
      <trkpt lat="44.78269" lon="5.36736">
        <ele>456.28</ele>
        <time>2017-08-20T07:56:11Z</time>
      </trkpt>
      <trkpt lat="44.78235" lon="5.36728">
        <ele>454.36</ele>
        <time>2017-08-20T07:56:14Z</time>
      </trkpt>
      <trkpt lat="44.78224" lon="5.36723">
        <ele>453.88</ele>
        <time>2017-08-20T07:56:15Z</time>
      </trkpt>
      <trkpt lat="44.78181" lon="5.367">
        <ele>450.52</ele>
        <time>2017-08-20T07:56:19Z</time>
      </trkpt>
      <trkpt lat="44.78169" lon="5.36697">
        <ele>449.55</ele>
        <time>2017-08-20T07:56:20Z</time>
      </trkpt>
      <trkpt lat="44.78157" lon="5.36696">
        <ele>448.59</ele>
        <time>2017-08-20T07:56:21Z</time>
      </trkpt>
      <trkpt lat="44.78091" lon="5.36685">
        <ele>445.23</ele>
        <time>2017-08-20T07:56:27Z</time>
      </trkpt>
      <trkpt lat="44.78059" lon="5.36676">
        <ele>442.34</ele>
        <time>2017-08-20T07:56:30Z</time>
      </trkpt>
      <trkpt lat="44.78005" lon="5.36665">
        <ele>438.98</ele>
        <time>2017-08-20T07:56:35Z</time>
      </trkpt>
      <trkpt lat="44.77962" lon="5.36663">
        <ele>437.54</ele>
        <time>2017-08-20T07:56:39Z</time>
      </trkpt>
      <trkpt lat="44.77951" lon="5.3666">
        <ele>437.06</ele>
        <time>2017-08-20T07:56:40Z</time>
      </trkpt>
      <trkpt lat="44.77941" lon="5.36656">
        <ele>436.1</ele>
        <time>2017-08-20T07:56:41Z</time>
      </trkpt>
      <trkpt lat="44.77932" lon="5.3665">
        <ele>435.61</ele>
        <time>2017-08-20T07:56:42Z</time>
      </trkpt>
      <trkpt lat="44.77924" lon="5.36643">
        <ele>435.13</ele>
        <time>2017-08-20T07:56:43Z</time>
      </trkpt>
      <trkpt lat="44.77881" lon="5.36603">
        <ele>432.25</ele>
        <time>2017-08-20T07:56:48Z</time>
      </trkpt>
      <trkpt lat="44.77842" lon="5.36566">
        <ele>428.89</ele>
        <time>2017-08-20T07:56:52Z</time>
      </trkpt>
      <trkpt lat="44.77833" lon="5.36557">
        <ele>428.4</ele>
        <time>2017-08-20T07:56:53Z</time>
      </trkpt>
      <trkpt lat="44.77824" lon="5.36548">
        <ele>427.92</ele>
        <time>2017-08-20T07:56:54Z</time>
      </trkpt>
      <trkpt lat="44.77814" lon="5.3654">
        <ele>427.44</ele>
        <time>2017-08-20T07:56:55Z</time>
      </trkpt>
      <trkpt lat="44.77804" lon="5.36533">
        <ele>426</ele>
        <time>2017-08-20T07:56:56Z</time>
      </trkpt>
      <trkpt lat="44.77794" lon="5.36528">
        <ele>425.04</ele>
        <time>2017-08-20T07:56:57Z</time>
      </trkpt>
      <trkpt lat="44.77782" lon="5.36525">
        <ele>424.08</ele>
        <time>2017-08-20T07:56:58Z</time>
      </trkpt>
      <trkpt lat="44.7777" lon="5.36523">
        <ele>423.6</ele>
        <time>2017-08-20T07:56:59Z</time>
      </trkpt>
      <trkpt lat="44.77735" lon="5.36517">
        <ele>421.68</ele>
        <time>2017-08-20T07:57:02Z</time>
      </trkpt>
      <trkpt lat="44.77723" lon="5.36512">
        <ele>421.19</ele>
        <time>2017-08-20T07:57:03Z</time>
      </trkpt>
      <trkpt lat="44.77712" lon="5.36506">
        <ele>419.75</ele>
        <time>2017-08-20T07:57:04Z</time>
      </trkpt>
      <trkpt lat="44.77671" lon="5.36474">
        <ele>415.91</ele>
        <time>2017-08-20T07:57:08Z</time>
      </trkpt>
      <trkpt lat="44.7765" lon="5.36462">
        <ele>414.47</ele>
        <time>2017-08-20T07:57:10Z</time>
      </trkpt>
      <trkpt lat="44.77638" lon="5.36458">
        <ele>414.47</ele>
        <time>2017-08-20T07:57:11Z</time>
      </trkpt>
      <trkpt lat="44.77615" lon="5.36451">
        <ele>412.54</ele>
        <time>2017-08-20T07:57:13Z</time>
      </trkpt>
      <trkpt lat="44.77605" lon="5.36445">
        <ele>412.06</ele>
        <time>2017-08-20T07:57:14Z</time>
      </trkpt>
      <trkpt lat="44.77595" lon="5.36436">
        <ele>410.62</ele>
        <time>2017-08-20T07:57:15Z</time>
      </trkpt>
      <trkpt lat="44.77585" lon="5.36426">
        <ele>410.14</ele>
        <time>2017-08-20T07:57:16Z</time>
      </trkpt>
      <trkpt lat="44.77576" lon="5.36415">
        <ele>409.18</ele>
        <time>2017-08-20T07:57:17Z</time>
      </trkpt>
      <trkpt lat="44.77541" lon="5.36372">
        <ele>405.33</ele>
        <time>2017-08-20T07:57:21Z</time>
      </trkpt>
      <trkpt lat="44.77505" lon="5.36329">
        <ele>402.45</ele>
        <time>2017-08-20T07:57:25Z</time>
      </trkpt>
      <trkpt lat="44.77476" lon="5.36299">
        <ele>400.53</ele>
        <time>2017-08-20T07:57:28Z</time>
      </trkpt>
      <trkpt lat="44.77466" lon="5.3629">
        <ele>399.57</ele>
        <time>2017-08-20T07:57:29Z</time>
      </trkpt>
      <trkpt lat="44.77454" lon="5.36283">
        <ele>398.6</ele>
        <time>2017-08-20T07:57:30Z</time>
      </trkpt>
      <trkpt lat="44.77443" lon="5.36278">
        <ele>398.12</ele>
        <time>2017-08-20T07:57:31Z</time>
      </trkpt>
      <trkpt lat="44.77431" lon="5.36273">
        <ele>397.16</ele>
        <time>2017-08-20T07:57:32Z</time>
      </trkpt>
      <trkpt lat="44.77419" lon="5.36269">
        <ele>396.2</ele>
        <time>2017-08-20T07:57:33Z</time>
      </trkpt>
      <trkpt lat="44.77381" lon="5.36257">
        <ele>392.84</ele>
        <time>2017-08-20T07:57:36Z</time>
      </trkpt>
      <trkpt lat="44.77343" lon="5.36244">
        <ele>389.95</ele>
        <time>2017-08-20T07:57:39Z</time>
      </trkpt>
      <trkpt lat="44.77289" lon="5.36226">
        <ele>386.59</ele>
        <time>2017-08-20T07:57:43Z</time>
      </trkpt>
      <trkpt lat="44.77238" lon="5.362">
        <ele>382.26</ele>
        <time>2017-08-20T07:57:47Z</time>
      </trkpt>
      <trkpt lat="44.7716" lon="5.36141">
        <ele>378.9</ele>
        <time>2017-08-20T07:57:54Z</time>
      </trkpt>
      <trkpt lat="44.7714" lon="5.36125">
        <ele>378.42</ele>
        <time>2017-08-20T07:57:56Z</time>
      </trkpt>
      <trkpt lat="44.77099" lon="5.36104">
        <ele>376.97</ele>
        <time>2017-08-20T07:58:00Z</time>
      </trkpt>
      <trkpt lat="44.77089" lon="5.36101">
        <ele>376.49</ele>
        <time>2017-08-20T07:58:01Z</time>
      </trkpt>
      <trkpt lat="44.77078" lon="5.361">
        <ele>376.49</ele>
        <time>2017-08-20T07:58:02Z</time>
      </trkpt>
      <trkpt lat="44.77068" lon="5.36099">
        <ele>376.01</ele>
        <time>2017-08-20T07:58:03Z</time>
      </trkpt>
      <trkpt lat="44.77058" lon="5.361">
        <ele>376.49</ele>
        <time>2017-08-20T07:58:04Z</time>
      </trkpt>
      <trkpt lat="44.77048" lon="5.36101">
        <ele>376.49</ele>
        <time>2017-08-20T07:58:05Z</time>
      </trkpt>
      <trkpt lat="44.77038" lon="5.36104">
        <ele>376.01</ele>
        <time>2017-08-20T07:58:06Z</time>
      </trkpt>
      <trkpt lat="44.77029" lon="5.36107">
        <ele>376.01</ele>
        <time>2017-08-20T07:58:07Z</time>
      </trkpt>
      <trkpt lat="44.76903" lon="5.36141">
        <ele>376.49</ele>
        <time>2017-08-20T07:58:22Z</time>
      </trkpt>
      <trkpt lat="44.76828" lon="5.3617">
        <ele>379.86</ele>
        <time>2017-08-20T07:58:35Z</time>
      </trkpt>
      <trkpt lat="44.76745" lon="5.36217">
        <ele>379.86</ele>
        <time>2017-08-20T07:58:50Z</time>
      </trkpt>
      <trkpt lat="44.76678" lon="5.36254">
        <ele>379.86</ele>
        <time>2017-08-20T07:59:01Z</time>
      </trkpt>
      <trkpt lat="44.76664" lon="5.36256">
        <ele>379.38</ele>
        <time>2017-08-20T07:59:03Z</time>
      </trkpt>
      <trkpt lat="44.76539" lon="5.36244">
        <ele>378.42</ele>
        <time>2017-08-20T07:59:20Z</time>
      </trkpt>
      <trkpt lat="44.76396" lon="5.3623">
        <ele>378.42</ele>
        <time>2017-08-20T07:59:39Z</time>
      </trkpt>
      <trkpt lat="44.76367" lon="5.36224">
        <ele>378.42</ele>
        <time>2017-08-20T07:59:43Z</time>
      </trkpt>
      <trkpt lat="44.76359" lon="5.36221">
        <ele>377.94</ele>
        <time>2017-08-20T07:59:44Z</time>
      </trkpt>
      <trkpt lat="44.76352" lon="5.36217">
        <ele>377.45</ele>
        <time>2017-08-20T07:59:45Z</time>
      </trkpt>
      <trkpt lat="44.76307" lon="5.36188">
        <ele>375.53</ele>
        <time>2017-08-20T07:59:51Z</time>
      </trkpt>
      <trkpt lat="44.76228" lon="5.36136">
        <ele>372.65</ele>
        <time>2017-08-20T08:00:01Z</time>
      </trkpt>
      <trkpt lat="44.7612" lon="5.36032">
        <ele>369.76</ele>
        <time>2017-08-20T08:00:17Z</time>
      </trkpt>
      <trkpt lat="44.76109" lon="5.3602">
        <ele>369.76</ele>
        <time>2017-08-20T08:00:19Z</time>
      </trkpt>
      <trkpt lat="44.76103" lon="5.36016">
        <ele>369.76</ele>
        <time>2017-08-20T08:00:20Z</time>
      </trkpt>
      <trkpt lat="44.76097" lon="5.36012">
        <ele>369.28</ele>
        <time>2017-08-20T08:00:21Z</time>
      </trkpt>
      <trkpt lat="44.76094" lon="5.36007">
        <ele>369.28</ele>
        <time>2017-08-20T08:00:22Z</time>
      </trkpt>
      <trkpt lat="44.76093" lon="5.36001">
        <ele>369.28</ele>
        <time>2017-08-20T08:00:23Z</time>
      </trkpt>
      <trkpt lat="44.76095" lon="5.35995">
        <ele>369.28</ele>
        <time>2017-08-20T08:00:24Z</time>
      </trkpt>
      <trkpt lat="44.76098" lon="5.35989">
        <ele>369.28</ele>
        <time>2017-08-20T08:00:25Z</time>
      </trkpt>
      <trkpt lat="44.76102" lon="5.35984">
        <ele>369.28</ele>
        <time>2017-08-20T08:00:26Z</time>
      </trkpt>
      <trkpt lat="44.7613" lon="5.35943">
        <ele>368.32</ele>
        <time>2017-08-20T08:00:33Z</time>
      </trkpt>
      <trkpt lat="44.76132" lon="5.35936">
        <ele>367.84</ele>
        <time>2017-08-20T08:00:34Z</time>
      </trkpt>
      <trkpt lat="44.76131" lon="5.35928">
        <ele>367.84</ele>
        <time>2017-08-20T08:00:35Z</time>
      </trkpt>
      <trkpt lat="44.76128" lon="5.3592">
        <ele>367.84</ele>
        <time>2017-08-20T08:00:36Z</time>
      </trkpt>
      <trkpt lat="44.76124" lon="5.35913">
        <ele>367.36</ele>
        <time>2017-08-20T08:00:37Z</time>
      </trkpt>
      <trkpt lat="44.76119" lon="5.35906">
        <ele>366.88</ele>
        <time>2017-08-20T08:00:38Z</time>
      </trkpt>
      <trkpt lat="44.76052" lon="5.3581">
        <ele>366.4</ele>
        <time>2017-08-20T08:00:53Z</time>
      </trkpt>
      <trkpt lat="44.7605" lon="5.35804">
        <ele>366.4</ele>
        <time>2017-08-20T08:00:54Z</time>
      </trkpt>
      <trkpt lat="44.76048" lon="5.35797">
        <ele>366.4</ele>
        <time>2017-08-20T08:00:55Z</time>
      </trkpt>
      <trkpt lat="44.76049" lon="5.35791">
        <ele>365.92</ele>
        <time>2017-08-20T08:00:56Z</time>
      </trkpt>
      <trkpt lat="44.7605" lon="5.35783">
        <ele>366.4</ele>
        <time>2017-08-20T08:00:57Z</time>
      </trkpt>
      <trkpt lat="44.76052" lon="5.35776">
        <ele>366.4</ele>
        <time>2017-08-20T08:00:58Z</time>
      </trkpt>
      <trkpt lat="44.76057" lon="5.35752">
        <ele>365.92</ele>
        <time>2017-08-20T08:01:01Z</time>
      </trkpt>
      <trkpt lat="44.7606" lon="5.35736">
        <ele>365.92</ele>
        <time>2017-08-20T08:01:03Z</time>
      </trkpt>
      <trkpt lat="44.76062" lon="5.35728">
        <ele>365.44</ele>
        <time>2017-08-20T08:01:04Z</time>
      </trkpt>
      <trkpt lat="44.761" lon="5.35579">
        <ele>364</ele>
        <time>2017-08-20T08:01:20Z</time>
      </trkpt>
      <trkpt lat="44.76141" lon="5.35407">
        <ele>362.55</ele>
        <time>2017-08-20T08:01:38Z</time>
      </trkpt>
      <trkpt lat="44.76163" lon="5.35333">
        <ele>362.07</ele>
        <time>2017-08-20T08:01:46Z</time>
      </trkpt>
      <trkpt lat="44.76164" lon="5.35324">
        <ele>362.55</ele>
        <time>2017-08-20T08:01:47Z</time>
      </trkpt>
      <trkpt lat="44.76198" lon="5.35175">
        <ele>360.15</ele>
        <time>2017-08-20T08:02:03Z</time>
      </trkpt>
      <trkpt lat="44.76243" lon="5.34992">
        <ele>357.75</ele>
        <time>2017-08-20T08:02:22Z</time>
      </trkpt>
      <trkpt lat="44.76249" lon="5.34976">
        <ele>357.75</ele>
        <time>2017-08-20T08:02:25Z</time>
      </trkpt>
      <trkpt lat="44.7625" lon="5.34977">
        <ele>357.75</ele>
        <time>2017-08-20T08:02:26Z</time>
      </trkpt>
      <trkpt lat="44.76252" lon="5.34979">
        <ele>357.75</ele>
        <time>2017-08-20T08:02:27Z</time>
      </trkpt>
      <trkpt lat="44.76254" lon="5.3498">
        <ele>357.75</ele>
        <time>2017-08-20T08:02:28Z</time>
      </trkpt>
      <trkpt lat="44.76255" lon="5.3498">
        <ele>357.75</ele>
        <time>2017-08-20T08:02:29Z</time>
      </trkpt>
      <trkpt lat="44.76256" lon="5.34979">
        <ele>357.75</ele>
        <time>2017-08-20T08:02:30Z</time>
      </trkpt>
      <trkpt lat="44.76259" lon="5.34979">
        <ele>358.23</ele>
        <time>2017-08-20T08:02:40Z</time>
      </trkpt>
      <trkpt lat="44.76257" lon="5.34977">
        <ele>291.42</ele>
        <time>2017-08-20T08:06:45Z</time>
      </trkpt>
      <trkpt lat="44.76256" lon="5.34978">
        <ele>291.42</ele>
        <time>2017-08-20T08:06:46Z</time>
      </trkpt>
      <trkpt lat="44.76255" lon="5.34977">
        <ele>290.94</ele>
        <time>2017-08-20T08:06:47Z</time>
      </trkpt>
      <trkpt lat="44.76252" lon="5.34979">
        <ele>290.94</ele>
        <time>2017-08-20T08:06:49Z</time>
      </trkpt>
      <trkpt lat="44.76252" lon="5.34977">
        <ele>297.18</ele>
        <time>2017-08-20T08:06:52Z</time>
      </trkpt>
      <trkpt lat="44.76251" lon="5.34976">
        <ele>300.07</ele>
        <time>2017-08-20T08:06:54Z</time>
      </trkpt>
      <trkpt lat="44.7625" lon="5.34972">
        <ele>308.72</ele>
        <time>2017-08-20T08:06:57Z</time>
      </trkpt>
      <trkpt lat="44.76251" lon="5.34964">
        <ele>314.01</ele>
        <time>2017-08-20T08:06:59Z</time>
      </trkpt>
      <trkpt lat="44.76255" lon="5.34951">
        <ele>320.74</ele>
        <time>2017-08-20T08:07:02Z</time>
      </trkpt>
      <trkpt lat="44.7626" lon="5.3494">
        <ele>325.06</ele>
        <time>2017-08-20T08:07:04Z</time>
      </trkpt>
      <trkpt lat="44.76262" lon="5.34935">
        <ele>326.99</ele>
        <time>2017-08-20T08:07:05Z</time>
      </trkpt>
      <trkpt lat="44.76264" lon="5.34929">
        <ele>329.39</ele>
        <time>2017-08-20T08:07:06Z</time>
      </trkpt>
      <trkpt lat="44.76267" lon="5.34923">
        <ele>330.83</ele>
        <time>2017-08-20T08:07:07Z</time>
      </trkpt>
      <trkpt lat="44.76271" lon="5.34919">
        <ele>332.75</ele>
        <time>2017-08-20T08:07:08Z</time>
      </trkpt>
      <trkpt lat="44.76276" lon="5.34915">
        <ele>334.68</ele>
        <time>2017-08-20T08:07:09Z</time>
      </trkpt>
      <trkpt lat="44.7628" lon="5.34911">
        <ele>336.6</ele>
        <time>2017-08-20T08:07:10Z</time>
      </trkpt>
      <trkpt lat="44.76283" lon="5.34905">
        <ele>338.04</ele>
        <time>2017-08-20T08:07:11Z</time>
      </trkpt>
      <trkpt lat="44.76285" lon="5.34899">
        <ele>339.96</ele>
        <time>2017-08-20T08:07:12Z</time>
      </trkpt>
      <trkpt lat="44.76287" lon="5.34891">
        <ele>341.41</ele>
        <time>2017-08-20T08:07:13Z</time>
      </trkpt>
      <trkpt lat="44.76287" lon="5.34883">
        <ele>342.85</ele>
        <time>2017-08-20T08:07:14Z</time>
      </trkpt>
      <trkpt lat="44.76286" lon="5.34875">
        <ele>345.25</ele>
        <time>2017-08-20T08:07:15Z</time>
      </trkpt>
      <trkpt lat="44.76284" lon="5.34868">
        <ele>346.21</ele>
        <time>2017-08-20T08:07:16Z</time>
      </trkpt>
      <trkpt lat="44.76283" lon="5.3486">
        <ele>348.13</ele>
        <time>2017-08-20T08:07:17Z</time>
      </trkpt>
      <trkpt lat="44.76282" lon="5.34852">
        <ele>349.1</ele>
        <time>2017-08-20T08:07:18Z</time>
      </trkpt>
      <trkpt lat="44.76283" lon="5.34844">
        <ele>350.06</ele>
        <time>2017-08-20T08:07:19Z</time>
      </trkpt>
      <trkpt lat="44.76285" lon="5.34836">
        <ele>351.02</ele>
        <time>2017-08-20T08:07:20Z</time>
      </trkpt>
      <trkpt lat="44.76286" lon="5.34829">
        <ele>352.46</ele>
        <time>2017-08-20T08:07:21Z</time>
      </trkpt>
      <trkpt lat="44.76294" lon="5.34798">
        <ele>355.83</ele>
        <time>2017-08-20T08:07:25Z</time>
      </trkpt>
      <trkpt lat="44.76301" lon="5.34775">
        <ele>358.71</ele>
        <time>2017-08-20T08:07:28Z</time>
      </trkpt>
      <trkpt lat="44.76307" lon="5.3475">
        <ele>362.07</ele>
        <time>2017-08-20T08:07:31Z</time>
      </trkpt>
      <trkpt lat="44.7632" lon="5.34697">
        <ele>365.92</ele>
        <time>2017-08-20T08:07:37Z</time>
      </trkpt>
      <trkpt lat="44.76334" lon="5.34641">
        <ele>368.8</ele>
        <time>2017-08-20T08:07:43Z</time>
      </trkpt>
      <trkpt lat="44.7635" lon="5.34575">
        <ele>372.17</ele>
        <time>2017-08-20T08:07:50Z</time>
      </trkpt>
      <trkpt lat="44.76372" lon="5.34493">
        <ele>375.53</ele>
        <time>2017-08-20T08:07:59Z</time>
      </trkpt>
      <trkpt lat="44.76396" lon="5.34396">
        <ele>378.42</ele>
        <time>2017-08-20T08:08:10Z</time>
      </trkpt>
      <trkpt lat="44.76439" lon="5.34223">
        <ele>380.82</ele>
        <time>2017-08-20T08:08:29Z</time>
      </trkpt>
      <trkpt lat="44.76468" lon="5.34097">
        <ele>384.18</ele>
        <time>2017-08-20T08:08:43Z</time>
      </trkpt>
      <trkpt lat="44.76487" lon="5.33955">
        <ele>384.18</ele>
        <time>2017-08-20T08:09:00Z</time>
      </trkpt>
      <trkpt lat="44.76504" lon="5.33764">
        <ele>383.22</ele>
        <time>2017-08-20T08:09:19Z</time>
      </trkpt>
      <trkpt lat="44.76537" lon="5.33546">
        <ele>380.34</ele>
        <time>2017-08-20T08:09:38Z</time>
      </trkpt>
      <trkpt lat="44.76592" lon="5.33363">
        <ele>378.42</ele>
        <time>2017-08-20T08:09:55Z</time>
      </trkpt>
      <trkpt lat="44.76639" lon="5.33196">
        <ele>376.97</ele>
        <time>2017-08-20T08:10:12Z</time>
      </trkpt>
      <trkpt lat="44.76659" lon="5.33042">
        <ele>376.49</ele>
        <time>2017-08-20T08:10:29Z</time>
      </trkpt>
      <trkpt lat="44.76653" lon="5.32842">
        <ele>378.42</ele>
        <time>2017-08-20T08:10:51Z</time>
      </trkpt>
      <trkpt lat="44.76658" lon="5.32655">
        <ele>377.45</ele>
        <time>2017-08-20T08:11:09Z</time>
      </trkpt>
      <trkpt lat="44.76673" lon="5.32451">
        <ele>375.05</ele>
        <time>2017-08-20T08:11:26Z</time>
      </trkpt>
      <trkpt lat="44.76699" lon="5.32263">
        <ele>374.57</ele>
        <time>2017-08-20T08:11:42Z</time>
      </trkpt>
      <trkpt lat="44.76737" lon="5.32047">
        <ele>373.61</ele>
        <time>2017-08-20T08:12:01Z</time>
      </trkpt>
      <trkpt lat="44.76775" lon="5.31819">
        <ele>373.61</ele>
        <time>2017-08-20T08:12:21Z</time>
      </trkpt>
      <trkpt lat="44.76769" lon="5.31689">
        <ele>372.17</ele>
        <time>2017-08-20T08:12:32Z</time>
      </trkpt>
      <trkpt lat="44.76721" lon="5.31533">
        <ele>371.21</ele>
        <time>2017-08-20T08:12:46Z</time>
      </trkpt>
      <trkpt lat="44.76663" lon="5.31389">
        <ele>369.76</ele>
        <time>2017-08-20T08:13:02Z</time>
      </trkpt>
      <trkpt lat="44.76588" lon="5.31266">
        <ele>367.36</ele>
        <time>2017-08-20T08:13:17Z</time>
      </trkpt>
      <trkpt lat="44.76494" lon="5.31114">
        <ele>365.92</ele>
        <time>2017-08-20T08:13:36Z</time>
      </trkpt>
      <trkpt lat="44.76415" lon="5.30984">
        <ele>364.96</ele>
        <time>2017-08-20T08:13:54Z</time>
      </trkpt>
      <trkpt lat="44.7637" lon="5.30854">
        <ele>366.4</ele>
        <time>2017-08-20T08:14:11Z</time>
      </trkpt>
      <trkpt lat="44.76327" lon="5.30721">
        <ele>366.4</ele>
        <time>2017-08-20T08:14:30Z</time>
      </trkpt>
      <trkpt lat="44.76279" lon="5.30558">
        <ele>365.92</ele>
        <time>2017-08-20T08:14:50Z</time>
      </trkpt>
      <trkpt lat="44.76268" lon="5.30426">
        <ele>366.88</ele>
        <time>2017-08-20T08:15:07Z</time>
      </trkpt>
      <trkpt lat="44.76271" lon="5.3031">
        <ele>367.36</ele>
        <time>2017-08-20T08:15:22Z</time>
      </trkpt>
      <trkpt lat="44.76292" lon="5.30155">
        <ele>368.8</ele>
        <time>2017-08-20T08:15:41Z</time>
      </trkpt>
      <trkpt lat="44.7632" lon="5.30054">
        <ele>370.24</ele>
        <time>2017-08-20T08:15:54Z</time>
      </trkpt>
      <trkpt lat="44.76326" lon="5.29921">
        <ele>369.76</ele>
        <time>2017-08-20T08:16:11Z</time>
      </trkpt>
      <trkpt lat="44.76308" lon="5.29787">
        <ele>370.73</ele>
        <time>2017-08-20T08:16:28Z</time>
      </trkpt>
      <trkpt lat="44.76277" lon="5.29655">
        <ele>372.17</ele>
        <time>2017-08-20T08:16:46Z</time>
      </trkpt>
      <trkpt lat="44.76252" lon="5.29542">
        <ele>371.69</ele>
        <time>2017-08-20T08:17:02Z</time>
      </trkpt>
      <trkpt lat="44.7624" lon="5.29445">
        <ele>373.13</ele>
        <time>2017-08-20T08:17:16Z</time>
      </trkpt>
      <trkpt lat="44.76198" lon="5.29328">
        <ele>374.09</ele>
        <time>2017-08-20T08:17:34Z</time>
      </trkpt>
      <trkpt lat="44.76176" lon="5.29253">
        <ele>373.13</ele>
        <time>2017-08-20T08:17:46Z</time>
      </trkpt>
      <trkpt lat="44.76176" lon="5.29246">
        <ele>373.13</ele>
        <time>2017-08-20T08:17:47Z</time>
      </trkpt>
      <trkpt lat="44.76179" lon="5.29133">
        <ele>370.73</ele>
        <time>2017-08-20T08:18:02Z</time>
      </trkpt>
      <trkpt lat="44.76183" lon="5.29107">
        <ele>370.24</ele>
        <time>2017-08-20T08:18:05Z</time>
      </trkpt>
      <trkpt lat="44.76185" lon="5.29099">
        <ele>370.24</ele>
        <time>2017-08-20T08:18:06Z</time>
      </trkpt>
      <trkpt lat="44.76215" lon="5.28963">
        <ele>367.36</ele>
        <time>2017-08-20T08:18:20Z</time>
      </trkpt>
      <trkpt lat="44.76274" lon="5.28794">
        <ele>364</ele>
        <time>2017-08-20T08:18:36Z</time>
      </trkpt>
      <trkpt lat="44.76313" lon="5.28642">
        <ele>361.11</ele>
        <time>2017-08-20T08:18:49Z</time>
      </trkpt>
      <trkpt lat="44.76348" lon="5.2848">
        <ele>357.75</ele>
        <time>2017-08-20T08:19:03Z</time>
      </trkpt>
      <trkpt lat="44.76389" lon="5.2833">
        <ele>355.83</ele>
        <time>2017-08-20T08:19:18Z</time>
      </trkpt>
      <trkpt lat="44.76405" lon="5.28282">
        <ele>355.83</ele>
        <time>2017-08-20T08:19:24Z</time>
      </trkpt>
      <trkpt lat="44.76407" lon="5.28274">
        <ele>355.83</ele>
        <time>2017-08-20T08:19:25Z</time>
      </trkpt>
      <trkpt lat="44.76447" lon="5.28148">
        <ele>356.79</ele>
        <time>2017-08-20T08:19:42Z</time>
      </trkpt>
      <trkpt lat="44.76463" lon="5.28089">
        <ele>357.75</ele>
        <time>2017-08-20T08:19:51Z</time>
      </trkpt>
      <trkpt lat="44.76471" lon="5.27992">
        <ele>358.23</ele>
        <time>2017-08-20T08:20:07Z</time>
      </trkpt>
      <trkpt lat="44.76458" lon="5.27904">
        <ele>358.71</ele>
        <time>2017-08-20T08:20:21Z</time>
      </trkpt>
      <trkpt lat="44.76426" lon="5.27795">
        <ele>358.23</ele>
        <time>2017-08-20T08:20:37Z</time>
      </trkpt>
      <trkpt lat="44.76402" lon="5.27648">
        <ele>355.83</ele>
        <time>2017-08-20T08:20:54Z</time>
      </trkpt>
      <trkpt lat="44.76387" lon="5.27514">
        <ele>354.86</ele>
        <time>2017-08-20T08:21:09Z</time>
      </trkpt>
      <trkpt lat="44.76385" lon="5.27334">
        <ele>353.9</ele>
        <time>2017-08-20T08:21:27Z</time>
      </trkpt>
      <trkpt lat="44.7638" lon="5.27272">
        <ele>354.38</ele>
        <time>2017-08-20T08:21:33Z</time>
      </trkpt>
      <trkpt lat="44.76331" lon="5.2714">
        <ele>353.42</ele>
        <time>2017-08-20T08:21:47Z</time>
      </trkpt>
      <trkpt lat="44.76314" lon="5.27116">
        <ele>352.94</ele>
        <time>2017-08-20T08:21:50Z</time>
      </trkpt>
      <trkpt lat="44.76307" lon="5.27109">
        <ele>352.94</ele>
        <time>2017-08-20T08:21:51Z</time>
      </trkpt>
      <trkpt lat="44.7621" lon="5.27057">
        <ele>351.02</ele>
        <time>2017-08-20T08:22:04Z</time>
      </trkpt>
      <trkpt lat="44.76072" lon="5.27027">
        <ele>349.58</ele>
        <time>2017-08-20T08:22:21Z</time>
      </trkpt>
      <trkpt lat="44.75935" lon="5.26979">
        <ele>350.06</ele>
        <time>2017-08-20T08:22:39Z</time>
      </trkpt>
      <trkpt lat="44.75825" lon="5.26949">
        <ele>350.06</ele>
        <time>2017-08-20T08:22:54Z</time>
      </trkpt>
      <trkpt lat="44.75734" lon="5.2689">
        <ele>350.06</ele>
        <time>2017-08-20T08:23:08Z</time>
      </trkpt>
      <trkpt lat="44.75639" lon="5.26817">
        <ele>350.06</ele>
        <time>2017-08-20T08:23:23Z</time>
      </trkpt>
      <trkpt lat="44.75527" lon="5.26804">
        <ele>348.13</ele>
        <time>2017-08-20T08:23:37Z</time>
      </trkpt>
      <trkpt lat="44.75393" lon="5.26777">
        <ele>346.21</ele>
        <time>2017-08-20T08:23:54Z</time>
      </trkpt>
      <trkpt lat="44.75275" lon="5.26721">
        <ele>343.81</ele>
        <time>2017-08-20T08:24:09Z</time>
      </trkpt>
      <trkpt lat="44.75166" lon="5.26638">
        <ele>340.92</ele>
        <time>2017-08-20T08:24:24Z</time>
      </trkpt>
      <trkpt lat="44.75094" lon="5.26532">
        <ele>339.48</ele>
        <time>2017-08-20T08:24:37Z</time>
      </trkpt>
      <trkpt lat="44.75056" lon="5.26497">
        <ele>340.44</ele>
        <time>2017-08-20T08:24:45Z</time>
      </trkpt>
      <trkpt lat="44.75015" lon="5.26472">
        <ele>340.44</ele>
        <time>2017-08-20T08:24:55Z</time>
      </trkpt>
      <trkpt lat="44.74995" lon="5.26458">
        <ele>340.44</ele>
        <time>2017-08-20T08:24:59Z</time>
      </trkpt>
      <trkpt lat="44.7499" lon="5.26456">
        <ele>340.44</ele>
        <time>2017-08-20T08:25:00Z</time>
      </trkpt>
      <trkpt lat="44.74963" lon="5.26448">
        <ele>341.89</ele>
        <time>2017-08-20T08:25:05Z</time>
      </trkpt>
      <trkpt lat="44.74958" lon="5.26445">
        <ele>341.41</ele>
        <time>2017-08-20T08:25:06Z</time>
      </trkpt>
      <trkpt lat="44.74953" lon="5.2644">
        <ele>340.92</ele>
        <time>2017-08-20T08:25:07Z</time>
      </trkpt>
      <trkpt lat="44.74948" lon="5.26436">
        <ele>339.96</ele>
        <time>2017-08-20T08:25:08Z</time>
      </trkpt>
      <trkpt lat="44.74942" lon="5.26433">
        <ele>339.96</ele>
        <time>2017-08-20T08:25:09Z</time>
      </trkpt>
      <trkpt lat="44.74936" lon="5.26431">
        <ele>340.92</ele>
        <time>2017-08-20T08:25:10Z</time>
      </trkpt>
      <trkpt lat="44.74931" lon="5.2643">
        <ele>340.92</ele>
        <time>2017-08-20T08:25:11Z</time>
      </trkpt>
      <trkpt lat="44.74925" lon="5.26429">
        <ele>341.41</ele>
        <time>2017-08-20T08:25:12Z</time>
      </trkpt>
      <trkpt lat="44.74889" lon="5.26426">
        <ele>342.85</ele>
        <time>2017-08-20T08:25:19Z</time>
      </trkpt>
      <trkpt lat="44.74883" lon="5.26426">
        <ele>342.37</ele>
        <time>2017-08-20T08:25:20Z</time>
      </trkpt>
      <trkpt lat="44.74878" lon="5.26425">
        <ele>342.37</ele>
        <time>2017-08-20T08:25:21Z</time>
      </trkpt>
      <trkpt lat="44.74857" lon="5.26425">
        <ele>343.33</ele>
        <time>2017-08-20T08:25:25Z</time>
      </trkpt>
      <trkpt lat="44.74852" lon="5.26427">
        <ele>343.81</ele>
        <time>2017-08-20T08:25:26Z</time>
      </trkpt>
      <trkpt lat="44.74848" lon="5.2643">
        <ele>344.29</ele>
        <time>2017-08-20T08:25:27Z</time>
      </trkpt>
      <trkpt lat="44.74839" lon="5.26438">
        <ele>344.77</ele>
        <time>2017-08-20T08:25:29Z</time>
      </trkpt>
      <trkpt lat="44.74834" lon="5.26443">
        <ele>345.25</ele>
        <time>2017-08-20T08:25:30Z</time>
      </trkpt>
      <trkpt lat="44.74829" lon="5.26447">
        <ele>345.73</ele>
        <time>2017-08-20T08:25:31Z</time>
      </trkpt>
      <trkpt lat="44.74824" lon="5.26451">
        <ele>346.21</ele>
        <time>2017-08-20T08:25:32Z</time>
      </trkpt>
      <trkpt lat="44.7475" lon="5.2648">
        <ele>344.29</ele>
        <time>2017-08-20T08:25:44Z</time>
      </trkpt>
      <trkpt lat="44.74729" lon="5.26485">
        <ele>343.81</ele>
        <time>2017-08-20T08:25:47Z</time>
      </trkpt>
      <trkpt lat="44.74722" lon="5.26485">
        <ele>343.81</ele>
        <time>2017-08-20T08:25:48Z</time>
      </trkpt>
      <trkpt lat="44.74681" lon="5.26484">
        <ele>344.29</ele>
        <time>2017-08-20T08:25:54Z</time>
      </trkpt>
      <trkpt lat="44.74674" lon="5.26486">
        <ele>344.29</ele>
        <time>2017-08-20T08:25:55Z</time>
      </trkpt>
      <trkpt lat="44.74667" lon="5.2649">
        <ele>344.77</ele>
        <time>2017-08-20T08:25:56Z</time>
      </trkpt>
      <trkpt lat="44.74661" lon="5.26495">
        <ele>344.29</ele>
        <time>2017-08-20T08:25:57Z</time>
      </trkpt>
      <trkpt lat="44.74656" lon="5.26501">
        <ele>344.29</ele>
        <time>2017-08-20T08:25:58Z</time>
      </trkpt>
      <trkpt lat="44.7465" lon="5.26508">
        <ele>344.29</ele>
        <time>2017-08-20T08:25:59Z</time>
      </trkpt>
      <trkpt lat="44.74608" lon="5.26563">
        <ele>343.81</ele>
        <time>2017-08-20T08:26:07Z</time>
      </trkpt>
      <trkpt lat="44.74602" lon="5.26568">
        <ele>343.81</ele>
        <time>2017-08-20T08:26:08Z</time>
      </trkpt>
      <trkpt lat="44.74595" lon="5.26572">
        <ele>344.29</ele>
        <time>2017-08-20T08:26:09Z</time>
      </trkpt>
      <trkpt lat="44.74545" lon="5.26598">
        <ele>345.25</ele>
        <time>2017-08-20T08:26:18Z</time>
      </trkpt>
      <trkpt lat="44.74539" lon="5.26598">
        <ele>344.77</ele>
        <time>2017-08-20T08:26:19Z</time>
      </trkpt>
      <trkpt lat="44.74533" lon="5.26598">
        <ele>345.25</ele>
        <time>2017-08-20T08:26:20Z</time>
      </trkpt>
      <trkpt lat="44.74523" lon="5.26599">
        <ele>347.17</ele>
        <time>2017-08-20T08:26:22Z</time>
      </trkpt>
      <trkpt lat="44.74518" lon="5.266">
        <ele>348.13</ele>
        <time>2017-08-20T08:26:23Z</time>
      </trkpt>
      <trkpt lat="44.74508" lon="5.26604">
        <ele>348.62</ele>
        <time>2017-08-20T08:26:25Z</time>
      </trkpt>
      <trkpt lat="44.74498" lon="5.26609">
        <ele>349.1</ele>
        <time>2017-08-20T08:26:27Z</time>
      </trkpt>
      <trkpt lat="44.74478" lon="5.26621">
        <ele>350.06</ele>
        <time>2017-08-20T08:26:31Z</time>
      </trkpt>
      <trkpt lat="44.74456" lon="5.26636">
        <ele>351.98</ele>
        <time>2017-08-20T08:26:36Z</time>
      </trkpt>
      <trkpt lat="44.74448" lon="5.26644">
        <ele>352.46</ele>
        <time>2017-08-20T08:26:38Z</time>
      </trkpt>
      <trkpt lat="44.74443" lon="5.26646">
        <ele>352.46</ele>
        <time>2017-08-20T08:26:39Z</time>
      </trkpt>
      <trkpt lat="44.74424" lon="5.26653">
        <ele>353.42</ele>
        <time>2017-08-20T08:26:43Z</time>
      </trkpt>
      <trkpt lat="44.7442" lon="5.26656">
        <ele>353.9</ele>
        <time>2017-08-20T08:26:44Z</time>
      </trkpt>
      <trkpt lat="44.74403" lon="5.26672">
        <ele>354.38</ele>
        <time>2017-08-20T08:26:48Z</time>
      </trkpt>
      <trkpt lat="44.74388" lon="5.2669">
        <ele>354.86</ele>
        <time>2017-08-20T08:26:52Z</time>
      </trkpt>
      <trkpt lat="44.74335" lon="5.26771">
        <ele>355.83</ele>
        <time>2017-08-20T08:27:07Z</time>
      </trkpt>
      <trkpt lat="44.74286" lon="5.2682">
        <ele>355.34</ele>
        <time>2017-08-20T08:27:18Z</time>
      </trkpt>
      <trkpt lat="44.74194" lon="5.26889">
        <ele>356.79</ele>
        <time>2017-08-20T08:27:37Z</time>
      </trkpt>
      <trkpt lat="44.74111" lon="5.26952">
        <ele>356.31</ele>
        <time>2017-08-20T08:27:52Z</time>
      </trkpt>
      <trkpt lat="44.74033" lon="5.27027">
        <ele>357.27</ele>
        <time>2017-08-20T08:28:06Z</time>
      </trkpt>
      <trkpt lat="44.74027" lon="5.27031">
        <ele>357.27</ele>
        <time>2017-08-20T08:28:07Z</time>
      </trkpt>
      <trkpt lat="44.74021" lon="5.27035">
        <ele>357.27</ele>
        <time>2017-08-20T08:28:08Z</time>
      </trkpt>
      <trkpt lat="44.73982" lon="5.27057">
        <ele>357.27</ele>
        <time>2017-08-20T08:28:14Z</time>
      </trkpt>
      <trkpt lat="44.73977" lon="5.27064">
        <ele>357.27</ele>
        <time>2017-08-20T08:28:15Z</time>
      </trkpt>
      <trkpt lat="44.73972" lon="5.27072">
        <ele>357.27</ele>
        <time>2017-08-20T08:28:16Z</time>
      </trkpt>
      <trkpt lat="44.73968" lon="5.2708">
        <ele>357.27</ele>
        <time>2017-08-20T08:28:17Z</time>
      </trkpt>
      <trkpt lat="44.73964" lon="5.27089">
        <ele>356.79</ele>
        <time>2017-08-20T08:28:18Z</time>
      </trkpt>
      <trkpt lat="44.73945" lon="5.27124">
        <ele>356.31</ele>
        <time>2017-08-20T08:28:22Z</time>
      </trkpt>
      <trkpt lat="44.73939" lon="5.2713">
        <ele>356.31</ele>
        <time>2017-08-20T08:28:23Z</time>
      </trkpt>
      <trkpt lat="44.73932" lon="5.27136">
        <ele>355.83</ele>
        <time>2017-08-20T08:28:24Z</time>
      </trkpt>
      <trkpt lat="44.73924" lon="5.2714">
        <ele>355.34</ele>
        <time>2017-08-20T08:28:25Z</time>
      </trkpt>
      <trkpt lat="44.73916" lon="5.27142">
        <ele>355.34</ele>
        <time>2017-08-20T08:28:26Z</time>
      </trkpt>
      <trkpt lat="44.73907" lon="5.27141">
        <ele>354.38</ele>
        <time>2017-08-20T08:28:27Z</time>
      </trkpt>
      <trkpt lat="44.739" lon="5.2714">
        <ele>353.9</ele>
        <time>2017-08-20T08:28:28Z</time>
      </trkpt>
      <trkpt lat="44.73881" lon="5.27136">
        <ele>353.42</ele>
        <time>2017-08-20T08:28:30Z</time>
      </trkpt>
      <trkpt lat="44.73778" lon="5.27151">
        <ele>350.54</ele>
        <time>2017-08-20T08:28:40Z</time>
      </trkpt>
      <trkpt lat="44.73767" lon="5.27156">
        <ele>350.54</ele>
        <time>2017-08-20T08:28:41Z</time>
      </trkpt>
      <trkpt lat="44.73756" lon="5.27161">
        <ele>350.54</ele>
        <time>2017-08-20T08:28:42Z</time>
      </trkpt>
      <trkpt lat="44.73677" lon="5.27245">
        <ele>348.13</ele>
        <time>2017-08-20T08:28:51Z</time>
      </trkpt>
      <trkpt lat="44.73662" lon="5.27266">
        <ele>345.73</ele>
        <time>2017-08-20T08:28:53Z</time>
      </trkpt>
      <trkpt lat="44.73652" lon="5.27272">
        <ele>344.77</ele>
        <time>2017-08-20T08:28:54Z</time>
      </trkpt>
      <trkpt lat="44.73642" lon="5.27275">
        <ele>344.29</ele>
        <time>2017-08-20T08:28:55Z</time>
      </trkpt>
      <trkpt lat="44.73632" lon="5.27276">
        <ele>343.81</ele>
        <time>2017-08-20T08:28:56Z</time>
      </trkpt>
      <trkpt lat="44.73622" lon="5.27274">
        <ele>343.33</ele>
        <time>2017-08-20T08:28:57Z</time>
      </trkpt>
      <trkpt lat="44.73612" lon="5.27271">
        <ele>342.37</ele>
        <time>2017-08-20T08:28:58Z</time>
      </trkpt>
      <trkpt lat="44.73602" lon="5.27267">
        <ele>341.89</ele>
        <time>2017-08-20T08:28:59Z</time>
      </trkpt>
      <trkpt lat="44.73479" lon="5.27229">
        <ele>339</ele>
        <time>2017-08-20T08:29:11Z</time>
      </trkpt>
      <trkpt lat="44.73441" lon="5.27226">
        <ele>339.48</ele>
        <time>2017-08-20T08:29:15Z</time>
      </trkpt>
      <trkpt lat="44.73432" lon="5.27229">
        <ele>339.96</ele>
        <time>2017-08-20T08:29:16Z</time>
      </trkpt>
      <trkpt lat="44.73423" lon="5.27234">
        <ele>340.44</ele>
        <time>2017-08-20T08:29:17Z</time>
      </trkpt>
      <trkpt lat="44.73415" lon="5.27239">
        <ele>340.92</ele>
        <time>2017-08-20T08:29:18Z</time>
      </trkpt>
      <trkpt lat="44.73408" lon="5.27245">
        <ele>341.41</ele>
        <time>2017-08-20T08:29:19Z</time>
      </trkpt>
      <trkpt lat="44.73371" lon="5.27272">
        <ele>342.37</ele>
        <time>2017-08-20T08:29:24Z</time>
      </trkpt>
      <trkpt lat="44.73287" lon="5.2736">
        <ele>341.89</ele>
        <time>2017-08-20T08:29:37Z</time>
      </trkpt>
      <trkpt lat="44.73254" lon="5.27392">
        <ele>340.44</ele>
        <time>2017-08-20T08:29:42Z</time>
      </trkpt>
      <trkpt lat="44.73216" lon="5.27413">
        <ele>339.96</ele>
        <time>2017-08-20T08:29:47Z</time>
      </trkpt>
      <trkpt lat="44.73152" lon="5.27428">
        <ele>337.08</ele>
        <time>2017-08-20T08:29:54Z</time>
      </trkpt>
      <trkpt lat="44.73103" lon="5.27439">
        <ele>333.71</ele>
        <time>2017-08-20T08:29:59Z</time>
      </trkpt>
      <trkpt lat="44.72986" lon="5.27444">
        <ele>332.75</ele>
        <time>2017-08-20T08:30:12Z</time>
      </trkpt>
      <trkpt lat="44.72912" lon="5.27445">
        <ele>334.68</ele>
        <time>2017-08-20T08:30:21Z</time>
      </trkpt>
      <trkpt lat="44.72905" lon="5.27448">
        <ele>335.16</ele>
        <time>2017-08-20T08:30:22Z</time>
      </trkpt>
      <trkpt lat="44.72844" lon="5.27473">
        <ele>333.23</ele>
        <time>2017-08-20T08:30:33Z</time>
      </trkpt>
      <trkpt lat="44.72842" lon="5.2747">
        <ele>333.23</ele>
        <time>2017-08-20T08:30:47Z</time>
      </trkpt>
      <trkpt lat="44.72842" lon="5.2747">
        <ele>333.23</ele>
        <time>2017-08-20T08:31:07Z</time>
      </trkpt>
      <trkpt lat="44.72842" lon="5.27472">
        <ele>333.23</ele>
        <time>2017-08-20T08:31:28Z</time>
      </trkpt>
      <trkpt lat="44.72838" lon="5.27474">
        <ele>332.75</ele>
        <time>2017-08-20T08:31:30Z</time>
      </trkpt>
      <trkpt lat="44.72829" lon="5.27478">
        <ele>332.75</ele>
        <time>2017-08-20T08:31:33Z</time>
      </trkpt>
      <trkpt lat="44.72825" lon="5.2748">
        <ele>332.75</ele>
        <time>2017-08-20T08:31:34Z</time>
      </trkpt>
      <trkpt lat="44.72821" lon="5.2748">
        <ele>332.75</ele>
        <time>2017-08-20T08:31:35Z</time>
      </trkpt>
      <trkpt lat="44.72737" lon="5.27481">
        <ele>333.23</ele>
        <time>2017-08-20T08:31:50Z</time>
      </trkpt>
      <trkpt lat="44.72712" lon="5.27475">
        <ele>332.27</ele>
        <time>2017-08-20T08:31:54Z</time>
      </trkpt>
      <trkpt lat="44.72705" lon="5.27472">
        <ele>332.27</ele>
        <time>2017-08-20T08:31:55Z</time>
      </trkpt>
      <trkpt lat="44.72699" lon="5.27467">
        <ele>331.79</ele>
        <time>2017-08-20T08:31:56Z</time>
      </trkpt>
      <trkpt lat="44.72694" lon="5.27462">
        <ele>332.27</ele>
        <time>2017-08-20T08:31:57Z</time>
      </trkpt>
      <trkpt lat="44.72688" lon="5.27457">
        <ele>332.27</ele>
        <time>2017-08-20T08:31:58Z</time>
      </trkpt>
      <trkpt lat="44.72683" lon="5.27451">
        <ele>332.27</ele>
        <time>2017-08-20T08:31:59Z</time>
      </trkpt>
      <trkpt lat="44.72632" lon="5.27413">
        <ele>330.35</ele>
        <time>2017-08-20T08:32:07Z</time>
      </trkpt>
      <trkpt lat="44.72624" lon="5.27411">
        <ele>329.87</ele>
        <time>2017-08-20T08:32:08Z</time>
      </trkpt>
      <trkpt lat="44.72615" lon="5.27411">
        <ele>328.91</ele>
        <time>2017-08-20T08:32:09Z</time>
      </trkpt>
      <trkpt lat="44.72607" lon="5.27412">
        <ele>328.91</ele>
        <time>2017-08-20T08:32:10Z</time>
      </trkpt>
      <trkpt lat="44.72599" lon="5.27415">
        <ele>329.39</ele>
        <time>2017-08-20T08:32:11Z</time>
      </trkpt>
      <trkpt lat="44.72591" lon="5.27418">
        <ele>328.91</ele>
        <time>2017-08-20T08:32:12Z</time>
      </trkpt>
      <trkpt lat="44.72567" lon="5.27423">
        <ele>328.91</ele>
        <time>2017-08-20T08:32:15Z</time>
      </trkpt>
      <trkpt lat="44.7256" lon="5.2742">
        <ele>328.91</ele>
        <time>2017-08-20T08:32:16Z</time>
      </trkpt>
      <trkpt lat="44.72554" lon="5.27413">
        <ele>328.91</ele>
        <time>2017-08-20T08:32:17Z</time>
      </trkpt>
      <trkpt lat="44.72549" lon="5.27404">
        <ele>328.91</ele>
        <time>2017-08-20T08:32:18Z</time>
      </trkpt>
      <trkpt lat="44.72546" lon="5.27394">
        <ele>329.39</ele>
        <time>2017-08-20T08:32:19Z</time>
      </trkpt>
      <trkpt lat="44.72543" lon="5.27384">
        <ele>329.39</ele>
        <time>2017-08-20T08:32:20Z</time>
      </trkpt>
      <trkpt lat="44.7254" lon="5.27374">
        <ele>329.39</ele>
        <time>2017-08-20T08:32:21Z</time>
      </trkpt>
      <trkpt lat="44.72538" lon="5.27363">
        <ele>329.39</ele>
        <time>2017-08-20T08:32:22Z</time>
      </trkpt>
      <trkpt lat="44.72531" lon="5.27333">
        <ele>329.39</ele>
        <time>2017-08-20T08:32:25Z</time>
      </trkpt>
      <trkpt lat="44.72528" lon="5.27323">
        <ele>329.39</ele>
        <time>2017-08-20T08:32:26Z</time>
      </trkpt>
      <trkpt lat="44.72524" lon="5.27313">
        <ele>329.39</ele>
        <time>2017-08-20T08:32:27Z</time>
      </trkpt>
      <trkpt lat="44.72519" lon="5.27304">
        <ele>328.91</ele>
        <time>2017-08-20T08:32:28Z</time>
      </trkpt>
      <trkpt lat="44.72514" lon="5.27297">
        <ele>329.39</ele>
        <time>2017-08-20T08:32:29Z</time>
      </trkpt>
      <trkpt lat="44.72508" lon="5.2729">
        <ele>329.39</ele>
        <time>2017-08-20T08:32:30Z</time>
      </trkpt>
      <trkpt lat="44.72502" lon="5.27284">
        <ele>329.39</ele>
        <time>2017-08-20T08:32:31Z</time>
      </trkpt>
      <trkpt lat="44.72495" lon="5.27277">
        <ele>328.91</ele>
        <time>2017-08-20T08:32:32Z</time>
      </trkpt>
      <trkpt lat="44.7243" lon="5.27242">
        <ele>326.5</ele>
        <time>2017-08-20T08:32:40Z</time>
      </trkpt>
      <trkpt lat="44.72347" lon="5.27203">
        <ele>324.1</ele>
        <time>2017-08-20T08:32:49Z</time>
      </trkpt>
      <trkpt lat="44.72336" lon="5.27202">
        <ele>323.62</ele>
        <time>2017-08-20T08:32:50Z</time>
      </trkpt>
      <trkpt lat="44.72326" lon="5.27204">
        <ele>323.62</ele>
        <time>2017-08-20T08:32:51Z</time>
      </trkpt>
      <trkpt lat="44.72315" lon="5.27207">
        <ele>323.14</ele>
        <time>2017-08-20T08:32:52Z</time>
      </trkpt>
      <trkpt lat="44.72305" lon="5.27213">
        <ele>323.14</ele>
        <time>2017-08-20T08:32:53Z</time>
      </trkpt>
      <trkpt lat="44.72295" lon="5.27221">
        <ele>322.66</ele>
        <time>2017-08-20T08:32:54Z</time>
      </trkpt>
      <trkpt lat="44.72275" lon="5.27234">
        <ele>321.22</ele>
        <time>2017-08-20T08:32:56Z</time>
      </trkpt>
      <trkpt lat="44.72264" lon="5.27239">
        <ele>320.74</ele>
        <time>2017-08-20T08:32:57Z</time>
      </trkpt>
      <trkpt lat="44.72253" lon="5.27242">
        <ele>320.74</ele>
        <time>2017-08-20T08:32:58Z</time>
      </trkpt>
      <trkpt lat="44.72242" lon="5.27245">
        <ele>319.78</ele>
        <time>2017-08-20T08:32:59Z</time>
      </trkpt>
      <trkpt lat="44.72231" lon="5.27247">
        <ele>318.81</ele>
        <time>2017-08-20T08:33:00Z</time>
      </trkpt>
      <trkpt lat="44.72221" lon="5.27249">
        <ele>318.81</ele>
        <time>2017-08-20T08:33:01Z</time>
      </trkpt>
      <trkpt lat="44.72109" lon="5.2729">
        <ele>319.3</ele>
        <time>2017-08-20T08:33:13Z</time>
      </trkpt>
      <trkpt lat="44.72091" lon="5.27295">
        <ele>319.3</ele>
        <time>2017-08-20T08:33:15Z</time>
      </trkpt>
      <trkpt lat="44.71975" lon="5.273">
        <ele>318.81</ele>
        <time>2017-08-20T08:33:28Z</time>
      </trkpt>
      <trkpt lat="44.71849" lon="5.27305">
        <ele>320.26</ele>
        <time>2017-08-20T08:33:43Z</time>
      </trkpt>
      <trkpt lat="44.71724" lon="5.27295">
        <ele>320.26</ele>
        <time>2017-08-20T08:33:59Z</time>
      </trkpt>
      <trkpt lat="44.71616" lon="5.27317">
        <ele>320.26</ele>
        <time>2017-08-20T08:34:13Z</time>
      </trkpt>
      <trkpt lat="44.71498" lon="5.27344">
        <ele>319.78</ele>
        <time>2017-08-20T08:34:29Z</time>
      </trkpt>
      <trkpt lat="44.71399" lon="5.27359">
        <ele>316.89</ele>
        <time>2017-08-20T08:34:41Z</time>
      </trkpt>
      <trkpt lat="44.71376" lon="5.27369">
        <ele>316.41</ele>
        <time>2017-08-20T08:34:44Z</time>
      </trkpt>
      <trkpt lat="44.71357" lon="5.27367">
        <ele>315.93</ele>
        <time>2017-08-20T08:34:46Z</time>
      </trkpt>
      <trkpt lat="44.71349" lon="5.27362">
        <ele>315.93</ele>
        <time>2017-08-20T08:34:47Z</time>
      </trkpt>
      <trkpt lat="44.7134" lon="5.27356">
        <ele>315.45</ele>
        <time>2017-08-20T08:34:48Z</time>
      </trkpt>
      <trkpt lat="44.71332" lon="5.27348">
        <ele>315.45</ele>
        <time>2017-08-20T08:34:49Z</time>
      </trkpt>
      <trkpt lat="44.71325" lon="5.27341">
        <ele>315.45</ele>
        <time>2017-08-20T08:34:50Z</time>
      </trkpt>
      <trkpt lat="44.71294" lon="5.27315">
        <ele>314.97</ele>
        <time>2017-08-20T08:34:54Z</time>
      </trkpt>
      <trkpt lat="44.71285" lon="5.27311">
        <ele>314.97</ele>
        <time>2017-08-20T08:34:55Z</time>
      </trkpt>
      <trkpt lat="44.71186" lon="5.2726">
        <ele>313.53</ele>
        <time>2017-08-20T08:35:08Z</time>
      </trkpt>
      <trkpt lat="44.71135" lon="5.27221">
        <ele>313.53</ele>
        <time>2017-08-20T08:35:15Z</time>
      </trkpt>
      <trkpt lat="44.71008" lon="5.27164">
        <ele>313.05</ele>
        <time>2017-08-20T08:35:32Z</time>
      </trkpt>
      <trkpt lat="44.70982" lon="5.27153">
        <ele>313.05</ele>
        <time>2017-08-20T08:35:36Z</time>
      </trkpt>
      <trkpt lat="44.70962" lon="5.27148">
        <ele>313.53</ele>
        <time>2017-08-20T08:35:39Z</time>
      </trkpt>
      <trkpt lat="44.70865" lon="5.27141">
        <ele>313.53</ele>
        <time>2017-08-20T08:35:53Z</time>
      </trkpt>
      <trkpt lat="44.70779" lon="5.2708">
        <ele>313.53</ele>
        <time>2017-08-20T08:36:07Z</time>
      </trkpt>
      <trkpt lat="44.70702" lon="5.27028">
        <ele>313.05</ele>
        <time>2017-08-20T08:36:19Z</time>
      </trkpt>
      <trkpt lat="44.70589" lon="5.26983">
        <ele>311.6</ele>
        <time>2017-08-20T08:36:35Z</time>
      </trkpt>
      <trkpt lat="44.70507" lon="5.26959">
        <ele>311.6</ele>
        <time>2017-08-20T08:36:46Z</time>
      </trkpt>
      <trkpt lat="44.705" lon="5.26955">
        <ele>311.12</ele>
        <time>2017-08-20T08:36:47Z</time>
      </trkpt>
      <trkpt lat="44.70425" lon="5.26886">
        <ele>312.09</ele>
        <time>2017-08-20T08:37:01Z</time>
      </trkpt>
      <trkpt lat="44.70318" lon="5.26777">
        <ele>311.12</ele>
        <time>2017-08-20T08:37:20Z</time>
      </trkpt>
      <trkpt lat="44.70239" lon="5.26655">
        <ele>308.72</ele>
        <time>2017-08-20T08:37:34Z</time>
      </trkpt>
      <trkpt lat="44.70164" lon="5.2654">
        <ele>309.68</ele>
        <time>2017-08-20T08:37:49Z</time>
      </trkpt>
      <trkpt lat="44.70158" lon="5.26534">
        <ele>308.72</ele>
        <time>2017-08-20T08:37:50Z</time>
      </trkpt>
      <trkpt lat="44.70152" lon="5.26528">
        <ele>308.72</ele>
        <time>2017-08-20T08:37:51Z</time>
      </trkpt>
      <trkpt lat="44.70145" lon="5.26524">
        <ele>308.24</ele>
        <time>2017-08-20T08:37:52Z</time>
      </trkpt>
      <trkpt lat="44.70138" lon="5.26521">
        <ele>308.24</ele>
        <time>2017-08-20T08:37:53Z</time>
      </trkpt>
      <trkpt lat="44.70131" lon="5.2652">
        <ele>307.76</ele>
        <time>2017-08-20T08:37:54Z</time>
      </trkpt>
      <trkpt lat="44.70124" lon="5.2652">
        <ele>308.24</ele>
        <time>2017-08-20T08:37:55Z</time>
      </trkpt>
      <trkpt lat="44.70117" lon="5.26521">
        <ele>308.24</ele>
        <time>2017-08-20T08:37:56Z</time>
      </trkpt>
      <trkpt lat="44.70109" lon="5.26524">
        <ele>308.24</ele>
        <time>2017-08-20T08:37:57Z</time>
      </trkpt>
      <trkpt lat="44.70102" lon="5.26527">
        <ele>307.76</ele>
        <time>2017-08-20T08:37:58Z</time>
      </trkpt>
      <trkpt lat="44.70095" lon="5.2653">
        <ele>307.28</ele>
        <time>2017-08-20T08:37:59Z</time>
      </trkpt>
      <trkpt lat="44.70042" lon="5.26556">
        <ele>306.8</ele>
        <time>2017-08-20T08:38:06Z</time>
      </trkpt>
      <trkpt lat="44.70034" lon="5.26557">
        <ele>306.32</ele>
        <time>2017-08-20T08:38:07Z</time>
      </trkpt>
      <trkpt lat="44.70026" lon="5.26556">
        <ele>306.32</ele>
        <time>2017-08-20T08:38:08Z</time>
      </trkpt>
      <trkpt lat="44.70018" lon="5.26554">
        <ele>306.8</ele>
        <time>2017-08-20T08:38:09Z</time>
      </trkpt>
      <trkpt lat="44.70011" lon="5.2655">
        <ele>306.8</ele>
        <time>2017-08-20T08:38:10Z</time>
      </trkpt>
      <trkpt lat="44.70004" lon="5.26545">
        <ele>306.32</ele>
        <time>2017-08-20T08:38:11Z</time>
      </trkpt>
      <trkpt lat="44.69997" lon="5.2654">
        <ele>306.32</ele>
        <time>2017-08-20T08:38:12Z</time>
      </trkpt>
      <trkpt lat="44.6999" lon="5.26535">
        <ele>306.32</ele>
        <time>2017-08-20T08:38:13Z</time>
      </trkpt>
      <trkpt lat="44.69937" lon="5.26497">
        <ele>306.8</ele>
        <time>2017-08-20T08:38:22Z</time>
      </trkpt>
      <trkpt lat="44.69931" lon="5.26492">
        <ele>306.32</ele>
        <time>2017-08-20T08:38:23Z</time>
      </trkpt>
      <trkpt lat="44.69926" lon="5.26485">
        <ele>306.8</ele>
        <time>2017-08-20T08:38:24Z</time>
      </trkpt>
      <trkpt lat="44.69901" lon="5.26444">
        <ele>307.76</ele>
        <time>2017-08-20T08:38:30Z</time>
      </trkpt>
      <trkpt lat="44.69899" lon="5.26436">
        <ele>307.76</ele>
        <time>2017-08-20T08:38:31Z</time>
      </trkpt>
      <trkpt lat="44.69889" lon="5.26388">
        <ele>307.76</ele>
        <time>2017-08-20T08:38:37Z</time>
      </trkpt>
      <trkpt lat="44.69888" lon="5.2638">
        <ele>307.76</ele>
        <time>2017-08-20T08:38:38Z</time>
      </trkpt>
      <trkpt lat="44.69887" lon="5.26364">
        <ele>308.24</ele>
        <time>2017-08-20T08:38:40Z</time>
      </trkpt>
      <trkpt lat="44.69886" lon="5.26356">
        <ele>307.76</ele>
        <time>2017-08-20T08:38:41Z</time>
      </trkpt>
      <trkpt lat="44.69885" lon="5.26347">
        <ele>307.76</ele>
        <time>2017-08-20T08:38:42Z</time>
      </trkpt>
      <trkpt lat="44.69882" lon="5.26339">
        <ele>307.76</ele>
        <time>2017-08-20T08:38:43Z</time>
      </trkpt>
      <trkpt lat="44.69879" lon="5.2633">
        <ele>307.76</ele>
        <time>2017-08-20T08:38:44Z</time>
      </trkpt>
      <trkpt lat="44.69877" lon="5.26321">
        <ele>307.76</ele>
        <time>2017-08-20T08:38:45Z</time>
      </trkpt>
      <trkpt lat="44.69875" lon="5.26312">
        <ele>308.24</ele>
        <time>2017-08-20T08:38:46Z</time>
      </trkpt>
      <trkpt lat="44.69832" lon="5.26212">
        <ele>305.36</ele>
        <time>2017-08-20T08:38:56Z</time>
      </trkpt>
      <trkpt lat="44.6979" lon="5.26157">
        <ele>303.91</ele>
        <time>2017-08-20T08:39:02Z</time>
      </trkpt>
      <trkpt lat="44.69731" lon="5.26111">
        <ele>305.36</ele>
        <time>2017-08-20T08:39:10Z</time>
      </trkpt>
      <trkpt lat="44.69665" lon="5.26092">
        <ele>306.32</ele>
        <time>2017-08-20T08:39:20Z</time>
      </trkpt>
      <trkpt lat="44.69594" lon="5.26115">
        <ele>305.36</ele>
        <time>2017-08-20T08:39:31Z</time>
      </trkpt>
      <trkpt lat="44.69586" lon="5.26116">
        <ele>305.36</ele>
        <time>2017-08-20T08:39:32Z</time>
      </trkpt>
      <trkpt lat="44.69579" lon="5.26114">
        <ele>304.88</ele>
        <time>2017-08-20T08:39:33Z</time>
      </trkpt>
      <trkpt lat="44.69572" lon="5.26111">
        <ele>304.39</ele>
        <time>2017-08-20T08:39:34Z</time>
      </trkpt>
      <trkpt lat="44.69565" lon="5.26105">
        <ele>303.91</ele>
        <time>2017-08-20T08:39:35Z</time>
      </trkpt>
      <trkpt lat="44.6956" lon="5.26097">
        <ele>303.91</ele>
        <time>2017-08-20T08:39:36Z</time>
      </trkpt>
      <trkpt lat="44.69555" lon="5.26089">
        <ele>303.91</ele>
        <time>2017-08-20T08:39:37Z</time>
      </trkpt>
      <trkpt lat="44.69551" lon="5.2608">
        <ele>304.39</ele>
        <time>2017-08-20T08:39:38Z</time>
      </trkpt>
      <trkpt lat="44.69547" lon="5.2607">
        <ele>304.39</ele>
        <time>2017-08-20T08:39:39Z</time>
      </trkpt>
      <trkpt lat="44.69482" lon="5.25909">
        <ele>303.43</ele>
        <time>2017-08-20T08:39:57Z</time>
      </trkpt>
      <trkpt lat="44.69466" lon="5.25866">
        <ele>302.47</ele>
        <time>2017-08-20T08:40:02Z</time>
      </trkpt>
      <trkpt lat="44.69464" lon="5.25857">
        <ele>302.47</ele>
        <time>2017-08-20T08:40:03Z</time>
      </trkpt>
      <trkpt lat="44.69462" lon="5.25847">
        <ele>302.47</ele>
        <time>2017-08-20T08:40:04Z</time>
      </trkpt>
      <trkpt lat="44.69461" lon="5.25838">
        <ele>302.47</ele>
        <time>2017-08-20T08:40:05Z</time>
      </trkpt>
      <trkpt lat="44.69461" lon="5.25829">
        <ele>302.47</ele>
        <time>2017-08-20T08:40:06Z</time>
      </trkpt>
      <trkpt lat="44.69462" lon="5.25821">
        <ele>302.47</ele>
        <time>2017-08-20T08:40:07Z</time>
      </trkpt>
      <trkpt lat="44.69464" lon="5.25812">
        <ele>302.47</ele>
        <time>2017-08-20T08:40:08Z</time>
      </trkpt>
      <trkpt lat="44.69471" lon="5.25767">
        <ele>302.47</ele>
        <time>2017-08-20T08:40:14Z</time>
      </trkpt>
      <trkpt lat="44.69472" lon="5.2576">
        <ele>303.43</ele>
        <time>2017-08-20T08:40:15Z</time>
      </trkpt>
      <trkpt lat="44.69474" lon="5.25753">
        <ele>303.43</ele>
        <time>2017-08-20T08:40:16Z</time>
      </trkpt>
      <trkpt lat="44.69475" lon="5.25746">
        <ele>303.91</ele>
        <time>2017-08-20T08:40:17Z</time>
      </trkpt>
      <trkpt lat="44.69477" lon="5.2574">
        <ele>303.91</ele>
        <time>2017-08-20T08:40:18Z</time>
      </trkpt>
      <trkpt lat="44.69484" lon="5.25715">
        <ele>303.91</ele>
        <time>2017-08-20T08:40:22Z</time>
      </trkpt>
      <trkpt lat="44.69485" lon="5.25708">
        <ele>303.43</ele>
        <time>2017-08-20T08:40:23Z</time>
      </trkpt>
      <trkpt lat="44.69486" lon="5.25702">
        <ele>303.91</ele>
        <time>2017-08-20T08:40:24Z</time>
      </trkpt>
      <trkpt lat="44.69487" lon="5.25695">
        <ele>303.43</ele>
        <time>2017-08-20T08:40:25Z</time>
      </trkpt>
      <trkpt lat="44.69489" lon="5.25689">
        <ele>303.43</ele>
        <time>2017-08-20T08:40:26Z</time>
      </trkpt>
      <trkpt lat="44.69492" lon="5.25682">
        <ele>303.43</ele>
        <time>2017-08-20T08:40:27Z</time>
      </trkpt>
      <trkpt lat="44.69495" lon="5.25676">
        <ele>303.43</ele>
        <time>2017-08-20T08:40:28Z</time>
      </trkpt>
      <trkpt lat="44.69535" lon="5.25598">
        <ele>301.99</ele>
        <time>2017-08-20T08:40:39Z</time>
      </trkpt>
      <trkpt lat="44.69539" lon="5.25591">
        <ele>301.99</ele>
        <time>2017-08-20T08:40:40Z</time>
      </trkpt>
      <trkpt lat="44.69568" lon="5.25544">
        <ele>301.99</ele>
        <time>2017-08-20T08:40:47Z</time>
      </trkpt>
      <trkpt lat="44.69572" lon="5.25536">
        <ele>301.99</ele>
        <time>2017-08-20T08:40:48Z</time>
      </trkpt>
      <trkpt lat="44.69574" lon="5.25528">
        <ele>301.99</ele>
        <time>2017-08-20T08:40:49Z</time>
      </trkpt>
      <trkpt lat="44.69576" lon="5.2552">
        <ele>301.99</ele>
        <time>2017-08-20T08:40:50Z</time>
      </trkpt>
      <trkpt lat="44.69578" lon="5.25512">
        <ele>301.99</ele>
        <time>2017-08-20T08:40:51Z</time>
      </trkpt>
      <trkpt lat="44.6958" lon="5.25503">
        <ele>301.99</ele>
        <time>2017-08-20T08:40:52Z</time>
      </trkpt>
      <trkpt lat="44.69584" lon="5.25475">
        <ele>301.03</ele>
        <time>2017-08-20T08:40:55Z</time>
      </trkpt>
      <trkpt lat="44.69586" lon="5.25466">
        <ele>300.55</ele>
        <time>2017-08-20T08:40:56Z</time>
      </trkpt>
      <trkpt lat="44.69626" lon="5.25323">
        <ele>298.63</ele>
        <time>2017-08-20T08:41:11Z</time>
      </trkpt>
      <trkpt lat="44.69635" lon="5.25291">
        <ele>298.63</ele>
        <time>2017-08-20T08:41:14Z</time>
      </trkpt>
      <trkpt lat="44.69637" lon="5.25279">
        <ele>298.15</ele>
        <time>2017-08-20T08:41:15Z</time>
      </trkpt>
      <trkpt lat="44.69638" lon="5.25268">
        <ele>298.15</ele>
        <time>2017-08-20T08:41:16Z</time>
      </trkpt>
      <trkpt lat="44.69638" lon="5.25256">
        <ele>298.15</ele>
        <time>2017-08-20T08:41:17Z</time>
      </trkpt>
      <trkpt lat="44.69637" lon="5.25245">
        <ele>298.15</ele>
        <time>2017-08-20T08:41:18Z</time>
      </trkpt>
      <trkpt lat="44.69636" lon="5.25233">
        <ele>298.15</ele>
        <time>2017-08-20T08:41:19Z</time>
      </trkpt>
      <trkpt lat="44.69624" lon="5.25068">
        <ele>296.22</ele>
        <time>2017-08-20T08:41:34Z</time>
      </trkpt>
      <trkpt lat="44.69632" lon="5.24898">
        <ele>294.3</ele>
        <time>2017-08-20T08:41:49Z</time>
      </trkpt>
      <trkpt lat="44.69617" lon="5.24796">
        <ele>293.82</ele>
        <time>2017-08-20T08:41:58Z</time>
      </trkpt>
      <trkpt lat="44.69599" lon="5.24672">
        <ele>292.86</ele>
        <time>2017-08-20T08:42:10Z</time>
      </trkpt>
      <trkpt lat="44.69592" lon="5.24643">
        <ele>292.86</ele>
        <time>2017-08-20T08:42:13Z</time>
      </trkpt>
      <trkpt lat="44.69587" lon="5.24624">
        <ele>293.34</ele>
        <time>2017-08-20T08:42:15Z</time>
      </trkpt>
      <trkpt lat="44.69585" lon="5.24614">
        <ele>293.34</ele>
        <time>2017-08-20T08:42:16Z</time>
      </trkpt>
      <trkpt lat="44.69537" lon="5.24458">
        <ele>293.34</ele>
        <time>2017-08-20T08:42:32Z</time>
      </trkpt>
      <trkpt lat="44.69469" lon="5.24309">
        <ele>293.82</ele>
        <time>2017-08-20T08:42:49Z</time>
      </trkpt>
      <trkpt lat="44.6939" lon="5.24176">
        <ele>293.34</ele>
        <time>2017-08-20T08:43:06Z</time>
      </trkpt>
      <trkpt lat="44.69304" lon="5.2403">
        <ele>292.38</ele>
        <time>2017-08-20T08:43:24Z</time>
      </trkpt>
      <trkpt lat="44.69215" lon="5.23965">
        <ele>291.42</ele>
        <time>2017-08-20T08:43:37Z</time>
      </trkpt>
      <trkpt lat="44.69101" lon="5.23916">
        <ele>289.97</ele>
        <time>2017-08-20T08:43:53Z</time>
      </trkpt>
      <trkpt lat="44.6902" lon="5.23862">
        <ele>289.49</ele>
        <time>2017-08-20T08:44:05Z</time>
      </trkpt>
      <trkpt lat="44.69007" lon="5.23853">
        <ele>289.49</ele>
        <time>2017-08-20T08:44:07Z</time>
      </trkpt>
      <trkpt lat="44.68975" lon="5.23821">
        <ele>289.01</ele>
        <time>2017-08-20T08:44:13Z</time>
      </trkpt>
      <trkpt lat="44.68974" lon="5.23813">
        <ele>289.01</ele>
        <time>2017-08-20T08:44:14Z</time>
      </trkpt>
      <trkpt lat="44.68975" lon="5.23805">
        <ele>289.01</ele>
        <time>2017-08-20T08:44:15Z</time>
      </trkpt>
      <trkpt lat="44.68978" lon="5.23798">
        <ele>289.01</ele>
        <time>2017-08-20T08:44:16Z</time>
      </trkpt>
      <trkpt lat="44.68998" lon="5.23758">
        <ele>289.97</ele>
        <time>2017-08-20T08:44:23Z</time>
      </trkpt>
      <trkpt lat="44.68997" lon="5.23751">
        <ele>289.97</ele>
        <time>2017-08-20T08:44:24Z</time>
      </trkpt>
      <trkpt lat="44.68995" lon="5.23745">
        <ele>289.97</ele>
        <time>2017-08-20T08:44:25Z</time>
      </trkpt>
      <trkpt lat="44.68992" lon="5.23739">
        <ele>289.97</ele>
        <time>2017-08-20T08:44:26Z</time>
      </trkpt>
      <trkpt lat="44.68988" lon="5.23734">
        <ele>289.97</ele>
        <time>2017-08-20T08:44:27Z</time>
      </trkpt>
      <trkpt lat="44.68985" lon="5.2373">
        <ele>290.46</ele>
        <time>2017-08-20T08:44:28Z</time>
      </trkpt>
      <trkpt lat="44.68981" lon="5.23725">
        <ele>290.46</ele>
        <time>2017-08-20T08:44:29Z</time>
      </trkpt>
      <trkpt lat="44.68978" lon="5.2372">
        <ele>290.94</ele>
        <time>2017-08-20T08:44:30Z</time>
      </trkpt>
      <trkpt lat="44.68934" lon="5.23646">
        <ele>291.9</ele>
        <time>2017-08-20T08:44:44Z</time>
      </trkpt>
      <trkpt lat="44.68898" lon="5.23512">
        <ele>292.38</ele>
        <time>2017-08-20T08:45:01Z</time>
      </trkpt>
      <trkpt lat="44.68884" lon="5.23386">
        <ele>292.86</ele>
        <time>2017-08-20T08:45:16Z</time>
      </trkpt>
      <trkpt lat="44.68886" lon="5.23274">
        <ele>293.82</ele>
        <time>2017-08-20T08:45:31Z</time>
      </trkpt>
      <trkpt lat="44.68887" lon="5.23156">
        <ele>295.26</ele>
        <time>2017-08-20T08:45:46Z</time>
      </trkpt>
      <trkpt lat="44.68868" lon="5.23034">
        <ele>293.34</ele>
        <time>2017-08-20T08:46:00Z</time>
      </trkpt>
      <trkpt lat="44.68862" lon="5.22963">
        <ele>289.97</ele>
        <time>2017-08-20T08:46:07Z</time>
      </trkpt>
      <trkpt lat="44.68869" lon="5.22877">
        <ele>286.61</ele>
        <time>2017-08-20T08:46:15Z</time>
      </trkpt>
      <trkpt lat="44.68899" lon="5.22694">
        <ele>283.73</ele>
        <time>2017-08-20T08:46:34Z</time>
      </trkpt>
      <trkpt lat="44.68927" lon="5.22545">
        <ele>283.25</ele>
        <time>2017-08-20T08:46:51Z</time>
      </trkpt>
      <trkpt lat="44.68956" lon="5.22382">
        <ele>282.28</ele>
        <time>2017-08-20T08:47:10Z</time>
      </trkpt>
      <trkpt lat="44.68993" lon="5.22208">
        <ele>280.84</ele>
        <time>2017-08-20T08:47:30Z</time>
      </trkpt>
      <trkpt lat="44.69019" lon="5.22068">
        <ele>279.88</ele>
        <time>2017-08-20T08:47:47Z</time>
      </trkpt>
      <trkpt lat="44.69041" lon="5.21926">
        <ele>280.36</ele>
        <time>2017-08-20T08:48:05Z</time>
      </trkpt>
      <trkpt lat="44.69062" lon="5.21802">
        <ele>280.36</ele>
        <time>2017-08-20T08:48:21Z</time>
      </trkpt>
      <trkpt lat="44.6911" lon="5.21706">
        <ele>279.4</ele>
        <time>2017-08-20T08:48:35Z</time>
      </trkpt>
      <trkpt lat="44.69164" lon="5.21606">
        <ele>279.4</ele>
        <time>2017-08-20T08:48:50Z</time>
      </trkpt>
      <trkpt lat="44.6918" lon="5.21543">
        <ele>279.4</ele>
        <time>2017-08-20T08:48:58Z</time>
      </trkpt>
      <trkpt lat="44.69181" lon="5.21535">
        <ele>279.4</ele>
        <time>2017-08-20T08:48:59Z</time>
      </trkpt>
      <trkpt lat="44.69181" lon="5.21526">
        <ele>279.4</ele>
        <time>2017-08-20T08:49:00Z</time>
      </trkpt>
      <trkpt lat="44.69179" lon="5.21498">
        <ele>279.4</ele>
        <time>2017-08-20T08:49:03Z</time>
      </trkpt>
      <trkpt lat="44.69178" lon="5.21489">
        <ele>279.4</ele>
        <time>2017-08-20T08:49:04Z</time>
      </trkpt>
      <trkpt lat="44.69173" lon="5.21472">
        <ele>279.4</ele>
        <time>2017-08-20T08:49:06Z</time>
      </trkpt>
      <trkpt lat="44.69158" lon="5.21431">
        <ele>279.88</ele>
        <time>2017-08-20T08:49:11Z</time>
      </trkpt>
      <trkpt lat="44.69079" lon="5.21318">
        <ele>279.4</ele>
        <time>2017-08-20T08:49:28Z</time>
      </trkpt>
      <trkpt lat="44.69009" lon="5.21237">
        <ele>278.44</ele>
        <time>2017-08-20T08:49:41Z</time>
      </trkpt>
      <trkpt lat="44.69004" lon="5.2123">
        <ele>277.96</ele>
        <time>2017-08-20T08:49:42Z</time>
      </trkpt>
      <trkpt lat="44.68997" lon="5.21217">
        <ele>278.44</ele>
        <time>2017-08-20T08:49:44Z</time>
      </trkpt>
      <trkpt lat="44.68993" lon="5.2121">
        <ele>278.44</ele>
        <time>2017-08-20T08:49:45Z</time>
      </trkpt>
      <trkpt lat="44.68991" lon="5.21202">
        <ele>278.44</ele>
        <time>2017-08-20T08:49:46Z</time>
      </trkpt>
      <trkpt lat="44.68989" lon="5.21195">
        <ele>278.44</ele>
        <time>2017-08-20T08:49:47Z</time>
      </trkpt>
      <trkpt lat="44.68988" lon="5.21187">
        <ele>278.44</ele>
        <time>2017-08-20T08:49:48Z</time>
      </trkpt>
      <trkpt lat="44.68987" lon="5.21172">
        <ele>277.96</ele>
        <time>2017-08-20T08:49:50Z</time>
      </trkpt>
      <trkpt lat="44.68988" lon="5.21165">
        <ele>277.96</ele>
        <time>2017-08-20T08:49:51Z</time>
      </trkpt>
      <trkpt lat="44.68988" lon="5.21159">
        <ele>277.96</ele>
        <time>2017-08-20T08:49:52Z</time>
      </trkpt>
      <trkpt lat="44.68989" lon="5.21153">
        <ele>278.44</ele>
        <time>2017-08-20T08:49:53Z</time>
      </trkpt>
      <trkpt lat="44.68991" lon="5.21147">
        <ele>278.44</ele>
        <time>2017-08-20T08:49:54Z</time>
      </trkpt>
      <trkpt lat="44.68993" lon="5.21141">
        <ele>278.44</ele>
        <time>2017-08-20T08:49:55Z</time>
      </trkpt>
      <trkpt lat="44.68995" lon="5.21136">
        <ele>278.92</ele>
        <time>2017-08-20T08:49:56Z</time>
      </trkpt>
      <trkpt lat="44.68998" lon="5.2113">
        <ele>278.44</ele>
        <time>2017-08-20T08:49:57Z</time>
      </trkpt>
      <trkpt lat="44.69" lon="5.21124">
        <ele>278.92</ele>
        <time>2017-08-20T08:49:58Z</time>
      </trkpt>
      <trkpt lat="44.69003" lon="5.21118">
        <ele>278.44</ele>
        <time>2017-08-20T08:49:59Z</time>
      </trkpt>
      <trkpt lat="44.69029" lon="5.21025">
        <ele>278.44</ele>
        <time>2017-08-20T08:50:12Z</time>
      </trkpt>
      <trkpt lat="44.6903" lon="5.20952">
        <ele>277.96</ele>
        <time>2017-08-20T08:50:20Z</time>
      </trkpt>
      <trkpt lat="44.69035" lon="5.20926">
        <ele>277.96</ele>
        <time>2017-08-20T08:50:23Z</time>
      </trkpt>
      <trkpt lat="44.69049" lon="5.20884">
        <ele>278.92</ele>
        <time>2017-08-20T08:50:29Z</time>
      </trkpt>
      <trkpt lat="44.69052" lon="5.20879">
        <ele>279.4</ele>
        <time>2017-08-20T08:50:30Z</time>
      </trkpt>
      <trkpt lat="44.69055" lon="5.20873">
        <ele>279.4</ele>
        <time>2017-08-20T08:50:31Z</time>
      </trkpt>
      <trkpt lat="44.69057" lon="5.20867">
        <ele>279.4</ele>
        <time>2017-08-20T08:50:32Z</time>
      </trkpt>
      <trkpt lat="44.6906" lon="5.20862">
        <ele>279.4</ele>
        <time>2017-08-20T08:50:33Z</time>
      </trkpt>
      <trkpt lat="44.69095" lon="5.20809">
        <ele>280.36</ele>
        <time>2017-08-20T08:50:44Z</time>
      </trkpt>
      <trkpt lat="44.69099" lon="5.20804">
        <ele>280.36</ele>
        <time>2017-08-20T08:50:45Z</time>
      </trkpt>
      <trkpt lat="44.69136" lon="5.20759">
        <ele>281.32</ele>
        <time>2017-08-20T08:50:55Z</time>
      </trkpt>
      <trkpt lat="44.69139" lon="5.20755">
        <ele>281.32</ele>
        <time>2017-08-20T08:50:56Z</time>
      </trkpt>
      <trkpt lat="44.69143" lon="5.20751">
        <ele>281.8</ele>
        <time>2017-08-20T08:50:57Z</time>
      </trkpt>
      <trkpt lat="44.69151" lon="5.20742">
        <ele>281.8</ele>
        <time>2017-08-20T08:50:59Z</time>
      </trkpt>
      <trkpt lat="44.69154" lon="5.20737">
        <ele>281.8</ele>
        <time>2017-08-20T08:51:00Z</time>
      </trkpt>
      <trkpt lat="44.69223" lon="5.20633">
        <ele>280.36</ele>
        <time>2017-08-20T08:51:18Z</time>
      </trkpt>
      <trkpt lat="44.693" lon="5.20541">
        <ele>278.92</ele>
        <time>2017-08-20T08:51:34Z</time>
      </trkpt>
      <trkpt lat="44.69312" lon="5.20533">
        <ele>278.92</ele>
        <time>2017-08-20T08:51:36Z</time>
      </trkpt>
      <trkpt lat="44.69319" lon="5.20531">
        <ele>278.92</ele>
        <time>2017-08-20T08:51:37Z</time>
      </trkpt>
      <trkpt lat="44.69404" lon="5.20524">
        <ele>279.4</ele>
        <time>2017-08-20T08:51:50Z</time>
      </trkpt>
      <trkpt lat="44.69423" lon="5.2052">
        <ele>279.4</ele>
        <time>2017-08-20T08:51:53Z</time>
      </trkpt>
      <trkpt lat="44.6943" lon="5.20517">
        <ele>278.92</ele>
        <time>2017-08-20T08:51:54Z</time>
      </trkpt>
      <trkpt lat="44.69518" lon="5.20458">
        <ele>277.48</ele>
        <time>2017-08-20T08:52:08Z</time>
      </trkpt>
      <trkpt lat="44.69601" lon="5.20423">
        <ele>276.52</ele>
        <time>2017-08-20T08:52:20Z</time>
      </trkpt>
      <trkpt lat="44.69628" lon="5.20405">
        <ele>276.52</ele>
        <time>2017-08-20T08:52:24Z</time>
      </trkpt>
      <trkpt lat="44.69634" lon="5.20399">
        <ele>276.52</ele>
        <time>2017-08-20T08:52:25Z</time>
      </trkpt>
      <trkpt lat="44.69701" lon="5.20316">
        <ele>276.04</ele>
        <time>2017-08-20T08:52:38Z</time>
      </trkpt>
      <trkpt lat="44.69728" lon="5.20266">
        <ele>276.04</ele>
        <time>2017-08-20T08:52:44Z</time>
      </trkpt>
      <trkpt lat="44.69724" lon="5.20251">
        <ele>275.56</ele>
        <time>2017-08-20T08:52:45Z</time>
      </trkpt>
      <trkpt lat="44.69679" lon="5.20131">
        <ele>274.11</ele>
        <time>2017-08-20T08:52:55Z</time>
      </trkpt>
      <trkpt lat="44.69679" lon="5.20113">
        <ele>274.11</ele>
        <time>2017-08-20T08:52:57Z</time>
      </trkpt>
      <trkpt lat="44.69679" lon="5.20104">
        <ele>274.11</ele>
        <time>2017-08-20T08:52:58Z</time>
      </trkpt>
      <trkpt lat="44.6968" lon="5.20094">
        <ele>273.63</ele>
        <time>2017-08-20T08:52:59Z</time>
      </trkpt>
      <trkpt lat="44.69682" lon="5.20067">
        <ele>273.63</ele>
        <time>2017-08-20T08:53:02Z</time>
      </trkpt>
      <trkpt lat="44.69683" lon="5.20049">
        <ele>273.63</ele>
        <time>2017-08-20T08:53:04Z</time>
      </trkpt>
      <trkpt lat="44.69687" lon="5.20014">
        <ele>273.15</ele>
        <time>2017-08-20T08:53:08Z</time>
      </trkpt>
      <trkpt lat="44.69693" lon="5.19969">
        <ele>272.67</ele>
        <time>2017-08-20T08:53:14Z</time>
      </trkpt>
      <trkpt lat="44.69692" lon="5.19962">
        <ele>273.15</ele>
        <time>2017-08-20T08:53:15Z</time>
      </trkpt>
      <trkpt lat="44.6969" lon="5.19955">
        <ele>272.67</ele>
        <time>2017-08-20T08:53:16Z</time>
      </trkpt>
      <trkpt lat="44.69689" lon="5.19949">
        <ele>273.15</ele>
        <time>2017-08-20T08:53:17Z</time>
      </trkpt>
      <trkpt lat="44.69689" lon="5.19943">
        <ele>273.15</ele>
        <time>2017-08-20T08:53:18Z</time>
      </trkpt>
      <trkpt lat="44.69689" lon="5.19937">
        <ele>272.19</ele>
        <time>2017-08-20T08:53:19Z</time>
      </trkpt>
      <trkpt lat="44.6969" lon="5.19931">
        <ele>272.19</ele>
        <time>2017-08-20T08:53:20Z</time>
      </trkpt>
      <trkpt lat="44.6969" lon="5.199">
        <ele>270.75</ele>
        <time>2017-08-20T08:53:28Z</time>
      </trkpt>
      <trkpt lat="44.69689" lon="5.19892">
        <ele>270.75</ele>
        <time>2017-08-20T08:53:40Z</time>
      </trkpt>
      <trkpt lat="44.69691" lon="5.19887">
        <ele>271.23</ele>
        <time>2017-08-20T08:53:48Z</time>
      </trkpt>
      <trkpt lat="44.69692" lon="5.19887">
        <ele>271.23</ele>
        <time>2017-08-20T08:53:49Z</time>
      </trkpt>
      <trkpt lat="44.69695" lon="5.19884">
        <ele>271.23</ele>
        <time>2017-08-20T08:53:53Z</time>
      </trkpt>
      <trkpt lat="44.69696" lon="5.19882">
        <ele>270.75</ele>
        <time>2017-08-20T08:53:54Z</time>
      </trkpt>
      <trkpt lat="44.69697" lon="5.1988">
        <ele>271.23</ele>
        <time>2017-08-20T08:53:55Z</time>
      </trkpt>
      <trkpt lat="44.69698" lon="5.19877">
        <ele>271.23</ele>
        <time>2017-08-20T08:53:59Z</time>
      </trkpt>
      <trkpt lat="44.69697" lon="5.19875">
        <ele>270.75</ele>
        <time>2017-08-20T08:54:07Z</time>
      </trkpt>
      <trkpt lat="44.69697" lon="5.19875">
        <ele>270.75</ele>
        <time>2017-08-20T08:54:08Z</time>
      </trkpt>
      <trkpt lat="44.69689" lon="5.1989">
        <ele>269.79</ele>
        <time>2017-08-20T09:06:20Z</time>
      </trkpt>
      <trkpt lat="44.69689" lon="5.1989">
        <ele>269.79</ele>
        <time>2017-08-20T09:06:21Z</time>
      </trkpt>
      <trkpt lat="44.69689" lon="5.19891">
        <ele>273.15</ele>
        <time>2017-08-20T09:06:40Z</time>
      </trkpt>
      <trkpt lat="44.69688" lon="5.1989">
        <ele>276.04</ele>
        <time>2017-08-20T09:06:47Z</time>
      </trkpt>
      <trkpt lat="44.69681" lon="5.19881">
        <ele>277.96</ele>
        <time>2017-08-20T09:06:51Z</time>
      </trkpt>
      <trkpt lat="44.69679" lon="5.19879">
        <ele>277.96</ele>
        <time>2017-08-20T09:06:52Z</time>
      </trkpt>
      <trkpt lat="44.69673" lon="5.19868">
        <ele>277.48</ele>
        <time>2017-08-20T09:06:55Z</time>
      </trkpt>
      <trkpt lat="44.69674" lon="5.19842">
        <ele>277</ele>
        <time>2017-08-20T09:07:02Z</time>
      </trkpt>
      <trkpt lat="44.6967" lon="5.19816">
        <ele>277</ele>
        <time>2017-08-20T09:07:08Z</time>
      </trkpt>
      <trkpt lat="44.69668" lon="5.19777">
        <ele>276.04</ele>
        <time>2017-08-20T09:07:19Z</time>
      </trkpt>
      <trkpt lat="44.69668" lon="5.1975">
        <ele>276.04</ele>
        <time>2017-08-20T09:07:24Z</time>
      </trkpt>
      <trkpt lat="44.69659" lon="5.19707">
        <ele>274.59</ele>
        <time>2017-08-20T09:07:34Z</time>
      </trkpt>
      <trkpt lat="44.69658" lon="5.19702">
        <ele>275.07</ele>
        <time>2017-08-20T09:07:36Z</time>
      </trkpt>
      <trkpt lat="44.69651" lon="5.1967">
        <ele>274.59</ele>
        <time>2017-08-20T09:07:43Z</time>
      </trkpt>
      <trkpt lat="44.69651" lon="5.19664">
        <ele>274.59</ele>
        <time>2017-08-20T09:07:44Z</time>
      </trkpt>
      <trkpt lat="44.6965" lon="5.19658">
        <ele>274.11</ele>
        <time>2017-08-20T09:07:45Z</time>
      </trkpt>
      <trkpt lat="44.69649" lon="5.19634">
        <ele>273.15</ele>
        <time>2017-08-20T09:07:48Z</time>
      </trkpt>
      <trkpt lat="44.6965" lon="5.19626">
        <ele>272.67</ele>
        <time>2017-08-20T09:07:49Z</time>
      </trkpt>
      <trkpt lat="44.69651" lon="5.19618">
        <ele>272.67</ele>
        <time>2017-08-20T09:07:50Z</time>
      </trkpt>
      <trkpt lat="44.69652" lon="5.1961">
        <ele>272.67</ele>
        <time>2017-08-20T09:07:51Z</time>
      </trkpt>
      <trkpt lat="44.69654" lon="5.19603">
        <ele>272.67</ele>
        <time>2017-08-20T09:07:52Z</time>
      </trkpt>
      <trkpt lat="44.69656" lon="5.19597">
        <ele>272.67</ele>
        <time>2017-08-20T09:07:53Z</time>
      </trkpt>
      <trkpt lat="44.69658" lon="5.19592">
        <ele>272.67</ele>
        <time>2017-08-20T09:07:54Z</time>
      </trkpt>
      <trkpt lat="44.6966" lon="5.19587">
        <ele>272.67</ele>
        <time>2017-08-20T09:07:55Z</time>
      </trkpt>
      <trkpt lat="44.69663" lon="5.19553">
        <ele>272.19</ele>
        <time>2017-08-20T09:08:00Z</time>
      </trkpt>
      <trkpt lat="44.69664" lon="5.19547">
        <ele>272.19</ele>
        <time>2017-08-20T09:08:01Z</time>
      </trkpt>
      <trkpt lat="44.69669" lon="5.19503">
        <ele>272.19</ele>
        <time>2017-08-20T09:08:08Z</time>
      </trkpt>
      <trkpt lat="44.6967" lon="5.19496">
        <ele>271.71</ele>
        <time>2017-08-20T09:08:09Z</time>
      </trkpt>
      <trkpt lat="44.69675" lon="5.19428">
        <ele>272.19</ele>
        <time>2017-08-20T09:08:19Z</time>
      </trkpt>
      <trkpt lat="44.69669" lon="5.19342">
        <ele>272.67</ele>
        <time>2017-08-20T09:08:31Z</time>
      </trkpt>
      <trkpt lat="44.69663" lon="5.1928">
        <ele>272.19</ele>
        <time>2017-08-20T09:08:39Z</time>
      </trkpt>
      <trkpt lat="44.69662" lon="5.19265">
        <ele>271.71</ele>
        <time>2017-08-20T09:08:41Z</time>
      </trkpt>
      <trkpt lat="44.69661" lon="5.19257">
        <ele>263.06</ele>
        <time>2017-08-20T09:08:42Z</time>
      </trkpt>
      <trkpt lat="44.6966" lon="5.19249">
        <ele>277.48</ele>
        <time>2017-08-20T09:08:43Z</time>
      </trkpt>
      <trkpt lat="44.69659" lon="5.19241">
        <ele>270.27</ele>
        <time>2017-08-20T09:08:44Z</time>
      </trkpt>
      <trkpt lat="44.69658" lon="5.19233">
        <ele>276.52</ele>
        <time>2017-08-20T09:08:45Z</time>
      </trkpt>
      <trkpt lat="44.69658" lon="5.19226">
        <ele>271.71</ele>
        <time>2017-08-20T09:08:46Z</time>
      </trkpt>
      <trkpt lat="44.69656" lon="5.19181">
        <ele>272.67</ele>
        <time>2017-08-20T09:08:52Z</time>
      </trkpt>
      <trkpt lat="44.69654" lon="5.19165">
        <ele>271.71</ele>
        <time>2017-08-20T09:08:54Z</time>
      </trkpt>
      <trkpt lat="44.69652" lon="5.19149">
        <ele>271.71</ele>
        <time>2017-08-20T09:08:56Z</time>
      </trkpt>
      <trkpt lat="44.69648" lon="5.19095">
        <ele>271.71</ele>
        <time>2017-08-20T09:09:03Z</time>
      </trkpt>
      <trkpt lat="44.69647" lon="5.19087">
        <ele>271.71</ele>
        <time>2017-08-20T09:09:04Z</time>
      </trkpt>
      <trkpt lat="44.69647" lon="5.1908">
        <ele>271.71</ele>
        <time>2017-08-20T09:09:05Z</time>
      </trkpt>
      <trkpt lat="44.69646" lon="5.19072">
        <ele>271.23</ele>
        <time>2017-08-20T09:09:06Z</time>
      </trkpt>
      <trkpt lat="44.69645" lon="5.19064">
        <ele>272.19</ele>
        <time>2017-08-20T09:09:07Z</time>
      </trkpt>
      <trkpt lat="44.69645" lon="5.19056">
        <ele>272.19</ele>
        <time>2017-08-20T09:09:08Z</time>
      </trkpt>
      <trkpt lat="44.69642" lon="5.19015">
        <ele>272.67</ele>
        <time>2017-08-20T09:09:13Z</time>
      </trkpt>
      <trkpt lat="44.6964" lon="5.18998">
        <ele>273.15</ele>
        <time>2017-08-20T09:09:15Z</time>
      </trkpt>
      <trkpt lat="44.69634" lon="5.18927">
        <ele>273.63</ele>
        <time>2017-08-20T09:09:23Z</time>
      </trkpt>
      <trkpt lat="44.69631" lon="5.18901">
        <ele>273.63</ele>
        <time>2017-08-20T09:09:26Z</time>
      </trkpt>
      <trkpt lat="44.6962" lon="5.1878">
        <ele>273.63</ele>
        <time>2017-08-20T09:09:40Z</time>
      </trkpt>
      <trkpt lat="44.69609" lon="5.18667">
        <ele>273.15</ele>
        <time>2017-08-20T09:09:53Z</time>
      </trkpt>
      <trkpt lat="44.69597" lon="5.18529">
        <ele>271.71</ele>
        <time>2017-08-20T09:10:08Z</time>
      </trkpt>
      <trkpt lat="44.69584" lon="5.1838">
        <ele>269.31</ele>
        <time>2017-08-20T09:10:24Z</time>
      </trkpt>
      <trkpt lat="44.69567" lon="5.1821">
        <ele>267.38</ele>
        <time>2017-08-20T09:10:41Z</time>
      </trkpt>
      <trkpt lat="44.69549" lon="5.18022">
        <ele>267.38</ele>
        <time>2017-08-20T09:10:59Z</time>
      </trkpt>
      <trkpt lat="44.69536" lon="5.17878">
        <ele>265.94</ele>
        <time>2017-08-20T09:11:14Z</time>
      </trkpt>
      <trkpt lat="44.69521" lon="5.17713">
        <ele>264.5</ele>
        <time>2017-08-20T09:11:31Z</time>
      </trkpt>
      <trkpt lat="44.69501" lon="5.17541">
        <ele>264.5</ele>
        <time>2017-08-20T09:11:49Z</time>
      </trkpt>
      <trkpt lat="44.69459" lon="5.17347">
        <ele>264.02</ele>
        <time>2017-08-20T09:12:09Z</time>
      </trkpt>
      <trkpt lat="44.69417" lon="5.17155">
        <ele>264.5</ele>
        <time>2017-08-20T09:12:30Z</time>
      </trkpt>
      <trkpt lat="44.69397" lon="5.17029">
        <ele>263.06</ele>
        <time>2017-08-20T09:12:45Z</time>
      </trkpt>
      <trkpt lat="44.69395" lon="5.17021">
        <ele>263.54</ele>
        <time>2017-08-20T09:12:46Z</time>
      </trkpt>
      <trkpt lat="44.6939" lon="5.17015">
        <ele>263.54</ele>
        <time>2017-08-20T09:12:47Z</time>
      </trkpt>
      <trkpt lat="44.69384" lon="5.17011">
        <ele>263.54</ele>
        <time>2017-08-20T09:12:48Z</time>
      </trkpt>
      <trkpt lat="44.69378" lon="5.17011">
        <ele>263.54</ele>
        <time>2017-08-20T09:12:49Z</time>
      </trkpt>
      <trkpt lat="44.69372" lon="5.17015">
        <ele>263.54</ele>
        <time>2017-08-20T09:12:50Z</time>
      </trkpt>
      <trkpt lat="44.69367" lon="5.17021">
        <ele>263.06</ele>
        <time>2017-08-20T09:12:51Z</time>
      </trkpt>
      <trkpt lat="44.69363" lon="5.17029">
        <ele>263.06</ele>
        <time>2017-08-20T09:12:52Z</time>
      </trkpt>
      <trkpt lat="44.69362" lon="5.17039">
        <ele>263.06</ele>
        <time>2017-08-20T09:12:53Z</time>
      </trkpt>
      <trkpt lat="44.69361" lon="5.17049">
        <ele>263.06</ele>
        <time>2017-08-20T09:12:54Z</time>
      </trkpt>
      <trkpt lat="44.69361" lon="5.17059">
        <ele>263.06</ele>
        <time>2017-08-20T09:12:55Z</time>
      </trkpt>
      <trkpt lat="44.6936" lon="5.17069">
        <ele>263.06</ele>
        <time>2017-08-20T09:12:56Z</time>
      </trkpt>
      <trkpt lat="44.69358" lon="5.17079">
        <ele>263.06</ele>
        <time>2017-08-20T09:12:57Z</time>
      </trkpt>
      <trkpt lat="44.69356" lon="5.17088">
        <ele>263.06</ele>
        <time>2017-08-20T09:12:58Z</time>
      </trkpt>
      <trkpt lat="44.69313" lon="5.17243">
        <ele>262.1</ele>
        <time>2017-08-20T09:13:14Z</time>
      </trkpt>
      <trkpt lat="44.69282" lon="5.17402">
        <ele>260.65</ele>
        <time>2017-08-20T09:13:30Z</time>
      </trkpt>
      <trkpt lat="44.69261" lon="5.1757">
        <ele>260.65</ele>
        <time>2017-08-20T09:13:46Z</time>
      </trkpt>
      <trkpt lat="44.69257" lon="5.17577">
        <ele>260.65</ele>
        <time>2017-08-20T09:13:47Z</time>
      </trkpt>
      <trkpt lat="44.69251" lon="5.17578">
        <ele>260.17</ele>
        <time>2017-08-20T09:13:48Z</time>
      </trkpt>
      <trkpt lat="44.69245" lon="5.17574">
        <ele>260.17</ele>
        <time>2017-08-20T09:13:49Z</time>
      </trkpt>
      <trkpt lat="44.69242" lon="5.17567">
        <ele>260.65</ele>
        <time>2017-08-20T09:13:50Z</time>
      </trkpt>
      <trkpt lat="44.69242" lon="5.17559">
        <ele>260.65</ele>
        <time>2017-08-20T09:13:51Z</time>
      </trkpt>
      <trkpt lat="44.69244" lon="5.17552">
        <ele>261.14</ele>
        <time>2017-08-20T09:13:52Z</time>
      </trkpt>
      <trkpt lat="44.69247" lon="5.17544">
        <ele>260.65</ele>
        <time>2017-08-20T09:13:53Z</time>
      </trkpt>
      <trkpt lat="44.69249" lon="5.17537">
        <ele>261.14</ele>
        <time>2017-08-20T09:13:54Z</time>
      </trkpt>
      <trkpt lat="44.6925" lon="5.17529">
        <ele>261.14</ele>
        <time>2017-08-20T09:13:55Z</time>
      </trkpt>
      <trkpt lat="44.6925" lon="5.17521">
        <ele>261.14</ele>
        <time>2017-08-20T09:13:56Z</time>
      </trkpt>
      <trkpt lat="44.69249" lon="5.17513">
        <ele>260.65</ele>
        <time>2017-08-20T09:13:57Z</time>
      </trkpt>
      <trkpt lat="44.69248" lon="5.17505">
        <ele>260.65</ele>
        <time>2017-08-20T09:13:58Z</time>
      </trkpt>
      <trkpt lat="44.69237" lon="5.1742">
        <ele>260.65</ele>
        <time>2017-08-20T09:14:09Z</time>
      </trkpt>
      <trkpt lat="44.69233" lon="5.17398">
        <ele>261.14</ele>
        <time>2017-08-20T09:14:12Z</time>
      </trkpt>
      <trkpt lat="44.69231" lon="5.17383">
        <ele>261.14</ele>
        <time>2017-08-20T09:14:14Z</time>
      </trkpt>
      <trkpt lat="44.69224" lon="5.17353">
        <ele>261.14</ele>
        <time>2017-08-20T09:14:18Z</time>
      </trkpt>
      <trkpt lat="44.69222" lon="5.17346">
        <ele>261.62</ele>
        <time>2017-08-20T09:14:19Z</time>
      </trkpt>
      <trkpt lat="44.69217" lon="5.1733">
        <ele>261.14</ele>
        <time>2017-08-20T09:14:21Z</time>
      </trkpt>
      <trkpt lat="44.69216" lon="5.17321">
        <ele>260.65</ele>
        <time>2017-08-20T09:14:22Z</time>
      </trkpt>
      <trkpt lat="44.69215" lon="5.17311">
        <ele>260.65</ele>
        <time>2017-08-20T09:14:23Z</time>
      </trkpt>
      <trkpt lat="44.69216" lon="5.17302">
        <ele>260.65</ele>
        <time>2017-08-20T09:14:24Z</time>
      </trkpt>
      <trkpt lat="44.69218" lon="5.17293">
        <ele>260.65</ele>
        <time>2017-08-20T09:14:25Z</time>
      </trkpt>
      <trkpt lat="44.69221" lon="5.17276">
        <ele>261.14</ele>
        <time>2017-08-20T09:14:27Z</time>
      </trkpt>
      <trkpt lat="44.69221" lon="5.17267">
        <ele>260.65</ele>
        <time>2017-08-20T09:14:28Z</time>
      </trkpt>
      <trkpt lat="44.69216" lon="5.17214">
        <ele>260.17</ele>
        <time>2017-08-20T09:14:34Z</time>
      </trkpt>
      <trkpt lat="44.69216" lon="5.17206">
        <ele>260.17</ele>
        <time>2017-08-20T09:14:35Z</time>
      </trkpt>
      <trkpt lat="44.69212" lon="5.171">
        <ele>259.69</ele>
        <time>2017-08-20T09:14:48Z</time>
      </trkpt>
      <trkpt lat="44.69213" lon="5.17092">
        <ele>259.69</ele>
        <time>2017-08-20T09:14:49Z</time>
      </trkpt>
      <trkpt lat="44.69237" lon="5.16935">
        <ele>261.14</ele>
        <time>2017-08-20T09:15:08Z</time>
      </trkpt>
      <trkpt lat="44.69253" lon="5.16855">
        <ele>260.65</ele>
        <time>2017-08-20T09:15:17Z</time>
      </trkpt>
      <trkpt lat="44.69256" lon="5.16847">
        <ele>260.65</ele>
        <time>2017-08-20T09:15:18Z</time>
      </trkpt>
      <trkpt lat="44.6926" lon="5.16838">
        <ele>260.17</ele>
        <time>2017-08-20T09:15:19Z</time>
      </trkpt>
      <trkpt lat="44.69265" lon="5.16831">
        <ele>260.17</ele>
        <time>2017-08-20T09:15:20Z</time>
      </trkpt>
      <trkpt lat="44.6927" lon="5.16823">
        <ele>260.17</ele>
        <time>2017-08-20T09:15:21Z</time>
      </trkpt>
      <trkpt lat="44.69275" lon="5.16817">
        <ele>260.65</ele>
        <time>2017-08-20T09:15:22Z</time>
      </trkpt>
      <trkpt lat="44.69327" lon="5.16754">
        <ele>258.25</ele>
        <time>2017-08-20T09:15:31Z</time>
      </trkpt>
      <trkpt lat="44.69332" lon="5.16744">
        <ele>258.25</ele>
        <time>2017-08-20T09:15:32Z</time>
      </trkpt>
      <trkpt lat="44.69336" lon="5.16734">
        <ele>258.25</ele>
        <time>2017-08-20T09:15:33Z</time>
      </trkpt>
      <trkpt lat="44.69376" lon="5.16586">
        <ele>255.85</ele>
        <time>2017-08-20T09:15:48Z</time>
      </trkpt>
      <trkpt lat="44.69392" lon="5.16439">
        <ele>254.89</ele>
        <time>2017-08-20T09:16:04Z</time>
      </trkpt>
      <trkpt lat="44.69392" lon="5.1643">
        <ele>254.89</ele>
        <time>2017-08-20T09:16:05Z</time>
      </trkpt>
      <trkpt lat="44.6939" lon="5.16308">
        <ele>254.41</ele>
        <time>2017-08-20T09:16:18Z</time>
      </trkpt>
      <trkpt lat="44.694" lon="5.16239">
        <ele>254.89</ele>
        <time>2017-08-20T09:16:26Z</time>
      </trkpt>
      <trkpt lat="44.69406" lon="5.16207">
        <ele>254.89</ele>
        <time>2017-08-20T09:16:30Z</time>
      </trkpt>
      <trkpt lat="44.69408" lon="5.162">
        <ele>254.89</ele>
        <time>2017-08-20T09:16:31Z</time>
      </trkpt>
      <trkpt lat="44.69409" lon="5.16192">
        <ele>254.89</ele>
        <time>2017-08-20T09:16:32Z</time>
      </trkpt>
      <trkpt lat="44.69409" lon="5.16184">
        <ele>254.89</ele>
        <time>2017-08-20T09:16:33Z</time>
      </trkpt>
      <trkpt lat="44.6941" lon="5.16176">
        <ele>254.89</ele>
        <time>2017-08-20T09:16:34Z</time>
      </trkpt>
      <trkpt lat="44.69416" lon="5.16095">
        <ele>255.37</ele>
        <time>2017-08-20T09:16:44Z</time>
      </trkpt>
      <trkpt lat="44.69443" lon="5.15966">
        <ele>256.81</ele>
        <time>2017-08-20T09:17:01Z</time>
      </trkpt>
      <trkpt lat="44.69445" lon="5.15937">
        <ele>257.29</ele>
        <time>2017-08-20T09:17:05Z</time>
      </trkpt>
      <trkpt lat="44.69446" lon="5.1593">
        <ele>257.29</ele>
        <time>2017-08-20T09:17:06Z</time>
      </trkpt>
      <trkpt lat="44.69447" lon="5.15895">
        <ele>257.77</ele>
        <time>2017-08-20T09:17:11Z</time>
      </trkpt>
      <trkpt lat="44.69448" lon="5.15888">
        <ele>257.29</ele>
        <time>2017-08-20T09:17:12Z</time>
      </trkpt>
      <trkpt lat="44.69457" lon="5.15857">
        <ele>255.85</ele>
        <time>2017-08-20T09:17:17Z</time>
      </trkpt>
      <trkpt lat="44.69466" lon="5.15811">
        <ele>255.85</ele>
        <time>2017-08-20T09:17:25Z</time>
      </trkpt>
      <trkpt lat="44.69467" lon="5.15805">
        <ele>255.85</ele>
        <time>2017-08-20T09:17:26Z</time>
      </trkpt>
      <trkpt lat="44.69469" lon="5.15794">
        <ele>255.85</ele>
        <time>2017-08-20T09:17:28Z</time>
      </trkpt>
      <trkpt lat="44.69469" lon="5.15787">
        <ele>255.85</ele>
        <time>2017-08-20T09:17:29Z</time>
      </trkpt>
      <trkpt lat="44.69468" lon="5.15781">
        <ele>256.33</ele>
        <time>2017-08-20T09:17:30Z</time>
      </trkpt>
      <trkpt lat="44.69467" lon="5.15775">
        <ele>256.33</ele>
        <time>2017-08-20T09:17:31Z</time>
      </trkpt>
      <trkpt lat="44.69465" lon="5.1577">
        <ele>256.33</ele>
        <time>2017-08-20T09:17:32Z</time>
      </trkpt>
      <trkpt lat="44.69462" lon="5.15765">
        <ele>256.33</ele>
        <time>2017-08-20T09:17:33Z</time>
      </trkpt>
      <trkpt lat="44.69459" lon="5.1576">
        <ele>256.33</ele>
        <time>2017-08-20T09:17:34Z</time>
      </trkpt>
      <trkpt lat="44.69455" lon="5.15755">
        <ele>256.33</ele>
        <time>2017-08-20T09:17:35Z</time>
      </trkpt>
      <trkpt lat="44.69452" lon="5.1575">
        <ele>256.81</ele>
        <time>2017-08-20T09:17:36Z</time>
      </trkpt>
      <trkpt lat="44.69415" lon="5.15699">
        <ele>257.29</ele>
        <time>2017-08-20T09:17:47Z</time>
      </trkpt>
      <trkpt lat="44.69408" lon="5.15683">
        <ele>257.77</ele>
        <time>2017-08-20T09:17:50Z</time>
      </trkpt>
      <trkpt lat="44.69392" lon="5.15649">
        <ele>258.25</ele>
        <time>2017-08-20T09:17:56Z</time>
      </trkpt>
      <trkpt lat="44.69379" lon="5.15626">
        <ele>259.21</ele>
        <time>2017-08-20T09:18:00Z</time>
      </trkpt>
      <trkpt lat="44.69354" lon="5.15586">
        <ele>259.69</ele>
        <time>2017-08-20T09:18:07Z</time>
      </trkpt>
      <trkpt lat="44.69307" lon="5.15469">
        <ele>258.25</ele>
        <time>2017-08-20T09:18:23Z</time>
      </trkpt>
      <trkpt lat="44.69296" lon="5.1535">
        <ele>258.73</ele>
        <time>2017-08-20T09:18:37Z</time>
      </trkpt>
      <trkpt lat="44.69277" lon="5.1524">
        <ele>256.33</ele>
        <time>2017-08-20T09:18:50Z</time>
      </trkpt>
      <trkpt lat="44.69241" lon="5.15131">
        <ele>256.33</ele>
        <time>2017-08-20T09:19:03Z</time>
      </trkpt>
      <trkpt lat="44.69239" lon="5.15122">
        <ele>256.33</ele>
        <time>2017-08-20T09:19:04Z</time>
      </trkpt>
      <trkpt lat="44.69238" lon="5.15113">
        <ele>256.33</ele>
        <time>2017-08-20T09:19:05Z</time>
      </trkpt>
      <trkpt lat="44.69237" lon="5.15104">
        <ele>256.33</ele>
        <time>2017-08-20T09:19:06Z</time>
      </trkpt>
      <trkpt lat="44.69237" lon="5.15095">
        <ele>256.33</ele>
        <time>2017-08-20T09:19:07Z</time>
      </trkpt>
      <trkpt lat="44.69237" lon="5.15087">
        <ele>256.33</ele>
        <time>2017-08-20T09:19:08Z</time>
      </trkpt>
      <trkpt lat="44.69235" lon="5.15053">
        <ele>255.85</ele>
        <time>2017-08-20T09:19:12Z</time>
      </trkpt>
      <trkpt lat="44.69235" lon="5.15044">
        <ele>256.33</ele>
        <time>2017-08-20T09:19:13Z</time>
      </trkpt>
      <trkpt lat="44.69236" lon="5.15035">
        <ele>255.85</ele>
        <time>2017-08-20T09:19:14Z</time>
      </trkpt>
      <trkpt lat="44.69245" lon="5.1492">
        <ele>255.37</ele>
        <time>2017-08-20T09:19:27Z</time>
      </trkpt>
      <trkpt lat="44.69245" lon="5.14902">
        <ele>255.37</ele>
        <time>2017-08-20T09:19:29Z</time>
      </trkpt>
      <trkpt lat="44.69249" lon="5.14784">
        <ele>255.85</ele>
        <time>2017-08-20T09:19:43Z</time>
      </trkpt>
      <trkpt lat="44.69268" lon="5.14616">
        <ele>255.85</ele>
        <time>2017-08-20T09:20:02Z</time>
      </trkpt>
      <trkpt lat="44.69267" lon="5.14556">
        <ele>254.89</ele>
        <time>2017-08-20T09:20:09Z</time>
      </trkpt>
      <trkpt lat="44.69267" lon="5.14462">
        <ele>255.37</ele>
        <time>2017-08-20T09:20:20Z</time>
      </trkpt>
      <trkpt lat="44.69271" lon="5.14431">
        <ele>256.81</ele>
        <time>2017-08-20T09:20:24Z</time>
      </trkpt>
      <trkpt lat="44.69272" lon="5.14423">
        <ele>256.81</ele>
        <time>2017-08-20T09:20:25Z</time>
      </trkpt>
      <trkpt lat="44.69272" lon="5.14416">
        <ele>256.81</ele>
        <time>2017-08-20T09:20:26Z</time>
      </trkpt>
      <trkpt lat="44.69274" lon="5.144">
        <ele>257.29</ele>
        <time>2017-08-20T09:20:28Z</time>
      </trkpt>
      <trkpt lat="44.69281" lon="5.14282">
        <ele>256.81</ele>
        <time>2017-08-20T09:20:43Z</time>
      </trkpt>
      <trkpt lat="44.69276" lon="5.14111">
        <ele>255.37</ele>
        <time>2017-08-20T09:21:01Z</time>
      </trkpt>
      <trkpt lat="44.69279" lon="5.13994">
        <ele>256.33</ele>
        <time>2017-08-20T09:21:12Z</time>
      </trkpt>
      <trkpt lat="44.69282" lon="5.13983">
        <ele>255.85</ele>
        <time>2017-08-20T09:21:13Z</time>
      </trkpt>
      <trkpt lat="44.69321" lon="5.13886">
        <ele>252.96</ele>
        <time>2017-08-20T09:21:22Z</time>
      </trkpt>
      <trkpt lat="44.69325" lon="5.13875">
        <ele>252</ele>
        <time>2017-08-20T09:21:23Z</time>
      </trkpt>
      <trkpt lat="44.69331" lon="5.13865">
        <ele>251.52</ele>
        <time>2017-08-20T09:21:24Z</time>
      </trkpt>
      <trkpt lat="44.69338" lon="5.13856">
        <ele>251.04</ele>
        <time>2017-08-20T09:21:25Z</time>
      </trkpt>
      <trkpt lat="44.69346" lon="5.13849">
        <ele>250.08</ele>
        <time>2017-08-20T09:21:26Z</time>
      </trkpt>
      <trkpt lat="44.69354" lon="5.13844">
        <ele>249.6</ele>
        <time>2017-08-20T09:21:27Z</time>
      </trkpt>
      <trkpt lat="44.69363" lon="5.13838">
        <ele>249.12</ele>
        <time>2017-08-20T09:21:28Z</time>
      </trkpt>
      <trkpt lat="44.6937" lon="5.13831">
        <ele>249.12</ele>
        <time>2017-08-20T09:21:29Z</time>
      </trkpt>
      <trkpt lat="44.69375" lon="5.13821">
        <ele>249.12</ele>
        <time>2017-08-20T09:21:30Z</time>
      </trkpt>
      <trkpt lat="44.69376" lon="5.13809">
        <ele>249.12</ele>
        <time>2017-08-20T09:21:31Z</time>
      </trkpt>
      <trkpt lat="44.69375" lon="5.13798">
        <ele>248.64</ele>
        <time>2017-08-20T09:21:32Z</time>
      </trkpt>
      <trkpt lat="44.69373" lon="5.13787">
        <ele>248.16</ele>
        <time>2017-08-20T09:21:33Z</time>
      </trkpt>
      <trkpt lat="44.69371" lon="5.13775">
        <ele>248.16</ele>
        <time>2017-08-20T09:21:34Z</time>
      </trkpt>
      <trkpt lat="44.6937" lon="5.13762">
        <ele>247.2</ele>
        <time>2017-08-20T09:21:35Z</time>
      </trkpt>
      <trkpt lat="44.69371" lon="5.13749">
        <ele>246.72</ele>
        <time>2017-08-20T09:21:36Z</time>
      </trkpt>
      <trkpt lat="44.69372" lon="5.13736">
        <ele>247.2</ele>
        <time>2017-08-20T09:21:37Z</time>
      </trkpt>
      <trkpt lat="44.69374" lon="5.13724">
        <ele>246.72</ele>
        <time>2017-08-20T09:21:38Z</time>
      </trkpt>
      <trkpt lat="44.694" lon="5.13549">
        <ele>245.27</ele>
        <time>2017-08-20T09:21:53Z</time>
      </trkpt>
      <trkpt lat="44.69421" lon="5.13399">
        <ele>245.27</ele>
        <time>2017-08-20T09:22:08Z</time>
      </trkpt>
      <trkpt lat="44.69453" lon="5.13227">
        <ele>246.23</ele>
        <time>2017-08-20T09:22:27Z</time>
      </trkpt>
      <trkpt lat="44.69462" lon="5.13191">
        <ele>245.75</ele>
        <time>2017-08-20T09:22:32Z</time>
      </trkpt>
      <trkpt lat="44.69461" lon="5.13182">
        <ele>244.79</ele>
        <time>2017-08-20T09:22:40Z</time>
      </trkpt>
      <trkpt lat="44.69461" lon="5.13182">
        <ele>244.79</ele>
        <time>2017-08-20T09:23:01Z</time>
      </trkpt>
      <trkpt lat="44.69461" lon="5.13182">
        <ele>244.31</ele>
        <time>2017-08-20T09:23:31Z</time>
      </trkpt>
      <trkpt lat="44.69462" lon="5.13182">
        <ele>244.31</ele>
        <time>2017-08-20T09:24:09Z</time>
      </trkpt>
      <trkpt lat="44.69462" lon="5.13182">
        <ele>244.31</ele>
        <time>2017-08-20T09:24:37Z</time>
      </trkpt>
      <trkpt lat="44.69463" lon="5.13181">
        <ele>244.31</ele>
        <time>2017-08-20T09:24:38Z</time>
      </trkpt>
      <trkpt lat="44.69474" lon="5.13151">
        <ele>244.31</ele>
        <time>2017-08-20T09:24:45Z</time>
      </trkpt>
      <trkpt lat="44.69479" lon="5.13122">
        <ele>244.31</ele>
        <time>2017-08-20T09:24:49Z</time>
      </trkpt>
      <trkpt lat="44.6948" lon="5.13114">
        <ele>244.31</ele>
        <time>2017-08-20T09:24:50Z</time>
      </trkpt>
      <trkpt lat="44.69484" lon="5.13083">
        <ele>244.31</ele>
        <time>2017-08-20T09:24:56Z</time>
      </trkpt>
      <trkpt lat="44.69483" lon="5.1308">
        <ele>244.31</ele>
        <time>2017-08-20T09:24:57Z</time>
      </trkpt>
      <trkpt lat="44.69482" lon="5.13078">
        <ele>244.31</ele>
        <time>2017-08-20T09:24:58Z</time>
      </trkpt>
      <trkpt lat="44.69482" lon="5.13075">
        <ele>244.31</ele>
        <time>2017-08-20T09:25:09Z</time>
      </trkpt>
      <trkpt lat="44.69482" lon="5.13075">
        <ele>244.31</ele>
        <time>2017-08-20T09:25:15Z</time>
      </trkpt>
      <trkpt lat="44.69489" lon="5.13054">
        <ele>244.31</ele>
        <time>2017-08-20T09:25:21Z</time>
      </trkpt>
      <trkpt lat="44.69491" lon="5.13048">
        <ele>244.31</ele>
        <time>2017-08-20T09:25:22Z</time>
      </trkpt>
      <trkpt lat="44.69517" lon="5.12941">
        <ele>244.31</ele>
        <time>2017-08-20T09:25:36Z</time>
      </trkpt>
      <trkpt lat="44.69524" lon="5.12787">
        <ele>243.35</ele>
        <time>2017-08-20T09:25:53Z</time>
      </trkpt>
      <trkpt lat="44.69524" lon="5.12617">
        <ele>241.43</ele>
        <time>2017-08-20T09:26:11Z</time>
      </trkpt>
      <trkpt lat="44.69512" lon="5.12485">
        <ele>241.43</ele>
        <time>2017-08-20T09:26:25Z</time>
      </trkpt>
      <trkpt lat="44.69515" lon="5.12322">
        <ele>239.51</ele>
        <time>2017-08-20T09:26:41Z</time>
      </trkpt>
      <trkpt lat="44.69532" lon="5.12156">
        <ele>238.54</ele>
        <time>2017-08-20T09:26:57Z</time>
      </trkpt>
      <trkpt lat="44.69593" lon="5.11985">
        <ele>236.14</ele>
        <time>2017-08-20T09:27:15Z</time>
      </trkpt>
      <trkpt lat="44.69672" lon="5.11841">
        <ele>236.14</ele>
        <time>2017-08-20T09:27:33Z</time>
      </trkpt>
      <trkpt lat="44.69731" lon="5.11735">
        <ele>238.06</ele>
        <time>2017-08-20T09:27:49Z</time>
      </trkpt>
      <trkpt lat="44.69773" lon="5.11654">
        <ele>238.54</ele>
        <time>2017-08-20T09:28:03Z</time>
      </trkpt>
      <trkpt lat="44.69816" lon="5.11551">
        <ele>238.54</ele>
        <time>2017-08-20T09:28:18Z</time>
      </trkpt>
      <trkpt lat="44.69861" lon="5.1142">
        <ele>237.1</ele>
        <time>2017-08-20T09:28:36Z</time>
      </trkpt>
      <trkpt lat="44.69875" lon="5.11304">
        <ele>235.66</ele>
        <time>2017-08-20T09:28:49Z</time>
      </trkpt>
      <trkpt lat="44.6989" lon="5.11187">
        <ele>235.66</ele>
        <time>2017-08-20T09:29:02Z</time>
      </trkpt>
      <trkpt lat="44.69922" lon="5.11101">
        <ele>236.14</ele>
        <time>2017-08-20T09:29:14Z</time>
      </trkpt>
      <trkpt lat="44.69925" lon="5.11095">
        <ele>236.14</ele>
        <time>2017-08-20T09:29:15Z</time>
      </trkpt>
      <trkpt lat="44.69967" lon="5.10981">
        <ele>237.1</ele>
        <time>2017-08-20T09:29:33Z</time>
      </trkpt>
      <trkpt lat="44.70011" lon="5.10847">
        <ele>235.18</ele>
        <time>2017-08-20T09:29:51Z</time>
      </trkpt>
      <trkpt lat="44.70038" lon="5.10724">
        <ele>234.22</ele>
        <time>2017-08-20T09:30:08Z</time>
      </trkpt>
      <trkpt lat="44.70065" lon="5.10594">
        <ele>233.26</ele>
        <time>2017-08-20T09:30:25Z</time>
      </trkpt>
      <trkpt lat="44.701" lon="5.10429">
        <ele>231.33</ele>
        <time>2017-08-20T09:30:45Z</time>
      </trkpt>
      <trkpt lat="44.70137" lon="5.10289">
        <ele>230.85</ele>
        <time>2017-08-20T09:31:03Z</time>
      </trkpt>
      <trkpt lat="44.70174" lon="5.10184">
        <ele>230.37</ele>
        <time>2017-08-20T09:31:19Z</time>
      </trkpt>
      <trkpt lat="44.70207" lon="5.10061">
        <ele>230.37</ele>
        <time>2017-08-20T09:31:36Z</time>
      </trkpt>
      <trkpt lat="44.70221" lon="5.09945">
        <ele>228.93</ele>
        <time>2017-08-20T09:31:51Z</time>
      </trkpt>
      <trkpt lat="44.70222" lon="5.09936">
        <ele>228.45</ele>
        <time>2017-08-20T09:31:52Z</time>
      </trkpt>
      <trkpt lat="44.70222" lon="5.09928">
        <ele>227.97</ele>
        <time>2017-08-20T09:31:53Z</time>
      </trkpt>
      <trkpt lat="44.70221" lon="5.09919">
        <ele>227.97</ele>
        <time>2017-08-20T09:31:54Z</time>
      </trkpt>
      <trkpt lat="44.70219" lon="5.09911">
        <ele>227.49</ele>
        <time>2017-08-20T09:31:55Z</time>
      </trkpt>
      <trkpt lat="44.70216" lon="5.09904">
        <ele>227.97</ele>
        <time>2017-08-20T09:31:56Z</time>
      </trkpt>
      <trkpt lat="44.70207" lon="5.09864">
        <ele>228.45</ele>
        <time>2017-08-20T09:32:01Z</time>
      </trkpt>
      <trkpt lat="44.70206" lon="5.0984">
        <ele>228.93</ele>
        <time>2017-08-20T09:32:04Z</time>
      </trkpt>
      <trkpt lat="44.70207" lon="5.09832">
        <ele>228.93</ele>
        <time>2017-08-20T09:32:05Z</time>
      </trkpt>
      <trkpt lat="44.70217" lon="5.09789">
        <ele>227.49</ele>
        <time>2017-08-20T09:32:10Z</time>
      </trkpt>
      <trkpt lat="44.70238" lon="5.09711">
        <ele>226.53</ele>
        <time>2017-08-20T09:32:19Z</time>
      </trkpt>
      <trkpt lat="44.70293" lon="5.09593">
        <ele>226.53</ele>
        <time>2017-08-20T09:32:34Z</time>
      </trkpt>
      <trkpt lat="44.70345" lon="5.09487">
        <ele>226.05</ele>
        <time>2017-08-20T09:32:48Z</time>
      </trkpt>
      <trkpt lat="44.70359" lon="5.09416">
        <ele>226.05</ele>
        <time>2017-08-20T09:32:56Z</time>
      </trkpt>
      <trkpt lat="44.70365" lon="5.09241">
        <ele>225.09</ele>
        <time>2017-08-20T09:33:14Z</time>
      </trkpt>
      <trkpt lat="44.70376" lon="5.09124">
        <ele>225.09</ele>
        <time>2017-08-20T09:33:28Z</time>
      </trkpt>
      <trkpt lat="44.70414" lon="5.08998">
        <ele>225.09</ele>
        <time>2017-08-20T09:33:46Z</time>
      </trkpt>
      <trkpt lat="44.70446" lon="5.08883">
        <ele>225.57</ele>
        <time>2017-08-20T09:34:02Z</time>
      </trkpt>
      <trkpt lat="44.70449" lon="5.08878">
        <ele>225.57</ele>
        <time>2017-08-20T09:34:03Z</time>
      </trkpt>
      <trkpt lat="44.70455" lon="5.08875">
        <ele>225.09</ele>
        <time>2017-08-20T09:34:04Z</time>
      </trkpt>
      <trkpt lat="44.7046" lon="5.08875">
        <ele>225.09</ele>
        <time>2017-08-20T09:34:05Z</time>
      </trkpt>
      <trkpt lat="44.70466" lon="5.08878">
        <ele>225.57</ele>
        <time>2017-08-20T09:34:06Z</time>
      </trkpt>
      <trkpt lat="44.70471" lon="5.08881">
        <ele>225.57</ele>
        <time>2017-08-20T09:34:07Z</time>
      </trkpt>
      <trkpt lat="44.70476" lon="5.08884">
        <ele>226.05</ele>
        <time>2017-08-20T09:34:08Z</time>
      </trkpt>
      <trkpt lat="44.70482" lon="5.08886">
        <ele>226.05</ele>
        <time>2017-08-20T09:34:09Z</time>
      </trkpt>
      <trkpt lat="44.70512" lon="5.08892">
        <ele>224.61</ele>
        <time>2017-08-20T09:34:14Z</time>
      </trkpt>
      <trkpt lat="44.70537" lon="5.08899">
        <ele>223.64</ele>
        <time>2017-08-20T09:34:18Z</time>
      </trkpt>
      <trkpt lat="44.70543" lon="5.08902">
        <ele>223.16</ele>
        <time>2017-08-20T09:34:20Z</time>
      </trkpt>
      <trkpt lat="44.70544" lon="5.08902">
        <ele>223.16</ele>
        <time>2017-08-20T09:34:30Z</time>
      </trkpt>
      <trkpt lat="44.70545" lon="5.08902">
        <ele>222.68</ele>
        <time>2017-08-20T09:34:50Z</time>
      </trkpt>
      <trkpt lat="44.70548" lon="5.08902">
        <ele>222.68</ele>
        <time>2017-08-20T09:34:52Z</time>
      </trkpt>
      <trkpt lat="44.70561" lon="5.08905">
        <ele>222.68</ele>
        <time>2017-08-20T09:34:56Z</time>
      </trkpt>
      <trkpt lat="44.70565" lon="5.08906">
        <ele>222.2</ele>
        <time>2017-08-20T09:34:57Z</time>
      </trkpt>
      <trkpt lat="44.70569" lon="5.08907">
        <ele>222.68</ele>
        <time>2017-08-20T09:34:58Z</time>
      </trkpt>
      <trkpt lat="44.70648" lon="5.08927">
        <ele>221.24</ele>
        <time>2017-08-20T09:35:11Z</time>
      </trkpt>
      <trkpt lat="44.70706" lon="5.08958">
        <ele>221.24</ele>
        <time>2017-08-20T09:35:22Z</time>
      </trkpt>
      <trkpt lat="44.70786" lon="5.08997">
        <ele>221.72</ele>
        <time>2017-08-20T09:35:37Z</time>
      </trkpt>
      <trkpt lat="44.70852" lon="5.09031">
        <ele>221.24</ele>
        <time>2017-08-20T09:35:49Z</time>
      </trkpt>
      <trkpt lat="44.70923" lon="5.09072">
        <ele>223.64</ele>
        <time>2017-08-20T09:36:02Z</time>
      </trkpt>
      <trkpt lat="44.70928" lon="5.09076">
        <ele>223.64</ele>
        <time>2017-08-20T09:36:03Z</time>
      </trkpt>
      <trkpt lat="44.70941" lon="5.09091">
        <ele>224.12</ele>
        <time>2017-08-20T09:36:06Z</time>
      </trkpt>
      <trkpt lat="44.70951" lon="5.09104">
        <ele>225.09</ele>
        <time>2017-08-20T09:36:09Z</time>
      </trkpt>
      <trkpt lat="44.70956" lon="5.09107">
        <ele>225.09</ele>
        <time>2017-08-20T09:36:10Z</time>
      </trkpt>
      <trkpt lat="44.70961" lon="5.09107">
        <ele>225.57</ele>
        <time>2017-08-20T09:36:11Z</time>
      </trkpt>
      <trkpt lat="44.70966" lon="5.09105">
        <ele>225.09</ele>
        <time>2017-08-20T09:36:12Z</time>
      </trkpt>
      <trkpt lat="44.70971" lon="5.09103">
        <ele>225.09</ele>
        <time>2017-08-20T09:36:13Z</time>
      </trkpt>
      <trkpt lat="44.70976" lon="5.09101">
        <ele>225.09</ele>
        <time>2017-08-20T09:36:14Z</time>
      </trkpt>
      <trkpt lat="44.70989" lon="5.09093">
        <ele>224.61</ele>
        <time>2017-08-20T09:36:17Z</time>
      </trkpt>
      <trkpt lat="44.70993" lon="5.0909">
        <ele>224.12</ele>
        <time>2017-08-20T09:36:18Z</time>
      </trkpt>
      <trkpt lat="44.70998" lon="5.09088">
        <ele>224.61</ele>
        <time>2017-08-20T09:36:19Z</time>
      </trkpt>
      <trkpt lat="44.71023" lon="5.09078">
        <ele>225.09</ele>
        <time>2017-08-20T09:36:24Z</time>
      </trkpt>
      <trkpt lat="44.71032" lon="5.09073">
        <ele>225.09</ele>
        <time>2017-08-20T09:36:26Z</time>
      </trkpt>
      <trkpt lat="44.7104" lon="5.09065">
        <ele>225.09</ele>
        <time>2017-08-20T09:36:28Z</time>
      </trkpt>
      <trkpt lat="44.71044" lon="5.09061">
        <ele>225.09</ele>
        <time>2017-08-20T09:36:29Z</time>
      </trkpt>
      <trkpt lat="44.71048" lon="5.09055">
        <ele>225.09</ele>
        <time>2017-08-20T09:36:30Z</time>
      </trkpt>
      <trkpt lat="44.71051" lon="5.09049">
        <ele>224.61</ele>
        <time>2017-08-20T09:36:31Z</time>
      </trkpt>
      <trkpt lat="44.71055" lon="5.09043">
        <ele>224.61</ele>
        <time>2017-08-20T09:36:32Z</time>
      </trkpt>
      <trkpt lat="44.71103" lon="5.08956">
        <ele>224.12</ele>
        <time>2017-08-20T09:36:47Z</time>
      </trkpt>
      <trkpt lat="44.71106" lon="5.0895">
        <ele>224.12</ele>
        <time>2017-08-20T09:36:48Z</time>
      </trkpt>
      <trkpt lat="44.71109" lon="5.08945">
        <ele>224.61</ele>
        <time>2017-08-20T09:36:49Z</time>
      </trkpt>
      <trkpt lat="44.71156" lon="5.08855">
        <ele>226.05</ele>
        <time>2017-08-20T09:37:05Z</time>
      </trkpt>
      <trkpt lat="44.71188" lon="5.08737">
        <ele>226.05</ele>
        <time>2017-08-20T09:37:22Z</time>
      </trkpt>
      <trkpt lat="44.71218" lon="5.08612">
        <ele>225.57</ele>
        <time>2017-08-20T09:37:39Z</time>
      </trkpt>
      <trkpt lat="44.71243" lon="5.08494">
        <ele>226.53</ele>
        <time>2017-08-20T09:37:55Z</time>
      </trkpt>
      <trkpt lat="44.71233" lon="5.08389">
        <ele>224.61</ele>
        <time>2017-08-20T09:38:08Z</time>
      </trkpt>
      <trkpt lat="44.71232" lon="5.08381">
        <ele>224.12</ele>
        <time>2017-08-20T09:38:09Z</time>
      </trkpt>
      <trkpt lat="44.71218" lon="5.08312">
        <ele>222.68</ele>
        <time>2017-08-20T09:38:17Z</time>
      </trkpt>
      <trkpt lat="44.71217" lon="5.08303">
        <ele>223.16</ele>
        <time>2017-08-20T09:38:18Z</time>
      </trkpt>
      <trkpt lat="44.71217" lon="5.08294">
        <ele>223.16</ele>
        <time>2017-08-20T09:38:19Z</time>
      </trkpt>
      <trkpt lat="44.71228" lon="5.08201">
        <ele>220.28</ele>
        <time>2017-08-20T09:38:29Z</time>
      </trkpt>
      <trkpt lat="44.71234" lon="5.08175">
        <ele>221.72</ele>
        <time>2017-08-20T09:38:32Z</time>
      </trkpt>
      <trkpt lat="44.71242" lon="5.08149">
        <ele>220.28</ele>
        <time>2017-08-20T09:38:35Z</time>
      </trkpt>
      <trkpt lat="44.71255" lon="5.08116">
        <ele>220.76</ele>
        <time>2017-08-20T09:38:39Z</time>
      </trkpt>
      <trkpt lat="44.7129" lon="5.08055">
        <ele>219.8</ele>
        <time>2017-08-20T09:38:47Z</time>
      </trkpt>
      <trkpt lat="44.71303" lon="5.08033">
        <ele>220.76</ele>
        <time>2017-08-20T09:38:50Z</time>
      </trkpt>
      <trkpt lat="44.71381" lon="5.07905">
        <ele>220.28</ele>
        <time>2017-08-20T09:39:08Z</time>
      </trkpt>
      <trkpt lat="44.71457" lon="5.0778">
        <ele>219.8</ele>
        <time>2017-08-20T09:39:25Z</time>
      </trkpt>
      <trkpt lat="44.71462" lon="5.07774">
        <ele>219.8</ele>
        <time>2017-08-20T09:39:26Z</time>
      </trkpt>
      <trkpt lat="44.71478" lon="5.07756">
        <ele>219.8</ele>
        <time>2017-08-20T09:39:29Z</time>
      </trkpt>
      <trkpt lat="44.71483" lon="5.07751">
        <ele>219.8</ele>
        <time>2017-08-20T09:39:30Z</time>
      </trkpt>
      <trkpt lat="44.71488" lon="5.07745">
        <ele>219.8</ele>
        <time>2017-08-20T09:39:31Z</time>
      </trkpt>
      <trkpt lat="44.71509" lon="5.07724">
        <ele>219.8</ele>
        <time>2017-08-20T09:39:35Z</time>
      </trkpt>
      <trkpt lat="44.71514" lon="5.07716">
        <ele>220.28</ele>
        <time>2017-08-20T09:39:36Z</time>
      </trkpt>
      <trkpt lat="44.71521" lon="5.07701">
        <ele>219.8</ele>
        <time>2017-08-20T09:39:38Z</time>
      </trkpt>
      <trkpt lat="44.71525" lon="5.07693">
        <ele>219.8</ele>
        <time>2017-08-20T09:39:39Z</time>
      </trkpt>
      <trkpt lat="44.71528" lon="5.07685">
        <ele>219.8</ele>
        <time>2017-08-20T09:39:40Z</time>
      </trkpt>
      <trkpt lat="44.7153" lon="5.07676">
        <ele>219.8</ele>
        <time>2017-08-20T09:39:41Z</time>
      </trkpt>
      <trkpt lat="44.71532" lon="5.07667">
        <ele>219.8</ele>
        <time>2017-08-20T09:39:42Z</time>
      </trkpt>
      <trkpt lat="44.71532" lon="5.07658">
        <ele>219.32</ele>
        <time>2017-08-20T09:39:43Z</time>
      </trkpt>
      <trkpt lat="44.71533" lon="5.07649">
        <ele>219.32</ele>
        <time>2017-08-20T09:39:44Z</time>
      </trkpt>
      <trkpt lat="44.71532" lon="5.0752">
        <ele>217.4</ele>
        <time>2017-08-20T09:39:57Z</time>
      </trkpt>
      <trkpt lat="44.71529" lon="5.07334">
        <ele>214.99</ele>
        <time>2017-08-20T09:40:16Z</time>
      </trkpt>
      <trkpt lat="44.71516" lon="5.07148">
        <ele>214.03</ele>
        <time>2017-08-20T09:40:35Z</time>
      </trkpt>
      <trkpt lat="44.71497" lon="5.06978">
        <ele>212.59</ele>
        <time>2017-08-20T09:40:52Z</time>
      </trkpt>
      <trkpt lat="44.71493" lon="5.06816">
        <ele>212.11</ele>
        <time>2017-08-20T09:41:09Z</time>
      </trkpt>
      <trkpt lat="44.71499" lon="5.06677">
        <ele>212.59</ele>
        <time>2017-08-20T09:41:24Z</time>
      </trkpt>
      <trkpt lat="44.71507" lon="5.06517">
        <ele>212.59</ele>
        <time>2017-08-20T09:41:41Z</time>
      </trkpt>
      <trkpt lat="44.71516" lon="5.06313">
        <ele>212.59</ele>
        <time>2017-08-20T09:42:02Z</time>
      </trkpt>
      <trkpt lat="44.71524" lon="5.06125">
        <ele>211.63</ele>
        <time>2017-08-20T09:42:20Z</time>
      </trkpt>
      <trkpt lat="44.71526" lon="5.06105">
        <ele>211.15</ele>
        <time>2017-08-20T09:42:22Z</time>
      </trkpt>
      <trkpt lat="44.71529" lon="5.06096">
        <ele>211.15</ele>
        <time>2017-08-20T09:42:23Z</time>
      </trkpt>
      <trkpt lat="44.71532" lon="5.06088">
        <ele>212.11</ele>
        <time>2017-08-20T09:42:24Z</time>
      </trkpt>
      <trkpt lat="44.71537" lon="5.06081">
        <ele>211.63</ele>
        <time>2017-08-20T09:42:25Z</time>
      </trkpt>
      <trkpt lat="44.71541" lon="5.06074">
        <ele>211.63</ele>
        <time>2017-08-20T09:42:26Z</time>
      </trkpt>
      <trkpt lat="44.71544" lon="5.06067">
        <ele>212.11</ele>
        <time>2017-08-20T09:42:27Z</time>
      </trkpt>
      <trkpt lat="44.71547" lon="5.0606">
        <ele>212.11</ele>
        <time>2017-08-20T09:42:28Z</time>
      </trkpt>
      <trkpt lat="44.71552" lon="5.06047">
        <ele>212.11</ele>
        <time>2017-08-20T09:42:30Z</time>
      </trkpt>
      <trkpt lat="44.71553" lon="5.06041">
        <ele>211.63</ele>
        <time>2017-08-20T09:42:31Z</time>
      </trkpt>
      <trkpt lat="44.71555" lon="5.06034">
        <ele>211.15</ele>
        <time>2017-08-20T09:42:32Z</time>
      </trkpt>
      <trkpt lat="44.71561" lon="5.06022">
        <ele>212.11</ele>
        <time>2017-08-20T09:42:34Z</time>
      </trkpt>
      <trkpt lat="44.71568" lon="5.06003">
        <ele>211.63</ele>
        <time>2017-08-20T09:42:37Z</time>
      </trkpt>
      <trkpt lat="44.71599" lon="5.0593">
        <ele>210.19</ele>
        <time>2017-08-20T09:42:48Z</time>
      </trkpt>
      <trkpt lat="44.71629" lon="5.05898">
        <ele>212.11</ele>
        <time>2017-08-20T09:42:56Z</time>
      </trkpt>
      <trkpt lat="44.71659" lon="5.0587">
        <ele>214.99</ele>
        <time>2017-08-20T09:43:05Z</time>
      </trkpt>
      <trkpt lat="44.71667" lon="5.05852">
        <ele>214.99</ele>
        <time>2017-08-20T09:43:09Z</time>
      </trkpt>
      <trkpt lat="44.71668" lon="5.05846">
        <ele>214.99</ele>
        <time>2017-08-20T09:43:10Z</time>
      </trkpt>
      <trkpt lat="44.71669" lon="5.0584">
        <ele>215.47</ele>
        <time>2017-08-20T09:43:11Z</time>
      </trkpt>
      <trkpt lat="44.7167" lon="5.05834">
        <ele>214.99</ele>
        <time>2017-08-20T09:43:12Z</time>
      </trkpt>
      <trkpt lat="44.71671" lon="5.05827">
        <ele>214.99</ele>
        <time>2017-08-20T09:43:13Z</time>
      </trkpt>
      <trkpt lat="44.71674" lon="5.05799">
        <ele>214.03</ele>
        <time>2017-08-20T09:43:17Z</time>
      </trkpt>
      <trkpt lat="44.71675" lon="5.05792">
        <ele>214.51</ele>
        <time>2017-08-20T09:43:18Z</time>
      </trkpt>
      <trkpt lat="44.71683" lon="5.05686">
        <ele>213.55</ele>
        <time>2017-08-20T09:43:33Z</time>
      </trkpt>
      <trkpt lat="44.71684" lon="5.05601">
        <ele>216.91</ele>
        <time>2017-08-20T09:43:45Z</time>
      </trkpt>
      <trkpt lat="44.71682" lon="5.05595">
        <ele>217.4</ele>
        <time>2017-08-20T09:43:46Z</time>
      </trkpt>
      <trkpt lat="44.71675" lon="5.05484">
        <ele>219.8</ele>
        <time>2017-08-20T09:44:03Z</time>
      </trkpt>
      <trkpt lat="44.71677" lon="5.05379">
        <ele>219.8</ele>
        <time>2017-08-20T09:44:18Z</time>
      </trkpt>
      <trkpt lat="44.71674" lon="5.05345">
        <ele>218.84</ele>
        <time>2017-08-20T09:44:22Z</time>
      </trkpt>
      <trkpt lat="44.71682" lon="5.05264">
        <ele>216.43</ele>
        <time>2017-08-20T09:44:31Z</time>
      </trkpt>
      <trkpt lat="44.71689" lon="5.0519">
        <ele>213.07</ele>
        <time>2017-08-20T09:44:38Z</time>
      </trkpt>
      <trkpt lat="44.71693" lon="5.05168">
        <ele>212.11</ele>
        <time>2017-08-20T09:44:40Z</time>
      </trkpt>
      <trkpt lat="44.71709" lon="5.05107">
        <ele>207.78</ele>
        <time>2017-08-20T09:44:45Z</time>
      </trkpt>
      <trkpt lat="44.71722" lon="5.05053">
        <ele>205.86</ele>
        <time>2017-08-20T09:44:49Z</time>
      </trkpt>
      <trkpt lat="44.71739" lon="5.04957">
        <ele>202.98</ele>
        <time>2017-08-20T09:44:56Z</time>
      </trkpt>
      <trkpt lat="44.71739" lon="5.04944">
        <ele>202.49</ele>
        <time>2017-08-20T09:44:57Z</time>
      </trkpt>
      <trkpt lat="44.71738" lon="5.04931">
        <ele>202.98</ele>
        <time>2017-08-20T09:44:58Z</time>
      </trkpt>
      <trkpt lat="44.71734" lon="5.0492">
        <ele>203.46</ele>
        <time>2017-08-20T09:44:59Z</time>
      </trkpt>
      <trkpt lat="44.71729" lon="5.0491">
        <ele>203.46</ele>
        <time>2017-08-20T09:45:00Z</time>
      </trkpt>
      <trkpt lat="44.71724" lon="5.04901">
        <ele>202.49</ele>
        <time>2017-08-20T09:45:01Z</time>
      </trkpt>
      <trkpt lat="44.71718" lon="5.04893">
        <ele>202.49</ele>
        <time>2017-08-20T09:45:02Z</time>
      </trkpt>
      <trkpt lat="44.71715" lon="5.04883">
        <ele>202.98</ele>
        <time>2017-08-20T09:45:03Z</time>
      </trkpt>
      <trkpt lat="44.71714" lon="5.04872">
        <ele>203.46</ele>
        <time>2017-08-20T09:45:04Z</time>
      </trkpt>
      <trkpt lat="44.71716" lon="5.04861">
        <ele>203.46</ele>
        <time>2017-08-20T09:45:05Z</time>
      </trkpt>
      <trkpt lat="44.71719" lon="5.04851">
        <ele>202.49</ele>
        <time>2017-08-20T09:45:06Z</time>
      </trkpt>
      <trkpt lat="44.71723" lon="5.04842">
        <ele>202.01</ele>
        <time>2017-08-20T09:45:07Z</time>
      </trkpt>
      <trkpt lat="44.71727" lon="5.04832">
        <ele>201.53</ele>
        <time>2017-08-20T09:45:08Z</time>
      </trkpt>
      <trkpt lat="44.71784" lon="5.04709">
        <ele>200.09</ele>
        <time>2017-08-20T09:45:22Z</time>
      </trkpt>
      <trkpt lat="44.71844" lon="5.04578">
        <ele>199.61</ele>
        <time>2017-08-20T09:45:38Z</time>
      </trkpt>
      <trkpt lat="44.71903" lon="5.04446">
        <ele>199.13</ele>
        <time>2017-08-20T09:45:56Z</time>
      </trkpt>
      <trkpt lat="44.71929" lon="5.04391">
        <ele>199.61</ele>
        <time>2017-08-20T09:46:05Z</time>
      </trkpt>
      <trkpt lat="44.71973" lon="5.04296">
        <ele>198.65</ele>
        <time>2017-08-20T09:46:21Z</time>
      </trkpt>
      <trkpt lat="44.71986" lon="5.04268">
        <ele>199.13</ele>
        <time>2017-08-20T09:46:26Z</time>
      </trkpt>
      <trkpt lat="44.72024" lon="5.04185">
        <ele>198.65</ele>
        <time>2017-08-20T09:46:40Z</time>
      </trkpt>
      <trkpt lat="44.72077" lon="5.04074">
        <ele>197.69</ele>
        <time>2017-08-20T09:46:58Z</time>
      </trkpt>
      <trkpt lat="44.72124" lon="5.03975">
        <ele>198.17</ele>
        <time>2017-08-20T09:47:14Z</time>
      </trkpt>
      <trkpt lat="44.72186" lon="5.03847">
        <ele>197.69</ele>
        <time>2017-08-20T09:47:34Z</time>
      </trkpt>
      <trkpt lat="44.72208" lon="5.03801">
        <ele>197.21</ele>
        <time>2017-08-20T09:47:41Z</time>
      </trkpt>
      <trkpt lat="44.72222" lon="5.03777">
        <ele>197.21</ele>
        <time>2017-08-20T09:47:45Z</time>
      </trkpt>
      <trkpt lat="44.72227" lon="5.03773">
        <ele>197.21</ele>
        <time>2017-08-20T09:47:46Z</time>
      </trkpt>
      <trkpt lat="44.72231" lon="5.03769">
        <ele>197.69</ele>
        <time>2017-08-20T09:47:47Z</time>
      </trkpt>
      <trkpt lat="44.72236" lon="5.03764">
        <ele>197.21</ele>
        <time>2017-08-20T09:47:48Z</time>
      </trkpt>
      <trkpt lat="44.72239" lon="5.03757">
        <ele>197.21</ele>
        <time>2017-08-20T09:47:49Z</time>
      </trkpt>
      <trkpt lat="44.72241" lon="5.0375">
        <ele>196.73</ele>
        <time>2017-08-20T09:47:50Z</time>
      </trkpt>
      <trkpt lat="44.72242" lon="5.03742">
        <ele>196.73</ele>
        <time>2017-08-20T09:47:51Z</time>
      </trkpt>
      <trkpt lat="44.72243" lon="5.03734">
        <ele>197.21</ele>
        <time>2017-08-20T09:47:52Z</time>
      </trkpt>
      <trkpt lat="44.72245" lon="5.03727">
        <ele>197.21</ele>
        <time>2017-08-20T09:47:53Z</time>
      </trkpt>
      <trkpt lat="44.72247" lon="5.0372">
        <ele>196.73</ele>
        <time>2017-08-20T09:47:54Z</time>
      </trkpt>
      <trkpt lat="44.72249" lon="5.03714">
        <ele>197.21</ele>
        <time>2017-08-20T09:47:55Z</time>
      </trkpt>
      <trkpt lat="44.72252" lon="5.03707">
        <ele>196.73</ele>
        <time>2017-08-20T09:47:56Z</time>
      </trkpt>
      <trkpt lat="44.72304" lon="5.03599">
        <ele>196.25</ele>
        <time>2017-08-20T09:48:12Z</time>
      </trkpt>
      <trkpt lat="44.72357" lon="5.03482">
        <ele>196.25</ele>
        <time>2017-08-20T09:48:28Z</time>
      </trkpt>
      <trkpt lat="44.72406" lon="5.03387">
        <ele>195.77</ele>
        <time>2017-08-20T09:48:41Z</time>
      </trkpt>
      <trkpt lat="44.72415" lon="5.03374">
        <ele>195.28</ele>
        <time>2017-08-20T09:48:43Z</time>
      </trkpt>
      <trkpt lat="44.7242" lon="5.03368">
        <ele>194.8</ele>
        <time>2017-08-20T09:48:44Z</time>
      </trkpt>
      <trkpt lat="44.72424" lon="5.03361">
        <ele>194.8</ele>
        <time>2017-08-20T09:48:45Z</time>
      </trkpt>
      <trkpt lat="44.72429" lon="5.03355">
        <ele>194.32</ele>
        <time>2017-08-20T09:48:46Z</time>
      </trkpt>
      <trkpt lat="44.72434" lon="5.03349">
        <ele>194.8</ele>
        <time>2017-08-20T09:48:47Z</time>
      </trkpt>
      <trkpt lat="44.72438" lon="5.03343">
        <ele>194.32</ele>
        <time>2017-08-20T09:48:48Z</time>
      </trkpt>
      <trkpt lat="44.72446" lon="5.03331">
        <ele>194.32</ele>
        <time>2017-08-20T09:48:50Z</time>
      </trkpt>
      <trkpt lat="44.72449" lon="5.03324">
        <ele>194.32</ele>
        <time>2017-08-20T09:48:51Z</time>
      </trkpt>
      <trkpt lat="44.72452" lon="5.03318">
        <ele>193.84</ele>
        <time>2017-08-20T09:48:52Z</time>
      </trkpt>
      <trkpt lat="44.72465" lon="5.033">
        <ele>192.88</ele>
        <time>2017-08-20T09:48:55Z</time>
      </trkpt>
      <trkpt lat="44.72533" lon="5.03209">
        <ele>192.88</ele>
        <time>2017-08-20T09:49:09Z</time>
      </trkpt>
      <trkpt lat="44.7257" lon="5.03153">
        <ele>192.88</ele>
        <time>2017-08-20T09:49:17Z</time>
      </trkpt>
      <trkpt lat="44.72573" lon="5.03145">
        <ele>192.4</ele>
        <time>2017-08-20T09:49:18Z</time>
      </trkpt>
      <trkpt lat="44.72576" lon="5.03137">
        <ele>191.92</ele>
        <time>2017-08-20T09:49:19Z</time>
      </trkpt>
      <trkpt lat="44.7261" lon="5.03001">
        <ele>190.48</ele>
        <time>2017-08-20T09:49:35Z</time>
      </trkpt>
      <trkpt lat="44.72645" lon="5.02839">
        <ele>190.48</ele>
        <time>2017-08-20T09:49:53Z</time>
      </trkpt>
      <trkpt lat="44.72665" lon="5.02718">
        <ele>189.52</ele>
        <time>2017-08-20T09:50:06Z</time>
      </trkpt>
      <trkpt lat="44.72667" lon="5.02708">
        <ele>189.52</ele>
        <time>2017-08-20T09:50:07Z</time>
      </trkpt>
      <trkpt lat="44.72672" lon="5.02681">
        <ele>189.52</ele>
        <time>2017-08-20T09:50:10Z</time>
      </trkpt>
      <trkpt lat="44.72673" lon="5.02672">
        <ele>189.52</ele>
        <time>2017-08-20T09:50:11Z</time>
      </trkpt>
      <trkpt lat="44.72693" lon="5.02546">
        <ele>189.52</ele>
        <time>2017-08-20T09:50:25Z</time>
      </trkpt>
      <trkpt lat="44.72699" lon="5.02519">
        <ele>189.52</ele>
        <time>2017-08-20T09:50:28Z</time>
      </trkpt>
      <trkpt lat="44.727" lon="5.0251">
        <ele>189.04</ele>
        <time>2017-08-20T09:50:29Z</time>
      </trkpt>
      <trkpt lat="44.72713" lon="5.02429">
        <ele>188.56</ele>
        <time>2017-08-20T09:50:38Z</time>
      </trkpt>
      <trkpt lat="44.72713" lon="5.0242">
        <ele>189.04</ele>
        <time>2017-08-20T09:50:39Z</time>
      </trkpt>
      <trkpt lat="44.72713" lon="5.02395">
        <ele>188.56</ele>
        <time>2017-08-20T09:50:42Z</time>
      </trkpt>
      <trkpt lat="44.72714" lon="5.02388">
        <ele>189.04</ele>
        <time>2017-08-20T09:50:43Z</time>
      </trkpt>
      <trkpt lat="44.72715" lon="5.0237">
        <ele>189.04</ele>
        <time>2017-08-20T09:50:46Z</time>
      </trkpt>
      <trkpt lat="44.72715" lon="5.02365">
        <ele>189.52</ele>
        <time>2017-08-20T09:50:47Z</time>
      </trkpt>
      <trkpt lat="44.72713" lon="5.02362">
        <ele>189.04</ele>
        <time>2017-08-20T09:50:48Z</time>
      </trkpt>
      <trkpt lat="44.72708" lon="5.02355">
        <ele>186.63</ele>
        <time>2017-08-20T09:50:59Z</time>
      </trkpt>
      <trkpt lat="44.72708" lon="5.02355">
        <ele>188.56</ele>
        <time>2017-08-20T09:51:01Z</time>
      </trkpt>
      <trkpt lat="44.72721" lon="5.02335">
        <ele>189.52</ele>
        <time>2017-08-20T09:55:06Z</time>
      </trkpt>
      <trkpt lat="44.72724" lon="5.02334">
        <ele>189.52</ele>
        <time>2017-08-20T09:55:07Z</time>
      </trkpt>
      <trkpt lat="44.72725" lon="5.02315">
        <ele>190.48</ele>
        <time>2017-08-20T09:55:16Z</time>
      </trkpt>
      <trkpt lat="44.72727" lon="5.0231">
        <ele>190.48</ele>
        <time>2017-08-20T09:55:17Z</time>
      </trkpt>
      <trkpt lat="44.72728" lon="5.02305">
        <ele>190.48</ele>
        <time>2017-08-20T09:55:18Z</time>
      </trkpt>
      <trkpt lat="44.72732" lon="5.02282">
        <ele>190.96</ele>
        <time>2017-08-20T09:55:22Z</time>
      </trkpt>
      <trkpt lat="44.72733" lon="5.02276">
        <ele>190.48</ele>
        <time>2017-08-20T09:55:23Z</time>
      </trkpt>
      <trkpt lat="44.72747" lon="5.02204">
        <ele>190</ele>
        <time>2017-08-20T09:55:36Z</time>
      </trkpt>
      <trkpt lat="44.72748" lon="5.02199">
        <ele>190.96</ele>
        <time>2017-08-20T09:55:37Z</time>
      </trkpt>
      <trkpt lat="44.72761" lon="5.0214">
        <ele>190.48</ele>
        <time>2017-08-20T09:55:47Z</time>
      </trkpt>
      <trkpt lat="44.72763" lon="5.02133">
        <ele>190.48</ele>
        <time>2017-08-20T09:55:48Z</time>
      </trkpt>
      <trkpt lat="44.72764" lon="5.02126">
        <ele>190</ele>
        <time>2017-08-20T09:55:49Z</time>
      </trkpt>
      <trkpt lat="44.72773" lon="5.02079">
        <ele>189.04</ele>
        <time>2017-08-20T09:55:55Z</time>
      </trkpt>
      <trkpt lat="44.72795" lon="5.01945">
        <ele>188.56</ele>
        <time>2017-08-20T09:56:10Z</time>
      </trkpt>
      <trkpt lat="44.72797" lon="5.01937">
        <ele>188.56</ele>
        <time>2017-08-20T09:56:11Z</time>
      </trkpt>
      <trkpt lat="44.72804" lon="5.01903">
        <ele>188.08</ele>
        <time>2017-08-20T09:56:15Z</time>
      </trkpt>
      <trkpt lat="44.72806" lon="5.01895">
        <ele>188.08</ele>
        <time>2017-08-20T09:56:16Z</time>
      </trkpt>
      <trkpt lat="44.72808" lon="5.01886">
        <ele>188.08</ele>
        <time>2017-08-20T09:56:17Z</time>
      </trkpt>
      <trkpt lat="44.72816" lon="5.01843">
        <ele>188.08</ele>
        <time>2017-08-20T09:56:22Z</time>
      </trkpt>
      <trkpt lat="44.72819" lon="5.01835">
        <ele>188.08</ele>
        <time>2017-08-20T09:56:23Z</time>
      </trkpt>
      <trkpt lat="44.72822" lon="5.01828">
        <ele>188.08</ele>
        <time>2017-08-20T09:56:24Z</time>
      </trkpt>
      <trkpt lat="44.72826" lon="5.0182">
        <ele>188.08</ele>
        <time>2017-08-20T09:56:25Z</time>
      </trkpt>
      <trkpt lat="44.7283" lon="5.01813">
        <ele>187.59</ele>
        <time>2017-08-20T09:56:26Z</time>
      </trkpt>
      <trkpt lat="44.72834" lon="5.01807">
        <ele>189.04</ele>
        <time>2017-08-20T09:56:27Z</time>
      </trkpt>
      <trkpt lat="44.72838" lon="5.01801">
        <ele>188.56</ele>
        <time>2017-08-20T09:56:28Z</time>
      </trkpt>
      <trkpt lat="44.72902" lon="5.01745">
        <ele>189.04</ele>
        <time>2017-08-20T09:56:42Z</time>
      </trkpt>
      <trkpt lat="44.72972" lon="5.0169">
        <ele>189.04</ele>
        <time>2017-08-20T09:56:56Z</time>
      </trkpt>
      <trkpt lat="44.73043" lon="5.01623">
        <ele>189.04</ele>
        <time>2017-08-20T09:57:12Z</time>
      </trkpt>
      <trkpt lat="44.73064" lon="5.01593">
        <ele>189.04</ele>
        <time>2017-08-20T09:57:17Z</time>
      </trkpt>
      <trkpt lat="44.73105" lon="5.01539">
        <ele>185.67</ele>
        <time>2017-08-20T09:57:26Z</time>
      </trkpt>
      <trkpt lat="44.73115" lon="5.01527">
        <ele>187.59</ele>
        <time>2017-08-20T09:57:28Z</time>
      </trkpt>
      <trkpt lat="44.73187" lon="5.01434">
        <ele>185.67</ele>
        <time>2017-08-20T09:57:42Z</time>
      </trkpt>
      <trkpt lat="44.7325" lon="5.01351">
        <ele>185.67</ele>
        <time>2017-08-20T09:57:57Z</time>
      </trkpt>
      <trkpt lat="44.73282" lon="5.01311">
        <ele>187.11</ele>
        <time>2017-08-20T09:58:07Z</time>
      </trkpt>
      <trkpt lat="44.73325" lon="5.01262">
        <ele>189.04</ele>
        <time>2017-08-20T09:58:21Z</time>
      </trkpt>
      <trkpt lat="44.73379" lon="5.01232">
        <ele>191.44</ele>
        <time>2017-08-20T09:58:37Z</time>
      </trkpt>
      <trkpt lat="44.73383" lon="5.01229">
        <ele>191.44</ele>
        <time>2017-08-20T09:58:38Z</time>
      </trkpt>
      <trkpt lat="44.73393" lon="5.0122">
        <ele>191.44</ele>
        <time>2017-08-20T09:58:41Z</time>
      </trkpt>
      <trkpt lat="44.73396" lon="5.01215">
        <ele>191.44</ele>
        <time>2017-08-20T09:58:42Z</time>
      </trkpt>
      <trkpt lat="44.73399" lon="5.01211">
        <ele>191.44</ele>
        <time>2017-08-20T09:58:43Z</time>
      </trkpt>
      <trkpt lat="44.73451" lon="5.01114">
        <ele>189.52</ele>
        <time>2017-08-20T09:59:00Z</time>
      </trkpt>
      <trkpt lat="44.73513" lon="5.01021">
        <ele>187.59</ele>
        <time>2017-08-20T09:59:16Z</time>
      </trkpt>
      <trkpt lat="44.73578" lon="5.00919">
        <ele>185.67</ele>
        <time>2017-08-20T09:59:33Z</time>
      </trkpt>
      <trkpt lat="44.73645" lon="5.00813">
        <ele>186.15</ele>
        <time>2017-08-20T09:59:50Z</time>
      </trkpt>
      <trkpt lat="44.73704" lon="5.00717">
        <ele>185.67</ele>
        <time>2017-08-20T10:00:07Z</time>
      </trkpt>
      <trkpt lat="44.73762" lon="5.00628">
        <ele>185.67</ele>
        <time>2017-08-20T10:00:23Z</time>
      </trkpt>
      <trkpt lat="44.73802" lon="5.00565">
        <ele>186.15</ele>
        <time>2017-08-20T10:00:35Z</time>
      </trkpt>
      <trkpt lat="44.73859" lon="5.00502">
        <ele>186.63</ele>
        <time>2017-08-20T10:00:50Z</time>
      </trkpt>
      <trkpt lat="44.7389" lon="5.00463">
        <ele>187.59</ele>
        <time>2017-08-20T10:00:59Z</time>
      </trkpt>
      <trkpt lat="44.73894" lon="5.0046">
        <ele>187.59</ele>
        <time>2017-08-20T10:01:00Z</time>
      </trkpt>
      <trkpt lat="44.73898" lon="5.00459">
        <ele>188.08</ele>
        <time>2017-08-20T10:01:01Z</time>
      </trkpt>
      <trkpt lat="44.73902" lon="5.00461">
        <ele>187.11</ele>
        <time>2017-08-20T10:01:02Z</time>
      </trkpt>
      <trkpt lat="44.73905" lon="5.00464">
        <ele>187.59</ele>
        <time>2017-08-20T10:01:03Z</time>
      </trkpt>
      <trkpt lat="44.73909" lon="5.00467">
        <ele>187.59</ele>
        <time>2017-08-20T10:01:04Z</time>
      </trkpt>
      <trkpt lat="44.73913" lon="5.0047">
        <ele>187.59</ele>
        <time>2017-08-20T10:01:05Z</time>
      </trkpt>
      <trkpt lat="44.73916" lon="5.00473">
        <ele>187.59</ele>
        <time>2017-08-20T10:01:06Z</time>
      </trkpt>
      <trkpt lat="44.7399" lon="5.00537">
        <ele>190</ele>
        <time>2017-08-20T10:01:25Z</time>
      </trkpt>
      <trkpt lat="44.74002" lon="5.00546">
        <ele>189.52</ele>
        <time>2017-08-20T10:01:28Z</time>
      </trkpt>
      <trkpt lat="44.7407" lon="5.00599">
        <ele>191.44</ele>
        <time>2017-08-20T10:01:45Z</time>
      </trkpt>
      <trkpt lat="44.74082" lon="5.00608">
        <ele>191.44</ele>
        <time>2017-08-20T10:01:48Z</time>
      </trkpt>
      <trkpt lat="44.7414" lon="5.00653">
        <ele>192.88</ele>
        <time>2017-08-20T10:02:03Z</time>
      </trkpt>
      <trkpt lat="44.74183" lon="5.00686">
        <ele>193.36</ele>
        <time>2017-08-20T10:02:15Z</time>
      </trkpt>
      <trkpt lat="44.74252" lon="5.0074">
        <ele>193.84</ele>
        <time>2017-08-20T10:02:33Z</time>
      </trkpt>
      <trkpt lat="44.74317" lon="5.00789">
        <ele>193.84</ele>
        <time>2017-08-20T10:02:50Z</time>
      </trkpt>
      <trkpt lat="44.74381" lon="5.00823">
        <ele>195.77</ele>
        <time>2017-08-20T10:03:06Z</time>
      </trkpt>
      <trkpt lat="44.74447" lon="5.00842">
        <ele>197.21</ele>
        <time>2017-08-20T10:03:21Z</time>
      </trkpt>
      <trkpt lat="44.74471" lon="5.00848">
        <ele>196.25</ele>
        <time>2017-08-20T10:03:26Z</time>
      </trkpt>
      <trkpt lat="44.74542" lon="5.00893">
        <ele>196.25</ele>
        <time>2017-08-20T10:03:41Z</time>
      </trkpt>
      <trkpt lat="44.74598" lon="5.0094">
        <ele>196.73</ele>
        <time>2017-08-20T10:03:55Z</time>
      </trkpt>
      <trkpt lat="44.74643" lon="5.00989">
        <ele>198.17</ele>
        <time>2017-08-20T10:04:09Z</time>
      </trkpt>
      <trkpt lat="44.74688" lon="5.01045">
        <ele>199.13</ele>
        <time>2017-08-20T10:04:24Z</time>
      </trkpt>
      <trkpt lat="44.74739" lon="5.01105">
        <ele>200.09</ele>
        <time>2017-08-20T10:04:40Z</time>
      </trkpt>
      <trkpt lat="44.7478" lon="5.01154">
        <ele>201.53</ele>
        <time>2017-08-20T10:04:54Z</time>
      </trkpt>
      <trkpt lat="44.74829" lon="5.01213">
        <ele>203.94</ele>
        <time>2017-08-20T10:05:11Z</time>
      </trkpt>
      <trkpt lat="44.74871" lon="5.01263">
        <ele>205.38</ele>
        <time>2017-08-20T10:05:26Z</time>
      </trkpt>
      <trkpt lat="44.74914" lon="5.01316">
        <ele>207.3</ele>
        <time>2017-08-20T10:05:42Z</time>
      </trkpt>
      <trkpt lat="44.74958" lon="5.0137">
        <ele>208.26</ele>
        <time>2017-08-20T10:05:59Z</time>
      </trkpt>
      <trkpt lat="44.7501" lon="5.01433">
        <ele>208.74</ele>
        <time>2017-08-20T10:06:16Z</time>
      </trkpt>
      <trkpt lat="44.75012" lon="5.01437">
        <ele>208.74</ele>
        <time>2017-08-20T10:06:17Z</time>
      </trkpt>
      <trkpt lat="44.75061" lon="5.01496">
        <ele>210.67</ele>
        <time>2017-08-20T10:06:32Z</time>
      </trkpt>
      <trkpt lat="44.75068" lon="5.01502">
        <ele>210.67</ele>
        <time>2017-08-20T10:06:34Z</time>
      </trkpt>
      <trkpt lat="44.75071" lon="5.01505">
        <ele>210.19</ele>
        <time>2017-08-20T10:06:35Z</time>
      </trkpt>
      <trkpt lat="44.75075" lon="5.01508">
        <ele>210.67</ele>
        <time>2017-08-20T10:06:36Z</time>
      </trkpt>
      <trkpt lat="44.75133" lon="5.01542">
        <ele>212.11</ele>
        <time>2017-08-20T10:06:51Z</time>
      </trkpt>
      <trkpt lat="44.75187" lon="5.01555">
        <ele>213.07</ele>
        <time>2017-08-20T10:07:06Z</time>
      </trkpt>
      <trkpt lat="44.75232" lon="5.01563">
        <ele>214.51</ele>
        <time>2017-08-20T10:07:22Z</time>
      </trkpt>
      <trkpt lat="44.75277" lon="5.01571">
        <ele>216.43</ele>
        <time>2017-08-20T10:07:39Z</time>
      </trkpt>
      <trkpt lat="44.75333" lon="5.01581">
        <ele>219.8</ele>
        <time>2017-08-20T10:08:00Z</time>
      </trkpt>
      <trkpt lat="44.75381" lon="5.0159">
        <ele>222.2</ele>
        <time>2017-08-20T10:08:19Z</time>
      </trkpt>
      <trkpt lat="44.75424" lon="5.01598">
        <ele>224.61</ele>
        <time>2017-08-20T10:08:35Z</time>
      </trkpt>
      <trkpt lat="44.75476" lon="5.01608">
        <ele>227.01</ele>
        <time>2017-08-20T10:08:54Z</time>
      </trkpt>
      <trkpt lat="44.75525" lon="5.01618">
        <ele>228.45</ele>
        <time>2017-08-20T10:09:11Z</time>
      </trkpt>
      <trkpt lat="44.75571" lon="5.01629">
        <ele>228.93</ele>
        <time>2017-08-20T10:09:25Z</time>
      </trkpt>
      <trkpt lat="44.75611" lon="5.0164">
        <ele>228.93</ele>
        <time>2017-08-20T10:09:36Z</time>
      </trkpt>
      <trkpt lat="44.75615" lon="5.01642">
        <ele>228.93</ele>
        <time>2017-08-20T10:09:37Z</time>
      </trkpt>
      <trkpt lat="44.75692" lon="5.01689">
        <ele>228.93</ele>
        <time>2017-08-20T10:09:54Z</time>
      </trkpt>
      <trkpt lat="44.75766" lon="5.01745">
        <ele>227.97</ele>
        <time>2017-08-20T10:10:11Z</time>
      </trkpt>
      <trkpt lat="44.75845" lon="5.01802">
        <ele>227.49</ele>
        <time>2017-08-20T10:10:29Z</time>
      </trkpt>
      <trkpt lat="44.75911" lon="5.01852">
        <ele>226.53</ele>
        <time>2017-08-20T10:10:46Z</time>
      </trkpt>
      <trkpt lat="44.75978" lon="5.01902">
        <ele>227.01</ele>
        <time>2017-08-20T10:11:05Z</time>
      </trkpt>
      <trkpt lat="44.76028" lon="5.01939">
        <ele>229.41</ele>
        <time>2017-08-20T10:11:21Z</time>
      </trkpt>
      <trkpt lat="44.76063" lon="5.01965">
        <ele>232.3</ele>
        <time>2017-08-20T10:11:33Z</time>
      </trkpt>
      <trkpt lat="44.76117" lon="5.02007">
        <ele>232.78</ele>
        <time>2017-08-20T10:11:51Z</time>
      </trkpt>
      <trkpt lat="44.76162" lon="5.02041">
        <ele>234.22</ele>
        <time>2017-08-20T10:12:07Z</time>
      </trkpt>
      <trkpt lat="44.76213" lon="5.02078">
        <ele>237.1</ele>
        <time>2017-08-20T10:12:24Z</time>
      </trkpt>
      <trkpt lat="44.76256" lon="5.021">
        <ele>238.06</ele>
        <time>2017-08-20T10:12:37Z</time>
      </trkpt>
      <trkpt lat="44.76324" lon="5.02123">
        <ele>239.02</ele>
        <time>2017-08-20T10:12:55Z</time>
      </trkpt>
      <trkpt lat="44.76388" lon="5.02152">
        <ele>239.99</ele>
        <time>2017-08-20T10:13:11Z</time>
      </trkpt>
      <trkpt lat="44.76446" lon="5.02192">
        <ele>240.95</ele>
        <time>2017-08-20T10:13:27Z</time>
      </trkpt>
      <trkpt lat="44.76506" lon="5.02232">
        <ele>242.87</ele>
        <time>2017-08-20T10:13:45Z</time>
      </trkpt>
      <trkpt lat="44.76529" lon="5.02244">
        <ele>242.39</ele>
        <time>2017-08-20T10:13:56Z</time>
      </trkpt>
      <trkpt lat="44.76529" lon="5.02244">
        <ele>242.39</ele>
        <time>2017-08-20T10:14:08Z</time>
      </trkpt>
      <trkpt lat="44.76529" lon="5.02245">
        <ele>241.91</ele>
        <time>2017-08-20T10:14:36Z</time>
      </trkpt>
      <trkpt lat="44.76529" lon="5.02245">
        <ele>242.39</ele>
        <time>2017-08-20T10:14:54Z</time>
      </trkpt>
      <trkpt lat="44.76535" lon="5.02245">
        <ele>242.87</ele>
        <time>2017-08-20T10:14:57Z</time>
      </trkpt>
      <trkpt lat="44.76585" lon="5.02258">
        <ele>242.87</ele>
        <time>2017-08-20T10:15:11Z</time>
      </trkpt>
      <trkpt lat="44.76664" lon="5.02277">
        <ele>244.79</ele>
        <time>2017-08-20T10:15:30Z</time>
      </trkpt>
      <trkpt lat="44.76746" lon="5.02279">
        <ele>243.35</ele>
        <time>2017-08-20T10:15:49Z</time>
      </trkpt>
      <trkpt lat="44.76815" lon="5.02278">
        <ele>245.75</ele>
        <time>2017-08-20T10:16:07Z</time>
      </trkpt>
      <trkpt lat="44.76873" lon="5.02277">
        <ele>248.16</ele>
        <time>2017-08-20T10:16:25Z</time>
      </trkpt>
      <trkpt lat="44.76947" lon="5.02275">
        <ele>248.64</ele>
        <time>2017-08-20T10:16:47Z</time>
      </trkpt>
      <trkpt lat="44.77006" lon="5.02275">
        <ele>248.16</ele>
        <time>2017-08-20T10:17:04Z</time>
      </trkpt>
      <trkpt lat="44.77016" lon="5.02274">
        <ele>249.6</ele>
        <time>2017-08-20T10:17:07Z</time>
      </trkpt>
      <trkpt lat="44.77022" lon="5.02274">
        <ele>249.12</ele>
        <time>2017-08-20T10:17:09Z</time>
      </trkpt>
      <trkpt lat="44.77088" lon="5.02273">
        <ele>250.56</ele>
        <time>2017-08-20T10:17:30Z</time>
      </trkpt>
      <trkpt lat="44.7715" lon="5.02272">
        <ele>251.04</ele>
        <time>2017-08-20T10:17:49Z</time>
      </trkpt>
      <trkpt lat="44.77214" lon="5.02271">
        <ele>252.96</ele>
        <time>2017-08-20T10:18:09Z</time>
      </trkpt>
      <trkpt lat="44.7727" lon="5.02271">
        <ele>253.93</ele>
        <time>2017-08-20T10:18:26Z</time>
      </trkpt>
      <trkpt lat="44.77334" lon="5.02268">
        <ele>254.41</ele>
        <time>2017-08-20T10:18:45Z</time>
      </trkpt>
      <trkpt lat="44.77363" lon="5.02266">
        <ele>255.85</ele>
        <time>2017-08-20T10:18:53Z</time>
      </trkpt>
      <trkpt lat="44.77398" lon="5.02274">
        <ele>256.33</ele>
        <time>2017-08-20T10:19:03Z</time>
      </trkpt>
      <trkpt lat="44.77407" lon="5.02251">
        <ele>256.33</ele>
        <time>2017-08-20T10:19:08Z</time>
      </trkpt>
      <trkpt lat="44.77406" lon="5.02245">
        <ele>256.81</ele>
        <time>2017-08-20T10:19:09Z</time>
      </trkpt>
      <trkpt lat="44.77404" lon="5.0224">
        <ele>256.81</ele>
        <time>2017-08-20T10:19:10Z</time>
      </trkpt>
      <trkpt lat="44.77402" lon="5.02234">
        <ele>256.81</ele>
        <time>2017-08-20T10:19:11Z</time>
      </trkpt>
      <trkpt lat="44.774" lon="5.02228">
        <ele>257.29</ele>
        <time>2017-08-20T10:19:12Z</time>
      </trkpt>
      <trkpt lat="44.77397" lon="5.02222">
        <ele>257.29</ele>
        <time>2017-08-20T10:19:13Z</time>
      </trkpt>
      <trkpt lat="44.77395" lon="5.02215">
        <ele>257.77</ele>
        <time>2017-08-20T10:19:14Z</time>
      </trkpt>
      <trkpt lat="44.77394" lon="5.02208">
        <ele>257.29</ele>
        <time>2017-08-20T10:19:15Z</time>
      </trkpt>
      <trkpt lat="44.77393" lon="5.022">
        <ele>257.29</ele>
        <time>2017-08-20T10:19:16Z</time>
      </trkpt>
      <trkpt lat="44.77392" lon="5.02193">
        <ele>257.29</ele>
        <time>2017-08-20T10:19:17Z</time>
      </trkpt>
      <trkpt lat="44.77393" lon="5.02185">
        <ele>256.81</ele>
        <time>2017-08-20T10:19:18Z</time>
      </trkpt>
      <trkpt lat="44.77394" lon="5.02178">
        <ele>256.81</ele>
        <time>2017-08-20T10:19:19Z</time>
      </trkpt>
      <trkpt lat="44.77396" lon="5.02172">
        <ele>257.29</ele>
        <time>2017-08-20T10:19:20Z</time>
      </trkpt>
      <trkpt lat="44.77399" lon="5.02166">
        <ele>257.29</ele>
        <time>2017-08-20T10:19:21Z</time>
      </trkpt>
      <trkpt lat="44.77402" lon="5.0216">
        <ele>257.29</ele>
        <time>2017-08-20T10:19:22Z</time>
      </trkpt>
      <trkpt lat="44.77405" lon="5.02155">
        <ele>257.77</ele>
        <time>2017-08-20T10:19:23Z</time>
      </trkpt>
      <trkpt lat="44.77409" lon="5.0215">
        <ele>257.29</ele>
        <time>2017-08-20T10:19:24Z</time>
      </trkpt>
      <trkpt lat="44.77413" lon="5.02147">
        <ele>257.29</ele>
        <time>2017-08-20T10:19:25Z</time>
      </trkpt>
      <trkpt lat="44.77417" lon="5.02144">
        <ele>257.29</ele>
        <time>2017-08-20T10:19:26Z</time>
      </trkpt>
      <trkpt lat="44.77421" lon="5.02141">
        <ele>257.29</ele>
        <time>2017-08-20T10:19:27Z</time>
      </trkpt>
      <trkpt lat="44.77426" lon="5.02138">
        <ele>257.29</ele>
        <time>2017-08-20T10:19:28Z</time>
      </trkpt>
      <trkpt lat="44.7749" lon="5.02104">
        <ele>257.77</ele>
        <time>2017-08-20T10:19:43Z</time>
      </trkpt>
      <trkpt lat="44.77546" lon="5.02073">
        <ele>258.25</ele>
        <time>2017-08-20T10:19:56Z</time>
      </trkpt>
      <trkpt lat="44.7755" lon="5.0207">
        <ele>258.25</ele>
        <time>2017-08-20T10:19:57Z</time>
      </trkpt>
      <trkpt lat="44.77554" lon="5.02066">
        <ele>258.25</ele>
        <time>2017-08-20T10:19:58Z</time>
      </trkpt>
      <trkpt lat="44.77557" lon="5.02062">
        <ele>257.77</ele>
        <time>2017-08-20T10:19:59Z</time>
      </trkpt>
      <trkpt lat="44.77561" lon="5.02057">
        <ele>257.77</ele>
        <time>2017-08-20T10:20:00Z</time>
      </trkpt>
      <trkpt lat="44.77596" lon="5.01999">
        <ele>259.69</ele>
        <time>2017-08-20T10:20:11Z</time>
      </trkpt>
      <trkpt lat="44.77643" lon="5.01911">
        <ele>256.33</ele>
        <time>2017-08-20T10:20:25Z</time>
      </trkpt>
      <trkpt lat="44.77646" lon="5.01904">
        <ele>255.85</ele>
        <time>2017-08-20T10:20:26Z</time>
      </trkpt>
      <trkpt lat="44.77711" lon="5.01774">
        <ele>253.44</ele>
        <time>2017-08-20T10:20:43Z</time>
      </trkpt>
      <trkpt lat="44.77774" lon="5.01652">
        <ele>250.56</ele>
        <time>2017-08-20T10:20:59Z</time>
      </trkpt>
      <trkpt lat="44.77795" lon="5.01614">
        <ele>250.08</ele>
        <time>2017-08-20T10:21:04Z</time>
      </trkpt>
      <trkpt lat="44.778" lon="5.01608">
        <ele>249.6</ele>
        <time>2017-08-20T10:21:05Z</time>
      </trkpt>
      <trkpt lat="44.7781" lon="5.01597">
        <ele>249.6</ele>
        <time>2017-08-20T10:21:07Z</time>
      </trkpt>
      <trkpt lat="44.77815" lon="5.01593">
        <ele>249.12</ele>
        <time>2017-08-20T10:21:08Z</time>
      </trkpt>
      <trkpt lat="44.7782" lon="5.01589">
        <ele>249.6</ele>
        <time>2017-08-20T10:21:09Z</time>
      </trkpt>
      <trkpt lat="44.77825" lon="5.01586">
        <ele>250.08</ele>
        <time>2017-08-20T10:21:10Z</time>
      </trkpt>
      <trkpt lat="44.77831" lon="5.01584">
        <ele>250.56</ele>
        <time>2017-08-20T10:21:11Z</time>
      </trkpt>
      <trkpt lat="44.77836" lon="5.01582">
        <ele>250.56</ele>
        <time>2017-08-20T10:21:12Z</time>
      </trkpt>
      <trkpt lat="44.77888" lon="5.01565">
        <ele>252</ele>
        <time>2017-08-20T10:21:23Z</time>
      </trkpt>
      <trkpt lat="44.77942" lon="5.01548">
        <ele>253.93</ele>
        <time>2017-08-20T10:21:37Z</time>
      </trkpt>
      <trkpt lat="44.77993" lon="5.01533">
        <ele>254.41</ele>
        <time>2017-08-20T10:21:51Z</time>
      </trkpt>
      <trkpt lat="44.78032" lon="5.01513">
        <ele>255.85</ele>
        <time>2017-08-20T10:22:04Z</time>
      </trkpt>
      <trkpt lat="44.78074" lon="5.01481">
        <ele>255.85</ele>
        <time>2017-08-20T10:22:20Z</time>
      </trkpt>
      <trkpt lat="44.78117" lon="5.01449">
        <ele>257.29</ele>
        <time>2017-08-20T10:22:36Z</time>
      </trkpt>
      <trkpt lat="44.78163" lon="5.01416">
        <ele>258.25</ele>
        <time>2017-08-20T10:22:53Z</time>
      </trkpt>
      <trkpt lat="44.78202" lon="5.01386">
        <ele>258.25</ele>
        <time>2017-08-20T10:23:08Z</time>
      </trkpt>
      <trkpt lat="44.78208" lon="5.01382">
        <ele>256.81</ele>
        <time>2017-08-20T10:23:10Z</time>
      </trkpt>
      <trkpt lat="44.7821" lon="5.01381">
        <ele>261.14</ele>
        <time>2017-08-20T10:23:11Z</time>
      </trkpt>
      <trkpt lat="44.78213" lon="5.01379">
        <ele>258.25</ele>
        <time>2017-08-20T10:23:12Z</time>
      </trkpt>
      <trkpt lat="44.78251" lon="5.01352">
        <ele>258.25</ele>
        <time>2017-08-20T10:23:26Z</time>
      </trkpt>
      <trkpt lat="44.78298" lon="5.01317">
        <ele>258.73</ele>
        <time>2017-08-20T10:23:42Z</time>
      </trkpt>
      <trkpt lat="44.78344" lon="5.01272">
        <ele>258.73</ele>
        <time>2017-08-20T10:23:58Z</time>
      </trkpt>
      <trkpt lat="44.78388" lon="5.01216">
        <ele>258.25</ele>
        <time>2017-08-20T10:24:15Z</time>
      </trkpt>
      <trkpt lat="44.78417" lon="5.0118">
        <ele>258.25</ele>
        <time>2017-08-20T10:24:25Z</time>
      </trkpt>
      <trkpt lat="44.78464" lon="5.01122">
        <ele>257.77</ele>
        <time>2017-08-20T10:24:41Z</time>
      </trkpt>
      <trkpt lat="44.78497" lon="5.01083">
        <ele>257.77</ele>
        <time>2017-08-20T10:24:56Z</time>
      </trkpt>
      <trkpt lat="44.78497" lon="5.01083">
        <ele>257.77</ele>
        <time>2017-08-20T10:25:20Z</time>
      </trkpt>
      <trkpt lat="44.78498" lon="5.01081">
        <ele>257.77</ele>
        <time>2017-08-20T10:25:21Z</time>
      </trkpt>
      <trkpt lat="44.78499" lon="5.0108">
        <ele>258.25</ele>
        <time>2017-08-20T10:25:22Z</time>
      </trkpt>
      <trkpt lat="44.785" lon="5.01077">
        <ele>257.77</ele>
        <time>2017-08-20T10:25:23Z</time>
      </trkpt>
      <trkpt lat="44.78535" lon="5.01033">
        <ele>259.21</ele>
        <time>2017-08-20T10:25:38Z</time>
      </trkpt>
      <trkpt lat="44.78571" lon="5.00994">
        <ele>259.21</ele>
        <time>2017-08-20T10:25:52Z</time>
      </trkpt>
      <trkpt lat="44.78584" lon="5.00984">
        <ele>260.65</ele>
        <time>2017-08-20T10:25:56Z</time>
      </trkpt>
      <trkpt lat="44.78605" lon="5.00976">
        <ele>259.21</ele>
        <time>2017-08-20T10:26:02Z</time>
      </trkpt>
      <trkpt lat="44.78664" lon="5.00967">
        <ele>258.73</ele>
        <time>2017-08-20T10:26:16Z</time>
      </trkpt>
      <trkpt lat="44.78736" lon="5.00955">
        <ele>257.29</ele>
        <time>2017-08-20T10:26:31Z</time>
      </trkpt>
      <trkpt lat="44.78801" lon="5.00945">
        <ele>255.85</ele>
        <time>2017-08-20T10:26:45Z</time>
      </trkpt>
      <trkpt lat="44.78863" lon="5.00927">
        <ele>253.93</ele>
        <time>2017-08-20T10:26:59Z</time>
      </trkpt>
      <trkpt lat="44.78888" lon="5.00918">
        <ele>254.41</ele>
        <time>2017-08-20T10:27:05Z</time>
      </trkpt>
      <trkpt lat="44.7894" lon="5.00889">
        <ele>255.37</ele>
        <time>2017-08-20T10:27:20Z</time>
      </trkpt>
      <trkpt lat="44.78979" lon="5.00849">
        <ele>258.25</ele>
        <time>2017-08-20T10:27:35Z</time>
      </trkpt>
      <trkpt lat="44.79006" lon="5.00807">
        <ele>260.65</ele>
        <time>2017-08-20T10:27:49Z</time>
      </trkpt>
      <trkpt lat="44.79031" lon="5.00755">
        <ele>262.58</ele>
        <time>2017-08-20T10:28:05Z</time>
      </trkpt>
      <trkpt lat="44.7904" lon="5.00736">
        <ele>263.06</ele>
        <time>2017-08-20T10:28:11Z</time>
      </trkpt>
      <trkpt lat="44.7907" lon="5.00676">
        <ele>264.98</ele>
        <time>2017-08-20T10:28:29Z</time>
      </trkpt>
      <trkpt lat="44.79077" lon="5.00661">
        <ele>266.42</ele>
        <time>2017-08-20T10:28:33Z</time>
      </trkpt>
      <trkpt lat="44.79106" lon="5.006">
        <ele>265.94</ele>
        <time>2017-08-20T10:28:48Z</time>
      </trkpt>
      <trkpt lat="44.79108" lon="5.00596">
        <ele>265.94</ele>
        <time>2017-08-20T10:28:49Z</time>
      </trkpt>
      <trkpt lat="44.79155" lon="5.0052">
        <ele>264.02</ele>
        <time>2017-08-20T10:29:06Z</time>
      </trkpt>
      <trkpt lat="44.79231" lon="5.00466">
        <ele>261.14</ele>
        <time>2017-08-20T10:29:22Z</time>
      </trkpt>
      <trkpt lat="44.79303" lon="5.00425">
        <ele>257.77</ele>
        <time>2017-08-20T10:29:33Z</time>
      </trkpt>
      <trkpt lat="44.79343" lon="5.00398">
        <ele>254.41</ele>
        <time>2017-08-20T10:29:39Z</time>
      </trkpt>
      <trkpt lat="44.79405" lon="5.00309">
        <ele>252</ele>
        <time>2017-08-20T10:29:51Z</time>
      </trkpt>
      <trkpt lat="44.79461" lon="5.00197">
        <ele>250.08</ele>
        <time>2017-08-20T10:30:07Z</time>
      </trkpt>
      <trkpt lat="44.79514" lon="5.00092">
        <ele>250.56</ele>
        <time>2017-08-20T10:30:21Z</time>
      </trkpt>
      <trkpt lat="44.79524" lon="5.00071">
        <ele>249.12</ele>
        <time>2017-08-20T10:30:24Z</time>
      </trkpt>
      <trkpt lat="44.79547" lon="5.00024">
        <ele>247.68</ele>
        <time>2017-08-20T10:30:31Z</time>
      </trkpt>
      <trkpt lat="44.79573" lon="4.99973">
        <ele>248.16</ele>
        <time>2017-08-20T10:30:39Z</time>
      </trkpt>
      <trkpt lat="44.79602" lon="4.9992">
        <ele>248.16</ele>
        <time>2017-08-20T10:30:48Z</time>
      </trkpt>
      <trkpt lat="44.79632" lon="4.99887">
        <ele>249.12</ele>
        <time>2017-08-20T10:30:55Z</time>
      </trkpt>
      <trkpt lat="44.79708" lon="4.99834">
        <ele>248.16</ele>
        <time>2017-08-20T10:31:10Z</time>
      </trkpt>
      <trkpt lat="44.79779" lon="4.99783">
        <ele>247.68</ele>
        <time>2017-08-20T10:31:25Z</time>
      </trkpt>
      <trkpt lat="44.79877" lon="4.99715">
        <ele>245.27</ele>
        <time>2017-08-20T10:31:42Z</time>
      </trkpt>
      <trkpt lat="44.79927" lon="4.9968">
        <ele>242.87</ele>
        <time>2017-08-20T10:31:50Z</time>
      </trkpt>
      <trkpt lat="44.79937" lon="4.9967">
        <ele>242.87</ele>
        <time>2017-08-20T10:31:52Z</time>
      </trkpt>
      <trkpt lat="44.79942" lon="4.99664">
        <ele>242.87</ele>
        <time>2017-08-20T10:31:53Z</time>
      </trkpt>
      <trkpt lat="44.79946" lon="4.99658">
        <ele>243.35</ele>
        <time>2017-08-20T10:31:54Z</time>
      </trkpt>
      <trkpt lat="44.7995" lon="4.99651">
        <ele>243.35</ele>
        <time>2017-08-20T10:31:55Z</time>
      </trkpt>
      <trkpt lat="44.79953" lon="4.99644">
        <ele>243.35</ele>
        <time>2017-08-20T10:31:56Z</time>
      </trkpt>
      <trkpt lat="44.79956" lon="4.99636">
        <ele>244.31</ele>
        <time>2017-08-20T10:31:57Z</time>
      </trkpt>
      <trkpt lat="44.79958" lon="4.99629">
        <ele>243.83</ele>
        <time>2017-08-20T10:31:58Z</time>
      </trkpt>
      <trkpt lat="44.79965" lon="4.99606">
        <ele>241.91</ele>
        <time>2017-08-20T10:32:01Z</time>
      </trkpt>
      <trkpt lat="44.79998" lon="4.99499">
        <ele>243.35</ele>
        <time>2017-08-20T10:32:16Z</time>
      </trkpt>
      <trkpt lat="44.80024" lon="4.99416">
        <ele>244.79</ele>
        <time>2017-08-20T10:32:28Z</time>
      </trkpt>
      <trkpt lat="44.80026" lon="4.99409">
        <ele>244.31</ele>
        <time>2017-08-20T10:32:29Z</time>
      </trkpt>
      <trkpt lat="44.80051" lon="4.99329">
        <ele>242.39</ele>
        <time>2017-08-20T10:32:41Z</time>
      </trkpt>
      <trkpt lat="44.80063" lon="4.9927">
        <ele>240.95</ele>
        <time>2017-08-20T10:32:49Z</time>
      </trkpt>
      <trkpt lat="44.80073" lon="4.99192">
        <ele>241.91</ele>
        <time>2017-08-20T10:32:58Z</time>
      </trkpt>
      <trkpt lat="44.80082" lon="4.99131">
        <ele>241.43</ele>
        <time>2017-08-20T10:33:06Z</time>
      </trkpt>
      <trkpt lat="44.80083" lon="4.99124">
        <ele>240.95</ele>
        <time>2017-08-20T10:33:08Z</time>
      </trkpt>
      <trkpt lat="44.80081" lon="4.99122">
        <ele>240.95</ele>
        <time>2017-08-20T10:33:09Z</time>
      </trkpt>
      <trkpt lat="44.80079" lon="4.99124">
        <ele>239.99</ele>
        <time>2017-08-20T10:33:10Z</time>
      </trkpt>
      <trkpt lat="44.80078" lon="4.99128">
        <ele>240.47</ele>
        <time>2017-08-20T10:33:11Z</time>
      </trkpt>
      <trkpt lat="44.80071" lon="4.9918">
        <ele>240.95</ele>
        <time>2017-08-20T10:33:21Z</time>
      </trkpt>
      <trkpt lat="44.8007" lon="4.99185">
        <ele>240.95</ele>
        <time>2017-08-20T10:33:22Z</time>
      </trkpt>
      <trkpt lat="44.80062" lon="4.99246">
        <ele>240.95</ele>
        <time>2017-08-20T10:33:32Z</time>
      </trkpt>
      <trkpt lat="44.80059" lon="4.99265">
        <ele>240.95</ele>
        <time>2017-08-20T10:33:35Z</time>
      </trkpt>
      <trkpt lat="44.80034" lon="4.99368">
        <ele>242.87</ele>
        <time>2017-08-20T10:33:51Z</time>
      </trkpt>
      <trkpt lat="44.80019" lon="4.99416">
        <ele>244.31</ele>
        <time>2017-08-20T10:33:59Z</time>
      </trkpt>
      <trkpt lat="44.80017" lon="4.99421">
        <ele>243.83</ele>
        <time>2017-08-20T10:34:00Z</time>
      </trkpt>
      <trkpt lat="44.79996" lon="4.9949">
        <ele>243.83</ele>
        <time>2017-08-20T10:34:11Z</time>
      </trkpt>
      <trkpt lat="44.79966" lon="4.99587">
        <ele>243.83</ele>
        <time>2017-08-20T10:34:26Z</time>
      </trkpt>
      <trkpt lat="44.79961" lon="4.99602">
        <ele>242.39</ele>
        <time>2017-08-20T10:34:28Z</time>
      </trkpt>
      <trkpt lat="44.79953" lon="4.99632">
        <ele>242.87</ele>
        <time>2017-08-20T10:34:32Z</time>
      </trkpt>
      <trkpt lat="44.79953" lon="4.9964">
        <ele>242.87</ele>
        <time>2017-08-20T10:34:33Z</time>
      </trkpt>
      <trkpt lat="44.79958" lon="4.99651">
        <ele>243.83</ele>
        <time>2017-08-20T10:34:35Z</time>
      </trkpt>
      <trkpt lat="44.79962" lon="4.99652">
        <ele>242.39</ele>
        <time>2017-08-20T10:34:36Z</time>
      </trkpt>
      <trkpt lat="44.79967" lon="4.99651">
        <ele>242.39</ele>
        <time>2017-08-20T10:34:37Z</time>
      </trkpt>
      <trkpt lat="44.79971" lon="4.99648">
        <ele>241.91</ele>
        <time>2017-08-20T10:34:38Z</time>
      </trkpt>
      <trkpt lat="44.79976" lon="4.99646">
        <ele>241.91</ele>
        <time>2017-08-20T10:34:39Z</time>
      </trkpt>
      <trkpt lat="44.80056" lon="4.99608">
        <ele>240.47</ele>
        <time>2017-08-20T10:34:56Z</time>
      </trkpt>
      <trkpt lat="44.80125" lon="4.99576">
        <ele>238.54</ele>
        <time>2017-08-20T10:35:11Z</time>
      </trkpt>
      <trkpt lat="44.80193" lon="4.9955">
        <ele>236.62</ele>
        <time>2017-08-20T10:35:24Z</time>
      </trkpt>
      <trkpt lat="44.802" lon="4.9955">
        <ele>236.62</ele>
        <time>2017-08-20T10:35:25Z</time>
      </trkpt>
      <trkpt lat="44.80206" lon="4.99551">
        <ele>235.66</ele>
        <time>2017-08-20T10:35:26Z</time>
      </trkpt>
      <trkpt lat="44.80213" lon="4.99553">
        <ele>235.18</ele>
        <time>2017-08-20T10:35:27Z</time>
      </trkpt>
      <trkpt lat="44.8022" lon="4.99556">
        <ele>234.22</ele>
        <time>2017-08-20T10:35:28Z</time>
      </trkpt>
      <trkpt lat="44.8024" lon="4.99563">
        <ele>232.78</ele>
        <time>2017-08-20T10:35:31Z</time>
      </trkpt>
      <trkpt lat="44.80246" lon="4.99564">
        <ele>232.78</ele>
        <time>2017-08-20T10:35:32Z</time>
      </trkpt>
      <trkpt lat="44.80252" lon="4.99562">
        <ele>232.3</ele>
        <time>2017-08-20T10:35:33Z</time>
      </trkpt>
      <trkpt lat="44.80258" lon="4.99557">
        <ele>232.3</ele>
        <time>2017-08-20T10:35:34Z</time>
      </trkpt>
      <trkpt lat="44.80263" lon="4.99552">
        <ele>232.3</ele>
        <time>2017-08-20T10:35:35Z</time>
      </trkpt>
      <trkpt lat="44.80268" lon="4.99546">
        <ele>232.3</ele>
        <time>2017-08-20T10:35:36Z</time>
      </trkpt>
      <trkpt lat="44.80287" lon="4.99523">
        <ele>232.3</ele>
        <time>2017-08-20T10:35:40Z</time>
      </trkpt>
      <trkpt lat="44.80317" lon="4.99498">
        <ele>231.33</ele>
        <time>2017-08-20T10:35:46Z</time>
      </trkpt>
      <trkpt lat="44.80322" lon="4.99495">
        <ele>231.33</ele>
        <time>2017-08-20T10:35:47Z</time>
      </trkpt>
      <trkpt lat="44.80338" lon="4.99487">
        <ele>231.33</ele>
        <time>2017-08-20T10:35:50Z</time>
      </trkpt>
      <trkpt lat="44.80343" lon="4.99483">
        <ele>231.33</ele>
        <time>2017-08-20T10:35:51Z</time>
      </trkpt>
      <trkpt lat="44.80347" lon="4.99477">
        <ele>230.85</ele>
        <time>2017-08-20T10:35:52Z</time>
      </trkpt>
      <trkpt lat="44.80413" lon="4.99384">
        <ele>229.89</ele>
        <time>2017-08-20T10:36:06Z</time>
      </trkpt>
      <trkpt lat="44.80481" lon="4.9929">
        <ele>227.97</ele>
        <time>2017-08-20T10:36:19Z</time>
      </trkpt>
      <trkpt lat="44.80497" lon="4.99269">
        <ele>226.53</ele>
        <time>2017-08-20T10:36:22Z</time>
      </trkpt>
      <trkpt lat="44.80569" lon="4.99207">
        <ele>226.53</ele>
        <time>2017-08-20T10:36:36Z</time>
      </trkpt>
      <trkpt lat="44.80629" lon="4.99135">
        <ele>224.61</ele>
        <time>2017-08-20T10:36:51Z</time>
      </trkpt>
      <trkpt lat="44.80633" lon="4.99131">
        <ele>225.09</ele>
        <time>2017-08-20T10:36:52Z</time>
      </trkpt>
      <trkpt lat="44.80638" lon="4.99127">
        <ele>224.61</ele>
        <time>2017-08-20T10:36:53Z</time>
      </trkpt>
      <trkpt lat="44.80642" lon="4.99124">
        <ele>224.61</ele>
        <time>2017-08-20T10:36:54Z</time>
      </trkpt>
      <trkpt lat="44.80646" lon="4.9912">
        <ele>224.61</ele>
        <time>2017-08-20T10:36:55Z</time>
      </trkpt>
      <trkpt lat="44.8065" lon="4.99116">
        <ele>225.09</ele>
        <time>2017-08-20T10:36:56Z</time>
      </trkpt>
      <trkpt lat="44.80655" lon="4.99112">
        <ele>224.61</ele>
        <time>2017-08-20T10:36:57Z</time>
      </trkpt>
      <trkpt lat="44.80664" lon="4.99102">
        <ele>224.61</ele>
        <time>2017-08-20T10:36:59Z</time>
      </trkpt>
      <trkpt lat="44.80667" lon="4.99096">
        <ele>224.61</ele>
        <time>2017-08-20T10:37:00Z</time>
      </trkpt>
      <trkpt lat="44.80671" lon="4.99089">
        <ele>224.61</ele>
        <time>2017-08-20T10:37:01Z</time>
      </trkpt>
      <trkpt lat="44.80674" lon="4.99082">
        <ele>224.61</ele>
        <time>2017-08-20T10:37:02Z</time>
      </trkpt>
      <trkpt lat="44.80676" lon="4.99074">
        <ele>224.12</ele>
        <time>2017-08-20T10:37:03Z</time>
      </trkpt>
      <trkpt lat="44.80678" lon="4.99066">
        <ele>224.12</ele>
        <time>2017-08-20T10:37:04Z</time>
      </trkpt>
      <trkpt lat="44.8068" lon="4.99057">
        <ele>223.64</ele>
        <time>2017-08-20T10:37:05Z</time>
      </trkpt>
      <trkpt lat="44.80682" lon="4.99047">
        <ele>223.16</ele>
        <time>2017-08-20T10:37:06Z</time>
      </trkpt>
      <trkpt lat="44.80684" lon="4.99028">
        <ele>222.68</ele>
        <time>2017-08-20T10:37:08Z</time>
      </trkpt>
      <trkpt lat="44.8069" lon="4.98953">
        <ele>220.28</ele>
        <time>2017-08-20T10:37:16Z</time>
      </trkpt>
      <trkpt lat="44.80696" lon="4.98883">
        <ele>219.8</ele>
        <time>2017-08-20T10:37:24Z</time>
      </trkpt>
      <trkpt lat="44.80719" lon="4.98764">
        <ele>216.43</ele>
        <time>2017-08-20T10:37:36Z</time>
      </trkpt>
      <trkpt lat="44.80721" lon="4.98755">
        <ele>215.95</ele>
        <time>2017-08-20T10:37:37Z</time>
      </trkpt>
      <trkpt lat="44.80725" lon="4.98747">
        <ele>215.47</ele>
        <time>2017-08-20T10:37:38Z</time>
      </trkpt>
      <trkpt lat="44.80729" lon="4.98742">
        <ele>215.47</ele>
        <time>2017-08-20T10:37:39Z</time>
      </trkpt>
      <trkpt lat="44.80735" lon="4.98741">
        <ele>215.47</ele>
        <time>2017-08-20T10:37:40Z</time>
      </trkpt>
      <trkpt lat="44.80741" lon="4.98743">
        <ele>214.99</ele>
        <time>2017-08-20T10:37:41Z</time>
      </trkpt>
      <trkpt lat="44.80748" lon="4.98745">
        <ele>214.99</ele>
        <time>2017-08-20T10:37:42Z</time>
      </trkpt>
      <trkpt lat="44.80759" lon="4.98749">
        <ele>215.47</ele>
        <time>2017-08-20T10:37:44Z</time>
      </trkpt>
      <trkpt lat="44.80765" lon="4.9875">
        <ele>215.47</ele>
        <time>2017-08-20T10:37:45Z</time>
      </trkpt>
      <trkpt lat="44.80771" lon="4.9875">
        <ele>215.95</ele>
        <time>2017-08-20T10:37:46Z</time>
      </trkpt>
      <trkpt lat="44.80777" lon="4.98748">
        <ele>215.47</ele>
        <time>2017-08-20T10:37:47Z</time>
      </trkpt>
      <trkpt lat="44.80782" lon="4.98744">
        <ele>215.47</ele>
        <time>2017-08-20T10:37:48Z</time>
      </trkpt>
      <trkpt lat="44.80787" lon="4.9874">
        <ele>215.47</ele>
        <time>2017-08-20T10:37:49Z</time>
      </trkpt>
      <trkpt lat="44.8085" lon="4.98688">
        <ele>212.11</ele>
        <time>2017-08-20T10:38:00Z</time>
      </trkpt>
      <trkpt lat="44.8093" lon="4.98616">
        <ele>210.19</ele>
        <time>2017-08-20T10:38:14Z</time>
      </trkpt>
      <trkpt lat="44.8096" lon="4.98576">
        <ele>208.74</ele>
        <time>2017-08-20T10:38:20Z</time>
      </trkpt>
      <trkpt lat="44.81027" lon="4.98466">
        <ele>206.34</ele>
        <time>2017-08-20T10:38:35Z</time>
      </trkpt>
      <trkpt lat="44.81031" lon="4.98459">
        <ele>206.34</ele>
        <time>2017-08-20T10:38:36Z</time>
      </trkpt>
      <trkpt lat="44.81035" lon="4.98451">
        <ele>205.86</ele>
        <time>2017-08-20T10:38:37Z</time>
      </trkpt>
      <trkpt lat="44.81047" lon="4.98428">
        <ele>205.38</ele>
        <time>2017-08-20T10:38:40Z</time>
      </trkpt>
      <trkpt lat="44.81051" lon="4.9842">
        <ele>204.9</ele>
        <time>2017-08-20T10:38:41Z</time>
      </trkpt>
      <trkpt lat="44.81055" lon="4.98413">
        <ele>204.42</ele>
        <time>2017-08-20T10:38:42Z</time>
      </trkpt>
      <trkpt lat="44.81111" lon="4.98307">
        <ele>202.98</ele>
        <time>2017-08-20T10:38:56Z</time>
      </trkpt>
      <trkpt lat="44.81123" lon="4.98286">
        <ele>202.01</ele>
        <time>2017-08-20T10:38:59Z</time>
      </trkpt>
      <trkpt lat="44.81128" lon="4.98281">
        <ele>201.53</ele>
        <time>2017-08-20T10:39:00Z</time>
      </trkpt>
      <trkpt lat="44.81134" lon="4.98278">
        <ele>201.53</ele>
        <time>2017-08-20T10:39:01Z</time>
      </trkpt>
      <trkpt lat="44.8114" lon="4.98277">
        <ele>201.53</ele>
        <time>2017-08-20T10:39:02Z</time>
      </trkpt>
      <trkpt lat="44.81146" lon="4.98278">
        <ele>201.53</ele>
        <time>2017-08-20T10:39:03Z</time>
      </trkpt>
      <trkpt lat="44.81151" lon="4.98281">
        <ele>202.01</ele>
        <time>2017-08-20T10:39:04Z</time>
      </trkpt>
      <trkpt lat="44.81157" lon="4.98282">
        <ele>202.01</ele>
        <time>2017-08-20T10:39:05Z</time>
      </trkpt>
      <trkpt lat="44.81172" lon="4.98287">
        <ele>202.01</ele>
        <time>2017-08-20T10:39:08Z</time>
      </trkpt>
      <trkpt lat="44.81176" lon="4.98287">
        <ele>202.01</ele>
        <time>2017-08-20T10:39:14Z</time>
      </trkpt>
      <trkpt lat="44.81176" lon="4.98288">
        <ele>201.53</ele>
        <time>2017-08-20T10:39:30Z</time>
      </trkpt>
      <trkpt lat="44.81176" lon="4.98287">
        <ele>201.53</ele>
        <time>2017-08-20T10:39:39Z</time>
      </trkpt>
      <trkpt lat="44.81184" lon="4.98287">
        <ele>201.53</ele>
        <time>2017-08-20T10:39:44Z</time>
      </trkpt>
      <trkpt lat="44.81187" lon="4.98286">
        <ele>201.53</ele>
        <time>2017-08-20T10:39:45Z</time>
      </trkpt>
      <trkpt lat="44.81208" lon="4.98276">
        <ele>202.49</ele>
        <time>2017-08-20T10:39:51Z</time>
      </trkpt>
      <trkpt lat="44.81248" lon="4.98241">
        <ele>200.57</ele>
        <time>2017-08-20T10:40:00Z</time>
      </trkpt>
      <trkpt lat="44.8131" lon="4.98178">
        <ele>199.13</ele>
        <time>2017-08-20T10:40:13Z</time>
      </trkpt>
      <trkpt lat="44.81313" lon="4.98173">
        <ele>199.13</ele>
        <time>2017-08-20T10:40:14Z</time>
      </trkpt>
      <trkpt lat="44.81324" lon="4.98156">
        <ele>197.69</ele>
        <time>2017-08-20T10:40:17Z</time>
      </trkpt>
      <trkpt lat="44.81327" lon="4.98149">
        <ele>197.21</ele>
        <time>2017-08-20T10:40:18Z</time>
      </trkpt>
      <trkpt lat="44.81363" lon="4.98062">
        <ele>194.32</ele>
        <time>2017-08-20T10:40:29Z</time>
      </trkpt>
      <trkpt lat="44.81427" lon="4.97929">
        <ele>192.4</ele>
        <time>2017-08-20T10:40:46Z</time>
      </trkpt>
      <trkpt lat="44.81497" lon="4.97803">
        <ele>190.48</ele>
        <time>2017-08-20T10:41:04Z</time>
      </trkpt>
      <trkpt lat="44.81516" lon="4.97772">
        <ele>190</ele>
        <time>2017-08-20T10:41:09Z</time>
      </trkpt>
      <trkpt lat="44.8158" lon="4.97692">
        <ele>189.52</ele>
        <time>2017-08-20T10:41:24Z</time>
      </trkpt>
      <trkpt lat="44.81646" lon="4.97613">
        <ele>188.56</ele>
        <time>2017-08-20T10:41:40Z</time>
      </trkpt>
      <trkpt lat="44.81715" lon="4.9754">
        <ele>187.59</ele>
        <time>2017-08-20T10:41:57Z</time>
      </trkpt>
      <trkpt lat="44.81723" lon="4.97532">
        <ele>188.08</ele>
        <time>2017-08-20T10:41:59Z</time>
      </trkpt>
      <trkpt lat="44.81788" lon="4.97474">
        <ele>186.15</ele>
        <time>2017-08-20T10:42:16Z</time>
      </trkpt>
      <trkpt lat="44.81825" lon="4.97433">
        <ele>187.59</ele>
        <time>2017-08-20T10:42:29Z</time>
      </trkpt>
      <trkpt lat="44.81858" lon="4.97399">
        <ele>187.59</ele>
        <time>2017-08-20T10:42:40Z</time>
      </trkpt>
      <trkpt lat="44.81908" lon="4.97393">
        <ele>186.15</ele>
        <time>2017-08-20T10:42:53Z</time>
      </trkpt>
      <trkpt lat="44.81978" lon="4.9737">
        <ele>187.11</ele>
        <time>2017-08-20T10:43:11Z</time>
      </trkpt>
      <trkpt lat="44.82018" lon="4.97357">
        <ele>188.08</ele>
        <time>2017-08-20T10:43:21Z</time>
      </trkpt>
      <trkpt lat="44.82031" lon="4.97351">
        <ele>186.63</ele>
        <time>2017-08-20T10:43:24Z</time>
      </trkpt>
      <trkpt lat="44.82098" lon="4.9731">
        <ele>184.71</ele>
        <time>2017-08-20T10:43:41Z</time>
      </trkpt>
      <trkpt lat="44.82133" lon="4.9729">
        <ele>184.23</ele>
        <time>2017-08-20T10:43:51Z</time>
      </trkpt>
      <trkpt lat="44.82141" lon="4.97285">
        <ele>185.19</ele>
        <time>2017-08-20T10:43:53Z</time>
      </trkpt>
      <trkpt lat="44.82198" lon="4.97248">
        <ele>182.79</ele>
        <time>2017-08-20T10:44:08Z</time>
      </trkpt>
      <trkpt lat="44.82272" lon="4.97198">
        <ele>182.31</ele>
        <time>2017-08-20T10:44:25Z</time>
      </trkpt>
      <trkpt lat="44.82356" lon="4.97141">
        <ele>181.83</ele>
        <time>2017-08-20T10:44:43Z</time>
      </trkpt>
      <trkpt lat="44.8237" lon="4.9713">
        <ele>180.87</ele>
        <time>2017-08-20T10:44:46Z</time>
      </trkpt>
      <trkpt lat="44.82448" lon="4.97067">
        <ele>180.87</ele>
        <time>2017-08-20T10:45:04Z</time>
      </trkpt>
      <trkpt lat="44.82459" lon="4.97055">
        <ele>180.38</ele>
        <time>2017-08-20T10:45:07Z</time>
      </trkpt>
      <trkpt lat="44.82514" lon="4.96985">
        <ele>178.94</ele>
        <time>2017-08-20T10:45:22Z</time>
      </trkpt>
      <trkpt lat="44.82587" lon="4.96905">
        <ele>177.02</ele>
        <time>2017-08-20T10:45:41Z</time>
      </trkpt>
      <trkpt lat="44.82619" lon="4.96875">
        <ele>176.54</ele>
        <time>2017-08-20T10:45:49Z</time>
      </trkpt>
      <trkpt lat="44.82623" lon="4.96872">
        <ele>176.54</ele>
        <time>2017-08-20T10:45:50Z</time>
      </trkpt>
      <trkpt lat="44.82639" lon="4.96858">
        <ele>177.02</ele>
        <time>2017-08-20T10:45:54Z</time>
      </trkpt>
      <trkpt lat="44.82706" lon="4.96814">
        <ele>176.06</ele>
        <time>2017-08-20T10:46:10Z</time>
      </trkpt>
      <trkpt lat="44.8275" lon="4.96784">
        <ele>175.1</ele>
        <time>2017-08-20T10:46:21Z</time>
      </trkpt>
      <trkpt lat="44.82797" lon="4.96751">
        <ele>175.1</ele>
        <time>2017-08-20T10:46:33Z</time>
      </trkpt>
      <trkpt lat="44.82801" lon="4.96748">
        <ele>175.1</ele>
        <time>2017-08-20T10:46:34Z</time>
      </trkpt>
      <trkpt lat="44.82811" lon="4.96739">
        <ele>175.1</ele>
        <time>2017-08-20T10:46:37Z</time>
      </trkpt>
      <trkpt lat="44.82824" lon="4.96724">
        <ele>177.98</ele>
        <time>2017-08-20T10:46:41Z</time>
      </trkpt>
      <trkpt lat="44.8283" lon="4.96717">
        <ele>177.02</ele>
        <time>2017-08-20T10:46:43Z</time>
      </trkpt>
      <trkpt lat="44.8284" lon="4.96705">
        <ele>178.46</ele>
        <time>2017-08-20T10:46:46Z</time>
      </trkpt>
      <trkpt lat="44.82843" lon="4.96701">
        <ele>176.06</ele>
        <time>2017-08-20T10:46:47Z</time>
      </trkpt>
      <trkpt lat="44.82846" lon="4.96697">
        <ele>176.06</ele>
        <time>2017-08-20T10:46:48Z</time>
      </trkpt>
      <trkpt lat="44.8287" lon="4.96669">
        <ele>174.62</ele>
        <time>2017-08-20T10:46:56Z</time>
      </trkpt>
      <trkpt lat="44.82877" lon="4.96661">
        <ele>173.17</ele>
        <time>2017-08-20T10:46:58Z</time>
      </trkpt>
      <trkpt lat="44.82899" lon="4.96635">
        <ele>173.17</ele>
        <time>2017-08-20T10:47:04Z</time>
      </trkpt>
      <trkpt lat="44.82913" lon="4.96619">
        <ele>173.66</ele>
        <time>2017-08-20T10:47:08Z</time>
      </trkpt>
      <trkpt lat="44.82921" lon="4.96609">
        <ele>172.21</ele>
        <time>2017-08-20T10:47:10Z</time>
      </trkpt>
      <trkpt lat="44.82976" lon="4.96558">
        <ele>170.77</ele>
        <time>2017-08-20T10:47:24Z</time>
      </trkpt>
      <trkpt lat="44.82986" lon="4.96551">
        <ele>170.77</ele>
        <time>2017-08-20T10:47:32Z</time>
      </trkpt>
      <trkpt lat="44.82986" lon="4.96551">
        <ele>170.29</ele>
        <time>2017-08-20T10:48:02Z</time>
      </trkpt>
      <trkpt lat="44.82986" lon="4.96551">
        <ele>170.29</ele>
        <time>2017-08-20T10:48:39Z</time>
      </trkpt>
      <trkpt lat="44.82986" lon="4.96551">
        <ele>169.81</ele>
        <time>2017-08-20T10:48:49Z</time>
      </trkpt>
      <trkpt lat="44.82987" lon="4.9655">
        <ele>170.29</ele>
        <time>2017-08-20T10:48:56Z</time>
      </trkpt>
      <trkpt lat="44.82989" lon="4.96548">
        <ele>170.77</ele>
        <time>2017-08-20T10:48:57Z</time>
      </trkpt>
      <trkpt lat="44.82994" lon="4.96544">
        <ele>170.77</ele>
        <time>2017-08-20T10:48:59Z</time>
      </trkpt>
      <trkpt lat="44.82997" lon="4.96542">
        <ele>170.29</ele>
        <time>2017-08-20T10:49:00Z</time>
      </trkpt>
      <trkpt lat="44.83034" lon="4.96518">
        <ele>170.29</ele>
        <time>2017-08-20T10:49:12Z</time>
      </trkpt>
      <trkpt lat="44.83041" lon="4.96513">
        <ele>169.81</ele>
        <time>2017-08-20T10:49:14Z</time>
      </trkpt>
      <trkpt lat="44.83108" lon="4.96457">
        <ele>170.29</ele>
        <time>2017-08-20T10:49:31Z</time>
      </trkpt>
      <trkpt lat="44.83162" lon="4.9638">
        <ele>169.81</ele>
        <time>2017-08-20T10:49:46Z</time>
      </trkpt>
      <trkpt lat="44.83185" lon="4.96348">
        <ele>168.85</ele>
        <time>2017-08-20T10:49:52Z</time>
      </trkpt>
      <trkpt lat="44.83205" lon="4.96323">
        <ele>168.85</ele>
        <time>2017-08-20T10:49:57Z</time>
      </trkpt>
      <trkpt lat="44.83209" lon="4.96318">
        <ele>168.37</ele>
        <time>2017-08-20T10:49:58Z</time>
      </trkpt>
      <trkpt lat="44.83283" lon="4.96225">
        <ele>167.89</ele>
        <time>2017-08-20T10:50:17Z</time>
      </trkpt>
      <trkpt lat="44.83348" lon="4.96128">
        <ele>167.41</ele>
        <time>2017-08-20T10:50:35Z</time>
      </trkpt>
      <trkpt lat="44.83415" lon="4.96027">
        <ele>166.93</ele>
        <time>2017-08-20T10:50:54Z</time>
      </trkpt>
      <trkpt lat="44.83477" lon="4.95953">
        <ele>165.48</ele>
        <time>2017-08-20T10:51:10Z</time>
      </trkpt>
      <trkpt lat="44.83545" lon="4.95875">
        <ele>165.48</ele>
        <time>2017-08-20T10:51:29Z</time>
      </trkpt>
      <trkpt lat="44.83552" lon="4.95867">
        <ele>165.48</ele>
        <time>2017-08-20T10:51:31Z</time>
      </trkpt>
      <trkpt lat="44.83562" lon="4.95854">
        <ele>165</ele>
        <time>2017-08-20T10:51:34Z</time>
      </trkpt>
      <trkpt lat="44.83583" lon="4.95828">
        <ele>164.04</ele>
        <time>2017-08-20T10:51:40Z</time>
      </trkpt>
      <trkpt lat="44.83586" lon="4.95824">
        <ele>164.52</ele>
        <time>2017-08-20T10:51:41Z</time>
      </trkpt>
      <trkpt lat="44.83639" lon="4.95748">
        <ele>164.52</ele>
        <time>2017-08-20T10:51:56Z</time>
      </trkpt>
      <trkpt lat="44.83699" lon="4.95675">
        <ele>164.52</ele>
        <time>2017-08-20T10:52:12Z</time>
      </trkpt>
      <trkpt lat="44.83754" lon="4.95601">
        <ele>165.48</ele>
        <time>2017-08-20T10:52:28Z</time>
      </trkpt>
      <trkpt lat="44.83764" lon="4.95589">
        <ele>165.48</ele>
        <time>2017-08-20T10:52:31Z</time>
      </trkpt>
      <trkpt lat="44.83768" lon="4.95586">
        <ele>165</ele>
        <time>2017-08-20T10:52:32Z</time>
      </trkpt>
      <trkpt lat="44.83773" lon="4.95583">
        <ele>165.48</ele>
        <time>2017-08-20T10:52:33Z</time>
      </trkpt>
      <trkpt lat="44.83805" lon="4.95567">
        <ele>165.48</ele>
        <time>2017-08-20T10:52:40Z</time>
      </trkpt>
      <trkpt lat="44.8381" lon="4.95565">
        <ele>165</ele>
        <time>2017-08-20T10:52:41Z</time>
      </trkpt>
      <trkpt lat="44.83829" lon="4.95558">
        <ele>164.52</ele>
        <time>2017-08-20T10:52:45Z</time>
      </trkpt>
      <trkpt lat="44.83842" lon="4.9555">
        <ele>165.48</ele>
        <time>2017-08-20T10:52:48Z</time>
      </trkpt>
      <trkpt lat="44.83866" lon="4.9553">
        <ele>165.48</ele>
        <time>2017-08-20T10:52:54Z</time>
      </trkpt>
      <trkpt lat="44.83875" lon="4.95524">
        <ele>165.48</ele>
        <time>2017-08-20T10:52:56Z</time>
      </trkpt>
      <trkpt lat="44.83877" lon="4.95521">
        <ele>165</ele>
        <time>2017-08-20T10:52:57Z</time>
      </trkpt>
      <trkpt lat="44.83902" lon="4.95494">
        <ele>165</ele>
        <time>2017-08-20T10:53:06Z</time>
      </trkpt>
      <trkpt lat="44.83938" lon="4.95454">
        <ele>167.41</ele>
        <time>2017-08-20T10:53:18Z</time>
      </trkpt>
      <trkpt lat="44.8395" lon="4.95444">
        <ele>165.48</ele>
        <time>2017-08-20T10:53:21Z</time>
      </trkpt>
      <trkpt lat="44.83977" lon="4.95424">
        <ele>165.96</ele>
        <time>2017-08-20T10:53:27Z</time>
      </trkpt>
      <trkpt lat="44.83981" lon="4.95418">
        <ele>165.96</ele>
        <time>2017-08-20T10:53:28Z</time>
      </trkpt>
      <trkpt lat="44.84001" lon="4.9538">
        <ele>164.52</ele>
        <time>2017-08-20T10:53:34Z</time>
      </trkpt>
      <trkpt lat="44.84039" lon="4.9528">
        <ele>161.64</ele>
        <time>2017-08-20T10:53:46Z</time>
      </trkpt>
      <trkpt lat="44.8406" lon="4.95222">
        <ele>157.79</ele>
        <time>2017-08-20T10:53:53Z</time>
      </trkpt>
      <trkpt lat="44.84063" lon="4.95214">
        <ele>161.64</ele>
        <time>2017-08-20T10:53:54Z</time>
      </trkpt>
      <trkpt lat="44.84083" lon="4.95163">
        <ele>158.27</ele>
        <time>2017-08-20T10:54:01Z</time>
      </trkpt>
      <trkpt lat="44.84134" lon="4.9503">
        <ele>157.31</ele>
        <time>2017-08-20T10:54:17Z</time>
      </trkpt>
      <trkpt lat="44.84199" lon="4.94942">
        <ele>154.91</ele>
        <time>2017-08-20T10:54:30Z</time>
      </trkpt>
      <trkpt lat="44.84275" lon="4.94841">
        <ele>152.03</ele>
        <time>2017-08-20T10:54:45Z</time>
      </trkpt>
      <trkpt lat="44.84334" lon="4.94745">
        <ele>152.51</ele>
        <time>2017-08-20T10:54:59Z</time>
      </trkpt>
      <trkpt lat="44.84352" lon="4.94699">
        <ele>151.06</ele>
        <time>2017-08-20T10:55:05Z</time>
      </trkpt>
      <trkpt lat="44.84367" lon="4.94627">
        <ele>150.1</ele>
        <time>2017-08-20T10:55:13Z</time>
      </trkpt>
      <trkpt lat="44.84394" lon="4.94563">
        <ele>148.66</ele>
        <time>2017-08-20T10:55:21Z</time>
      </trkpt>
      <trkpt lat="44.84399" lon="4.94558">
        <ele>148.66</ele>
        <time>2017-08-20T10:55:22Z</time>
      </trkpt>
      <trkpt lat="44.84404" lon="4.94553">
        <ele>148.66</ele>
        <time>2017-08-20T10:55:23Z</time>
      </trkpt>
      <trkpt lat="44.8441" lon="4.9455">
        <ele>148.66</ele>
        <time>2017-08-20T10:55:24Z</time>
      </trkpt>
      <trkpt lat="44.84416" lon="4.94547">
        <ele>148.66</ele>
        <time>2017-08-20T10:55:25Z</time>
      </trkpt>
      <trkpt lat="44.84451" lon="4.9453">
        <ele>150.58</ele>
        <time>2017-08-20T10:55:31Z</time>
      </trkpt>
      <trkpt lat="44.84456" lon="4.94527">
        <ele>150.58</ele>
        <time>2017-08-20T10:55:32Z</time>
      </trkpt>
      <trkpt lat="44.84468" lon="4.94521">
        <ele>150.58</ele>
        <time>2017-08-20T10:55:34Z</time>
      </trkpt>
      <trkpt lat="44.84477" lon="4.94515">
        <ele>151.06</ele>
        <time>2017-08-20T10:55:36Z</time>
      </trkpt>
      <trkpt lat="44.84498" lon="4.94494">
        <ele>152.51</ele>
        <time>2017-08-20T10:55:41Z</time>
      </trkpt>
      <trkpt lat="44.84501" lon="4.94489">
        <ele>151.06</ele>
        <time>2017-08-20T10:55:42Z</time>
      </trkpt>
      <trkpt lat="44.84505" lon="4.94482">
        <ele>150.1</ele>
        <time>2017-08-20T10:55:43Z</time>
      </trkpt>
      <trkpt lat="44.84511" lon="4.94468">
        <ele>149.14</ele>
        <time>2017-08-20T10:55:45Z</time>
      </trkpt>
      <trkpt lat="44.84525" lon="4.94432">
        <ele>147.7</ele>
        <time>2017-08-20T10:55:51Z</time>
      </trkpt>
      <trkpt lat="44.84527" lon="4.94427">
        <ele>147.22</ele>
        <time>2017-08-20T10:55:52Z</time>
      </trkpt>
      <trkpt lat="44.84534" lon="4.94411">
        <ele>147.7</ele>
        <time>2017-08-20T10:55:55Z</time>
      </trkpt>
      <trkpt lat="44.8454" lon="4.94401">
        <ele>148.18</ele>
        <time>2017-08-20T10:55:57Z</time>
      </trkpt>
      <trkpt lat="44.84543" lon="4.94397">
        <ele>149.14</ele>
        <time>2017-08-20T10:55:58Z</time>
      </trkpt>
      <trkpt lat="44.84547" lon="4.94393">
        <ele>148.66</ele>
        <time>2017-08-20T10:55:59Z</time>
      </trkpt>
      <trkpt lat="44.8455" lon="4.9439">
        <ele>148.66</ele>
        <time>2017-08-20T10:56:00Z</time>
      </trkpt>
      <trkpt lat="44.84554" lon="4.94386">
        <ele>149.14</ele>
        <time>2017-08-20T10:56:01Z</time>
      </trkpt>
      <trkpt lat="44.84611" lon="4.94329">
        <ele>147.7</ele>
        <time>2017-08-20T10:56:15Z</time>
      </trkpt>
      <trkpt lat="44.84679" lon="4.94255">
        <ele>145.78</ele>
        <time>2017-08-20T10:56:32Z</time>
      </trkpt>
      <trkpt lat="44.84703" lon="4.9423">
        <ele>146.74</ele>
        <time>2017-08-20T10:56:38Z</time>
      </trkpt>
      <trkpt lat="44.84706" lon="4.94224">
        <ele>147.22</ele>
        <time>2017-08-20T10:56:39Z</time>
      </trkpt>
      <trkpt lat="44.84708" lon="4.94217">
        <ele>147.22</ele>
        <time>2017-08-20T10:56:40Z</time>
      </trkpt>
      <trkpt lat="44.84708" lon="4.9421">
        <ele>147.22</ele>
        <time>2017-08-20T10:56:41Z</time>
      </trkpt>
      <trkpt lat="44.84707" lon="4.94202">
        <ele>147.22</ele>
        <time>2017-08-20T10:56:42Z</time>
      </trkpt>
      <trkpt lat="44.84704" lon="4.94196">
        <ele>146.74</ele>
        <time>2017-08-20T10:56:43Z</time>
      </trkpt>
      <trkpt lat="44.847" lon="4.94189">
        <ele>146.26</ele>
        <time>2017-08-20T10:56:44Z</time>
      </trkpt>
      <trkpt lat="44.84651" lon="4.94097">
        <ele>145.78</ele>
        <time>2017-08-20T10:56:57Z</time>
      </trkpt>
      <trkpt lat="44.84583" lon="4.93972">
        <ele>145.3</ele>
        <time>2017-08-20T10:57:14Z</time>
      </trkpt>
      <trkpt lat="44.84569" lon="4.93943">
        <ele>145.3</ele>
        <time>2017-08-20T10:57:18Z</time>
      </trkpt>
      <trkpt lat="44.84568" lon="4.93935">
        <ele>145.78</ele>
        <time>2017-08-20T10:57:19Z</time>
      </trkpt>
      <trkpt lat="44.84568" lon="4.93928">
        <ele>146.74</ele>
        <time>2017-08-20T10:57:20Z</time>
      </trkpt>
      <trkpt lat="44.8457" lon="4.93921">
        <ele>147.22</ele>
        <time>2017-08-20T10:57:21Z</time>
      </trkpt>
      <trkpt lat="44.84573" lon="4.93915">
        <ele>146.74</ele>
        <time>2017-08-20T10:57:22Z</time>
      </trkpt>
      <trkpt lat="44.84576" lon="4.9391">
        <ele>146.26</ele>
        <time>2017-08-20T10:57:23Z</time>
      </trkpt>
      <trkpt lat="44.84587" lon="4.9389">
        <ele>147.7</ele>
        <time>2017-08-20T10:57:27Z</time>
      </trkpt>
      <trkpt lat="44.84623" lon="4.93831">
        <ele>148.66</ele>
        <time>2017-08-20T10:57:41Z</time>
      </trkpt>
      <trkpt lat="44.84626" lon="4.93829">
        <ele>148.18</ele>
        <time>2017-08-20T10:57:42Z</time>
      </trkpt>
      <trkpt lat="44.8463" lon="4.93827">
        <ele>148.66</ele>
        <time>2017-08-20T10:57:43Z</time>
      </trkpt>
      <trkpt lat="44.84634" lon="4.93825">
        <ele>148.66</ele>
        <time>2017-08-20T10:57:44Z</time>
      </trkpt>
      <trkpt lat="44.8465" lon="4.93816">
        <ele>147.22</ele>
        <time>2017-08-20T10:57:48Z</time>
      </trkpt>
      <trkpt lat="44.84654" lon="4.93815">
        <ele>147.22</ele>
        <time>2017-08-20T10:57:49Z</time>
      </trkpt>
      <trkpt lat="44.8472" lon="4.93768">
        <ele>146.74</ele>
        <time>2017-08-20T10:58:02Z</time>
      </trkpt>
      <trkpt lat="44.84732" lon="4.93764">
        <ele>147.22</ele>
        <time>2017-08-20T10:58:04Z</time>
      </trkpt>
      <trkpt lat="44.84775" lon="4.93743">
        <ele>146.74</ele>
        <time>2017-08-20T10:58:12Z</time>
      </trkpt>
      <trkpt lat="44.84819" lon="4.93702">
        <ele>145.78</ele>
        <time>2017-08-20T10:58:21Z</time>
      </trkpt>
      <trkpt lat="44.84825" lon="4.93699">
        <ele>145.78</ele>
        <time>2017-08-20T10:58:22Z</time>
      </trkpt>
      <trkpt lat="44.84837" lon="4.93693">
        <ele>145.78</ele>
        <time>2017-08-20T10:58:24Z</time>
      </trkpt>
      <trkpt lat="44.84926" lon="4.93665">
        <ele>141.93</ele>
        <time>2017-08-20T10:58:38Z</time>
      </trkpt>
      <trkpt lat="44.84956" lon="4.93654">
        <ele>145.3</ele>
        <time>2017-08-20T10:58:43Z</time>
      </trkpt>
      <trkpt lat="44.84974" lon="4.93646">
        <ele>143.85</ele>
        <time>2017-08-20T10:58:46Z</time>
      </trkpt>
      <trkpt lat="44.85041" lon="4.93582">
        <ele>141.45</ele>
        <time>2017-08-20T10:58:59Z</time>
      </trkpt>
      <trkpt lat="44.85054" lon="4.93565">
        <ele>140.97</ele>
        <time>2017-08-20T10:59:02Z</time>
      </trkpt>
      <trkpt lat="44.85084" lon="4.93486">
        <ele>141.45</ele>
        <time>2017-08-20T10:59:13Z</time>
      </trkpt>
      <trkpt lat="44.85088" lon="4.9348">
        <ele>141.45</ele>
        <time>2017-08-20T10:59:14Z</time>
      </trkpt>
      <trkpt lat="44.85093" lon="4.93477">
        <ele>141.45</ele>
        <time>2017-08-20T10:59:15Z</time>
      </trkpt>
      <trkpt lat="44.85099" lon="4.93474">
        <ele>140.97</ele>
        <time>2017-08-20T10:59:16Z</time>
      </trkpt>
      <trkpt lat="44.85105" lon="4.93473">
        <ele>140.97</ele>
        <time>2017-08-20T10:59:17Z</time>
      </trkpt>
      <trkpt lat="44.85111" lon="4.93471">
        <ele>140.97</ele>
        <time>2017-08-20T10:59:18Z</time>
      </trkpt>
      <trkpt lat="44.85116" lon="4.93468">
        <ele>140.97</ele>
        <time>2017-08-20T10:59:19Z</time>
      </trkpt>
      <trkpt lat="44.85131" lon="4.93455">
        <ele>140.49</ele>
        <time>2017-08-20T10:59:22Z</time>
      </trkpt>
      <trkpt lat="44.85135" lon="4.9345">
        <ele>140.49</ele>
        <time>2017-08-20T10:59:23Z</time>
      </trkpt>
      <trkpt lat="44.85138" lon="4.93444">
        <ele>140.01</ele>
        <time>2017-08-20T10:59:24Z</time>
      </trkpt>
      <trkpt lat="44.85141" lon="4.93437">
        <ele>140.49</ele>
        <time>2017-08-20T10:59:25Z</time>
      </trkpt>
      <trkpt lat="44.85143" lon="4.93429">
        <ele>140.49</ele>
        <time>2017-08-20T10:59:26Z</time>
      </trkpt>
      <trkpt lat="44.85145" lon="4.93421">
        <ele>140.49</ele>
        <time>2017-08-20T10:59:27Z</time>
      </trkpt>
      <trkpt lat="44.85146" lon="4.93413">
        <ele>140.49</ele>
        <time>2017-08-20T10:59:28Z</time>
      </trkpt>
      <trkpt lat="44.85146" lon="4.93405">
        <ele>140.49</ele>
        <time>2017-08-20T10:59:29Z</time>
      </trkpt>
      <trkpt lat="44.85146" lon="4.93396">
        <ele>140.49</ele>
        <time>2017-08-20T10:59:30Z</time>
      </trkpt>
      <trkpt lat="44.85145" lon="4.93388">
        <ele>140.49</ele>
        <time>2017-08-20T10:59:31Z</time>
      </trkpt>
      <trkpt lat="44.85133" lon="4.93298">
        <ele>140.49</ele>
        <time>2017-08-20T10:59:42Z</time>
      </trkpt>
      <trkpt lat="44.85133" lon="4.9329">
        <ele>140.49</ele>
        <time>2017-08-20T10:59:43Z</time>
      </trkpt>
      <trkpt lat="44.85134" lon="4.93282">
        <ele>140.49</ele>
        <time>2017-08-20T10:59:44Z</time>
      </trkpt>
      <trkpt lat="44.85135" lon="4.93274">
        <ele>140.49</ele>
        <time>2017-08-20T10:59:45Z</time>
      </trkpt>
      <trkpt lat="44.85136" lon="4.93266">
        <ele>140.49</ele>
        <time>2017-08-20T10:59:46Z</time>
      </trkpt>
      <trkpt lat="44.85143" lon="4.93133">
        <ele>140.01</ele>
        <time>2017-08-20T11:00:02Z</time>
      </trkpt>
      <trkpt lat="44.85144" lon="4.9312">
        <ele>140.01</ele>
        <time>2017-08-20T11:00:04Z</time>
      </trkpt>
      <trkpt lat="44.85136" lon="4.93051">
        <ele>140.01</ele>
        <time>2017-08-20T11:00:14Z</time>
      </trkpt>
      <trkpt lat="44.85134" lon="4.93014">
        <ele>140.97</ele>
        <time>2017-08-20T11:00:19Z</time>
      </trkpt>
      <trkpt lat="44.85132" lon="4.93008">
        <ele>140.97</ele>
        <time>2017-08-20T11:00:20Z</time>
      </trkpt>
      <trkpt lat="44.85128" lon="4.93003">
        <ele>140.97</ele>
        <time>2017-08-20T11:00:21Z</time>
      </trkpt>
      <trkpt lat="44.85124" lon="4.93">
        <ele>140.97</ele>
        <time>2017-08-20T11:00:22Z</time>
      </trkpt>
      <trkpt lat="44.8512" lon="4.93001">
        <ele>141.45</ele>
        <time>2017-08-20T11:00:23Z</time>
      </trkpt>
      <trkpt lat="44.85117" lon="4.93004">
        <ele>141.45</ele>
        <time>2017-08-20T11:00:24Z</time>
      </trkpt>
      <trkpt lat="44.85115" lon="4.93009">
        <ele>141.93</ele>
        <time>2017-08-20T11:00:25Z</time>
      </trkpt>
      <trkpt lat="44.85114" lon="4.93014">
        <ele>141.93</ele>
        <time>2017-08-20T11:00:26Z</time>
      </trkpt>
      <trkpt lat="44.85114" lon="4.9302">
        <ele>141.93</ele>
        <time>2017-08-20T11:00:27Z</time>
      </trkpt>
      <trkpt lat="44.85113" lon="4.93025">
        <ele>141.93</ele>
        <time>2017-08-20T11:00:28Z</time>
      </trkpt>
      <trkpt lat="44.85112" lon="4.93031">
        <ele>142.41</ele>
        <time>2017-08-20T11:00:29Z</time>
      </trkpt>
      <trkpt lat="44.85105" lon="4.93052">
        <ele>142.41</ele>
        <time>2017-08-20T11:00:33Z</time>
      </trkpt>
      <trkpt lat="44.85103" lon="4.93057">
        <ele>142.89</ele>
        <time>2017-08-20T11:00:34Z</time>
      </trkpt>
      <trkpt lat="44.85101" lon="4.93063">
        <ele>142.89</ele>
        <time>2017-08-20T11:00:35Z</time>
      </trkpt>
      <trkpt lat="44.851" lon="4.93068">
        <ele>143.37</ele>
        <time>2017-08-20T11:00:36Z</time>
      </trkpt>
      <trkpt lat="44.85097" lon="4.93073">
        <ele>143.37</ele>
        <time>2017-08-20T11:00:37Z</time>
      </trkpt>
      <trkpt lat="44.85095" lon="4.93076">
        <ele>143.37</ele>
        <time>2017-08-20T11:00:38Z</time>
      </trkpt>
      <trkpt lat="44.85091" lon="4.93079">
        <ele>143.85</ele>
        <time>2017-08-20T11:00:39Z</time>
      </trkpt>
      <trkpt lat="44.85081" lon="4.93085">
        <ele>144.34</ele>
        <time>2017-08-20T11:00:46Z</time>
      </trkpt>
      <trkpt lat="44.8508" lon="4.93086">
        <ele>144.34</ele>
        <time>2017-08-20T11:00:47Z</time>
      </trkpt>
      <trkpt lat="44.85079" lon="4.93087">
        <ele>144.82</ele>
        <time>2017-08-20T11:00:48Z</time>
      </trkpt>
      <trkpt lat="44.85078" lon="4.93089">
        <ele>144.82</ele>
        <time>2017-08-20T11:00:49Z</time>
      </trkpt>
      <trkpt lat="44.85077" lon="4.9309">
        <ele>144.82</ele>
        <time>2017-08-20T11:00:50Z</time>
      </trkpt>
      <trkpt lat="44.85076" lon="4.93092">
        <ele>145.3</ele>
        <time>2017-08-20T11:00:52Z</time>
      </trkpt>
      <trkpt lat="44.85065" lon="4.93109">
        <ele>147.22</ele>
        <time>2017-08-20T11:01:06Z</time>
      </trkpt>
      <trkpt lat="44.8506" lon="4.93116">
        <ele>147.22</ele>
        <time>2017-08-20T11:01:11Z</time>
      </trkpt>
      <trkpt lat="44.85054" lon="4.93119">
        <ele>147.7</ele>
        <time>2017-08-20T11:01:15Z</time>
      </trkpt>
      <trkpt lat="44.85034" lon="4.93111">
        <ele>147.7</ele>
        <time>2017-08-20T11:01:30Z</time>
      </trkpt>
      <trkpt lat="44.85032" lon="4.93112">
        <ele>148.18</ele>
        <time>2017-08-20T11:01:31Z</time>
      </trkpt>
      <trkpt lat="44.85028" lon="4.93119">
        <ele>149.14</ele>
        <time>2017-08-20T11:01:35Z</time>
      </trkpt>
      <trkpt lat="44.85028" lon="4.93139">
        <ele>150.1</ele>
        <time>2017-08-20T11:01:49Z</time>
      </trkpt>
      <trkpt lat="44.85028" lon="4.93139">
        <ele>150.58</ele>
        <time>2017-08-20T11:02:16Z</time>
      </trkpt>
      <trkpt lat="44.85028" lon="4.93139">
        <ele>150.58</ele>
        <time>2017-08-20T11:02:17Z</time>
      </trkpt>
      <trkpt lat="44.85032" lon="4.93143">
        <ele>150.1</ele>
        <time>2017-08-20T11:02:19Z</time>
      </trkpt>
      <trkpt lat="44.8505" lon="4.93132">
        <ele>149.62</ele>
        <time>2017-08-20T11:02:27Z</time>
      </trkpt>
      <trkpt lat="44.85053" lon="4.93128">
        <ele>149.14</ele>
        <time>2017-08-20T11:02:28Z</time>
      </trkpt>
      <trkpt lat="44.85055" lon="4.93123">
        <ele>149.14</ele>
        <time>2017-08-20T11:02:29Z</time>
      </trkpt>
      <trkpt lat="44.85065" lon="4.93107">
        <ele>147.7</ele>
        <time>2017-08-20T11:02:33Z</time>
      </trkpt>
      <trkpt lat="44.85082" lon="4.93085">
        <ele>144.82</ele>
        <time>2017-08-20T11:02:39Z</time>
      </trkpt>
      <trkpt lat="44.85086" lon="4.93082">
        <ele>144.34</ele>
        <time>2017-08-20T11:02:40Z</time>
      </trkpt>
      <trkpt lat="44.85095" lon="4.93076">
        <ele>144.34</ele>
        <time>2017-08-20T11:02:42Z</time>
      </trkpt>
      <trkpt lat="44.85099" lon="4.93071">
        <ele>143.85</ele>
        <time>2017-08-20T11:02:43Z</time>
      </trkpt>
      <trkpt lat="44.85102" lon="4.93064">
        <ele>143.85</ele>
        <time>2017-08-20T11:02:44Z</time>
      </trkpt>
      <trkpt lat="44.85104" lon="4.93057">
        <ele>143.37</ele>
        <time>2017-08-20T11:02:45Z</time>
      </trkpt>
      <trkpt lat="44.85106" lon="4.9305">
        <ele>142.89</ele>
        <time>2017-08-20T11:02:46Z</time>
      </trkpt>
      <trkpt lat="44.85115" lon="4.93021">
        <ele>142.41</ele>
        <time>2017-08-20T11:02:50Z</time>
      </trkpt>
      <trkpt lat="44.85115" lon="4.93014">
        <ele>142.41</ele>
        <time>2017-08-20T11:02:51Z</time>
      </trkpt>
      <trkpt lat="44.85115" lon="4.93007">
        <ele>142.41</ele>
        <time>2017-08-20T11:02:52Z</time>
      </trkpt>
      <trkpt lat="44.85118" lon="4.93001">
        <ele>141.93</ele>
        <time>2017-08-20T11:02:53Z</time>
      </trkpt>
      <trkpt lat="44.85124" lon="4.92998">
        <ele>141.45</ele>
        <time>2017-08-20T11:02:54Z</time>
      </trkpt>
      <trkpt lat="44.85129" lon="4.92996">
        <ele>141.45</ele>
        <time>2017-08-20T11:02:55Z</time>
      </trkpt>
      <trkpt lat="44.85135" lon="4.92993">
        <ele>141.45</ele>
        <time>2017-08-20T11:02:56Z</time>
      </trkpt>
      <trkpt lat="44.85138" lon="4.92987">
        <ele>141.45</ele>
        <time>2017-08-20T11:02:57Z</time>
      </trkpt>
      <trkpt lat="44.85139" lon="4.92979">
        <ele>141.45</ele>
        <time>2017-08-20T11:02:58Z</time>
      </trkpt>
      <trkpt lat="44.85138" lon="4.92971">
        <ele>141.45</ele>
        <time>2017-08-20T11:02:59Z</time>
      </trkpt>
      <trkpt lat="44.85137" lon="4.92963">
        <ele>141.93</ele>
        <time>2017-08-20T11:03:00Z</time>
      </trkpt>
      <trkpt lat="44.85137" lon="4.92955">
        <ele>141.93</ele>
        <time>2017-08-20T11:03:01Z</time>
      </trkpt>
      <trkpt lat="44.85138" lon="4.92947">
        <ele>142.41</ele>
        <time>2017-08-20T11:03:02Z</time>
      </trkpt>
      <trkpt lat="44.85155" lon="4.92872">
        <ele>142.41</ele>
        <time>2017-08-20T11:03:12Z</time>
      </trkpt>
      <trkpt lat="44.85158" lon="4.92865">
        <ele>141.93</ele>
        <time>2017-08-20T11:03:13Z</time>
      </trkpt>
      <trkpt lat="44.85161" lon="4.92859">
        <ele>141.93</ele>
        <time>2017-08-20T11:03:14Z</time>
      </trkpt>
      <trkpt lat="44.85165" lon="4.92852">
        <ele>141.93</ele>
        <time>2017-08-20T11:03:15Z</time>
      </trkpt>
      <trkpt lat="44.85169" lon="4.92846">
        <ele>141.93</ele>
        <time>2017-08-20T11:03:16Z</time>
      </trkpt>
      <trkpt lat="44.85202" lon="4.92799">
        <ele>141.93</ele>
        <time>2017-08-20T11:03:24Z</time>
      </trkpt>
      <trkpt lat="44.85226" lon="4.92763">
        <ele>140.49</ele>
        <time>2017-08-20T11:03:30Z</time>
      </trkpt>
      <trkpt lat="44.85229" lon="4.92755">
        <ele>140.01</ele>
        <time>2017-08-20T11:03:31Z</time>
      </trkpt>
      <trkpt lat="44.85248" lon="4.92658">
        <ele>140.97</ele>
        <time>2017-08-20T11:03:42Z</time>
      </trkpt>
      <trkpt lat="44.85265" lon="4.92543">
        <ele>140.49</ele>
        <time>2017-08-20T11:03:55Z</time>
      </trkpt>
      <trkpt lat="44.85268" lon="4.92536">
        <ele>140.97</ele>
        <time>2017-08-20T11:03:56Z</time>
      </trkpt>
      <trkpt lat="44.85272" lon="4.92529">
        <ele>140.97</ele>
        <time>2017-08-20T11:03:57Z</time>
      </trkpt>
      <trkpt lat="44.85275" lon="4.92524">
        <ele>141.93</ele>
        <time>2017-08-20T11:03:58Z</time>
      </trkpt>
      <trkpt lat="44.85279" lon="4.92519">
        <ele>142.89</ele>
        <time>2017-08-20T11:03:59Z</time>
      </trkpt>
      <trkpt lat="44.85284" lon="4.92515">
        <ele>142.89</ele>
        <time>2017-08-20T11:04:00Z</time>
      </trkpt>
      <trkpt lat="44.85307" lon="4.92491">
        <ele>142.89</ele>
        <time>2017-08-20T11:04:06Z</time>
      </trkpt>
      <trkpt lat="44.85311" lon="4.92487">
        <ele>142.41</ele>
        <time>2017-08-20T11:04:07Z</time>
      </trkpt>
      <trkpt lat="44.85329" lon="4.92473">
        <ele>142.89</ele>
        <time>2017-08-20T11:04:12Z</time>
      </trkpt>
      <trkpt lat="44.85333" lon="4.9247">
        <ele>142.89</ele>
        <time>2017-08-20T11:04:13Z</time>
      </trkpt>
      <trkpt lat="44.85348" lon="4.92457">
        <ele>143.85</ele>
        <time>2017-08-20T11:04:17Z</time>
      </trkpt>
      <trkpt lat="44.85352" lon="4.92453">
        <ele>143.85</ele>
        <time>2017-08-20T11:04:18Z</time>
      </trkpt>
      <trkpt lat="44.85356" lon="4.9245">
        <ele>143.85</ele>
        <time>2017-08-20T11:04:19Z</time>
      </trkpt>
      <trkpt lat="44.85385" lon="4.92426">
        <ele>143.85</ele>
        <time>2017-08-20T11:04:26Z</time>
      </trkpt>
      <trkpt lat="44.85403" lon="4.9241">
        <ele>143.37</ele>
        <time>2017-08-20T11:04:30Z</time>
      </trkpt>
      <trkpt lat="44.85481" lon="4.92347">
        <ele>143.37</ele>
        <time>2017-08-20T11:04:46Z</time>
      </trkpt>
      <trkpt lat="44.85485" lon="4.92342">
        <ele>143.37</ele>
        <time>2017-08-20T11:04:47Z</time>
      </trkpt>
      <trkpt lat="44.85501" lon="4.92315">
        <ele>143.37</ele>
        <time>2017-08-20T11:04:51Z</time>
      </trkpt>
      <trkpt lat="44.85504" lon="4.92307">
        <ele>142.41</ele>
        <time>2017-08-20T11:04:52Z</time>
      </trkpt>
      <trkpt lat="44.85548" lon="4.92143">
        <ele>140.01</ele>
        <time>2017-08-20T11:05:10Z</time>
      </trkpt>
      <trkpt lat="44.85586" lon="4.9206">
        <ele>140.49</ele>
        <time>2017-08-20T11:05:23Z</time>
      </trkpt>
      <trkpt lat="44.85624" lon="4.91984">
        <ele>141.93</ele>
        <time>2017-08-20T11:05:39Z</time>
      </trkpt>
      <trkpt lat="44.85661" lon="4.9192">
        <ele>143.37</ele>
        <time>2017-08-20T11:05:54Z</time>
      </trkpt>
      <trkpt lat="44.85685" lon="4.9186">
        <ele>144.82</ele>
        <time>2017-08-20T11:06:06Z</time>
      </trkpt>
      <trkpt lat="44.85701" lon="4.91763">
        <ele>145.3</ele>
        <time>2017-08-20T11:06:21Z</time>
      </trkpt>
      <trkpt lat="44.85724" lon="4.91648">
        <ele>144.82</ele>
        <time>2017-08-20T11:06:37Z</time>
      </trkpt>
      <trkpt lat="44.85747" lon="4.91529">
        <ele>144.34</ele>
        <time>2017-08-20T11:06:52Z</time>
      </trkpt>
      <trkpt lat="44.8577" lon="4.91397">
        <ele>143.85</ele>
        <time>2017-08-20T11:07:09Z</time>
      </trkpt>
      <trkpt lat="44.85776" lon="4.91296">
        <ele>141.93</ele>
        <time>2017-08-20T11:07:22Z</time>
      </trkpt>
      <trkpt lat="44.85779" lon="4.91174">
        <ele>140.49</ele>
        <time>2017-08-20T11:07:37Z</time>
      </trkpt>
      <trkpt lat="44.85772" lon="4.9105">
        <ele>140.01</ele>
        <time>2017-08-20T11:07:51Z</time>
      </trkpt>
      <trkpt lat="44.85769" lon="4.91042">
        <ele>140.01</ele>
        <time>2017-08-20T11:07:52Z</time>
      </trkpt>
      <trkpt lat="44.85767" lon="4.91034">
        <ele>140.01</ele>
        <time>2017-08-20T11:07:53Z</time>
      </trkpt>
      <trkpt lat="44.85764" lon="4.91026">
        <ele>139.05</ele>
        <time>2017-08-20T11:07:54Z</time>
      </trkpt>
      <trkpt lat="44.85762" lon="4.91017">
        <ele>139.05</ele>
        <time>2017-08-20T11:07:55Z</time>
      </trkpt>
      <trkpt lat="44.85761" lon="4.91008">
        <ele>138.57</ele>
        <time>2017-08-20T11:07:56Z</time>
      </trkpt>
      <trkpt lat="44.85759" lon="4.91">
        <ele>138.57</ele>
        <time>2017-08-20T11:07:57Z</time>
      </trkpt>
      <trkpt lat="44.85755" lon="4.90993">
        <ele>139.05</ele>
        <time>2017-08-20T11:07:58Z</time>
      </trkpt>
      <trkpt lat="44.8575" lon="4.90988">
        <ele>139.05</ele>
        <time>2017-08-20T11:07:59Z</time>
      </trkpt>
      <trkpt lat="44.85744" lon="4.90988">
        <ele>138.57</ele>
        <time>2017-08-20T11:08:00Z</time>
      </trkpt>
      <trkpt lat="44.85738" lon="4.90992">
        <ele>138.57</ele>
        <time>2017-08-20T11:08:01Z</time>
      </trkpt>
      <trkpt lat="44.85734" lon="4.90999">
        <ele>138.57</ele>
        <time>2017-08-20T11:08:02Z</time>
      </trkpt>
      <trkpt lat="44.85731" lon="4.91007">
        <ele>138.57</ele>
        <time>2017-08-20T11:08:03Z</time>
      </trkpt>
      <trkpt lat="44.85728" lon="4.91015">
        <ele>138.57</ele>
        <time>2017-08-20T11:08:04Z</time>
      </trkpt>
      <trkpt lat="44.85725" lon="4.91023">
        <ele>138.57</ele>
        <time>2017-08-20T11:08:05Z</time>
      </trkpt>
      <trkpt lat="44.85721" lon="4.91029">
        <ele>138.57</ele>
        <time>2017-08-20T11:08:06Z</time>
      </trkpt>
      <trkpt lat="44.85717" lon="4.91036">
        <ele>138.09</ele>
        <time>2017-08-20T11:08:07Z</time>
      </trkpt>
      <trkpt lat="44.85713" lon="4.91043">
        <ele>138.09</ele>
        <time>2017-08-20T11:08:08Z</time>
      </trkpt>
      <trkpt lat="44.85712" lon="4.91051">
        <ele>139.05</ele>
        <time>2017-08-20T11:08:09Z</time>
      </trkpt>
      <trkpt lat="44.85713" lon="4.91059">
        <ele>139.05</ele>
        <time>2017-08-20T11:08:10Z</time>
      </trkpt>
      <trkpt lat="44.85716" lon="4.91065">
        <ele>139.53</ele>
        <time>2017-08-20T11:08:11Z</time>
      </trkpt>
      <trkpt lat="44.85721" lon="4.91068">
        <ele>140.01</ele>
        <time>2017-08-20T11:08:12Z</time>
      </trkpt>
      <trkpt lat="44.85726" lon="4.91068">
        <ele>140.01</ele>
        <time>2017-08-20T11:08:13Z</time>
      </trkpt>
      <trkpt lat="44.85731" lon="4.91068">
        <ele>140.01</ele>
        <time>2017-08-20T11:08:14Z</time>
      </trkpt>
      <trkpt lat="44.85736" lon="4.91069">
        <ele>140.49</ele>
        <time>2017-08-20T11:08:15Z</time>
      </trkpt>
      <trkpt lat="44.85741" lon="4.91072">
        <ele>140.49</ele>
        <time>2017-08-20T11:08:16Z</time>
      </trkpt>
      <trkpt lat="44.85744" lon="4.91078">
        <ele>140.49</ele>
        <time>2017-08-20T11:08:17Z</time>
      </trkpt>
      <trkpt lat="44.85744" lon="4.91085">
        <ele>140.97</ele>
        <time>2017-08-20T11:08:18Z</time>
      </trkpt>
      <trkpt lat="44.85743" lon="4.91092">
        <ele>141.45</ele>
        <time>2017-08-20T11:08:19Z</time>
      </trkpt>
      <trkpt lat="44.85742" lon="4.911">
        <ele>140.97</ele>
        <time>2017-08-20T11:08:20Z</time>
      </trkpt>
      <trkpt lat="44.85742" lon="4.91107">
        <ele>140.49</ele>
        <time>2017-08-20T11:08:21Z</time>
      </trkpt>
      <trkpt lat="44.85742" lon="4.91115">
        <ele>140.49</ele>
        <time>2017-08-20T11:08:22Z</time>
      </trkpt>
      <trkpt lat="44.85747" lon="4.91168">
        <ele>140.01</ele>
        <time>2017-08-20T11:08:30Z</time>
      </trkpt>
      <trkpt lat="44.85746" lon="4.91175">
        <ele>140.01</ele>
        <time>2017-08-20T11:08:31Z</time>
      </trkpt>
      <trkpt lat="44.85743" lon="4.91179">
        <ele>139.53</ele>
        <time>2017-08-20T11:08:32Z</time>
      </trkpt>
      <trkpt lat="44.85739" lon="4.91181">
        <ele>139.53</ele>
        <time>2017-08-20T11:08:33Z</time>
      </trkpt>
      <trkpt lat="44.85734" lon="4.91182">
        <ele>140.49</ele>
        <time>2017-08-20T11:08:34Z</time>
      </trkpt>
      <trkpt lat="44.85729" lon="4.91181">
        <ele>140.49</ele>
        <time>2017-08-20T11:08:35Z</time>
      </trkpt>
      <trkpt lat="44.8572" lon="4.9118">
        <ele>140.97</ele>
        <time>2017-08-20T11:08:37Z</time>
      </trkpt>
      <trkpt lat="44.85716" lon="4.91179">
        <ele>141.45</ele>
        <time>2017-08-20T11:08:38Z</time>
      </trkpt>
      <trkpt lat="44.85705" lon="4.91175">
        <ele>141.45</ele>
        <time>2017-08-20T11:08:46Z</time>
      </trkpt>
      <trkpt lat="44.85705" lon="4.91175">
        <ele>140.97</ele>
        <time>2017-08-20T11:09:07Z</time>
      </trkpt>
    </trkseg>
  </trk>
</gpx>